<?xml version="1.0" encoding="UTF-8" standalone="no" ?>
<gpx xmlns="http://www.topografix.com/GPX/1/1" xmlns:xsi="http://www.w3.org/2001/XMLSchema-instance" xsi:schemaLocation="http://www.topografix.com/GPX/1/1 http://www.topografix.com/GPX/1/1/gpx.xsd" version="1.1" creator="VisuGPX - https://www.visugpx.com">
  <metadata>
    <name>2012-10-12 Roc Marathon</name>
    <desc><![CDATA[attention ce parcours peut emprunter des chemins privés!]]></desc>
  </metadata>
  <trk>
    <name><![CDATA[Roc Marathon]]></name>
    <trkseg>
      <trkpt lat="43.41824" lon="6.73711">
        <ele>1.3999999761581</ele>
        <time>2012-10-12T06:45:36Z</time>
      </trkpt>
      <trkpt lat="43.41824" lon="6.73711">
        <ele>1.3999999761581</ele>
        <time>2012-10-12T06:45:37Z</time>
      </trkpt>
      <trkpt lat="43.41813" lon="6.73707">
        <ele>1.2000000476837</ele>
        <time>2012-10-12T06:45:41Z</time>
      </trkpt>
      <trkpt lat="43.41801" lon="6.73704">
        <ele>1.2000000476837</ele>
        <time>2012-10-12T06:45:43Z</time>
      </trkpt>
      <trkpt lat="43.41787" lon="6.73701">
        <ele>1</ele>
        <time>2012-10-12T06:45:45Z</time>
      </trkpt>
      <trkpt lat="43.41772" lon="6.73697">
        <ele>0.80000001192093</ele>
        <time>2012-10-12T06:45:47Z</time>
      </trkpt>
      <trkpt lat="43.41756" lon="6.73692">
        <ele>0.40000000596046</ele>
        <time>2012-10-12T06:45:49Z</time>
      </trkpt>
      <trkpt lat="43.41724" lon="6.73681">
        <ele>0.40000000596046</ele>
        <time>2012-10-12T06:45:53Z</time>
      </trkpt>
      <trkpt lat="43.417" lon="6.73672">
        <ele>0.60000002384186</ele>
        <time>2012-10-12T06:45:56Z</time>
      </trkpt>
      <trkpt lat="43.41693" lon="6.73669">
        <ele>0.80000001192093</ele>
        <time>2012-10-12T06:45:57Z</time>
      </trkpt>
      <trkpt lat="43.41678" lon="6.7366">
        <ele>0.80000001192093</ele>
        <time>2012-10-12T06:45:59Z</time>
      </trkpt>
      <trkpt lat="43.41654" lon="6.73631">
        <ele>0.20000000298023</ele>
        <time>2012-10-12T06:46:03Z</time>
      </trkpt>
      <trkpt lat="43.41625" lon="6.73578">
        <ele>-1.3999999761581</ele>
        <time>2012-10-12T06:46:09Z</time>
      </trkpt>
      <trkpt lat="43.41616" lon="6.73537">
        <ele>-1.3999999761581</ele>
        <time>2012-10-12T06:46:13Z</time>
      </trkpt>
      <trkpt lat="43.41621" lon="6.73506">
        <ele>-1</ele>
        <time>2012-10-12T06:46:16Z</time>
      </trkpt>
      <trkpt lat="43.41637" lon="6.73488">
        <ele>-0.80000001192093</ele>
        <time>2012-10-12T06:46:19Z</time>
      </trkpt>
      <trkpt lat="43.41653" lon="6.73483">
        <ele>-0.60000002384186</ele>
        <time>2012-10-12T06:46:21Z</time>
      </trkpt>
      <trkpt lat="43.41739" lon="6.73464">
        <ele>-0.80000001192093</ele>
        <time>2012-10-12T06:46:32Z</time>
      </trkpt>
      <trkpt lat="43.41784" lon="6.73451">
        <ele>-0.40000000596046</ele>
        <time>2012-10-12T06:46:38Z</time>
      </trkpt>
      <trkpt lat="43.41815" lon="6.73424">
        <ele>0.20000000298023</ele>
        <time>2012-10-12T06:46:43Z</time>
      </trkpt>
      <trkpt lat="43.41829" lon="6.7339">
        <ele>0.60000002384186</ele>
        <time>2012-10-12T06:46:47Z</time>
      </trkpt>
      <trkpt lat="43.41835" lon="6.7336">
        <ele>0.20000000298023</ele>
        <time>2012-10-12T06:46:50Z</time>
      </trkpt>
      <trkpt lat="43.41833" lon="6.73299">
        <ele>1</ele>
        <time>2012-10-12T06:46:56Z</time>
      </trkpt>
      <trkpt lat="43.41814" lon="6.73243">
        <ele>0.40000000596046</ele>
        <time>2012-10-12T06:47:02Z</time>
      </trkpt>
      <trkpt lat="43.41783" lon="6.73162">
        <ele>0.80000001192093</ele>
        <time>2012-10-12T06:47:11Z</time>
      </trkpt>
      <trkpt lat="43.41753" lon="6.73083">
        <ele>-0.80000001192093</ele>
        <time>2012-10-12T06:47:20Z</time>
      </trkpt>
      <trkpt lat="43.41728" lon="6.73025">
        <ele>1.3999999761581</ele>
        <time>2012-10-12T06:47:27Z</time>
      </trkpt>
      <trkpt lat="43.41697" lon="6.72952">
        <ele>1.7999999523163</ele>
        <time>2012-10-12T06:47:36Z</time>
      </trkpt>
      <trkpt lat="43.41667" lon="6.72879">
        <ele>3</ele>
        <time>2012-10-12T06:47:45Z</time>
      </trkpt>
      <trkpt lat="43.41657" lon="6.72845">
        <ele>4</ele>
        <time>2012-10-12T06:47:49Z</time>
      </trkpt>
      <trkpt lat="43.41638" lon="6.72821">
        <ele>4.5999999046326</ele>
        <time>2012-10-12T06:47:53Z</time>
      </trkpt>
      <trkpt lat="43.41619" lon="6.72811">
        <ele>4.8000001907349</ele>
        <time>2012-10-12T06:47:56Z</time>
      </trkpt>
      <trkpt lat="43.41591" lon="6.72816">
        <ele>5.4000000953674</ele>
        <time>2012-10-12T06:48:00Z</time>
      </trkpt>
      <trkpt lat="43.41585" lon="6.7282">
        <ele>5.5999999046326</ele>
        <time>2012-10-12T06:48:01Z</time>
      </trkpt>
      <trkpt lat="43.41565" lon="6.72836">
        <ele>6</ele>
        <time>2012-10-12T06:48:04Z</time>
      </trkpt>
      <trkpt lat="43.4153" lon="6.72855">
        <ele>6.4000000953674</ele>
        <time>2012-10-12T06:48:09Z</time>
      </trkpt>
      <trkpt lat="43.41501" lon="6.72891">
        <ele>7.4000000953674</ele>
        <time>2012-10-12T06:48:14Z</time>
      </trkpt>
      <trkpt lat="43.41471" lon="6.72933">
        <ele>6.5999999046326</ele>
        <time>2012-10-12T06:48:20Z</time>
      </trkpt>
      <trkpt lat="43.41446" lon="6.72968">
        <ele>5.4000000953674</ele>
        <time>2012-10-12T06:48:25Z</time>
      </trkpt>
      <trkpt lat="43.41416" lon="6.73007">
        <ele>5</ele>
        <time>2012-10-12T06:48:30Z</time>
      </trkpt>
      <trkpt lat="43.41363" lon="6.73081">
        <ele>4</ele>
        <time>2012-10-12T06:48:39Z</time>
      </trkpt>
      <trkpt lat="43.41337" lon="6.73121">
        <ele>3.5999999046326</ele>
        <time>2012-10-12T06:48:44Z</time>
      </trkpt>
      <trkpt lat="43.41327" lon="6.73159">
        <ele>3</ele>
        <time>2012-10-12T06:48:48Z</time>
      </trkpt>
      <trkpt lat="43.41317" lon="6.73174">
        <ele>3.2000000476837</ele>
        <time>2012-10-12T06:48:51Z</time>
      </trkpt>
      <trkpt lat="43.41299" lon="6.73179">
        <ele>3.2000000476837</ele>
        <time>2012-10-12T06:48:54Z</time>
      </trkpt>
      <trkpt lat="43.41279" lon="6.73197">
        <ele>3.7999999523163</ele>
        <time>2012-10-12T06:48:58Z</time>
      </trkpt>
      <trkpt lat="43.41262" lon="6.73199">
        <ele>3.7999999523163</ele>
        <time>2012-10-12T06:49:01Z</time>
      </trkpt>
      <trkpt lat="43.4124" lon="6.7319">
        <ele>3.4000000953674</ele>
        <time>2012-10-12T06:49:05Z</time>
      </trkpt>
      <trkpt lat="43.41236" lon="6.73191">
        <ele>3.4000000953674</ele>
        <time>2012-10-12T06:49:06Z</time>
      </trkpt>
      <trkpt lat="43.41218" lon="6.73183">
        <ele>3</ele>
        <time>2012-10-12T06:49:11Z</time>
      </trkpt>
      <trkpt lat="43.41197" lon="6.73152">
        <ele>2.2000000476837</ele>
        <time>2012-10-12T06:49:16Z</time>
      </trkpt>
      <trkpt lat="43.41184" lon="6.73134">
        <ele>2.2000000476837</ele>
        <time>2012-10-12T06:49:19Z</time>
      </trkpt>
      <trkpt lat="43.4118" lon="6.73106">
        <ele>2</ele>
        <time>2012-10-12T06:49:23Z</time>
      </trkpt>
      <trkpt lat="43.41189" lon="6.73085">
        <ele>2</ele>
        <time>2012-10-12T06:49:26Z</time>
      </trkpt>
      <trkpt lat="43.41225" lon="6.73036">
        <ele>2.5999999046326</ele>
        <time>2012-10-12T06:49:33Z</time>
      </trkpt>
      <trkpt lat="43.41248" lon="6.73007">
        <ele>3</ele>
        <time>2012-10-12T06:49:37Z</time>
      </trkpt>
      <trkpt lat="43.41258" lon="6.72979">
        <ele>3.2000000476837</ele>
        <time>2012-10-12T06:49:41Z</time>
      </trkpt>
      <trkpt lat="43.4125" lon="6.72957">
        <ele>3.5999999046326</ele>
        <time>2012-10-12T06:49:44Z</time>
      </trkpt>
      <trkpt lat="43.41249" lon="6.72949">
        <ele>3.5999999046326</ele>
        <time>2012-10-12T06:49:45Z</time>
      </trkpt>
      <trkpt lat="43.41244" lon="6.72901">
        <ele>4.1999998092651</ele>
        <time>2012-10-12T06:49:50Z</time>
      </trkpt>
      <trkpt lat="43.41228" lon="6.72866">
        <ele>4.4000000953674</ele>
        <time>2012-10-12T06:49:54Z</time>
      </trkpt>
      <trkpt lat="43.41215" lon="6.72853">
        <ele>4.4000000953674</ele>
        <time>2012-10-12T06:49:56Z</time>
      </trkpt>
      <trkpt lat="43.41195" lon="6.72836">
        <ele>4.4000000953674</ele>
        <time>2012-10-12T06:49:59Z</time>
      </trkpt>
      <trkpt lat="43.41183" lon="6.7283">
        <ele>4.4000000953674</ele>
        <time>2012-10-12T06:50:01Z</time>
      </trkpt>
      <trkpt lat="43.41177" lon="6.72813">
        <ele>5</ele>
        <time>2012-10-12T06:50:05Z</time>
      </trkpt>
      <trkpt lat="43.41177" lon="6.72807">
        <ele>5.4000000953674</ele>
        <time>2012-10-12T06:50:06Z</time>
      </trkpt>
      <trkpt lat="43.41188" lon="6.72767">
        <ele>7</ele>
        <time>2012-10-12T06:50:11Z</time>
      </trkpt>
      <trkpt lat="43.41193" lon="6.72754">
        <ele>7.5999999046326</ele>
        <time>2012-10-12T06:50:13Z</time>
      </trkpt>
      <trkpt lat="43.41202" lon="6.72726">
        <ele>7.5999999046326</ele>
        <time>2012-10-12T06:50:16Z</time>
      </trkpt>
      <trkpt lat="43.41197" lon="6.72689">
        <ele>7.5999999046326</ele>
        <time>2012-10-12T06:50:20Z</time>
      </trkpt>
      <trkpt lat="43.41193" lon="6.72683">
        <ele>7.5999999046326</ele>
        <time>2012-10-12T06:50:21Z</time>
      </trkpt>
      <trkpt lat="43.4118" lon="6.72665">
        <ele>7.8000001907349</ele>
        <time>2012-10-12T06:50:24Z</time>
      </trkpt>
      <trkpt lat="43.4115" lon="6.72629">
        <ele>6.5999999046326</ele>
        <time>2012-10-12T06:50:30Z</time>
      </trkpt>
      <trkpt lat="43.4114" lon="6.72618">
        <ele>6</ele>
        <time>2012-10-12T06:50:32Z</time>
      </trkpt>
      <trkpt lat="43.41127" lon="6.7259">
        <ele>5.1999998092651</ele>
        <time>2012-10-12T06:50:36Z</time>
      </trkpt>
      <trkpt lat="43.41134" lon="6.7257">
        <ele>5.1999998092651</ele>
        <time>2012-10-12T06:50:39Z</time>
      </trkpt>
      <trkpt lat="43.41142" lon="6.72559">
        <ele>5.1999998092651</ele>
        <time>2012-10-12T06:50:41Z</time>
      </trkpt>
      <trkpt lat="43.41145" lon="6.72527">
        <ele>4.4000000953674</ele>
        <time>2012-10-12T06:50:45Z</time>
      </trkpt>
      <trkpt lat="43.41146" lon="6.72509">
        <ele>4</ele>
        <time>2012-10-12T06:50:47Z</time>
      </trkpt>
      <trkpt lat="43.41152" lon="6.72478">
        <ele>3.4000000953674</ele>
        <time>2012-10-12T06:50:51Z</time>
      </trkpt>
      <trkpt lat="43.41166" lon="6.72457">
        <ele>3</ele>
        <time>2012-10-12T06:50:55Z</time>
      </trkpt>
      <trkpt lat="43.41186" lon="6.7246">
        <ele>3.2000000476837</ele>
        <time>2012-10-12T06:50:59Z</time>
      </trkpt>
      <trkpt lat="43.41195" lon="6.72478">
        <ele>3.7999999523163</ele>
        <time>2012-10-12T06:51:02Z</time>
      </trkpt>
      <trkpt lat="43.4119" lon="6.72493">
        <ele>4</ele>
        <time>2012-10-12T06:51:05Z</time>
      </trkpt>
      <trkpt lat="43.41178" lon="6.72505">
        <ele>4.4000000953674</ele>
        <time>2012-10-12T06:51:08Z</time>
      </trkpt>
      <trkpt lat="43.41164" lon="6.72509">
        <ele>4.1999998092651</ele>
        <time>2012-10-12T06:51:11Z</time>
      </trkpt>
      <trkpt lat="43.41159" lon="6.72506">
        <ele>4.1999998092651</ele>
        <time>2012-10-12T06:51:12Z</time>
      </trkpt>
      <trkpt lat="43.41122" lon="6.72482">
        <ele>3.2000000476837</ele>
        <time>2012-10-12T06:51:19Z</time>
      </trkpt>
      <trkpt lat="43.41083" lon="6.72456">
        <ele>3</ele>
        <time>2012-10-12T06:51:25Z</time>
      </trkpt>
      <trkpt lat="43.41063" lon="6.72437">
        <ele>3</ele>
        <time>2012-10-12T06:51:28Z</time>
      </trkpt>
      <trkpt lat="43.41022" lon="6.72415">
        <ele>3</ele>
        <time>2012-10-12T06:51:33Z</time>
      </trkpt>
      <trkpt lat="43.40958" lon="6.72413">
        <ele>3</ele>
        <time>2012-10-12T06:51:40Z</time>
      </trkpt>
      <trkpt lat="43.40934" lon="6.7242">
        <ele>3</ele>
        <time>2012-10-12T06:51:43Z</time>
      </trkpt>
      <trkpt lat="43.40908" lon="6.72407">
        <ele>2.7999999523163</ele>
        <time>2012-10-12T06:51:47Z</time>
      </trkpt>
      <trkpt lat="43.40905" lon="6.72397">
        <ele>2.5999999046326</ele>
        <time>2012-10-12T06:51:48Z</time>
      </trkpt>
      <trkpt lat="43.40887" lon="6.72351">
        <ele>2</ele>
        <time>2012-10-12T06:51:53Z</time>
      </trkpt>
      <trkpt lat="43.40851" lon="6.72334">
        <ele>2</ele>
        <time>2012-10-12T06:51:58Z</time>
      </trkpt>
      <trkpt lat="43.40802" lon="6.72324">
        <ele>1.3999999761581</ele>
        <time>2012-10-12T06:52:04Z</time>
      </trkpt>
      <trkpt lat="43.40751" lon="6.72304">
        <ele>0.60000002384186</ele>
        <time>2012-10-12T06:52:10Z</time>
      </trkpt>
      <trkpt lat="43.40732" lon="6.72283">
        <ele>0.60000002384186</ele>
        <time>2012-10-12T06:52:13Z</time>
      </trkpt>
      <trkpt lat="43.40732" lon="6.72256">
        <ele>0.40000000596046</ele>
        <time>2012-10-12T06:52:15Z</time>
      </trkpt>
      <trkpt lat="43.40744" lon="6.72224">
        <ele>0.80000001192093</ele>
        <time>2012-10-12T06:52:18Z</time>
      </trkpt>
      <trkpt lat="43.40782" lon="6.72149">
        <ele>1</ele>
        <time>2012-10-12T06:52:25Z</time>
      </trkpt>
      <trkpt lat="43.40792" lon="6.72102">
        <ele>0.80000001192093</ele>
        <time>2012-10-12T06:52:29Z</time>
      </trkpt>
      <trkpt lat="43.40798" lon="6.72026">
        <ele>1.2000000476837</ele>
        <time>2012-10-12T06:52:35Z</time>
      </trkpt>
      <trkpt lat="43.40813" lon="6.71966">
        <ele>1.3999999761581</ele>
        <time>2012-10-12T06:52:40Z</time>
      </trkpt>
      <trkpt lat="43.40841" lon="6.71884">
        <ele>1</ele>
        <time>2012-10-12T06:52:47Z</time>
      </trkpt>
      <trkpt lat="43.40867" lon="6.71831">
        <ele>1.3999999761581</ele>
        <time>2012-10-12T06:52:52Z</time>
      </trkpt>
      <trkpt lat="43.40889" lon="6.7179">
        <ele>1.7999999523163</ele>
        <time>2012-10-12T06:52:56Z</time>
      </trkpt>
      <trkpt lat="43.40905" lon="6.71731">
        <ele>2</ele>
        <time>2012-10-12T06:53:01Z</time>
      </trkpt>
      <trkpt lat="43.40923" lon="6.71643">
        <ele>1.7999999523163</ele>
        <time>2012-10-12T06:53:08Z</time>
      </trkpt>
      <trkpt lat="43.40935" lon="6.71584">
        <ele>1.3999999761581</ele>
        <time>2012-10-12T06:53:13Z</time>
      </trkpt>
      <trkpt lat="43.40947" lon="6.71502">
        <ele>2.4000000953674</ele>
        <time>2012-10-12T06:53:20Z</time>
      </trkpt>
      <trkpt lat="43.40965" lon="6.71467">
        <ele>2.5999999046326</ele>
        <time>2012-10-12T06:53:24Z</time>
      </trkpt>
      <trkpt lat="43.40974" lon="6.71466">
        <ele>2.5999999046326</ele>
        <time>2012-10-12T06:53:25Z</time>
      </trkpt>
      <trkpt lat="43.41019" lon="6.71435">
        <ele>2.2000000476837</ele>
        <time>2012-10-12T06:53:31Z</time>
      </trkpt>
      <trkpt lat="43.41062" lon="6.71379">
        <ele>2</ele>
        <time>2012-10-12T06:53:38Z</time>
      </trkpt>
      <trkpt lat="43.41104" lon="6.71303">
        <ele>2.4000000953674</ele>
        <time>2012-10-12T06:53:46Z</time>
      </trkpt>
      <trkpt lat="43.41133" lon="6.71277">
        <ele>3</ele>
        <time>2012-10-12T06:53:50Z</time>
      </trkpt>
      <trkpt lat="43.41171" lon="6.71252">
        <ele>3.7999999523163</ele>
        <time>2012-10-12T06:53:55Z</time>
      </trkpt>
      <trkpt lat="43.41212" lon="6.71206">
        <ele>3.2000000476837</ele>
        <time>2012-10-12T06:54:01Z</time>
      </trkpt>
      <trkpt lat="43.41225" lon="6.7119">
        <ele>3.2000000476837</ele>
        <time>2012-10-12T06:54:03Z</time>
      </trkpt>
      <trkpt lat="43.41251" lon="6.71128">
        <ele>3</ele>
        <time>2012-10-12T06:54:09Z</time>
      </trkpt>
      <trkpt lat="43.41267" lon="6.71086">
        <ele>3</ele>
        <time>2012-10-12T06:54:13Z</time>
      </trkpt>
      <trkpt lat="43.41293" lon="6.71041">
        <ele>3</ele>
        <time>2012-10-12T06:54:18Z</time>
      </trkpt>
      <trkpt lat="43.41335" lon="6.70982">
        <ele>2.2000000476837</ele>
        <time>2012-10-12T06:54:25Z</time>
      </trkpt>
      <trkpt lat="43.41364" lon="6.70938">
        <ele>2.7999999523163</ele>
        <time>2012-10-12T06:54:30Z</time>
      </trkpt>
      <trkpt lat="43.41377" lon="6.70922">
        <ele>3</ele>
        <time>2012-10-12T06:54:32Z</time>
      </trkpt>
      <trkpt lat="43.41407" lon="6.70877">
        <ele>3.4000000953674</ele>
        <time>2012-10-12T06:54:37Z</time>
      </trkpt>
      <trkpt lat="43.41427" lon="6.70823">
        <ele>3.7999999523163</ele>
        <time>2012-10-12T06:54:42Z</time>
      </trkpt>
      <trkpt lat="43.41432" lon="6.70775">
        <ele>3.7999999523163</ele>
        <time>2012-10-12T06:54:46Z</time>
      </trkpt>
      <trkpt lat="43.41443" lon="6.70723">
        <ele>3.4000000953674</ele>
        <time>2012-10-12T06:54:51Z</time>
      </trkpt>
      <trkpt lat="43.41446" lon="6.70714">
        <ele>3.4000000953674</ele>
        <time>2012-10-12T06:54:52Z</time>
      </trkpt>
      <trkpt lat="43.41447" lon="6.70667">
        <ele>3</ele>
        <time>2012-10-12T06:54:57Z</time>
      </trkpt>
      <trkpt lat="43.41434" lon="6.70656">
        <ele>2.7999999523163</ele>
        <time>2012-10-12T06:54:59Z</time>
      </trkpt>
      <trkpt lat="43.41425" lon="6.70653">
        <ele>2.7999999523163</ele>
        <time>2012-10-12T06:55:00Z</time>
      </trkpt>
      <trkpt lat="43.41401" lon="6.70644">
        <ele>2.5999999046326</ele>
        <time>2012-10-12T06:55:03Z</time>
      </trkpt>
      <trkpt lat="43.41376" lon="6.70646">
        <ele>3</ele>
        <time>2012-10-12T06:55:07Z</time>
      </trkpt>
      <trkpt lat="43.41366" lon="6.70661">
        <ele>3.4000000953674</ele>
        <time>2012-10-12T06:55:10Z</time>
      </trkpt>
      <trkpt lat="43.41352" lon="6.70662">
        <ele>3.5999999046326</ele>
        <time>2012-10-12T06:55:13Z</time>
      </trkpt>
      <trkpt lat="43.4134" lon="6.70649">
        <ele>3.5999999046326</ele>
        <time>2012-10-12T06:55:16Z</time>
      </trkpt>
      <trkpt lat="43.41316" lon="6.70622">
        <ele>3.4000000953674</ele>
        <time>2012-10-12T06:55:21Z</time>
      </trkpt>
      <trkpt lat="43.41305" lon="6.70612">
        <ele>3.5999999046326</ele>
        <time>2012-10-12T06:55:23Z</time>
      </trkpt>
      <trkpt lat="43.41281" lon="6.70583">
        <ele>4.5999999046326</ele>
        <time>2012-10-12T06:55:28Z</time>
      </trkpt>
      <trkpt lat="43.41258" lon="6.70559">
        <ele>6.1999998092651</ele>
        <time>2012-10-12T06:55:33Z</time>
      </trkpt>
      <trkpt lat="43.41258" lon="6.70535">
        <ele>6.8000001907349</ele>
        <time>2012-10-12T06:55:36Z</time>
      </trkpt>
      <trkpt lat="43.41264" lon="6.70519">
        <ele>6.8000001907349</ele>
        <time>2012-10-12T06:55:38Z</time>
      </trkpt>
      <trkpt lat="43.41296" lon="6.70441">
        <ele>9.6000003814697</ele>
        <time>2012-10-12T06:55:47Z</time>
      </trkpt>
      <trkpt lat="43.41326" lon="6.70362">
        <ele>10.60000038147</ele>
        <time>2012-10-12T06:55:55Z</time>
      </trkpt>
      <trkpt lat="43.41335" lon="6.70303">
        <ele>11.199999809265</ele>
        <time>2012-10-12T06:56:00Z</time>
      </trkpt>
      <trkpt lat="43.41331" lon="6.70243">
        <ele>12.199999809265</ele>
        <time>2012-10-12T06:56:05Z</time>
      </trkpt>
      <trkpt lat="43.41315" lon="6.70169">
        <ele>12.199999809265</ele>
        <time>2012-10-12T06:56:12Z</time>
      </trkpt>
      <trkpt lat="43.41311" lon="6.7016">
        <ele>12.800000190735</ele>
        <time>2012-10-12T06:56:13Z</time>
      </trkpt>
      <trkpt lat="43.41295" lon="6.70132">
        <ele>16.200000762939</ele>
        <time>2012-10-12T06:56:17Z</time>
      </trkpt>
      <trkpt lat="43.41289" lon="6.70109">
        <ele>17.200000762939</ele>
        <time>2012-10-12T06:56:20Z</time>
      </trkpt>
      <trkpt lat="43.41282" lon="6.70094">
        <ele>18.60000038147</ele>
        <time>2012-10-12T06:56:22Z</time>
      </trkpt>
      <trkpt lat="43.41278" lon="6.70069">
        <ele>19.200000762939</ele>
        <time>2012-10-12T06:56:26Z</time>
      </trkpt>
      <trkpt lat="43.41279" lon="6.70055">
        <ele>19</ele>
        <time>2012-10-12T06:56:28Z</time>
      </trkpt>
      <trkpt lat="43.41272" lon="6.69991">
        <ele>19.799999237061</ele>
        <time>2012-10-12T06:56:34Z</time>
      </trkpt>
      <trkpt lat="43.41255" lon="6.69903">
        <ele>17.60000038147</ele>
        <time>2012-10-12T06:56:42Z</time>
      </trkpt>
      <trkpt lat="43.41242" lon="6.6986">
        <ele>15</ele>
        <time>2012-10-12T06:56:46Z</time>
      </trkpt>
      <trkpt lat="43.41224" lon="6.69825">
        <ele>15.199999809265</ele>
        <time>2012-10-12T06:56:50Z</time>
      </trkpt>
      <trkpt lat="43.41207" lon="6.6978">
        <ele>14.199999809265</ele>
        <time>2012-10-12T06:56:55Z</time>
      </trkpt>
      <trkpt lat="43.41196" lon="6.69746">
        <ele>11.800000190735</ele>
        <time>2012-10-12T06:56:59Z</time>
      </trkpt>
      <trkpt lat="43.41184" lon="6.69722">
        <ele>11.199999809265</ele>
        <time>2012-10-12T06:57:02Z</time>
      </trkpt>
      <trkpt lat="43.41176" lon="6.69707">
        <ele>10.39999961853</ele>
        <time>2012-10-12T06:57:04Z</time>
      </trkpt>
      <trkpt lat="43.41156" lon="6.69688">
        <ele>9</ele>
        <time>2012-10-12T06:57:08Z</time>
      </trkpt>
      <trkpt lat="43.41139" lon="6.69695">
        <ele>9.6000003814697</ele>
        <time>2012-10-12T06:57:11Z</time>
      </trkpt>
      <trkpt lat="43.41128" lon="6.69714">
        <ele>11.199999809265</ele>
        <time>2012-10-12T06:57:14Z</time>
      </trkpt>
      <trkpt lat="43.41125" lon="6.69721">
        <ele>11.800000190735</ele>
        <time>2012-10-12T06:57:15Z</time>
      </trkpt>
      <trkpt lat="43.41117" lon="6.69747">
        <ele>13.60000038147</ele>
        <time>2012-10-12T06:57:19Z</time>
      </trkpt>
      <trkpt lat="43.41104" lon="6.69768">
        <ele>15.60000038147</ele>
        <time>2012-10-12T06:57:24Z</time>
      </trkpt>
      <trkpt lat="43.41093" lon="6.6979">
        <ele>17.39999961853</ele>
        <time>2012-10-12T06:57:29Z</time>
      </trkpt>
      <trkpt lat="43.41074" lon="6.69834">
        <ele>20.200000762939</ele>
        <time>2012-10-12T06:57:38Z</time>
      </trkpt>
      <trkpt lat="43.41065" lon="6.69864">
        <ele>22.799999237061</ele>
        <time>2012-10-12T06:57:44Z</time>
      </trkpt>
      <trkpt lat="43.41048" lon="6.69891">
        <ele>25</ele>
        <time>2012-10-12T06:57:51Z</time>
      </trkpt>
      <trkpt lat="43.41046" lon="6.69895">
        <ele>25.39999961853</ele>
        <time>2012-10-12T06:57:52Z</time>
      </trkpt>
      <trkpt lat="43.41049" lon="6.69918">
        <ele>28.60000038147</ele>
        <time>2012-10-12T06:57:58Z</time>
      </trkpt>
      <trkpt lat="43.41045" lon="6.69936">
        <ele>31</ele>
        <time>2012-10-12T06:58:03Z</time>
      </trkpt>
      <trkpt lat="43.41038" lon="6.69952">
        <ele>33</ele>
        <time>2012-10-12T06:58:09Z</time>
      </trkpt>
      <trkpt lat="43.41033" lon="6.69971">
        <ele>35.400001525879</ele>
        <time>2012-10-12T06:58:15Z</time>
      </trkpt>
      <trkpt lat="43.41032" lon="6.69992">
        <ele>38.400001525879</ele>
        <time>2012-10-12T06:58:22Z</time>
      </trkpt>
      <trkpt lat="43.41036" lon="6.70013">
        <ele>41</ele>
        <time>2012-10-12T06:58:29Z</time>
      </trkpt>
      <trkpt lat="43.41034" lon="6.70031">
        <ele>42.799999237061</ele>
        <time>2012-10-12T06:58:35Z</time>
      </trkpt>
      <trkpt lat="43.41039" lon="6.70053">
        <ele>45.400001525879</ele>
        <time>2012-10-12T06:58:43Z</time>
      </trkpt>
      <trkpt lat="43.41045" lon="6.70078">
        <ele>48</ele>
        <time>2012-10-12T06:58:50Z</time>
      </trkpt>
      <trkpt lat="43.41049" lon="6.70101">
        <ele>49.799999237061</ele>
        <time>2012-10-12T06:58:57Z</time>
      </trkpt>
      <trkpt lat="43.41044" lon="6.70113">
        <ele>50.400001525879</ele>
        <time>2012-10-12T06:59:01Z</time>
      </trkpt>
      <trkpt lat="43.41041" lon="6.70125">
        <ele>51</ele>
        <time>2012-10-12T06:59:05Z</time>
      </trkpt>
      <trkpt lat="43.41033" lon="6.70125">
        <ele>50.799999237061</ele>
        <time>2012-10-12T06:59:10Z</time>
      </trkpt>
      <trkpt lat="43.4103" lon="6.70124">
        <ele>50.599998474121</ele>
        <time>2012-10-12T06:59:12Z</time>
      </trkpt>
      <trkpt lat="43.41018" lon="6.70131">
        <ele>50.799999237061</ele>
        <time>2012-10-12T06:59:19Z</time>
      </trkpt>
      <trkpt lat="43.41012" lon="6.70141">
        <ele>51.400001525879</ele>
        <time>2012-10-12T06:59:24Z</time>
      </trkpt>
      <trkpt lat="43.41009" lon="6.70149">
        <ele>51.799999237061</ele>
        <time>2012-10-12T06:59:26Z</time>
      </trkpt>
      <trkpt lat="43.40998" lon="6.70149">
        <ele>51.799999237061</ele>
        <time>2012-10-12T06:59:30Z</time>
      </trkpt>
      <trkpt lat="43.40976" lon="6.70139">
        <ele>52.599998474121</ele>
        <time>2012-10-12T06:59:34Z</time>
      </trkpt>
      <trkpt lat="43.40972" lon="6.70139">
        <ele>52.799999237061</ele>
        <time>2012-10-12T06:59:35Z</time>
      </trkpt>
      <trkpt lat="43.40959" lon="6.70145">
        <ele>54</ele>
        <time>2012-10-12T06:59:41Z</time>
      </trkpt>
      <trkpt lat="43.40948" lon="6.70155">
        <ele>55.400001525879</ele>
        <time>2012-10-12T06:59:48Z</time>
      </trkpt>
      <trkpt lat="43.40938" lon="6.70165">
        <ele>56.599998474121</ele>
        <time>2012-10-12T06:59:54Z</time>
      </trkpt>
      <trkpt lat="43.40924" lon="6.7017">
        <ele>57.599998474121</ele>
        <time>2012-10-12T07:00:00Z</time>
      </trkpt>
      <trkpt lat="43.40904" lon="6.70168">
        <ele>57.400001525879</ele>
        <time>2012-10-12T07:00:05Z</time>
      </trkpt>
      <trkpt lat="43.40894" lon="6.70178">
        <ele>57</ele>
        <time>2012-10-12T07:00:08Z</time>
      </trkpt>
      <trkpt lat="43.40887" lon="6.70188">
        <ele>56.599998474121</ele>
        <time>2012-10-12T07:00:10Z</time>
      </trkpt>
      <trkpt lat="43.40872" lon="6.70225">
        <ele>56.200000762939</ele>
        <time>2012-10-12T07:00:15Z</time>
      </trkpt>
      <trkpt lat="43.40859" lon="6.70234">
        <ele>55.799999237061</ele>
        <time>2012-10-12T07:00:17Z</time>
      </trkpt>
      <trkpt lat="43.40819" lon="6.70244">
        <ele>55.200000762939</ele>
        <time>2012-10-12T07:00:22Z</time>
      </trkpt>
      <trkpt lat="43.40788" lon="6.70235">
        <ele>55.599998474121</ele>
        <time>2012-10-12T07:00:26Z</time>
      </trkpt>
      <trkpt lat="43.40759" lon="6.70211">
        <ele>56.200000762939</ele>
        <time>2012-10-12T07:00:31Z</time>
      </trkpt>
      <trkpt lat="43.40745" lon="6.70196">
        <ele>57</ele>
        <time>2012-10-12T07:00:34Z</time>
      </trkpt>
      <trkpt lat="43.40732" lon="6.70188">
        <ele>58.200000762939</ele>
        <time>2012-10-12T07:00:38Z</time>
      </trkpt>
      <trkpt lat="43.40723" lon="6.70184">
        <ele>59</ele>
        <time>2012-10-12T07:00:42Z</time>
      </trkpt>
      <trkpt lat="43.40709" lon="6.70176">
        <ele>60.400001525879</ele>
        <time>2012-10-12T07:00:47Z</time>
      </trkpt>
      <trkpt lat="43.40704" lon="6.70172">
        <ele>61.200000762939</ele>
        <time>2012-10-12T07:00:49Z</time>
      </trkpt>
      <trkpt lat="43.40679" lon="6.70159">
        <ele>63.799999237061</ele>
        <time>2012-10-12T07:00:57Z</time>
      </trkpt>
      <trkpt lat="43.40656" lon="6.70152">
        <ele>65</ele>
        <time>2012-10-12T07:01:03Z</time>
      </trkpt>
      <trkpt lat="43.40624" lon="6.70137">
        <ele>64.599998474121</ele>
        <time>2012-10-12T07:01:10Z</time>
      </trkpt>
      <trkpt lat="43.40594" lon="6.7012">
        <ele>64.800003051758</ele>
        <time>2012-10-12T07:01:15Z</time>
      </trkpt>
      <trkpt lat="43.40559" lon="6.70113">
        <ele>65.400001525879</ele>
        <time>2012-10-12T07:01:20Z</time>
      </trkpt>
      <trkpt lat="43.40551" lon="6.70111">
        <ele>65.599998474121</ele>
        <time>2012-10-12T07:01:21Z</time>
      </trkpt>
      <trkpt lat="43.40529" lon="6.70106">
        <ele>66</ele>
        <time>2012-10-12T07:01:24Z</time>
      </trkpt>
      <trkpt lat="43.40503" lon="6.70101">
        <ele>66.599998474121</ele>
        <time>2012-10-12T07:01:28Z</time>
      </trkpt>
      <trkpt lat="43.40488" lon="6.70102">
        <ele>68</ele>
        <time>2012-10-12T07:01:31Z</time>
      </trkpt>
      <trkpt lat="43.40476" lon="6.70103">
        <ele>69</ele>
        <time>2012-10-12T07:01:34Z</time>
      </trkpt>
      <trkpt lat="43.40471" lon="6.70104">
        <ele>69.599998474121</ele>
        <time>2012-10-12T07:01:36Z</time>
      </trkpt>
      <trkpt lat="43.40458" lon="6.70103">
        <ele>71.199996948242</ele>
        <time>2012-10-12T07:01:42Z</time>
      </trkpt>
      <trkpt lat="43.40448" lon="6.701">
        <ele>72.400001525879</ele>
        <time>2012-10-12T07:01:48Z</time>
      </trkpt>
      <trkpt lat="43.40433" lon="6.70091">
        <ele>74.599998474121</ele>
        <time>2012-10-12T07:01:56Z</time>
      </trkpt>
      <trkpt lat="43.40416" lon="6.70081">
        <ele>76.800003051758</ele>
        <time>2012-10-12T07:02:03Z</time>
      </trkpt>
      <trkpt lat="43.40396" lon="6.70071">
        <ele>76.800003051758</ele>
        <time>2012-10-12T07:02:10Z</time>
      </trkpt>
      <trkpt lat="43.40374" lon="6.70062">
        <ele>77.199996948242</ele>
        <time>2012-10-12T07:02:16Z</time>
      </trkpt>
      <trkpt lat="43.40353" lon="6.70051">
        <ele>77.599998474121</ele>
        <time>2012-10-12T07:02:21Z</time>
      </trkpt>
      <trkpt lat="43.40318" lon="6.70026">
        <ele>77.800003051758</ele>
        <time>2012-10-12T07:02:29Z</time>
      </trkpt>
      <trkpt lat="43.40313" lon="6.70022">
        <ele>77.599998474121</ele>
        <time>2012-10-12T07:02:30Z</time>
      </trkpt>
      <trkpt lat="43.40288" lon="6.69994">
        <ele>77.199996948242</ele>
        <time>2012-10-12T07:02:35Z</time>
      </trkpt>
      <trkpt lat="43.40265" lon="6.69967">
        <ele>76.199996948242</ele>
        <time>2012-10-12T07:02:39Z</time>
      </trkpt>
      <trkpt lat="43.40242" lon="6.6995">
        <ele>74.599998474121</ele>
        <time>2012-10-12T07:02:42Z</time>
      </trkpt>
      <trkpt lat="43.40208" lon="6.69951">
        <ele>68.800003051758</ele>
        <time>2012-10-12T07:02:46Z</time>
      </trkpt>
      <trkpt lat="43.40199" lon="6.69959">
        <ele>67.599998474121</ele>
        <time>2012-10-12T07:02:47Z</time>
      </trkpt>
      <trkpt lat="43.40156" lon="6.70008">
        <ele>63.599998474121</ele>
        <time>2012-10-12T07:02:52Z</time>
      </trkpt>
      <trkpt lat="43.40122" lon="6.70047">
        <ele>64.199996948242</ele>
        <time>2012-10-12T07:02:56Z</time>
      </trkpt>
      <trkpt lat="43.40102" lon="6.70081">
        <ele>66.800003051758</ele>
        <time>2012-10-12T07:03:00Z</time>
      </trkpt>
      <trkpt lat="43.40095" lon="6.70096">
        <ele>68.400001525879</ele>
        <time>2012-10-12T07:03:02Z</time>
      </trkpt>
      <trkpt lat="43.40084" lon="6.70116">
        <ele>71.400001525879</ele>
        <time>2012-10-12T07:03:07Z</time>
      </trkpt>
      <trkpt lat="43.4007" lon="6.70129">
        <ele>75.400001525879</ele>
        <time>2012-10-12T07:03:15Z</time>
      </trkpt>
      <trkpt lat="43.40058" lon="6.70129">
        <ele>77.199996948242</ele>
        <time>2012-10-12T07:03:20Z</time>
      </trkpt>
      <trkpt lat="43.40045" lon="6.70122">
        <ele>78.599998474121</ele>
        <time>2012-10-12T07:03:26Z</time>
      </trkpt>
      <trkpt lat="43.40028" lon="6.70112">
        <ele>79.800003051758</ele>
        <time>2012-10-12T07:03:35Z</time>
      </trkpt>
      <trkpt lat="43.40012" lon="6.70107">
        <ele>81.400001525879</ele>
        <time>2012-10-12T07:03:43Z</time>
      </trkpt>
      <trkpt lat="43.39997" lon="6.70109">
        <ele>84</ele>
        <time>2012-10-12T07:03:51Z</time>
      </trkpt>
      <trkpt lat="43.39979" lon="6.70115">
        <ele>87</ele>
        <time>2012-10-12T07:04:00Z</time>
      </trkpt>
      <trkpt lat="43.39965" lon="6.7012">
        <ele>89</ele>
        <time>2012-10-12T07:04:06Z</time>
      </trkpt>
      <trkpt lat="43.39952" lon="6.70125">
        <ele>91.400001525879</ele>
        <time>2012-10-12T07:04:14Z</time>
      </trkpt>
      <trkpt lat="43.39936" lon="6.7013">
        <ele>94</ele>
        <time>2012-10-12T07:04:24Z</time>
      </trkpt>
      <trkpt lat="43.39923" lon="6.70132">
        <ele>95.599998474121</ele>
        <time>2012-10-12T07:04:31Z</time>
      </trkpt>
      <trkpt lat="43.39913" lon="6.70134">
        <ele>96.599998474121</ele>
        <time>2012-10-12T07:04:37Z</time>
      </trkpt>
      <trkpt lat="43.39904" lon="6.70138">
        <ele>97</ele>
        <time>2012-10-12T07:04:42Z</time>
      </trkpt>
      <trkpt lat="43.39887" lon="6.70151">
        <ele>99</ele>
        <time>2012-10-12T07:04:51Z</time>
      </trkpt>
      <trkpt lat="43.39869" lon="6.70172">
        <ele>101.19999694824</ele>
        <time>2012-10-12T07:04:58Z</time>
      </trkpt>
      <trkpt lat="43.3985" lon="6.70187">
        <ele>100.40000152588</ele>
        <time>2012-10-12T07:05:03Z</time>
      </trkpt>
      <trkpt lat="43.39821" lon="6.70184">
        <ele>99.800003051758</ele>
        <time>2012-10-12T07:05:08Z</time>
      </trkpt>
      <trkpt lat="43.39775" lon="6.70181">
        <ele>99.800003051758</ele>
        <time>2012-10-12T07:05:15Z</time>
      </trkpt>
      <trkpt lat="43.3973" lon="6.70171">
        <ele>100.19999694824</ele>
        <time>2012-10-12T07:05:21Z</time>
      </trkpt>
      <trkpt lat="43.39697" lon="6.70158">
        <ele>100.59999847412</ele>
        <time>2012-10-12T07:05:25Z</time>
      </trkpt>
      <trkpt lat="43.39663" lon="6.70128">
        <ele>101</ele>
        <time>2012-10-12T07:05:30Z</time>
      </trkpt>
      <trkpt lat="43.39654" lon="6.70118">
        <ele>101.59999847412</ele>
        <time>2012-10-12T07:05:32Z</time>
      </trkpt>
      <trkpt lat="43.39636" lon="6.70086">
        <ele>103.19999694824</ele>
        <time>2012-10-12T07:05:39Z</time>
      </trkpt>
      <trkpt lat="43.39634" lon="6.70082">
        <ele>103</ele>
        <time>2012-10-12T07:05:40Z</time>
      </trkpt>
      <trkpt lat="43.39616" lon="6.70065">
        <ele>102.59999847412</ele>
        <time>2012-10-12T07:05:46Z</time>
      </trkpt>
      <trkpt lat="43.39596" lon="6.70064">
        <ele>105</ele>
        <time>2012-10-12T07:05:51Z</time>
      </trkpt>
      <trkpt lat="43.39571" lon="6.70076">
        <ele>107.80000305176</ele>
        <time>2012-10-12T07:05:56Z</time>
      </trkpt>
      <trkpt lat="43.39538" lon="6.70095">
        <ele>106.40000152588</ele>
        <time>2012-10-12T07:06:01Z</time>
      </trkpt>
      <trkpt lat="43.39531" lon="6.70099">
        <ele>105.80000305176</ele>
        <time>2012-10-12T07:06:02Z</time>
      </trkpt>
      <trkpt lat="43.39489" lon="6.70109">
        <ele>103</ele>
        <time>2012-10-12T07:06:07Z</time>
      </trkpt>
      <trkpt lat="43.39481" lon="6.70109">
        <ele>102.59999847412</ele>
        <time>2012-10-12T07:06:08Z</time>
      </trkpt>
      <trkpt lat="43.39436" lon="6.701">
        <ele>101.19999694824</ele>
        <time>2012-10-12T07:06:13Z</time>
      </trkpt>
      <trkpt lat="43.39406" lon="6.70093">
        <ele>100.80000305176</ele>
        <time>2012-10-12T07:06:16Z</time>
      </trkpt>
      <trkpt lat="43.39361" lon="6.70065">
        <ele>100.19999694824</ele>
        <time>2012-10-12T07:06:21Z</time>
      </trkpt>
      <trkpt lat="43.39313" lon="6.70009">
        <ele>98.400001525879</ele>
        <time>2012-10-12T07:06:27Z</time>
      </trkpt>
      <trkpt lat="43.39286" lon="6.69976">
        <ele>97.400001525879</ele>
        <time>2012-10-12T07:06:31Z</time>
      </trkpt>
      <trkpt lat="43.39276" lon="6.69962">
        <ele>97.400001525879</ele>
        <time>2012-10-12T07:06:33Z</time>
      </trkpt>
      <trkpt lat="43.39256" lon="6.69938">
        <ele>98.800003051758</ele>
        <time>2012-10-12T07:06:37Z</time>
      </trkpt>
      <trkpt lat="43.3925" lon="6.69934">
        <ele>99.400001525879</ele>
        <time>2012-10-12T07:06:38Z</time>
      </trkpt>
      <trkpt lat="43.39236" lon="6.69929">
        <ele>99.400001525879</ele>
        <time>2012-10-12T07:06:40Z</time>
      </trkpt>
      <trkpt lat="43.39207" lon="6.69905">
        <ele>100.19999694824</ele>
        <time>2012-10-12T07:06:44Z</time>
      </trkpt>
      <trkpt lat="43.39189" lon="6.69879">
        <ele>102.19999694824</ele>
        <time>2012-10-12T07:06:47Z</time>
      </trkpt>
      <trkpt lat="43.39172" lon="6.69864">
        <ele>105</ele>
        <time>2012-10-12T07:06:50Z</time>
      </trkpt>
      <trkpt lat="43.39155" lon="6.69854">
        <ele>106.40000152588</ele>
        <time>2012-10-12T07:06:56Z</time>
      </trkpt>
      <trkpt lat="43.39138" lon="6.69836">
        <ele>107.40000152588</ele>
        <time>2012-10-12T07:07:05Z</time>
      </trkpt>
      <trkpt lat="43.39133" lon="6.69816">
        <ele>109</ele>
        <time>2012-10-12T07:07:12Z</time>
      </trkpt>
      <trkpt lat="43.39131" lon="6.69794">
        <ele>111.19999694824</ele>
        <time>2012-10-12T07:07:18Z</time>
      </trkpt>
      <trkpt lat="43.39131" lon="6.69775">
        <ele>113</ele>
        <time>2012-10-12T07:07:25Z</time>
      </trkpt>
      <trkpt lat="43.39132" lon="6.69754">
        <ele>115</ele>
        <time>2012-10-12T07:07:33Z</time>
      </trkpt>
      <trkpt lat="43.39132" lon="6.69734">
        <ele>117.19999694824</ele>
        <time>2012-10-12T07:07:41Z</time>
      </trkpt>
      <trkpt lat="43.3913" lon="6.69717">
        <ele>119.19999694824</ele>
        <time>2012-10-12T07:07:48Z</time>
      </trkpt>
      <trkpt lat="43.39124" lon="6.6969">
        <ele>122.19999694824</ele>
        <time>2012-10-12T07:07:59Z</time>
      </trkpt>
      <trkpt lat="43.39118" lon="6.6967">
        <ele>124.19999694824</ele>
        <time>2012-10-12T07:08:07Z</time>
      </trkpt>
      <trkpt lat="43.39112" lon="6.69645">
        <ele>127.59999847412</ele>
        <time>2012-10-12T07:08:17Z</time>
      </trkpt>
      <trkpt lat="43.39109" lon="6.69625">
        <ele>130.39999389648</ele>
        <time>2012-10-12T07:08:24Z</time>
      </trkpt>
      <trkpt lat="43.39106" lon="6.69611">
        <ele>132.39999389648</ele>
        <time>2012-10-12T07:08:30Z</time>
      </trkpt>
      <trkpt lat="43.39099" lon="6.69586">
        <ele>136</ele>
        <time>2012-10-12T07:08:41Z</time>
      </trkpt>
      <trkpt lat="43.39094" lon="6.69566">
        <ele>138.19999694824</ele>
        <time>2012-10-12T07:08:50Z</time>
      </trkpt>
      <trkpt lat="43.39087" lon="6.69552">
        <ele>140</ele>
        <time>2012-10-12T07:08:57Z</time>
      </trkpt>
      <trkpt lat="43.39078" lon="6.69538">
        <ele>142</ele>
        <time>2012-10-12T07:09:04Z</time>
      </trkpt>
      <trkpt lat="43.39068" lon="6.69529">
        <ele>143.19999694824</ele>
        <time>2012-10-12T07:09:11Z</time>
      </trkpt>
      <trkpt lat="43.39054" lon="6.69521">
        <ele>144.39999389648</ele>
        <time>2012-10-12T07:09:19Z</time>
      </trkpt>
      <trkpt lat="43.39037" lon="6.69511">
        <ele>146.60000610352</ele>
        <time>2012-10-12T07:09:29Z</time>
      </trkpt>
      <trkpt lat="43.39023" lon="6.69496">
        <ele>149.60000610352</ele>
        <time>2012-10-12T07:09:39Z</time>
      </trkpt>
      <trkpt lat="43.39012" lon="6.69486">
        <ele>151.19999694824</ele>
        <time>2012-10-12T07:09:45Z</time>
      </trkpt>
      <trkpt lat="43.38996" lon="6.69475">
        <ele>153.19999694824</ele>
        <time>2012-10-12T07:09:55Z</time>
      </trkpt>
      <trkpt lat="43.38982" lon="6.69462">
        <ele>153.39999389648</ele>
        <time>2012-10-12T07:10:04Z</time>
      </trkpt>
      <trkpt lat="43.38971" lon="6.69449">
        <ele>154.60000610352</ele>
        <time>2012-10-12T07:10:13Z</time>
      </trkpt>
      <trkpt lat="43.38965" lon="6.69435">
        <ele>156.39999389648</ele>
        <time>2012-10-12T07:10:20Z</time>
      </trkpt>
      <trkpt lat="43.38959" lon="6.69417">
        <ele>159.39999389648</ele>
        <time>2012-10-12T07:10:29Z</time>
      </trkpt>
      <trkpt lat="43.38954" lon="6.69398">
        <ele>162</ele>
        <time>2012-10-12T07:10:36Z</time>
      </trkpt>
      <trkpt lat="43.38948" lon="6.69381">
        <ele>164.60000610352</ele>
        <time>2012-10-12T07:10:43Z</time>
      </trkpt>
      <trkpt lat="43.38942" lon="6.69362">
        <ele>168</ele>
        <time>2012-10-12T07:10:52Z</time>
      </trkpt>
      <trkpt lat="43.38935" lon="6.69346">
        <ele>171.39999389648</ele>
        <time>2012-10-12T07:11:00Z</time>
      </trkpt>
      <trkpt lat="43.38926" lon="6.6933">
        <ele>175.39999389648</ele>
        <time>2012-10-12T07:11:09Z</time>
      </trkpt>
      <trkpt lat="43.38915" lon="6.69315">
        <ele>178.60000610352</ele>
        <time>2012-10-12T07:11:19Z</time>
      </trkpt>
      <trkpt lat="43.38909" lon="6.6931">
        <ele>179.39999389648</ele>
        <time>2012-10-12T07:11:23Z</time>
      </trkpt>
      <trkpt lat="43.38902" lon="6.69304">
        <ele>180.60000610352</ele>
        <time>2012-10-12T07:11:27Z</time>
      </trkpt>
      <trkpt lat="43.38892" lon="6.693">
        <ele>181.60000610352</ele>
        <time>2012-10-12T07:11:33Z</time>
      </trkpt>
      <trkpt lat="43.38879" lon="6.69293">
        <ele>183.39999389648</ele>
        <time>2012-10-12T07:11:41Z</time>
      </trkpt>
      <trkpt lat="43.38863" lon="6.69286">
        <ele>185.80000305176</ele>
        <time>2012-10-12T07:11:51Z</time>
      </trkpt>
      <trkpt lat="43.3885" lon="6.69278">
        <ele>188</ele>
        <time>2012-10-12T07:11:59Z</time>
      </trkpt>
      <trkpt lat="43.38839" lon="6.6927">
        <ele>190.39999389648</ele>
        <time>2012-10-12T07:12:07Z</time>
      </trkpt>
      <trkpt lat="43.38826" lon="6.69262">
        <ele>192</ele>
        <time>2012-10-12T07:12:14Z</time>
      </trkpt>
      <trkpt lat="43.38814" lon="6.69248">
        <ele>193.80000305176</ele>
        <time>2012-10-12T07:12:22Z</time>
      </trkpt>
      <trkpt lat="43.38802" lon="6.69229">
        <ele>197.19999694824</ele>
        <time>2012-10-12T07:12:32Z</time>
      </trkpt>
      <trkpt lat="43.38793" lon="6.69214">
        <ele>199.80000305176</ele>
        <time>2012-10-12T07:12:40Z</time>
      </trkpt>
      <trkpt lat="43.38781" lon="6.69203">
        <ele>202</ele>
        <time>2012-10-12T07:12:47Z</time>
      </trkpt>
      <trkpt lat="43.3877" lon="6.69193">
        <ele>204</ele>
        <time>2012-10-12T07:12:52Z</time>
      </trkpt>
      <trkpt lat="43.38751" lon="6.6917">
        <ele>209</ele>
        <time>2012-10-12T07:13:01Z</time>
      </trkpt>
      <trkpt lat="43.38733" lon="6.69154">
        <ele>209</ele>
        <time>2012-10-12T07:13:08Z</time>
      </trkpt>
      <trkpt lat="43.38714" lon="6.69133">
        <ele>209.19999694824</ele>
        <time>2012-10-12T07:13:16Z</time>
      </trkpt>
      <trkpt lat="43.38714" lon="6.6913">
        <ele>209.60000610352</ele>
        <time>2012-10-12T07:13:17Z</time>
      </trkpt>
      <trkpt lat="43.38719" lon="6.69118">
        <ele>212.60000610352</ele>
        <time>2012-10-12T07:13:23Z</time>
      </trkpt>
      <trkpt lat="43.38722" lon="6.69115">
        <ele>213.39999389648</ele>
        <time>2012-10-12T07:13:25Z</time>
      </trkpt>
      <trkpt lat="43.38735" lon="6.69105">
        <ele>216.80000305176</ele>
        <time>2012-10-12T07:13:34Z</time>
      </trkpt>
      <trkpt lat="43.38747" lon="6.69106">
        <ele>218.39999389648</ele>
        <time>2012-10-12T07:13:40Z</time>
      </trkpt>
      <trkpt lat="43.38761" lon="6.69117">
        <ele>217.39999389648</ele>
        <time>2012-10-12T07:13:46Z</time>
      </trkpt>
      <trkpt lat="43.38779" lon="6.69125">
        <ele>216.80000305176</ele>
        <time>2012-10-12T07:13:52Z</time>
      </trkpt>
      <trkpt lat="43.388" lon="6.69136">
        <ele>215.60000610352</ele>
        <time>2012-10-12T07:13:58Z</time>
      </trkpt>
      <trkpt lat="43.38808" lon="6.69143">
        <ele>214.80000305176</ele>
        <time>2012-10-12T07:14:00Z</time>
      </trkpt>
      <trkpt lat="43.38825" lon="6.69137">
        <ele>216</ele>
        <time>2012-10-12T07:14:04Z</time>
      </trkpt>
      <trkpt lat="43.38848" lon="6.69118">
        <ele>215.80000305176</ele>
        <time>2012-10-12T07:14:09Z</time>
      </trkpt>
      <trkpt lat="43.3886" lon="6.69107">
        <ele>214.80000305176</ele>
        <time>2012-10-12T07:14:11Z</time>
      </trkpt>
      <trkpt lat="43.38889" lon="6.69088">
        <ele>211.39999389648</ele>
        <time>2012-10-12T07:14:15Z</time>
      </trkpt>
      <trkpt lat="43.38917" lon="6.69063">
        <ele>209</ele>
        <time>2012-10-12T07:14:19Z</time>
      </trkpt>
      <trkpt lat="43.38954" lon="6.69048">
        <ele>203.39999389648</ele>
        <time>2012-10-12T07:14:23Z</time>
      </trkpt>
      <trkpt lat="43.3898" lon="6.69045">
        <ele>198.19999694824</ele>
        <time>2012-10-12T07:14:27Z</time>
      </trkpt>
      <trkpt lat="43.38989" lon="6.69043">
        <ele>196.39999389648</ele>
        <time>2012-10-12T07:14:29Z</time>
      </trkpt>
      <trkpt lat="43.39005" lon="6.69039">
        <ele>193.80000305176</ele>
        <time>2012-10-12T07:14:32Z</time>
      </trkpt>
      <trkpt lat="43.39031" lon="6.69027">
        <ele>188.19999694824</ele>
        <time>2012-10-12T07:14:38Z</time>
      </trkpt>
      <trkpt lat="43.39035" lon="6.69025">
        <ele>187.19999694824</ele>
        <time>2012-10-12T07:14:39Z</time>
      </trkpt>
      <trkpt lat="43.39049" lon="6.69018">
        <ele>184.80000305176</ele>
        <time>2012-10-12T07:14:43Z</time>
      </trkpt>
      <trkpt lat="43.39064" lon="6.69004">
        <ele>183</ele>
        <time>2012-10-12T07:14:48Z</time>
      </trkpt>
      <trkpt lat="43.3908" lon="6.69">
        <ele>179</ele>
        <time>2012-10-12T07:14:53Z</time>
      </trkpt>
      <trkpt lat="43.39094" lon="6.6899">
        <ele>175.19999694824</ele>
        <time>2012-10-12T07:14:56Z</time>
      </trkpt>
      <trkpt lat="43.39108" lon="6.68967">
        <ele>171.80000305176</ele>
        <time>2012-10-12T07:15:01Z</time>
      </trkpt>
      <trkpt lat="43.39115" lon="6.68963">
        <ele>170.19999694824</ele>
        <time>2012-10-12T07:15:03Z</time>
      </trkpt>
      <trkpt lat="43.39127" lon="6.68958">
        <ele>167.39999389648</ele>
        <time>2012-10-12T07:15:08Z</time>
      </trkpt>
      <trkpt lat="43.39133" lon="6.68953">
        <ele>166</ele>
        <time>2012-10-12T07:15:10Z</time>
      </trkpt>
      <trkpt lat="43.39148" lon="6.68951">
        <ele>162.39999389648</ele>
        <time>2012-10-12T07:15:14Z</time>
      </trkpt>
      <trkpt lat="43.39156" lon="6.68944">
        <ele>160.80000305176</ele>
        <time>2012-10-12T07:15:16Z</time>
      </trkpt>
      <trkpt lat="43.39173" lon="6.68932">
        <ele>158</ele>
        <time>2012-10-12T07:15:19Z</time>
      </trkpt>
      <trkpt lat="43.39199" lon="6.68923">
        <ele>155</ele>
        <time>2012-10-12T07:15:23Z</time>
      </trkpt>
      <trkpt lat="43.39233" lon="6.6892">
        <ele>150.60000610352</ele>
        <time>2012-10-12T07:15:28Z</time>
      </trkpt>
      <trkpt lat="43.39261" lon="6.68925">
        <ele>145.19999694824</ele>
        <time>2012-10-12T07:15:32Z</time>
      </trkpt>
      <trkpt lat="43.39285" lon="6.6892">
        <ele>142</ele>
        <time>2012-10-12T07:15:37Z</time>
      </trkpt>
      <trkpt lat="43.39305" lon="6.6891">
        <ele>139.39999389648</ele>
        <time>2012-10-12T07:15:40Z</time>
      </trkpt>
      <trkpt lat="43.39325" lon="6.68893">
        <ele>137.39999389648</ele>
        <time>2012-10-12T07:15:43Z</time>
      </trkpt>
      <trkpt lat="43.39348" lon="6.68892">
        <ele>134.39999389648</ele>
        <time>2012-10-12T07:15:47Z</time>
      </trkpt>
      <trkpt lat="43.39372" lon="6.68901">
        <ele>130.39999389648</ele>
        <time>2012-10-12T07:15:50Z</time>
      </trkpt>
      <trkpt lat="43.39394" lon="6.68912">
        <ele>126.40000152588</ele>
        <time>2012-10-12T07:15:53Z</time>
      </trkpt>
      <trkpt lat="43.39431" lon="6.6893">
        <ele>117.40000152588</ele>
        <time>2012-10-12T07:15:58Z</time>
      </trkpt>
      <trkpt lat="43.3945" lon="6.68925">
        <ele>115.40000152588</ele>
        <time>2012-10-12T07:16:02Z</time>
      </trkpt>
      <trkpt lat="43.39457" lon="6.68918">
        <ele>116</ele>
        <time>2012-10-12T07:16:04Z</time>
      </trkpt>
      <trkpt lat="43.39474" lon="6.68904">
        <ele>114</ele>
        <time>2012-10-12T07:16:09Z</time>
      </trkpt>
      <trkpt lat="43.39493" lon="6.6889">
        <ele>110.80000305176</ele>
        <time>2012-10-12T07:16:15Z</time>
      </trkpt>
      <trkpt lat="43.39506" lon="6.6888">
        <ele>108.80000305176</ele>
        <time>2012-10-12T07:16:18Z</time>
      </trkpt>
      <trkpt lat="43.39522" lon="6.6886">
        <ele>106.40000152588</ele>
        <time>2012-10-12T07:16:22Z</time>
      </trkpt>
      <trkpt lat="43.39525" lon="6.68855">
        <ele>106</ele>
        <time>2012-10-12T07:16:23Z</time>
      </trkpt>
      <trkpt lat="43.39531" lon="6.68831">
        <ele>105.59999847412</ele>
        <time>2012-10-12T07:16:28Z</time>
      </trkpt>
      <trkpt lat="43.3953" lon="6.68824">
        <ele>105.19999694824</ele>
        <time>2012-10-12T07:16:30Z</time>
      </trkpt>
      <trkpt lat="43.39514" lon="6.68789">
        <ele>104.40000152588</ele>
        <time>2012-10-12T07:16:36Z</time>
      </trkpt>
      <trkpt lat="43.39495" lon="6.68765">
        <ele>104.40000152588</ele>
        <time>2012-10-12T07:16:41Z</time>
      </trkpt>
      <trkpt lat="43.39485" lon="6.68753">
        <ele>104.80000305176</ele>
        <time>2012-10-12T07:16:43Z</time>
      </trkpt>
      <trkpt lat="43.3947" lon="6.68723">
        <ele>102.80000305176</ele>
        <time>2012-10-12T07:16:47Z</time>
      </trkpt>
      <trkpt lat="43.39462" lon="6.68696">
        <ele>99.800003051758</ele>
        <time>2012-10-12T07:16:51Z</time>
      </trkpt>
      <trkpt lat="43.39462" lon="6.68664">
        <ele>94.800003051758</ele>
        <time>2012-10-12T07:16:56Z</time>
      </trkpt>
      <trkpt lat="43.39465" lon="6.68635">
        <ele>92.400001525879</ele>
        <time>2012-10-12T07:17:00Z</time>
      </trkpt>
      <trkpt lat="43.39477" lon="6.68578">
        <ele>88.199996948242</ele>
        <time>2012-10-12T07:17:06Z</time>
      </trkpt>
      <trkpt lat="43.39478" lon="6.68568">
        <ele>88</ele>
        <time>2012-10-12T07:17:07Z</time>
      </trkpt>
      <trkpt lat="43.39477" lon="6.68535">
        <ele>87.400001525879</ele>
        <time>2012-10-12T07:17:11Z</time>
      </trkpt>
      <trkpt lat="43.39464" lon="6.68522">
        <ele>86.800003051758</ele>
        <time>2012-10-12T07:17:14Z</time>
      </trkpt>
      <trkpt lat="43.39443" lon="6.68514">
        <ele>85.800003051758</ele>
        <time>2012-10-12T07:17:17Z</time>
      </trkpt>
      <trkpt lat="43.39423" lon="6.68489">
        <ele>84.199996948242</ele>
        <time>2012-10-12T07:17:20Z</time>
      </trkpt>
      <trkpt lat="43.39403" lon="6.68464">
        <ele>83</ele>
        <time>2012-10-12T07:17:23Z</time>
      </trkpt>
      <trkpt lat="43.39397" lon="6.68454">
        <ele>82.599998474121</ele>
        <time>2012-10-12T07:17:24Z</time>
      </trkpt>
      <trkpt lat="43.39384" lon="6.68416">
        <ele>79.800003051758</ele>
        <time>2012-10-12T07:17:28Z</time>
      </trkpt>
      <trkpt lat="43.39381" lon="6.68403">
        <ele>78.599998474121</ele>
        <time>2012-10-12T07:17:30Z</time>
      </trkpt>
      <trkpt lat="43.39372" lon="6.68385">
        <ele>76.599998474121</ele>
        <time>2012-10-12T07:17:34Z</time>
      </trkpt>
      <trkpt lat="43.39367" lon="6.68376">
        <ele>75.400001525879</ele>
        <time>2012-10-12T07:17:37Z</time>
      </trkpt>
      <trkpt lat="43.39356" lon="6.68361">
        <ele>73.400001525879</ele>
        <time>2012-10-12T07:17:41Z</time>
      </trkpt>
      <trkpt lat="43.39353" lon="6.68354">
        <ele>72.599998474121</ele>
        <time>2012-10-12T07:17:42Z</time>
      </trkpt>
      <trkpt lat="43.39336" lon="6.68336">
        <ele>69.400001525879</ele>
        <time>2012-10-12T07:17:47Z</time>
      </trkpt>
      <trkpt lat="43.39311" lon="6.68332">
        <ele>72</ele>
        <time>2012-10-12T07:17:53Z</time>
      </trkpt>
      <trkpt lat="43.39309" lon="6.68312">
        <ele>72</ele>
        <time>2012-10-12T07:17:56Z</time>
      </trkpt>
      <trkpt lat="43.39312" lon="6.68306">
        <ele>71.599998474121</ele>
        <time>2012-10-12T07:17:57Z</time>
      </trkpt>
      <trkpt lat="43.39314" lon="6.68276">
        <ele>71.199996948242</ele>
        <time>2012-10-12T07:18:02Z</time>
      </trkpt>
      <trkpt lat="43.39311" lon="6.68271">
        <ele>71.599998474121</ele>
        <time>2012-10-12T07:18:04Z</time>
      </trkpt>
      <trkpt lat="43.39303" lon="6.68259">
        <ele>72.800003051758</ele>
        <time>2012-10-12T07:18:10Z</time>
      </trkpt>
      <trkpt lat="43.39288" lon="6.6825">
        <ele>75</ele>
        <time>2012-10-12T07:18:15Z</time>
      </trkpt>
      <trkpt lat="43.39274" lon="6.68239">
        <ele>77</ele>
        <time>2012-10-12T07:18:20Z</time>
      </trkpt>
      <trkpt lat="43.3927" lon="6.68215">
        <ele>76.800003051758</ele>
        <time>2012-10-12T07:18:25Z</time>
      </trkpt>
      <trkpt lat="43.39275" lon="6.68186">
        <ele>75.599998474121</ele>
        <time>2012-10-12T07:18:29Z</time>
      </trkpt>
      <trkpt lat="43.39282" lon="6.68166">
        <ele>74.599998474121</ele>
        <time>2012-10-12T07:18:32Z</time>
      </trkpt>
      <trkpt lat="43.393" lon="6.68132">
        <ele>73.800003051758</ele>
        <time>2012-10-12T07:18:38Z</time>
      </trkpt>
      <trkpt lat="43.39307" lon="6.68122">
        <ele>73.800003051758</ele>
        <time>2012-10-12T07:18:40Z</time>
      </trkpt>
      <trkpt lat="43.39324" lon="6.68096">
        <ele>75.400001525879</ele>
        <time>2012-10-12T07:18:46Z</time>
      </trkpt>
      <trkpt lat="43.39326" lon="6.68081">
        <ele>76.400001525879</ele>
        <time>2012-10-12T07:18:50Z</time>
      </trkpt>
      <trkpt lat="43.39326" lon="6.68078">
        <ele>76.199996948242</ele>
        <time>2012-10-12T07:18:51Z</time>
      </trkpt>
      <trkpt lat="43.39326" lon="6.68051">
        <ele>75.800003051758</ele>
        <time>2012-10-12T07:18:57Z</time>
      </trkpt>
      <trkpt lat="43.39329" lon="6.68023">
        <ele>75.800003051758</ele>
        <time>2012-10-12T07:19:02Z</time>
      </trkpt>
      <trkpt lat="43.39332" lon="6.68011">
        <ele>76</ele>
        <time>2012-10-12T07:19:04Z</time>
      </trkpt>
      <trkpt lat="43.39332" lon="6.6799">
        <ele>74.599998474121</ele>
        <time>2012-10-12T07:19:07Z</time>
      </trkpt>
      <trkpt lat="43.39328" lon="6.67971">
        <ele>72.199996948242</ele>
        <time>2012-10-12T07:19:11Z</time>
      </trkpt>
      <trkpt lat="43.39319" lon="6.67951">
        <ele>68.800003051758</ele>
        <time>2012-10-12T07:19:16Z</time>
      </trkpt>
      <trkpt lat="43.39314" lon="6.67928">
        <ele>65.599998474121</ele>
        <time>2012-10-12T07:19:20Z</time>
      </trkpt>
      <trkpt lat="43.3931" lon="6.67912">
        <ele>63</ele>
        <time>2012-10-12T07:19:24Z</time>
      </trkpt>
      <trkpt lat="43.39307" lon="6.679">
        <ele>60.799999237061</ele>
        <time>2012-10-12T07:19:29Z</time>
      </trkpt>
      <trkpt lat="43.39302" lon="6.67889">
        <ele>58.599998474121</ele>
        <time>2012-10-12T07:19:35Z</time>
      </trkpt>
      <trkpt lat="43.39298" lon="6.67883">
        <ele>57.200000762939</ele>
        <time>2012-10-12T07:19:38Z</time>
      </trkpt>
      <trkpt lat="43.39302" lon="6.67867">
        <ele>55</ele>
        <time>2012-10-12T07:19:44Z</time>
      </trkpt>
      <trkpt lat="43.39309" lon="6.67856">
        <ele>53.799999237061</ele>
        <time>2012-10-12T07:19:48Z</time>
      </trkpt>
      <trkpt lat="43.39315" lon="6.67846">
        <ele>52.400001525879</ele>
        <time>2012-10-12T07:19:53Z</time>
      </trkpt>
      <trkpt lat="43.39316" lon="6.67838">
        <ele>51.200000762939</ele>
        <time>2012-10-12T07:19:57Z</time>
      </trkpt>
      <trkpt lat="43.39316" lon="6.67835">
        <ele>50.599998474121</ele>
        <time>2012-10-12T07:19:59Z</time>
      </trkpt>
      <trkpt lat="43.39317" lon="6.67824">
        <ele>49</ele>
        <time>2012-10-12T07:20:03Z</time>
      </trkpt>
      <trkpt lat="43.39312" lon="6.67814">
        <ele>47.200000762939</ele>
        <time>2012-10-12T07:20:06Z</time>
      </trkpt>
      <trkpt lat="43.39309" lon="6.67797">
        <ele>44.200000762939</ele>
        <time>2012-10-12T07:20:11Z</time>
      </trkpt>
      <trkpt lat="43.39311" lon="6.67789">
        <ele>43</ele>
        <time>2012-10-12T07:20:16Z</time>
      </trkpt>
      <trkpt lat="43.39313" lon="6.67786">
        <ele>42.599998474121</ele>
        <time>2012-10-12T07:20:19Z</time>
      </trkpt>
      <trkpt lat="43.3932" lon="6.67781">
        <ele>42.200000762939</ele>
        <time>2012-10-12T07:20:26Z</time>
      </trkpt>
      <trkpt lat="43.39321" lon="6.67781">
        <ele>42.200000762939</ele>
        <time>2012-10-12T07:20:27Z</time>
      </trkpt>
      <trkpt lat="43.39324" lon="6.67776">
        <ele>41.599998474121</ele>
        <time>2012-10-12T07:20:31Z</time>
      </trkpt>
      <trkpt lat="43.39327" lon="6.67766">
        <ele>40.200000762939</ele>
        <time>2012-10-12T07:20:35Z</time>
      </trkpt>
      <trkpt lat="43.39332" lon="6.67752">
        <ele>38.400001525879</ele>
        <time>2012-10-12T07:20:39Z</time>
      </trkpt>
      <trkpt lat="43.39329" lon="6.67744">
        <ele>36.799999237061</ele>
        <time>2012-10-12T07:20:44Z</time>
      </trkpt>
      <trkpt lat="43.39327" lon="6.67737">
        <ele>35.599998474121</ele>
        <time>2012-10-12T07:20:47Z</time>
      </trkpt>
      <trkpt lat="43.3932" lon="6.67722">
        <ele>33</ele>
        <time>2012-10-12T07:20:52Z</time>
      </trkpt>
      <trkpt lat="43.39309" lon="6.67716">
        <ele>31.39999961853</ele>
        <time>2012-10-12T07:20:56Z</time>
      </trkpt>
      <trkpt lat="43.393" lon="6.67707">
        <ele>29.39999961853</ele>
        <time>2012-10-12T07:21:01Z</time>
      </trkpt>
      <trkpt lat="43.39297" lon="6.67703">
        <ele>28.799999237061</ele>
        <time>2012-10-12T07:21:03Z</time>
      </trkpt>
      <trkpt lat="43.39285" lon="6.6769">
        <ele>26.200000762939</ele>
        <time>2012-10-12T07:21:10Z</time>
      </trkpt>
      <trkpt lat="43.39276" lon="6.67678">
        <ele>23.799999237061</ele>
        <time>2012-10-12T07:21:15Z</time>
      </trkpt>
      <trkpt lat="43.39268" lon="6.67665">
        <ele>22</ele>
        <time>2012-10-12T07:21:20Z</time>
      </trkpt>
      <trkpt lat="43.39263" lon="6.67663">
        <ele>21.799999237061</ele>
        <time>2012-10-12T07:21:26Z</time>
      </trkpt>
      <trkpt lat="43.39254" lon="6.67662">
        <ele>21.60000038147</ele>
        <time>2012-10-12T07:21:31Z</time>
      </trkpt>
      <trkpt lat="43.39247" lon="6.67665">
        <ele>21.200000762939</ele>
        <time>2012-10-12T07:21:36Z</time>
      </trkpt>
      <trkpt lat="43.39237" lon="6.67667">
        <ele>20.799999237061</ele>
        <time>2012-10-12T07:21:43Z</time>
      </trkpt>
      <trkpt lat="43.3923" lon="6.67669">
        <ele>21</ele>
        <time>2012-10-12T07:21:45Z</time>
      </trkpt>
      <trkpt lat="43.3922" lon="6.67657">
        <ele>21.799999237061</ele>
        <time>2012-10-12T07:21:50Z</time>
      </trkpt>
      <trkpt lat="43.39224" lon="6.67646">
        <ele>23</ele>
        <time>2012-10-12T07:21:53Z</time>
      </trkpt>
      <trkpt lat="43.39222" lon="6.67644">
        <ele>23.39999961853</ele>
        <time>2012-10-12T07:21:54Z</time>
      </trkpt>
      <trkpt lat="43.39216" lon="6.67628">
        <ele>25.39999961853</ele>
        <time>2012-10-12T07:22:00Z</time>
      </trkpt>
      <trkpt lat="43.39221" lon="6.67624">
        <ele>25.60000038147</ele>
        <time>2012-10-12T07:22:02Z</time>
      </trkpt>
      <trkpt lat="43.39238" lon="6.67623">
        <ele>25.200000762939</ele>
        <time>2012-10-12T07:22:07Z</time>
      </trkpt>
      <trkpt lat="43.39255" lon="6.67624">
        <ele>24.60000038147</ele>
        <time>2012-10-12T07:22:11Z</time>
      </trkpt>
      <trkpt lat="43.39271" lon="6.6762">
        <ele>25</ele>
        <time>2012-10-12T07:22:15Z</time>
      </trkpt>
      <trkpt lat="43.3928" lon="6.67618">
        <ele>25.200000762939</ele>
        <time>2012-10-12T07:22:17Z</time>
      </trkpt>
      <trkpt lat="43.39304" lon="6.67618">
        <ele>25.39999961853</ele>
        <time>2012-10-12T07:22:22Z</time>
      </trkpt>
      <trkpt lat="43.3932" lon="6.67616">
        <ele>25.60000038147</ele>
        <time>2012-10-12T07:22:25Z</time>
      </trkpt>
      <trkpt lat="43.39344" lon="6.67611">
        <ele>25</ele>
        <time>2012-10-12T07:22:30Z</time>
      </trkpt>
      <trkpt lat="43.39356" lon="6.67603">
        <ele>24.39999961853</ele>
        <time>2012-10-12T07:22:32Z</time>
      </trkpt>
      <trkpt lat="43.39388" lon="6.67587">
        <ele>22.200000762939</ele>
        <time>2012-10-12T07:22:38Z</time>
      </trkpt>
      <trkpt lat="43.394" lon="6.67575">
        <ele>22</ele>
        <time>2012-10-12T07:22:42Z</time>
      </trkpt>
      <trkpt lat="43.39412" lon="6.67577">
        <ele>21</ele>
        <time>2012-10-12T07:22:45Z</time>
      </trkpt>
      <trkpt lat="43.39433" lon="6.67584">
        <ele>19.799999237061</ele>
        <time>2012-10-12T07:22:50Z</time>
      </trkpt>
      <trkpt lat="43.39447" lon="6.67583">
        <ele>19.60000038147</ele>
        <time>2012-10-12T07:22:54Z</time>
      </trkpt>
      <trkpt lat="43.39462" lon="6.67577">
        <ele>19.799999237061</ele>
        <time>2012-10-12T07:22:57Z</time>
      </trkpt>
      <trkpt lat="43.39472" lon="6.67569">
        <ele>20.200000762939</ele>
        <time>2012-10-12T07:22:59Z</time>
      </trkpt>
      <trkpt lat="43.39496" lon="6.67552">
        <ele>20.60000038147</ele>
        <time>2012-10-12T07:23:04Z</time>
      </trkpt>
      <trkpt lat="43.39503" lon="6.67554">
        <ele>20.39999961853</ele>
        <time>2012-10-12T07:23:05Z</time>
      </trkpt>
      <trkpt lat="43.39523" lon="6.67543">
        <ele>19.799999237061</ele>
        <time>2012-10-12T07:23:11Z</time>
      </trkpt>
      <trkpt lat="43.39543" lon="6.67527">
        <ele>19.200000762939</ele>
        <time>2012-10-12T07:23:14Z</time>
      </trkpt>
      <trkpt lat="43.3955" lon="6.67522">
        <ele>19</ele>
        <time>2012-10-12T07:23:15Z</time>
      </trkpt>
      <trkpt lat="43.39565" lon="6.67511">
        <ele>18.200000762939</ele>
        <time>2012-10-12T07:23:17Z</time>
      </trkpt>
      <trkpt lat="43.39621" lon="6.67489">
        <ele>15.60000038147</ele>
        <time>2012-10-12T07:23:24Z</time>
      </trkpt>
      <trkpt lat="43.39652" lon="6.67481">
        <ele>14.39999961853</ele>
        <time>2012-10-12T07:23:29Z</time>
      </trkpt>
      <trkpt lat="43.39675" lon="6.67476">
        <ele>14.199999809265</ele>
        <time>2012-10-12T07:23:33Z</time>
      </trkpt>
      <trkpt lat="43.39696" lon="6.67478">
        <ele>14.60000038147</ele>
        <time>2012-10-12T07:23:37Z</time>
      </trkpt>
      <trkpt lat="43.39713" lon="6.67495">
        <ele>15</ele>
        <time>2012-10-12T07:23:41Z</time>
      </trkpt>
      <trkpt lat="43.39723" lon="6.67498">
        <ele>15.39999961853</ele>
        <time>2012-10-12T07:23:44Z</time>
      </trkpt>
      <trkpt lat="43.39729" lon="6.67491">
        <ele>15.39999961853</ele>
        <time>2012-10-12T07:23:46Z</time>
      </trkpt>
      <trkpt lat="43.39734" lon="6.67457">
        <ele>15.199999809265</ele>
        <time>2012-10-12T07:23:52Z</time>
      </trkpt>
      <trkpt lat="43.39734" lon="6.67451">
        <ele>15.199999809265</ele>
        <time>2012-10-12T07:23:53Z</time>
      </trkpt>
      <trkpt lat="43.39739" lon="6.67405">
        <ele>15</ele>
        <time>2012-10-12T07:24:00Z</time>
      </trkpt>
      <trkpt lat="43.39745" lon="6.67378">
        <ele>15</ele>
        <time>2012-10-12T07:24:03Z</time>
      </trkpt>
      <trkpt lat="43.39746" lon="6.67329">
        <ele>15.199999809265</ele>
        <time>2012-10-12T07:24:08Z</time>
      </trkpt>
      <trkpt lat="43.39739" lon="6.67293">
        <ele>16.60000038147</ele>
        <time>2012-10-12T07:24:12Z</time>
      </trkpt>
      <trkpt lat="43.39727" lon="6.67262">
        <ele>17.799999237061</ele>
        <time>2012-10-12T07:24:16Z</time>
      </trkpt>
      <trkpt lat="43.39702" lon="6.67237">
        <ele>18.200000762939</ele>
        <time>2012-10-12T07:24:21Z</time>
      </trkpt>
      <trkpt lat="43.39688" lon="6.67223">
        <ele>17.799999237061</ele>
        <time>2012-10-12T07:24:24Z</time>
      </trkpt>
      <trkpt lat="43.39674" lon="6.67209">
        <ele>17.200000762939</ele>
        <time>2012-10-12T07:24:27Z</time>
      </trkpt>
      <trkpt lat="43.39649" lon="6.672">
        <ele>16.799999237061</ele>
        <time>2012-10-12T07:24:31Z</time>
      </trkpt>
      <trkpt lat="43.39631" lon="6.67205">
        <ele>17</ele>
        <time>2012-10-12T07:24:34Z</time>
      </trkpt>
      <trkpt lat="43.3962" lon="6.6721">
        <ele>17.39999961853</ele>
        <time>2012-10-12T07:24:36Z</time>
      </trkpt>
      <trkpt lat="43.3959" lon="6.67224">
        <ele>18</ele>
        <time>2012-10-12T07:24:41Z</time>
      </trkpt>
      <trkpt lat="43.39584" lon="6.67228">
        <ele>18.200000762939</ele>
        <time>2012-10-12T07:24:42Z</time>
      </trkpt>
      <trkpt lat="43.3956" lon="6.67218">
        <ele>20.200000762939</ele>
        <time>2012-10-12T07:24:46Z</time>
      </trkpt>
      <trkpt lat="43.39555" lon="6.67211">
        <ele>20.200000762939</ele>
        <time>2012-10-12T07:24:47Z</time>
      </trkpt>
      <trkpt lat="43.39538" lon="6.67172">
        <ele>18.60000038147</ele>
        <time>2012-10-12T07:24:52Z</time>
      </trkpt>
      <trkpt lat="43.39515" lon="6.67145">
        <ele>18.200000762939</ele>
        <time>2012-10-12T07:24:57Z</time>
      </trkpt>
      <trkpt lat="43.39495" lon="6.67128">
        <ele>18</ele>
        <time>2012-10-12T07:25:01Z</time>
      </trkpt>
      <trkpt lat="43.39481" lon="6.67103">
        <ele>17</ele>
        <time>2012-10-12T07:25:05Z</time>
      </trkpt>
      <trkpt lat="43.39463" lon="6.67092">
        <ele>17</ele>
        <time>2012-10-12T07:25:09Z</time>
      </trkpt>
      <trkpt lat="43.39459" lon="6.67088">
        <ele>16.799999237061</ele>
        <time>2012-10-12T07:25:10Z</time>
      </trkpt>
      <trkpt lat="43.39445" lon="6.67067">
        <ele>17.799999237061</ele>
        <time>2012-10-12T07:25:14Z</time>
      </trkpt>
      <trkpt lat="43.39428" lon="6.67037">
        <ele>19</ele>
        <time>2012-10-12T07:25:19Z</time>
      </trkpt>
      <trkpt lat="43.39419" lon="6.67026">
        <ele>19.39999961853</ele>
        <time>2012-10-12T07:25:21Z</time>
      </trkpt>
      <trkpt lat="43.394" lon="6.66988">
        <ele>21</ele>
        <time>2012-10-12T07:25:26Z</time>
      </trkpt>
      <trkpt lat="43.39384" lon="6.66963">
        <ele>21.799999237061</ele>
        <time>2012-10-12T07:25:30Z</time>
      </trkpt>
      <trkpt lat="43.39342" lon="6.66929">
        <ele>20</ele>
        <time>2012-10-12T07:25:37Z</time>
      </trkpt>
      <trkpt lat="43.39331" lon="6.66919">
        <ele>19.200000762939</ele>
        <time>2012-10-12T07:25:39Z</time>
      </trkpt>
      <trkpt lat="43.39307" lon="6.669">
        <ele>20.200000762939</ele>
        <time>2012-10-12T07:25:43Z</time>
      </trkpt>
      <trkpt lat="43.3929" lon="6.66885">
        <ele>20.799999237061</ele>
        <time>2012-10-12T07:25:46Z</time>
      </trkpt>
      <trkpt lat="43.39271" lon="6.66849">
        <ele>21</ele>
        <time>2012-10-12T07:25:51Z</time>
      </trkpt>
      <trkpt lat="43.3927" lon="6.66822">
        <ele>21.200000762939</ele>
        <time>2012-10-12T07:25:54Z</time>
      </trkpt>
      <trkpt lat="43.39283" lon="6.66785">
        <ele>23.200000762939</ele>
        <time>2012-10-12T07:25:59Z</time>
      </trkpt>
      <trkpt lat="43.39294" lon="6.66755">
        <ele>25</ele>
        <time>2012-10-12T07:26:04Z</time>
      </trkpt>
      <trkpt lat="43.39302" lon="6.66737">
        <ele>26.60000038147</ele>
        <time>2012-10-12T07:26:08Z</time>
      </trkpt>
      <trkpt lat="43.3931" lon="6.66703">
        <ele>29</ele>
        <time>2012-10-12T07:26:17Z</time>
      </trkpt>
      <trkpt lat="43.39315" lon="6.66675">
        <ele>30.60000038147</ele>
        <time>2012-10-12T07:26:25Z</time>
      </trkpt>
      <trkpt lat="43.3932" lon="6.66649">
        <ele>31.60000038147</ele>
        <time>2012-10-12T07:26:32Z</time>
      </trkpt>
      <trkpt lat="43.39329" lon="6.66613">
        <ele>32</ele>
        <time>2012-10-12T07:26:41Z</time>
      </trkpt>
      <trkpt lat="43.39341" lon="6.66574">
        <ele>33.400001525879</ele>
        <time>2012-10-12T07:26:49Z</time>
      </trkpt>
      <trkpt lat="43.39342" lon="6.66551">
        <ele>33.599998474121</ele>
        <time>2012-10-12T07:26:54Z</time>
      </trkpt>
      <trkpt lat="43.39346" lon="6.66524">
        <ele>34.200000762939</ele>
        <time>2012-10-12T07:27:00Z</time>
      </trkpt>
      <trkpt lat="43.39358" lon="6.66505">
        <ele>35.400001525879</ele>
        <time>2012-10-12T07:27:06Z</time>
      </trkpt>
      <trkpt lat="43.39381" lon="6.66491">
        <ele>37.400001525879</ele>
        <time>2012-10-12T07:27:14Z</time>
      </trkpt>
      <trkpt lat="43.39404" lon="6.66482">
        <ele>38.799999237061</ele>
        <time>2012-10-12T07:27:22Z</time>
      </trkpt>
      <trkpt lat="43.39421" lon="6.66477">
        <ele>39.799999237061</ele>
        <time>2012-10-12T07:27:28Z</time>
      </trkpt>
      <trkpt lat="43.39424" lon="6.66479">
        <ele>40.200000762939</ele>
        <time>2012-10-12T07:27:34Z</time>
      </trkpt>
      <trkpt lat="43.39423" lon="6.66476">
        <ele>40</ele>
        <time>2012-10-12T07:28:04Z</time>
      </trkpt>
      <trkpt lat="43.39423" lon="6.66476">
        <ele>40</ele>
        <time>2012-10-12T07:28:06Z</time>
      </trkpt>
      <trkpt lat="43.39435" lon="6.66468">
        <ele>40.599998474121</ele>
        <time>2012-10-12T07:28:11Z</time>
      </trkpt>
      <trkpt lat="43.3946" lon="6.66456">
        <ele>41.799999237061</ele>
        <time>2012-10-12T07:28:18Z</time>
      </trkpt>
      <trkpt lat="43.39484" lon="6.66451">
        <ele>43.599998474121</ele>
        <time>2012-10-12T07:28:25Z</time>
      </trkpt>
      <trkpt lat="43.395" lon="6.66446">
        <ele>44.599998474121</ele>
        <time>2012-10-12T07:28:30Z</time>
      </trkpt>
      <trkpt lat="43.39516" lon="6.66441">
        <ele>45.200000762939</ele>
        <time>2012-10-12T07:28:35Z</time>
      </trkpt>
      <trkpt lat="43.3954" lon="6.66437">
        <ele>46.799999237061</ele>
        <time>2012-10-12T07:28:43Z</time>
      </trkpt>
      <trkpt lat="43.39566" lon="6.66438">
        <ele>49</ele>
        <time>2012-10-12T07:28:51Z</time>
      </trkpt>
      <trkpt lat="43.39592" lon="6.66446">
        <ele>51.799999237061</ele>
        <time>2012-10-12T07:28:58Z</time>
      </trkpt>
      <trkpt lat="43.39614" lon="6.66444">
        <ele>53.200000762939</ele>
        <time>2012-10-12T07:29:03Z</time>
      </trkpt>
      <trkpt lat="43.39642" lon="6.66435">
        <ele>55.400001525879</ele>
        <time>2012-10-12T07:29:11Z</time>
      </trkpt>
      <trkpt lat="43.39654" lon="6.66425">
        <ele>56.599998474121</ele>
        <time>2012-10-12T07:29:16Z</time>
      </trkpt>
      <trkpt lat="43.39669" lon="6.66418">
        <ele>58.200000762939</ele>
        <time>2012-10-12T07:29:22Z</time>
      </trkpt>
      <trkpt lat="43.39681" lon="6.66423">
        <ele>59</ele>
        <time>2012-10-12T07:29:27Z</time>
      </trkpt>
      <trkpt lat="43.39687" lon="6.66435">
        <ele>59.200000762939</ele>
        <time>2012-10-12T07:29:31Z</time>
      </trkpt>
      <trkpt lat="43.39693" lon="6.66445">
        <ele>59.200000762939</ele>
        <time>2012-10-12T07:29:34Z</time>
      </trkpt>
      <trkpt lat="43.39701" lon="6.66444">
        <ele>59.799999237061</ele>
        <time>2012-10-12T07:29:38Z</time>
      </trkpt>
      <trkpt lat="43.397" lon="6.66427">
        <ele>60.400001525879</ele>
        <time>2012-10-12T07:29:43Z</time>
      </trkpt>
      <trkpt lat="43.39699" lon="6.6642">
        <ele>60.599998474121</ele>
        <time>2012-10-12T07:29:45Z</time>
      </trkpt>
      <trkpt lat="43.39702" lon="6.66397">
        <ele>60.599998474121</ele>
        <time>2012-10-12T07:29:51Z</time>
      </trkpt>
      <trkpt lat="43.39712" lon="6.66389">
        <ele>61.599998474121</ele>
        <time>2012-10-12T07:29:55Z</time>
      </trkpt>
      <trkpt lat="43.39729" lon="6.66392">
        <ele>63.599998474121</ele>
        <time>2012-10-12T07:30:01Z</time>
      </trkpt>
      <trkpt lat="43.39749" lon="6.66403">
        <ele>65.400001525879</ele>
        <time>2012-10-12T07:30:09Z</time>
      </trkpt>
      <trkpt lat="43.39764" lon="6.6641">
        <ele>65.400001525879</ele>
        <time>2012-10-12T07:30:15Z</time>
      </trkpt>
      <trkpt lat="43.3978" lon="6.66407">
        <ele>65.599998474121</ele>
        <time>2012-10-12T07:30:21Z</time>
      </trkpt>
      <trkpt lat="43.39791" lon="6.66392">
        <ele>66.599998474121</ele>
        <time>2012-10-12T07:30:27Z</time>
      </trkpt>
      <trkpt lat="43.39797" lon="6.66373">
        <ele>68</ele>
        <time>2012-10-12T07:30:32Z</time>
      </trkpt>
      <trkpt lat="43.39801" lon="6.66332">
        <ele>71.199996948242</ele>
        <time>2012-10-12T07:30:41Z</time>
      </trkpt>
      <trkpt lat="43.39793" lon="6.66312">
        <ele>73.199996948242</ele>
        <time>2012-10-12T07:30:45Z</time>
      </trkpt>
      <trkpt lat="43.39778" lon="6.66294">
        <ele>74.400001525879</ele>
        <time>2012-10-12T07:30:51Z</time>
      </trkpt>
      <trkpt lat="43.39767" lon="6.66278">
        <ele>75.599998474121</ele>
        <time>2012-10-12T07:30:57Z</time>
      </trkpt>
      <trkpt lat="43.39766" lon="6.66272">
        <ele>76.400001525879</ele>
        <time>2012-10-12T07:30:59Z</time>
      </trkpt>
      <trkpt lat="43.39774" lon="6.66264">
        <ele>77.800003051758</ele>
        <time>2012-10-12T07:31:04Z</time>
      </trkpt>
      <trkpt lat="43.39776" lon="6.66264">
        <ele>77.800003051758</ele>
        <time>2012-10-12T07:31:05Z</time>
      </trkpt>
      <trkpt lat="43.39784" lon="6.66265">
        <ele>78.199996948242</ele>
        <time>2012-10-12T07:31:09Z</time>
      </trkpt>
      <trkpt lat="43.39787" lon="6.66251">
        <ele>80</ele>
        <time>2012-10-12T07:31:15Z</time>
      </trkpt>
      <trkpt lat="43.39775" lon="6.66233">
        <ele>81</ele>
        <time>2012-10-12T07:31:22Z</time>
      </trkpt>
      <trkpt lat="43.39769" lon="6.66214">
        <ele>82</ele>
        <time>2012-10-12T07:31:28Z</time>
      </trkpt>
      <trkpt lat="43.3977" lon="6.66211">
        <ele>82.400001525879</ele>
        <time>2012-10-12T07:31:29Z</time>
      </trkpt>
      <trkpt lat="43.3978" lon="6.66206">
        <ele>83.800003051758</ele>
        <time>2012-10-12T07:31:34Z</time>
      </trkpt>
      <trkpt lat="43.39783" lon="6.66207">
        <ele>84</ele>
        <time>2012-10-12T07:31:35Z</time>
      </trkpt>
      <trkpt lat="43.39803" lon="6.66206">
        <ele>86.199996948242</ele>
        <time>2012-10-12T07:31:43Z</time>
      </trkpt>
      <trkpt lat="43.39812" lon="6.66191">
        <ele>89</ele>
        <time>2012-10-12T07:31:49Z</time>
      </trkpt>
      <trkpt lat="43.39822" lon="6.6617">
        <ele>93</ele>
        <time>2012-10-12T07:31:57Z</time>
      </trkpt>
      <trkpt lat="43.39837" lon="6.6615">
        <ele>97.400001525879</ele>
        <time>2012-10-12T07:32:05Z</time>
      </trkpt>
      <trkpt lat="43.3985" lon="6.66133">
        <ele>98.599998474121</ele>
        <time>2012-10-12T07:32:12Z</time>
      </trkpt>
      <trkpt lat="43.39867" lon="6.66112">
        <ele>100</ele>
        <time>2012-10-12T07:32:20Z</time>
      </trkpt>
      <trkpt lat="43.39879" lon="6.66092">
        <ele>102</ele>
        <time>2012-10-12T07:32:27Z</time>
      </trkpt>
      <trkpt lat="43.3989" lon="6.66072">
        <ele>103.59999847412</ele>
        <time>2012-10-12T07:32:34Z</time>
      </trkpt>
      <trkpt lat="43.39897" lon="6.66055">
        <ele>104.80000305176</ele>
        <time>2012-10-12T07:32:40Z</time>
      </trkpt>
      <trkpt lat="43.39903" lon="6.66033">
        <ele>106.59999847412</ele>
        <time>2012-10-12T07:32:47Z</time>
      </trkpt>
      <trkpt lat="43.39908" lon="6.66006">
        <ele>109.19999694824</ele>
        <time>2012-10-12T07:32:55Z</time>
      </trkpt>
      <trkpt lat="43.39912" lon="6.65977">
        <ele>111</ele>
        <time>2012-10-12T07:33:03Z</time>
      </trkpt>
      <trkpt lat="43.39914" lon="6.65948">
        <ele>113</ele>
        <time>2012-10-12T07:33:11Z</time>
      </trkpt>
      <trkpt lat="43.39912" lon="6.65917">
        <ele>115</ele>
        <time>2012-10-12T07:33:20Z</time>
      </trkpt>
      <trkpt lat="43.39909" lon="6.65883">
        <ele>117.59999847412</ele>
        <time>2012-10-12T07:33:29Z</time>
      </trkpt>
      <trkpt lat="43.3991" lon="6.65856">
        <ele>119.59999847412</ele>
        <time>2012-10-12T07:33:36Z</time>
      </trkpt>
      <trkpt lat="43.39918" lon="6.65837">
        <ele>121.59999847412</ele>
        <time>2012-10-12T07:33:42Z</time>
      </trkpt>
      <trkpt lat="43.39931" lon="6.65825">
        <ele>121.80000305176</ele>
        <time>2012-10-12T07:33:48Z</time>
      </trkpt>
      <trkpt lat="43.39949" lon="6.6581">
        <ele>122.59999847412</ele>
        <time>2012-10-12T07:33:56Z</time>
      </trkpt>
      <trkpt lat="43.3997" lon="6.65798">
        <ele>123.40000152588</ele>
        <time>2012-10-12T07:34:05Z</time>
      </trkpt>
      <trkpt lat="43.39987" lon="6.6579">
        <ele>124.19999694824</ele>
        <time>2012-10-12T07:34:12Z</time>
      </trkpt>
      <trkpt lat="43.40003" lon="6.65779">
        <ele>125.59999847412</ele>
        <time>2012-10-12T07:34:19Z</time>
      </trkpt>
      <trkpt lat="43.4001" lon="6.65765">
        <ele>127</ele>
        <time>2012-10-12T07:34:24Z</time>
      </trkpt>
      <trkpt lat="43.40019" lon="6.6574">
        <ele>128.80000305176</ele>
        <time>2012-10-12T07:34:32Z</time>
      </trkpt>
      <trkpt lat="43.40024" lon="6.6572">
        <ele>129.80000305176</ele>
        <time>2012-10-12T07:34:39Z</time>
      </trkpt>
      <trkpt lat="43.40029" lon="6.65699">
        <ele>131</ele>
        <time>2012-10-12T07:34:46Z</time>
      </trkpt>
      <trkpt lat="43.40032" lon="6.65674">
        <ele>132.80000305176</ele>
        <time>2012-10-12T07:34:54Z</time>
      </trkpt>
      <trkpt lat="43.40031" lon="6.65656">
        <ele>134.19999694824</ele>
        <time>2012-10-12T07:35:00Z</time>
      </trkpt>
      <trkpt lat="43.40028" lon="6.65628">
        <ele>136.19999694824</ele>
        <time>2012-10-12T07:35:08Z</time>
      </trkpt>
      <trkpt lat="43.40025" lon="6.65608">
        <ele>138</ele>
        <time>2012-10-12T07:35:15Z</time>
      </trkpt>
      <trkpt lat="43.40021" lon="6.65587">
        <ele>139.60000610352</ele>
        <time>2012-10-12T07:35:22Z</time>
      </trkpt>
      <trkpt lat="43.40017" lon="6.65566">
        <ele>142.39999389648</ele>
        <time>2012-10-12T07:35:30Z</time>
      </trkpt>
      <trkpt lat="43.40011" lon="6.65549">
        <ele>145.19999694824</ele>
        <time>2012-10-12T07:35:36Z</time>
      </trkpt>
      <trkpt lat="43.40002" lon="6.65527">
        <ele>149.39999389648</ele>
        <time>2012-10-12T07:35:44Z</time>
      </trkpt>
      <trkpt lat="43.39987" lon="6.65509">
        <ele>151.19999694824</ele>
        <time>2012-10-12T07:35:52Z</time>
      </trkpt>
      <trkpt lat="43.3997" lon="6.65496">
        <ele>152.39999389648</ele>
        <time>2012-10-12T07:35:59Z</time>
      </trkpt>
      <trkpt lat="43.3995" lon="6.65484">
        <ele>153.60000610352</ele>
        <time>2012-10-12T07:36:07Z</time>
      </trkpt>
      <trkpt lat="43.39933" lon="6.65479">
        <ele>153.60000610352</ele>
        <time>2012-10-12T07:36:13Z</time>
      </trkpt>
      <trkpt lat="43.39916" lon="6.65468">
        <ele>154.60000610352</ele>
        <time>2012-10-12T07:36:20Z</time>
      </trkpt>
      <trkpt lat="43.39898" lon="6.65447">
        <ele>156.19999694824</ele>
        <time>2012-10-12T07:36:28Z</time>
      </trkpt>
      <trkpt lat="43.39892" lon="6.65426">
        <ele>158.80000305176</ele>
        <time>2012-10-12T07:36:34Z</time>
      </trkpt>
      <trkpt lat="43.39891" lon="6.65407">
        <ele>162</ele>
        <time>2012-10-12T07:36:39Z</time>
      </trkpt>
      <trkpt lat="43.39887" lon="6.65384">
        <ele>165.80000305176</ele>
        <time>2012-10-12T07:36:45Z</time>
      </trkpt>
      <trkpt lat="43.39882" lon="6.6536">
        <ele>169.19999694824</ele>
        <time>2012-10-12T07:36:51Z</time>
      </trkpt>
      <trkpt lat="43.39873" lon="6.65348">
        <ele>170</ele>
        <time>2012-10-12T07:36:55Z</time>
      </trkpt>
      <trkpt lat="43.39855" lon="6.65343">
        <ele>168.39999389648</ele>
        <time>2012-10-12T07:37:01Z</time>
      </trkpt>
      <trkpt lat="43.39837" lon="6.65329">
        <ele>168.39999389648</ele>
        <time>2012-10-12T07:37:08Z</time>
      </trkpt>
      <trkpt lat="43.39826" lon="6.65311">
        <ele>173.39999389648</ele>
        <time>2012-10-12T07:37:14Z</time>
      </trkpt>
      <trkpt lat="43.39812" lon="6.65293">
        <ele>179.19999694824</ele>
        <time>2012-10-12T07:37:20Z</time>
      </trkpt>
      <trkpt lat="43.39804" lon="6.65291">
        <ele>180.39999389648</ele>
        <time>2012-10-12T07:37:23Z</time>
      </trkpt>
      <trkpt lat="43.39793" lon="6.65301">
        <ele>179</ele>
        <time>2012-10-12T07:37:27Z</time>
      </trkpt>
      <trkpt lat="43.39775" lon="6.65322">
        <ele>176.39999389648</ele>
        <time>2012-10-12T07:37:34Z</time>
      </trkpt>
      <trkpt lat="43.39758" lon="6.6533">
        <ele>176.80000305176</ele>
        <time>2012-10-12T07:37:39Z</time>
      </trkpt>
      <trkpt lat="43.39732" lon="6.65348">
        <ele>177.60000610352</ele>
        <time>2012-10-12T07:37:47Z</time>
      </trkpt>
      <trkpt lat="43.39719" lon="6.65368">
        <ele>176.19999694824</ele>
        <time>2012-10-12T07:37:52Z</time>
      </trkpt>
      <trkpt lat="43.39701" lon="6.65396">
        <ele>173.80000305176</ele>
        <time>2012-10-12T07:37:59Z</time>
      </trkpt>
      <trkpt lat="43.3968" lon="6.65407">
        <ele>174.19999694824</ele>
        <time>2012-10-12T07:38:05Z</time>
      </trkpt>
      <trkpt lat="43.39662" lon="6.65406">
        <ele>175.39999389648</ele>
        <time>2012-10-12T07:38:10Z</time>
      </trkpt>
      <trkpt lat="43.3964" lon="6.65389">
        <ele>175.19999694824</ele>
        <time>2012-10-12T07:38:17Z</time>
      </trkpt>
      <trkpt lat="43.39613" lon="6.65359">
        <ele>177.80000305176</ele>
        <time>2012-10-12T07:38:25Z</time>
      </trkpt>
      <trkpt lat="43.39592" lon="6.65332">
        <ele>181.39999389648</ele>
        <time>2012-10-12T07:38:30Z</time>
      </trkpt>
      <trkpt lat="43.39566" lon="6.65307">
        <ele>184.39999389648</ele>
        <time>2012-10-12T07:38:35Z</time>
      </trkpt>
      <trkpt lat="43.39561" lon="6.65303">
        <ele>184.60000610352</ele>
        <time>2012-10-12T07:38:36Z</time>
      </trkpt>
      <trkpt lat="43.39528" lon="6.65285">
        <ele>184.39999389648</ele>
        <time>2012-10-12T07:38:42Z</time>
      </trkpt>
      <trkpt lat="43.39505" lon="6.6527">
        <ele>184.80000305176</ele>
        <time>2012-10-12T07:38:48Z</time>
      </trkpt>
      <trkpt lat="43.39483" lon="6.65254">
        <ele>186.60000610352</ele>
        <time>2012-10-12T07:38:56Z</time>
      </trkpt>
      <trkpt lat="43.39467" lon="6.65241">
        <ele>187.80000305176</ele>
        <time>2012-10-12T07:39:02Z</time>
      </trkpt>
      <trkpt lat="43.39455" lon="6.65225">
        <ele>189.39999389648</ele>
        <time>2012-10-12T07:39:08Z</time>
      </trkpt>
      <trkpt lat="43.39457" lon="6.65219">
        <ele>190.80000305176</ele>
        <time>2012-10-12T07:39:11Z</time>
      </trkpt>
      <trkpt lat="43.39465" lon="6.65216">
        <ele>192.19999694824</ele>
        <time>2012-10-12T07:39:16Z</time>
      </trkpt>
      <trkpt lat="43.39481" lon="6.65216">
        <ele>194</ele>
        <time>2012-10-12T07:39:25Z</time>
      </trkpt>
      <trkpt lat="43.39496" lon="6.65216">
        <ele>195.80000305176</ele>
        <time>2012-10-12T07:39:34Z</time>
      </trkpt>
      <trkpt lat="43.39508" lon="6.65217">
        <ele>197.39999389648</ele>
        <time>2012-10-12T07:39:42Z</time>
      </trkpt>
      <trkpt lat="43.39521" lon="6.65216">
        <ele>199.39999389648</ele>
        <time>2012-10-12T07:39:49Z</time>
      </trkpt>
      <trkpt lat="43.39534" lon="6.65215">
        <ele>201.60000610352</ele>
        <time>2012-10-12T07:39:56Z</time>
      </trkpt>
      <trkpt lat="43.39549" lon="6.65216">
        <ele>203.60000610352</ele>
        <time>2012-10-12T07:40:04Z</time>
      </trkpt>
      <trkpt lat="43.39568" lon="6.65217">
        <ele>206.39999389648</ele>
        <time>2012-10-12T07:40:14Z</time>
      </trkpt>
      <trkpt lat="43.3958" lon="6.65218">
        <ele>208</ele>
        <time>2012-10-12T07:40:21Z</time>
      </trkpt>
      <trkpt lat="43.39594" lon="6.65218">
        <ele>209.19999694824</ele>
        <time>2012-10-12T07:40:29Z</time>
      </trkpt>
      <trkpt lat="43.39614" lon="6.65216">
        <ele>210.80000305176</ele>
        <time>2012-10-12T07:40:41Z</time>
      </trkpt>
      <trkpt lat="43.39627" lon="6.65212">
        <ele>212.80000305176</ele>
        <time>2012-10-12T07:40:50Z</time>
      </trkpt>
      <trkpt lat="43.39638" lon="6.65206">
        <ele>214.80000305176</ele>
        <time>2012-10-12T07:40:58Z</time>
      </trkpt>
      <trkpt lat="43.39647" lon="6.65199">
        <ele>217.19999694824</ele>
        <time>2012-10-12T07:41:05Z</time>
      </trkpt>
      <trkpt lat="43.39654" lon="6.65188">
        <ele>219.80000305176</ele>
        <time>2012-10-12T07:41:12Z</time>
      </trkpt>
      <trkpt lat="43.39662" lon="6.65173">
        <ele>223.60000610352</ele>
        <time>2012-10-12T07:41:20Z</time>
      </trkpt>
      <trkpt lat="43.3967" lon="6.65155">
        <ele>226</ele>
        <time>2012-10-12T07:41:28Z</time>
      </trkpt>
      <trkpt lat="43.39678" lon="6.65134">
        <ele>227.60000610352</ele>
        <time>2012-10-12T07:41:37Z</time>
      </trkpt>
      <trkpt lat="43.39684" lon="6.65117">
        <ele>229.19999694824</ele>
        <time>2012-10-12T07:41:44Z</time>
      </trkpt>
      <trkpt lat="43.39694" lon="6.65093">
        <ele>231.80000305176</ele>
        <time>2012-10-12T07:41:53Z</time>
      </trkpt>
      <trkpt lat="43.39701" lon="6.65073">
        <ele>234</ele>
        <time>2012-10-12T07:42:00Z</time>
      </trkpt>
      <trkpt lat="43.39713" lon="6.65052">
        <ele>235.80000305176</ele>
        <time>2012-10-12T07:42:08Z</time>
      </trkpt>
      <trkpt lat="43.39728" lon="6.6504">
        <ele>237.19999694824</ele>
        <time>2012-10-12T07:42:15Z</time>
      </trkpt>
      <trkpt lat="43.39744" lon="6.65035">
        <ele>238</ele>
        <time>2012-10-12T07:42:23Z</time>
      </trkpt>
      <trkpt lat="43.3976" lon="6.65025">
        <ele>240.60000610352</ele>
        <time>2012-10-12T07:42:31Z</time>
      </trkpt>
      <trkpt lat="43.39774" lon="6.65015">
        <ele>243.80000305176</ele>
        <time>2012-10-12T07:42:39Z</time>
      </trkpt>
      <trkpt lat="43.39791" lon="6.6501">
        <ele>246.19999694824</ele>
        <time>2012-10-12T07:42:49Z</time>
      </trkpt>
      <trkpt lat="43.39806" lon="6.65007">
        <ele>248</ele>
        <time>2012-10-12T07:42:58Z</time>
      </trkpt>
      <trkpt lat="43.39822" lon="6.65002">
        <ele>250.39999389648</ele>
        <time>2012-10-12T07:43:08Z</time>
      </trkpt>
      <trkpt lat="43.39834" lon="6.64998">
        <ele>252.39999389648</ele>
        <time>2012-10-12T07:43:16Z</time>
      </trkpt>
      <trkpt lat="43.3985" lon="6.64989">
        <ele>254.80000305176</ele>
        <time>2012-10-12T07:43:25Z</time>
      </trkpt>
      <trkpt lat="43.3986" lon="6.64981">
        <ele>256.79998779297</ele>
        <time>2012-10-12T07:43:31Z</time>
      </trkpt>
      <trkpt lat="43.39874" lon="6.64972">
        <ele>259.60000610352</ele>
        <time>2012-10-12T07:43:40Z</time>
      </trkpt>
      <trkpt lat="43.39889" lon="6.64966">
        <ele>261.60000610352</ele>
        <time>2012-10-12T07:43:48Z</time>
      </trkpt>
      <trkpt lat="43.39901" lon="6.64963">
        <ele>263.39999389648</ele>
        <time>2012-10-12T07:43:55Z</time>
      </trkpt>
      <trkpt lat="43.39914" lon="6.64957">
        <ele>265.79998779297</ele>
        <time>2012-10-12T07:44:03Z</time>
      </trkpt>
      <trkpt lat="43.39925" lon="6.64948">
        <ele>269.79998779297</ele>
        <time>2012-10-12T07:44:11Z</time>
      </trkpt>
      <trkpt lat="43.39935" lon="6.64941">
        <ele>273.39999389648</ele>
        <time>2012-10-12T07:44:19Z</time>
      </trkpt>
      <trkpt lat="43.39945" lon="6.64937">
        <ele>276.39999389648</ele>
        <time>2012-10-12T07:44:27Z</time>
      </trkpt>
      <trkpt lat="43.39956" lon="6.64936">
        <ele>278.60000610352</ele>
        <time>2012-10-12T07:44:35Z</time>
      </trkpt>
      <trkpt lat="43.39969" lon="6.64936">
        <ele>280.79998779297</ele>
        <time>2012-10-12T07:44:44Z</time>
      </trkpt>
      <trkpt lat="43.39981" lon="6.6494">
        <ele>282</ele>
        <time>2012-10-12T07:44:53Z</time>
      </trkpt>
      <trkpt lat="43.39992" lon="6.64943">
        <ele>283</ele>
        <time>2012-10-12T07:45:02Z</time>
      </trkpt>
      <trkpt lat="43.40001" lon="6.64943">
        <ele>284.39999389648</ele>
        <time>2012-10-12T07:45:09Z</time>
      </trkpt>
      <trkpt lat="43.40008" lon="6.6494">
        <ele>285.60000610352</ele>
        <time>2012-10-12T07:45:15Z</time>
      </trkpt>
      <trkpt lat="43.40018" lon="6.64939">
        <ele>286.39999389648</ele>
        <time>2012-10-12T07:45:22Z</time>
      </trkpt>
      <trkpt lat="43.40029" lon="6.64933">
        <ele>288.39999389648</ele>
        <time>2012-10-12T07:45:31Z</time>
      </trkpt>
      <trkpt lat="43.40039" lon="6.64923">
        <ele>291.39999389648</ele>
        <time>2012-10-12T07:45:39Z</time>
      </trkpt>
      <trkpt lat="43.40047" lon="6.64912">
        <ele>294.79998779297</ele>
        <time>2012-10-12T07:45:48Z</time>
      </trkpt>
      <trkpt lat="43.40055" lon="6.64902">
        <ele>297.20001220703</ele>
        <time>2012-10-12T07:45:56Z</time>
      </trkpt>
      <trkpt lat="43.40067" lon="6.64893">
        <ele>299.60000610352</ele>
        <time>2012-10-12T07:46:05Z</time>
      </trkpt>
      <trkpt lat="43.40079" lon="6.64884">
        <ele>302.20001220703</ele>
        <time>2012-10-12T07:46:13Z</time>
      </trkpt>
      <trkpt lat="43.4009" lon="6.64876">
        <ele>302.60000610352</ele>
        <time>2012-10-12T07:46:19Z</time>
      </trkpt>
      <trkpt lat="43.40102" lon="6.64869">
        <ele>301.39999389648</ele>
        <time>2012-10-12T07:46:24Z</time>
      </trkpt>
      <trkpt lat="43.40111" lon="6.6486">
        <ele>301</ele>
        <time>2012-10-12T07:46:29Z</time>
      </trkpt>
      <trkpt lat="43.40112" lon="6.64862">
        <ele>300.79998779297</ele>
        <time>2012-10-12T07:46:32Z</time>
      </trkpt>
      <trkpt lat="43.40114" lon="6.64859">
        <ele>300.79998779297</ele>
        <time>2012-10-12T07:46:46Z</time>
      </trkpt>
      <trkpt lat="43.40114" lon="6.64858">
        <ele>301</ele>
        <time>2012-10-12T07:46:47Z</time>
      </trkpt>
      <trkpt lat="43.40124" lon="6.64843">
        <ele>301.79998779297</ele>
        <time>2012-10-12T07:46:52Z</time>
      </trkpt>
      <trkpt lat="43.4014" lon="6.64813">
        <ele>303.20001220703</ele>
        <time>2012-10-12T07:46:57Z</time>
      </trkpt>
      <trkpt lat="43.40159" lon="6.64785">
        <ele>304.79998779297</ele>
        <time>2012-10-12T07:47:01Z</time>
      </trkpt>
      <trkpt lat="43.40196" lon="6.64761">
        <ele>304.20001220703</ele>
        <time>2012-10-12T07:47:06Z</time>
      </trkpt>
      <trkpt lat="43.40254" lon="6.64751">
        <ele>298.60000610352</ele>
        <time>2012-10-12T07:47:12Z</time>
      </trkpt>
      <trkpt lat="43.40298" lon="6.6474">
        <ele>301</ele>
        <time>2012-10-12T07:47:17Z</time>
      </trkpt>
      <trkpt lat="43.40336" lon="6.64742">
        <ele>300.39999389648</ele>
        <time>2012-10-12T07:47:22Z</time>
      </trkpt>
      <trkpt lat="43.40391" lon="6.64763">
        <ele>296.79998779297</ele>
        <time>2012-10-12T07:47:28Z</time>
      </trkpt>
      <trkpt lat="43.40432" lon="6.64774">
        <ele>294.20001220703</ele>
        <time>2012-10-12T07:47:33Z</time>
      </trkpt>
      <trkpt lat="43.40476" lon="6.64784">
        <ele>290.79998779297</ele>
        <time>2012-10-12T07:47:38Z</time>
      </trkpt>
      <trkpt lat="43.40523" lon="6.64789">
        <ele>289</ele>
        <time>2012-10-12T07:47:43Z</time>
      </trkpt>
      <trkpt lat="43.40579" lon="6.64802">
        <ele>287.20001220703</ele>
        <time>2012-10-12T07:47:49Z</time>
      </trkpt>
      <trkpt lat="43.40612" lon="6.64809">
        <ele>287.79998779297</ele>
        <time>2012-10-12T07:47:53Z</time>
      </trkpt>
      <trkpt lat="43.40649" lon="6.64817">
        <ele>288.60000610352</ele>
        <time>2012-10-12T07:47:59Z</time>
      </trkpt>
      <trkpt lat="43.40671" lon="6.64824">
        <ele>289.20001220703</ele>
        <time>2012-10-12T07:48:03Z</time>
      </trkpt>
      <trkpt lat="43.407" lon="6.64834">
        <ele>292</ele>
        <time>2012-10-12T07:48:09Z</time>
      </trkpt>
      <trkpt lat="43.40714" lon="6.64838">
        <ele>293.39999389648</ele>
        <time>2012-10-12T07:48:12Z</time>
      </trkpt>
      <trkpt lat="43.40734" lon="6.64852">
        <ele>294.60000610352</ele>
        <time>2012-10-12T07:48:16Z</time>
      </trkpt>
      <trkpt lat="43.40753" lon="6.64877">
        <ele>294.60000610352</ele>
        <time>2012-10-12T07:48:22Z</time>
      </trkpt>
      <trkpt lat="43.4077" lon="6.64905">
        <ele>294.60000610352</ele>
        <time>2012-10-12T07:48:30Z</time>
      </trkpt>
      <trkpt lat="43.40778" lon="6.64925">
        <ele>295.20001220703</ele>
        <time>2012-10-12T07:48:37Z</time>
      </trkpt>
      <trkpt lat="43.40782" lon="6.64943">
        <ele>296</ele>
        <time>2012-10-12T07:48:44Z</time>
      </trkpt>
      <trkpt lat="43.40786" lon="6.64969">
        <ele>297</ele>
        <time>2012-10-12T07:48:53Z</time>
      </trkpt>
      <trkpt lat="43.40787" lon="6.64992">
        <ele>297.39999389648</ele>
        <time>2012-10-12T07:49:01Z</time>
      </trkpt>
      <trkpt lat="43.40789" lon="6.65013">
        <ele>297.39999389648</ele>
        <time>2012-10-12T07:49:07Z</time>
      </trkpt>
      <trkpt lat="43.40792" lon="6.6505">
        <ele>297.20001220703</ele>
        <time>2012-10-12T07:49:16Z</time>
      </trkpt>
      <trkpt lat="43.40795" lon="6.65085">
        <ele>297.39999389648</ele>
        <time>2012-10-12T07:49:23Z</time>
      </trkpt>
      <trkpt lat="43.40798" lon="6.65123">
        <ele>295</ele>
        <time>2012-10-12T07:49:28Z</time>
      </trkpt>
      <trkpt lat="43.40798" lon="6.65155">
        <ele>292.20001220703</ele>
        <time>2012-10-12T07:49:31Z</time>
      </trkpt>
      <trkpt lat="43.40805" lon="6.65182">
        <ele>292</ele>
        <time>2012-10-12T07:49:34Z</time>
      </trkpt>
      <trkpt lat="43.40819" lon="6.65194">
        <ele>295</ele>
        <time>2012-10-12T07:49:37Z</time>
      </trkpt>
      <trkpt lat="43.40843" lon="6.65193">
        <ele>301.20001220703</ele>
        <time>2012-10-12T07:49:42Z</time>
      </trkpt>
      <trkpt lat="43.40853" lon="6.65193">
        <ele>302.79998779297</ele>
        <time>2012-10-12T07:49:44Z</time>
      </trkpt>
      <trkpt lat="43.40871" lon="6.65203">
        <ele>304.20001220703</ele>
        <time>2012-10-12T07:49:49Z</time>
      </trkpt>
      <trkpt lat="43.40891" lon="6.65226">
        <ele>303</ele>
        <time>2012-10-12T07:49:55Z</time>
      </trkpt>
      <trkpt lat="43.40903" lon="6.65236">
        <ele>302.79998779297</ele>
        <time>2012-10-12T07:49:58Z</time>
      </trkpt>
      <trkpt lat="43.40911" lon="6.6524">
        <ele>303.20001220703</ele>
        <time>2012-10-12T07:50:00Z</time>
      </trkpt>
      <trkpt lat="43.40926" lon="6.65246">
        <ele>303.60000610352</ele>
        <time>2012-10-12T07:50:04Z</time>
      </trkpt>
      <trkpt lat="43.40962" lon="6.65264">
        <ele>302.39999389648</ele>
        <time>2012-10-12T07:50:12Z</time>
      </trkpt>
      <trkpt lat="43.40973" lon="6.65267">
        <ele>302.39999389648</ele>
        <time>2012-10-12T07:50:14Z</time>
      </trkpt>
      <trkpt lat="43.40997" lon="6.65287">
        <ele>299.39999389648</ele>
        <time>2012-10-12T07:50:18Z</time>
      </trkpt>
      <trkpt lat="43.4102" lon="6.65302">
        <ele>294.20001220703</ele>
        <time>2012-10-12T07:50:21Z</time>
      </trkpt>
      <trkpt lat="43.41027" lon="6.65308">
        <ele>292</ele>
        <time>2012-10-12T07:50:22Z</time>
      </trkpt>
      <trkpt lat="43.41057" lon="6.65323">
        <ele>285.79998779297</ele>
        <time>2012-10-12T07:50:26Z</time>
      </trkpt>
      <trkpt lat="43.41082" lon="6.65311">
        <ele>286.79998779297</ele>
        <time>2012-10-12T07:50:29Z</time>
      </trkpt>
      <trkpt lat="43.41117" lon="6.65293">
        <ele>282.79998779297</ele>
        <time>2012-10-12T07:50:33Z</time>
      </trkpt>
      <trkpt lat="43.41139" lon="6.65265">
        <ele>283.20001220703</ele>
        <time>2012-10-12T07:50:37Z</time>
      </trkpt>
      <trkpt lat="43.41145" lon="6.65258">
        <ele>283.20001220703</ele>
        <time>2012-10-12T07:50:38Z</time>
      </trkpt>
      <trkpt lat="43.41167" lon="6.65243">
        <ele>279.39999389648</ele>
        <time>2012-10-12T07:50:41Z</time>
      </trkpt>
      <trkpt lat="43.41196" lon="6.65232">
        <ele>272.20001220703</ele>
        <time>2012-10-12T07:50:45Z</time>
      </trkpt>
      <trkpt lat="43.41209" lon="6.65246">
        <ele>267.60000610352</ele>
        <time>2012-10-12T07:50:48Z</time>
      </trkpt>
      <trkpt lat="43.41213" lon="6.65252">
        <ele>265.79998779297</ele>
        <time>2012-10-12T07:50:49Z</time>
      </trkpt>
      <trkpt lat="43.41232" lon="6.65284">
        <ele>256.20001220703</ele>
        <time>2012-10-12T07:50:55Z</time>
      </trkpt>
      <trkpt lat="43.41238" lon="6.65292">
        <ele>253.39999389648</ele>
        <time>2012-10-12T07:50:59Z</time>
      </trkpt>
      <trkpt lat="43.41245" lon="6.65287">
        <ele>252.39999389648</ele>
        <time>2012-10-12T07:51:02Z</time>
      </trkpt>
      <trkpt lat="43.41263" lon="6.65288">
        <ele>246.19999694824</ele>
        <time>2012-10-12T07:51:07Z</time>
      </trkpt>
      <trkpt lat="43.4127" lon="6.65284">
        <ele>244</ele>
        <time>2012-10-12T07:51:09Z</time>
      </trkpt>
      <trkpt lat="43.41285" lon="6.65295">
        <ele>237.80000305176</ele>
        <time>2012-10-12T07:51:13Z</time>
      </trkpt>
      <trkpt lat="43.41292" lon="6.65326">
        <ele>233.80000305176</ele>
        <time>2012-10-12T07:51:17Z</time>
      </trkpt>
      <trkpt lat="43.41296" lon="6.65343">
        <ele>231.39999389648</ele>
        <time>2012-10-12T07:51:19Z</time>
      </trkpt>
      <trkpt lat="43.41313" lon="6.65379">
        <ele>225.39999389648</ele>
        <time>2012-10-12T07:51:24Z</time>
      </trkpt>
      <trkpt lat="43.41335" lon="6.65396">
        <ele>222.39999389648</ele>
        <time>2012-10-12T07:51:28Z</time>
      </trkpt>
      <trkpt lat="43.41339" lon="6.65399">
        <ele>221.60000610352</ele>
        <time>2012-10-12T07:51:29Z</time>
      </trkpt>
      <trkpt lat="43.41351" lon="6.65419">
        <ele>219.60000610352</ele>
        <time>2012-10-12T07:51:34Z</time>
      </trkpt>
      <trkpt lat="43.41351" lon="6.65423">
        <ele>219.19999694824</ele>
        <time>2012-10-12T07:51:35Z</time>
      </trkpt>
      <trkpt lat="43.41346" lon="6.65446">
        <ele>217.19999694824</ele>
        <time>2012-10-12T07:51:41Z</time>
      </trkpt>
      <trkpt lat="43.41348" lon="6.65466">
        <ele>214.60000610352</ele>
        <time>2012-10-12T07:51:45Z</time>
      </trkpt>
      <trkpt lat="43.41352" lon="6.65481">
        <ele>212.60000610352</ele>
        <time>2012-10-12T07:51:47Z</time>
      </trkpt>
      <trkpt lat="43.41361" lon="6.65509">
        <ele>208.39999389648</ele>
        <time>2012-10-12T07:51:51Z</time>
      </trkpt>
      <trkpt lat="43.41364" lon="6.65526">
        <ele>204.39999389648</ele>
        <time>2012-10-12T07:51:54Z</time>
      </trkpt>
      <trkpt lat="43.4137" lon="6.65532">
        <ele>203.19999694824</ele>
        <time>2012-10-12T07:51:56Z</time>
      </trkpt>
      <trkpt lat="43.41374" lon="6.65541">
        <ele>201.19999694824</ele>
        <time>2012-10-12T07:51:58Z</time>
      </trkpt>
      <trkpt lat="43.41388" lon="6.65556">
        <ele>199</ele>
        <time>2012-10-12T07:52:03Z</time>
      </trkpt>
      <trkpt lat="43.41397" lon="6.65574">
        <ele>196</ele>
        <time>2012-10-12T07:52:08Z</time>
      </trkpt>
      <trkpt lat="43.41396" lon="6.65585">
        <ele>193.80000305176</ele>
        <time>2012-10-12T07:52:11Z</time>
      </trkpt>
      <trkpt lat="43.41396" lon="6.65594">
        <ele>191.80000305176</ele>
        <time>2012-10-12T07:52:13Z</time>
      </trkpt>
      <trkpt lat="43.414" lon="6.65611">
        <ele>188.19999694824</ele>
        <time>2012-10-12T07:52:17Z</time>
      </trkpt>
      <trkpt lat="43.41405" lon="6.65623">
        <ele>185.80000305176</ele>
        <time>2012-10-12T07:52:21Z</time>
      </trkpt>
      <trkpt lat="43.41406" lon="6.65641">
        <ele>181.60000610352</ele>
        <time>2012-10-12T07:52:26Z</time>
      </trkpt>
      <trkpt lat="43.41404" lon="6.65649">
        <ele>179.60000610352</ele>
        <time>2012-10-12T07:52:28Z</time>
      </trkpt>
      <trkpt lat="43.41403" lon="6.6566">
        <ele>177</ele>
        <time>2012-10-12T07:52:31Z</time>
      </trkpt>
      <trkpt lat="43.41403" lon="6.65674">
        <ele>174</ele>
        <time>2012-10-12T07:52:36Z</time>
      </trkpt>
      <trkpt lat="43.41405" lon="6.65684">
        <ele>172.39999389648</ele>
        <time>2012-10-12T07:52:41Z</time>
      </trkpt>
      <trkpt lat="43.41404" lon="6.65691">
        <ele>170.60000610352</ele>
        <time>2012-10-12T07:52:45Z</time>
      </trkpt>
      <trkpt lat="43.41405" lon="6.65703">
        <ele>168.60000610352</ele>
        <time>2012-10-12T07:52:49Z</time>
      </trkpt>
      <trkpt lat="43.41401" lon="6.65713">
        <ele>166.19999694824</ele>
        <time>2012-10-12T07:52:53Z</time>
      </trkpt>
      <trkpt lat="43.414" lon="6.65728">
        <ele>163</ele>
        <time>2012-10-12T07:52:59Z</time>
      </trkpt>
      <trkpt lat="43.41398" lon="6.65738">
        <ele>160.80000305176</ele>
        <time>2012-10-12T07:53:03Z</time>
      </trkpt>
      <trkpt lat="43.41396" lon="6.65748">
        <ele>158.60000610352</ele>
        <time>2012-10-12T07:53:07Z</time>
      </trkpt>
      <trkpt lat="43.41396" lon="6.65759">
        <ele>156.39999389648</ele>
        <time>2012-10-12T07:53:11Z</time>
      </trkpt>
      <trkpt lat="43.41395" lon="6.65767">
        <ele>154.60000610352</ele>
        <time>2012-10-12T07:53:13Z</time>
      </trkpt>
      <trkpt lat="43.41393" lon="6.65781">
        <ele>151.60000610352</ele>
        <time>2012-10-12T07:53:17Z</time>
      </trkpt>
      <trkpt lat="43.41397" lon="6.65802">
        <ele>147.60000610352</ele>
        <time>2012-10-12T07:53:24Z</time>
      </trkpt>
      <trkpt lat="43.41399" lon="6.65823">
        <ele>143.39999389648</ele>
        <time>2012-10-12T07:53:30Z</time>
      </trkpt>
      <trkpt lat="43.41397" lon="6.6584">
        <ele>139.80000305176</ele>
        <time>2012-10-12T07:53:37Z</time>
      </trkpt>
      <trkpt lat="43.41398" lon="6.65851">
        <ele>138.19999694824</ele>
        <time>2012-10-12T07:53:42Z</time>
      </trkpt>
      <trkpt lat="43.41402" lon="6.65861">
        <ele>136.80000305176</ele>
        <time>2012-10-12T07:53:46Z</time>
      </trkpt>
      <trkpt lat="43.41407" lon="6.65871">
        <ele>135.39999389648</ele>
        <time>2012-10-12T07:53:51Z</time>
      </trkpt>
      <trkpt lat="43.41408" lon="6.65873">
        <ele>135.19999694824</ele>
        <time>2012-10-12T07:53:52Z</time>
      </trkpt>
      <trkpt lat="43.41409" lon="6.65879">
        <ele>134.19999694824</ele>
        <time>2012-10-12T07:53:57Z</time>
      </trkpt>
      <trkpt lat="43.41411" lon="6.65882">
        <ele>133.80000305176</ele>
        <time>2012-10-12T07:54:02Z</time>
      </trkpt>
      <trkpt lat="43.41419" lon="6.65886">
        <ele>133</ele>
        <time>2012-10-12T07:54:06Z</time>
      </trkpt>
      <trkpt lat="43.41434" lon="6.65886">
        <ele>130.80000305176</ele>
        <time>2012-10-12T07:54:11Z</time>
      </trkpt>
      <trkpt lat="43.41444" lon="6.65892">
        <ele>128.39999389648</ele>
        <time>2012-10-12T07:54:14Z</time>
      </trkpt>
      <trkpt lat="43.41448" lon="6.65901">
        <ele>126.40000152588</ele>
        <time>2012-10-12T07:54:17Z</time>
      </trkpt>
      <trkpt lat="43.41449" lon="6.6591">
        <ele>125</ele>
        <time>2012-10-12T07:54:20Z</time>
      </trkpt>
      <trkpt lat="43.41455" lon="6.6592">
        <ele>123</ele>
        <time>2012-10-12T07:54:24Z</time>
      </trkpt>
      <trkpt lat="43.4146" lon="6.65945">
        <ele>119.19999694824</ele>
        <time>2012-10-12T07:54:29Z</time>
      </trkpt>
      <trkpt lat="43.41463" lon="6.65951">
        <ele>118.40000152588</ele>
        <time>2012-10-12T07:54:31Z</time>
      </trkpt>
      <trkpt lat="43.41466" lon="6.65963">
        <ele>117</ele>
        <time>2012-10-12T07:54:35Z</time>
      </trkpt>
      <trkpt lat="43.41462" lon="6.65971">
        <ele>116</ele>
        <time>2012-10-12T07:54:40Z</time>
      </trkpt>
      <trkpt lat="43.41459" lon="6.65976">
        <ele>115.59999847412</ele>
        <time>2012-10-12T07:54:43Z</time>
      </trkpt>
      <trkpt lat="43.41451" lon="6.65976">
        <ele>115.40000152588</ele>
        <time>2012-10-12T07:54:49Z</time>
      </trkpt>
      <trkpt lat="43.41449" lon="6.65977">
        <ele>115.40000152588</ele>
        <time>2012-10-12T07:54:51Z</time>
      </trkpt>
      <trkpt lat="43.41444" lon="6.65987">
        <ele>113.59999847412</ele>
        <time>2012-10-12T07:54:57Z</time>
      </trkpt>
      <trkpt lat="43.41439" lon="6.65993">
        <ele>112.40000152588</ele>
        <time>2012-10-12T07:55:00Z</time>
      </trkpt>
      <trkpt lat="43.41426" lon="6.65996">
        <ele>111.19999694824</ele>
        <time>2012-10-12T07:55:06Z</time>
      </trkpt>
      <trkpt lat="43.41416" lon="6.66004">
        <ele>109.59999847412</ele>
        <time>2012-10-12T07:55:09Z</time>
      </trkpt>
      <trkpt lat="43.41396" lon="6.6601">
        <ele>108</ele>
        <time>2012-10-12T07:55:14Z</time>
      </trkpt>
      <trkpt lat="43.41387" lon="6.66013">
        <ele>107.19999694824</ele>
        <time>2012-10-12T07:55:16Z</time>
      </trkpt>
      <trkpt lat="43.41377" lon="6.66029">
        <ele>104.40000152588</ele>
        <time>2012-10-12T07:55:20Z</time>
      </trkpt>
      <trkpt lat="43.4137" lon="6.66037">
        <ele>103</ele>
        <time>2012-10-12T07:55:24Z</time>
      </trkpt>
      <trkpt lat="43.41363" lon="6.66043">
        <ele>101.59999847412</ele>
        <time>2012-10-12T07:55:28Z</time>
      </trkpt>
      <trkpt lat="43.41361" lon="6.66044">
        <ele>101.19999694824</ele>
        <time>2012-10-12T07:55:29Z</time>
      </trkpt>
      <trkpt lat="43.41359" lon="6.66048">
        <ele>100.59999847412</ele>
        <time>2012-10-12T07:55:31Z</time>
      </trkpt>
      <trkpt lat="43.41351" lon="6.66059">
        <ele>98.400001525879</ele>
        <time>2012-10-12T07:55:37Z</time>
      </trkpt>
      <trkpt lat="43.41355" lon="6.66076">
        <ele>96</ele>
        <time>2012-10-12T07:55:40Z</time>
      </trkpt>
      <trkpt lat="43.41356" lon="6.66094">
        <ele>94</ele>
        <time>2012-10-12T07:55:43Z</time>
      </trkpt>
      <trkpt lat="43.41353" lon="6.66112">
        <ele>92.199996948242</ele>
        <time>2012-10-12T07:55:46Z</time>
      </trkpt>
      <trkpt lat="43.41341" lon="6.66121">
        <ele>90.199996948242</ele>
        <time>2012-10-12T07:55:49Z</time>
      </trkpt>
      <trkpt lat="43.41323" lon="6.66132">
        <ele>88</ele>
        <time>2012-10-12T07:55:53Z</time>
      </trkpt>
      <trkpt lat="43.41312" lon="6.66145">
        <ele>86.400001525879</ele>
        <time>2012-10-12T07:55:57Z</time>
      </trkpt>
      <trkpt lat="43.41303" lon="6.66151">
        <ele>85.400001525879</ele>
        <time>2012-10-12T07:56:01Z</time>
      </trkpt>
      <trkpt lat="43.41294" lon="6.66161">
        <ele>84.199996948242</ele>
        <time>2012-10-12T07:56:07Z</time>
      </trkpt>
      <trkpt lat="43.4129" lon="6.66167">
        <ele>83.400001525879</ele>
        <time>2012-10-12T07:56:12Z</time>
      </trkpt>
      <trkpt lat="43.41289" lon="6.6617">
        <ele>83.199996948242</ele>
        <time>2012-10-12T07:56:16Z</time>
      </trkpt>
      <trkpt lat="43.41287" lon="6.66175">
        <ele>82.800003051758</ele>
        <time>2012-10-12T07:56:18Z</time>
      </trkpt>
      <trkpt lat="43.41282" lon="6.66186">
        <ele>81.800003051758</ele>
        <time>2012-10-12T07:56:24Z</time>
      </trkpt>
      <trkpt lat="43.41281" lon="6.66188">
        <ele>81.800003051758</ele>
        <time>2012-10-12T07:56:25Z</time>
      </trkpt>
      <trkpt lat="43.41277" lon="6.66191">
        <ele>81.599998474121</ele>
        <time>2012-10-12T07:56:29Z</time>
      </trkpt>
      <trkpt lat="43.41274" lon="6.66192">
        <ele>81.400001525879</ele>
        <time>2012-10-12T07:56:31Z</time>
      </trkpt>
      <trkpt lat="43.4127" lon="6.66199">
        <ele>81.199996948242</ele>
        <time>2012-10-12T07:56:35Z</time>
      </trkpt>
      <trkpt lat="43.41265" lon="6.66201">
        <ele>81.199996948242</ele>
        <time>2012-10-12T07:56:41Z</time>
      </trkpt>
      <trkpt lat="43.41263" lon="6.66203">
        <ele>81.199996948242</ele>
        <time>2012-10-12T07:56:42Z</time>
      </trkpt>
      <trkpt lat="43.41257" lon="6.6621">
        <ele>81.199996948242</ele>
        <time>2012-10-12T07:56:48Z</time>
      </trkpt>
      <trkpt lat="43.41256" lon="6.66211">
        <ele>81.199996948242</ele>
        <time>2012-10-12T07:56:49Z</time>
      </trkpt>
      <trkpt lat="43.41258" lon="6.66214">
        <ele>81</ele>
        <time>2012-10-12T07:56:54Z</time>
      </trkpt>
      <trkpt lat="43.4126" lon="6.66215">
        <ele>81</ele>
        <time>2012-10-12T07:57:00Z</time>
      </trkpt>
      <trkpt lat="43.41261" lon="6.6622">
        <ele>80.800003051758</ele>
        <time>2012-10-12T07:57:06Z</time>
      </trkpt>
      <trkpt lat="43.41262" lon="6.66222">
        <ele>80.599998474121</ele>
        <time>2012-10-12T07:57:10Z</time>
      </trkpt>
      <trkpt lat="43.41263" lon="6.66225">
        <ele>80.400001525879</ele>
        <time>2012-10-12T07:57:14Z</time>
      </trkpt>
      <trkpt lat="43.41264" lon="6.6623">
        <ele>80.199996948242</ele>
        <time>2012-10-12T07:57:22Z</time>
      </trkpt>
      <trkpt lat="43.41266" lon="6.66235">
        <ele>79.800003051758</ele>
        <time>2012-10-12T07:57:28Z</time>
      </trkpt>
      <trkpt lat="43.41269" lon="6.6624">
        <ele>79.400001525879</ele>
        <time>2012-10-12T07:57:34Z</time>
      </trkpt>
      <trkpt lat="43.41268" lon="6.66242">
        <ele>79.400001525879</ele>
        <time>2012-10-12T07:57:35Z</time>
      </trkpt>
      <trkpt lat="43.4127" lon="6.66247">
        <ele>79</ele>
        <time>2012-10-12T07:57:40Z</time>
      </trkpt>
      <trkpt lat="43.41282" lon="6.66252">
        <ele>77.599998474121</ele>
        <time>2012-10-12T07:57:44Z</time>
      </trkpt>
      <trkpt lat="43.41306" lon="6.66256">
        <ele>75</ele>
        <time>2012-10-12T07:57:48Z</time>
      </trkpt>
      <trkpt lat="43.41312" lon="6.66258">
        <ele>74.400001525879</ele>
        <time>2012-10-12T07:57:49Z</time>
      </trkpt>
      <trkpt lat="43.41334" lon="6.66277">
        <ele>71.400001525879</ele>
        <time>2012-10-12T07:57:53Z</time>
      </trkpt>
      <trkpt lat="43.4134" lon="6.6629">
        <ele>71.599998474121</ele>
        <time>2012-10-12T07:57:55Z</time>
      </trkpt>
      <trkpt lat="43.41344" lon="6.66338">
        <ele>70.199996948242</ele>
        <time>2012-10-12T07:58:00Z</time>
      </trkpt>
      <trkpt lat="43.41352" lon="6.66389">
        <ele>68.599998474121</ele>
        <time>2012-10-12T07:58:05Z</time>
      </trkpt>
      <trkpt lat="43.41354" lon="6.66398">
        <ele>68</ele>
        <time>2012-10-12T07:58:06Z</time>
      </trkpt>
      <trkpt lat="43.41377" lon="6.66423">
        <ele>63</ele>
        <time>2012-10-12T07:58:10Z</time>
      </trkpt>
      <trkpt lat="43.41384" lon="6.66428">
        <ele>61.799999237061</ele>
        <time>2012-10-12T07:58:11Z</time>
      </trkpt>
      <trkpt lat="43.41412" lon="6.66442">
        <ele>57</ele>
        <time>2012-10-12T07:58:15Z</time>
      </trkpt>
      <trkpt lat="43.41433" lon="6.66466">
        <ele>56.400001525879</ele>
        <time>2012-10-12T07:58:19Z</time>
      </trkpt>
      <trkpt lat="43.4145" lon="6.66491">
        <ele>56</ele>
        <time>2012-10-12T07:58:24Z</time>
      </trkpt>
      <trkpt lat="43.41463" lon="6.66492">
        <ele>55.599998474121</ele>
        <time>2012-10-12T07:58:27Z</time>
      </trkpt>
      <trkpt lat="43.41477" lon="6.66496">
        <ele>55</ele>
        <time>2012-10-12T07:58:31Z</time>
      </trkpt>
      <trkpt lat="43.41498" lon="6.66497">
        <ele>54.200000762939</ele>
        <time>2012-10-12T07:58:37Z</time>
      </trkpt>
      <trkpt lat="43.4152" lon="6.66503">
        <ele>54</ele>
        <time>2012-10-12T07:58:44Z</time>
      </trkpt>
      <trkpt lat="43.41537" lon="6.66499">
        <ele>53.200000762939</ele>
        <time>2012-10-12T07:58:49Z</time>
      </trkpt>
      <trkpt lat="43.41554" lon="6.66499">
        <ele>52.799999237061</ele>
        <time>2012-10-12T07:58:54Z</time>
      </trkpt>
      <trkpt lat="43.41565" lon="6.66508">
        <ele>53.799999237061</ele>
        <time>2012-10-12T07:58:58Z</time>
      </trkpt>
      <trkpt lat="43.41581" lon="6.66502">
        <ele>52.400001525879</ele>
        <time>2012-10-12T07:59:03Z</time>
      </trkpt>
      <trkpt lat="43.41598" lon="6.66489">
        <ele>51.400001525879</ele>
        <time>2012-10-12T07:59:07Z</time>
      </trkpt>
      <trkpt lat="43.41629" lon="6.66485">
        <ele>50.200000762939</ele>
        <time>2012-10-12T07:59:12Z</time>
      </trkpt>
      <trkpt lat="43.41637" lon="6.66501">
        <ele>50.799999237061</ele>
        <time>2012-10-12T07:59:14Z</time>
      </trkpt>
      <trkpt lat="43.41648" lon="6.66521">
        <ele>53.400001525879</ele>
        <time>2012-10-12T07:59:18Z</time>
      </trkpt>
      <trkpt lat="43.41656" lon="6.66513">
        <ele>52</ele>
        <time>2012-10-12T07:59:20Z</time>
      </trkpt>
      <trkpt lat="43.41672" lon="6.665">
        <ele>49.799999237061</ele>
        <time>2012-10-12T07:59:23Z</time>
      </trkpt>
      <trkpt lat="43.41693" lon="6.66492">
        <ele>48.200000762939</ele>
        <time>2012-10-12T07:59:27Z</time>
      </trkpt>
      <trkpt lat="43.4173" lon="6.66481">
        <ele>45.400001525879</ele>
        <time>2012-10-12T07:59:33Z</time>
      </trkpt>
      <trkpt lat="43.41748" lon="6.66482">
        <ele>44.599998474121</ele>
        <time>2012-10-12T07:59:36Z</time>
      </trkpt>
      <trkpt lat="43.4175" lon="6.66498">
        <ele>45.799999237061</ele>
        <time>2012-10-12T07:59:39Z</time>
      </trkpt>
      <trkpt lat="43.41743" lon="6.66524">
        <ele>50</ele>
        <time>2012-10-12T07:59:43Z</time>
      </trkpt>
      <trkpt lat="43.41752" lon="6.66542">
        <ele>52.400001525879</ele>
        <time>2012-10-12T07:59:46Z</time>
      </trkpt>
      <trkpt lat="43.41761" lon="6.66559">
        <ele>54.599998474121</ele>
        <time>2012-10-12T07:59:49Z</time>
      </trkpt>
      <trkpt lat="43.41771" lon="6.66564">
        <ele>54.799999237061</ele>
        <time>2012-10-12T07:59:52Z</time>
      </trkpt>
      <trkpt lat="43.41778" lon="6.66558">
        <ele>53.599998474121</ele>
        <time>2012-10-12T07:59:54Z</time>
      </trkpt>
      <trkpt lat="43.41798" lon="6.66532">
        <ele>48.400001525879</ele>
        <time>2012-10-12T07:59:59Z</time>
      </trkpt>
      <trkpt lat="43.41828" lon="6.66511">
        <ele>43.799999237061</ele>
        <time>2012-10-12T08:00:04Z</time>
      </trkpt>
      <trkpt lat="43.41859" lon="6.66512">
        <ele>42.200000762939</ele>
        <time>2012-10-12T08:00:08Z</time>
      </trkpt>
      <trkpt lat="43.41893" lon="6.66513">
        <ele>40.200000762939</ele>
        <time>2012-10-12T08:00:13Z</time>
      </trkpt>
      <trkpt lat="43.41923" lon="6.66503">
        <ele>37.400001525879</ele>
        <time>2012-10-12T08:00:18Z</time>
      </trkpt>
      <trkpt lat="43.41962" lon="6.66479">
        <ele>34</ele>
        <time>2012-10-12T08:00:23Z</time>
      </trkpt>
      <trkpt lat="43.4199" lon="6.66461">
        <ele>32</ele>
        <time>2012-10-12T08:00:27Z</time>
      </trkpt>
      <trkpt lat="43.41995" lon="6.66454">
        <ele>31</ele>
        <time>2012-10-12T08:00:28Z</time>
      </trkpt>
      <trkpt lat="43.42011" lon="6.6643">
        <ele>28</ele>
        <time>2012-10-12T08:00:32Z</time>
      </trkpt>
      <trkpt lat="43.42016" lon="6.66425">
        <ele>27.200000762939</ele>
        <time>2012-10-12T08:00:34Z</time>
      </trkpt>
      <trkpt lat="43.42024" lon="6.66409">
        <ele>26</ele>
        <time>2012-10-12T08:00:40Z</time>
      </trkpt>
      <trkpt lat="43.42024" lon="6.66397">
        <ele>26.39999961853</ele>
        <time>2012-10-12T08:00:43Z</time>
      </trkpt>
      <trkpt lat="43.42027" lon="6.66381">
        <ele>26.60000038147</ele>
        <time>2012-10-12T08:00:48Z</time>
      </trkpt>
      <trkpt lat="43.42028" lon="6.66378">
        <ele>26.60000038147</ele>
        <time>2012-10-12T08:00:50Z</time>
      </trkpt>
      <trkpt lat="43.42032" lon="6.66367">
        <ele>26.799999237061</ele>
        <time>2012-10-12T08:00:56Z</time>
      </trkpt>
      <trkpt lat="43.42032" lon="6.66368">
        <ele>26.799999237061</ele>
        <time>2012-10-12T08:00:57Z</time>
      </trkpt>
      <trkpt lat="43.42036" lon="6.66378">
        <ele>26.39999961853</ele>
        <time>2012-10-12T08:01:02Z</time>
      </trkpt>
      <trkpt lat="43.42048" lon="6.66387">
        <ele>25.60000038147</ele>
        <time>2012-10-12T08:01:06Z</time>
      </trkpt>
      <trkpt lat="43.42068" lon="6.66394">
        <ele>24.60000038147</ele>
        <time>2012-10-12T08:01:10Z</time>
      </trkpt>
      <trkpt lat="43.42074" lon="6.66395">
        <ele>24.39999961853</ele>
        <time>2012-10-12T08:01:11Z</time>
      </trkpt>
      <trkpt lat="43.42106" lon="6.6639">
        <ele>23.60000038147</ele>
        <time>2012-10-12T08:01:16Z</time>
      </trkpt>
      <trkpt lat="43.42129" lon="6.6638">
        <ele>23.39999961853</ele>
        <time>2012-10-12T08:01:20Z</time>
      </trkpt>
      <trkpt lat="43.4215" lon="6.6638">
        <ele>22.799999237061</ele>
        <time>2012-10-12T08:01:24Z</time>
      </trkpt>
      <trkpt lat="43.42189" lon="6.66386">
        <ele>21.200000762939</ele>
        <time>2012-10-12T08:01:31Z</time>
      </trkpt>
      <trkpt lat="43.42195" lon="6.66387">
        <ele>20.799999237061</ele>
        <time>2012-10-12T08:01:32Z</time>
      </trkpt>
      <trkpt lat="43.42215" lon="6.66402">
        <ele>19.60000038147</ele>
        <time>2012-10-12T08:01:36Z</time>
      </trkpt>
      <trkpt lat="43.42231" lon="6.66409">
        <ele>18.799999237061</ele>
        <time>2012-10-12T08:01:39Z</time>
      </trkpt>
      <trkpt lat="43.42254" lon="6.66423">
        <ele>18.60000038147</ele>
        <time>2012-10-12T08:01:44Z</time>
      </trkpt>
      <trkpt lat="43.42279" lon="6.66433">
        <ele>19.39999961853</ele>
        <time>2012-10-12T08:01:49Z</time>
      </trkpt>
      <trkpt lat="43.42286" lon="6.66446">
        <ele>20</ele>
        <time>2012-10-12T08:01:52Z</time>
      </trkpt>
      <trkpt lat="43.42297" lon="6.66468">
        <ele>20.799999237061</ele>
        <time>2012-10-12T08:01:56Z</time>
      </trkpt>
      <trkpt lat="43.42305" lon="6.66474">
        <ele>20.799999237061</ele>
        <time>2012-10-12T08:01:58Z</time>
      </trkpt>
      <trkpt lat="43.42331" lon="6.66501">
        <ele>20.200000762939</ele>
        <time>2012-10-12T08:02:04Z</time>
      </trkpt>
      <trkpt lat="43.42359" lon="6.66523">
        <ele>20.60000038147</ele>
        <time>2012-10-12T08:02:09Z</time>
      </trkpt>
      <trkpt lat="43.42408" lon="6.66535">
        <ele>20.60000038147</ele>
        <time>2012-10-12T08:02:16Z</time>
      </trkpt>
      <trkpt lat="43.4243" lon="6.66536">
        <ele>20.799999237061</ele>
        <time>2012-10-12T08:02:19Z</time>
      </trkpt>
      <trkpt lat="43.42474" lon="6.6652">
        <ele>20.39999961853</ele>
        <time>2012-10-12T08:02:25Z</time>
      </trkpt>
      <trkpt lat="43.42508" lon="6.66499">
        <ele>19</ele>
        <time>2012-10-12T08:02:30Z</time>
      </trkpt>
      <trkpt lat="43.42549" lon="6.66478">
        <ele>18</ele>
        <time>2012-10-12T08:02:36Z</time>
      </trkpt>
      <trkpt lat="43.42585" lon="6.66464">
        <ele>16.60000038147</ele>
        <time>2012-10-12T08:02:41Z</time>
      </trkpt>
      <trkpt lat="43.42605" lon="6.6644">
        <ele>15.199999809265</ele>
        <time>2012-10-12T08:02:45Z</time>
      </trkpt>
      <trkpt lat="43.42598" lon="6.66422">
        <ele>14.800000190735</ele>
        <time>2012-10-12T08:02:47Z</time>
      </trkpt>
      <trkpt lat="43.42578" lon="6.6637">
        <ele>15.199999809265</ele>
        <time>2012-10-12T08:02:53Z</time>
      </trkpt>
      <trkpt lat="43.42583" lon="6.66338">
        <ele>15</ele>
        <time>2012-10-12T08:02:57Z</time>
      </trkpt>
      <trkpt lat="43.42606" lon="6.66297">
        <ele>15.199999809265</ele>
        <time>2012-10-12T08:03:03Z</time>
      </trkpt>
      <trkpt lat="43.42631" lon="6.66259">
        <ele>15.39999961853</ele>
        <time>2012-10-12T08:03:09Z</time>
      </trkpt>
      <trkpt lat="43.42667" lon="6.66211">
        <ele>16.39999961853</ele>
        <time>2012-10-12T08:03:17Z</time>
      </trkpt>
      <trkpt lat="43.42681" lon="6.66194">
        <ele>17</ele>
        <time>2012-10-12T08:03:20Z</time>
      </trkpt>
      <trkpt lat="43.42704" lon="6.66179">
        <ele>17.39999961853</ele>
        <time>2012-10-12T08:03:24Z</time>
      </trkpt>
      <trkpt lat="43.42751" lon="6.66171">
        <ele>17.60000038147</ele>
        <time>2012-10-12T08:03:30Z</time>
      </trkpt>
      <trkpt lat="43.42785" lon="6.6615">
        <ele>17.60000038147</ele>
        <time>2012-10-12T08:03:35Z</time>
      </trkpt>
      <trkpt lat="43.42845" lon="6.66108">
        <ele>18.39999961853</ele>
        <time>2012-10-12T08:03:44Z</time>
      </trkpt>
      <trkpt lat="43.42882" lon="6.66084">
        <ele>19.200000762939</ele>
        <time>2012-10-12T08:03:50Z</time>
      </trkpt>
      <trkpt lat="43.42921" lon="6.66069">
        <ele>19.39999961853</ele>
        <time>2012-10-12T08:03:56Z</time>
      </trkpt>
      <trkpt lat="43.42944" lon="6.66061">
        <ele>20.200000762939</ele>
        <time>2012-10-12T08:04:00Z</time>
      </trkpt>
      <trkpt lat="43.42984" lon="6.66047">
        <ele>21.39999961853</ele>
        <time>2012-10-12T08:04:07Z</time>
      </trkpt>
      <trkpt lat="43.43018" lon="6.66033">
        <ele>21.39999961853</ele>
        <time>2012-10-12T08:04:14Z</time>
      </trkpt>
      <trkpt lat="43.43045" lon="6.66013">
        <ele>20.799999237061</ele>
        <time>2012-10-12T08:04:19Z</time>
      </trkpt>
      <trkpt lat="43.43083" lon="6.65975">
        <ele>20.39999961853</ele>
        <time>2012-10-12T08:04:25Z</time>
      </trkpt>
      <trkpt lat="43.43135" lon="6.65946">
        <ele>22.39999961853</ele>
        <time>2012-10-12T08:04:32Z</time>
      </trkpt>
      <trkpt lat="43.43166" lon="6.65936">
        <ele>23</ele>
        <time>2012-10-12T08:04:36Z</time>
      </trkpt>
      <trkpt lat="43.43203" lon="6.65943">
        <ele>23</ele>
        <time>2012-10-12T08:04:41Z</time>
      </trkpt>
      <trkpt lat="43.43242" lon="6.65952">
        <ele>23</ele>
        <time>2012-10-12T08:04:47Z</time>
      </trkpt>
      <trkpt lat="43.43272" lon="6.65954">
        <ele>23.39999961853</ele>
        <time>2012-10-12T08:04:52Z</time>
      </trkpt>
      <trkpt lat="43.43283" lon="6.65956">
        <ele>23.60000038147</ele>
        <time>2012-10-12T08:04:54Z</time>
      </trkpt>
      <trkpt lat="43.43311" lon="6.65963">
        <ele>23.60000038147</ele>
        <time>2012-10-12T08:05:00Z</time>
      </trkpt>
      <trkpt lat="43.4334" lon="6.65967">
        <ele>23.60000038147</ele>
        <time>2012-10-12T08:05:07Z</time>
      </trkpt>
      <trkpt lat="43.4337" lon="6.65959">
        <ele>23</ele>
        <time>2012-10-12T08:05:13Z</time>
      </trkpt>
      <trkpt lat="43.43399" lon="6.65946">
        <ele>23.200000762939</ele>
        <time>2012-10-12T08:05:17Z</time>
      </trkpt>
      <trkpt lat="43.43426" lon="6.65927">
        <ele>23.39999961853</ele>
        <time>2012-10-12T08:05:22Z</time>
      </trkpt>
      <trkpt lat="43.43456" lon="6.65903">
        <ele>23</ele>
        <time>2012-10-12T08:05:27Z</time>
      </trkpt>
      <trkpt lat="43.4349" lon="6.65866">
        <ele>21.799999237061</ele>
        <time>2012-10-12T08:05:33Z</time>
      </trkpt>
      <trkpt lat="43.43518" lon="6.65839">
        <ele>20.200000762939</ele>
        <time>2012-10-12T08:05:38Z</time>
      </trkpt>
      <trkpt lat="43.43556" lon="6.65806">
        <ele>17.799999237061</ele>
        <time>2012-10-12T08:05:43Z</time>
      </trkpt>
      <trkpt lat="43.43583" lon="6.65771">
        <ele>16.39999961853</ele>
        <time>2012-10-12T08:05:47Z</time>
      </trkpt>
      <trkpt lat="43.43589" lon="6.65763">
        <ele>16.39999961853</ele>
        <time>2012-10-12T08:05:48Z</time>
      </trkpt>
      <trkpt lat="43.43615" lon="6.65725">
        <ele>15.199999809265</ele>
        <time>2012-10-12T08:05:54Z</time>
      </trkpt>
      <trkpt lat="43.4363" lon="6.6569">
        <ele>14</ele>
        <time>2012-10-12T08:05:58Z</time>
      </trkpt>
      <trkpt lat="43.43658" lon="6.65618">
        <ele>13</ele>
        <time>2012-10-12T08:06:05Z</time>
      </trkpt>
      <trkpt lat="43.43677" lon="6.65568">
        <ele>13</ele>
        <time>2012-10-12T08:06:10Z</time>
      </trkpt>
      <trkpt lat="43.43693" lon="6.65543">
        <ele>12.800000190735</ele>
        <time>2012-10-12T08:06:13Z</time>
      </trkpt>
      <trkpt lat="43.43708" lon="6.65504">
        <ele>13</ele>
        <time>2012-10-12T08:06:17Z</time>
      </trkpt>
      <trkpt lat="43.43723" lon="6.65426">
        <ele>12.60000038147</ele>
        <time>2012-10-12T08:06:25Z</time>
      </trkpt>
      <trkpt lat="43.43739" lon="6.65352">
        <ele>15.199999809265</ele>
        <time>2012-10-12T08:06:33Z</time>
      </trkpt>
      <trkpt lat="43.43744" lon="6.65311">
        <ele>16.799999237061</ele>
        <time>2012-10-12T08:06:38Z</time>
      </trkpt>
      <trkpt lat="43.43752" lon="6.65269">
        <ele>18.200000762939</ele>
        <time>2012-10-12T08:06:43Z</time>
      </trkpt>
      <trkpt lat="43.43755" lon="6.6526">
        <ele>18.39999961853</ele>
        <time>2012-10-12T08:06:44Z</time>
      </trkpt>
      <trkpt lat="43.43769" lon="6.65224">
        <ele>19.200000762939</ele>
        <time>2012-10-12T08:06:49Z</time>
      </trkpt>
      <trkpt lat="43.43775" lon="6.652">
        <ele>19.799999237061</ele>
        <time>2012-10-12T08:06:52Z</time>
      </trkpt>
      <trkpt lat="43.43779" lon="6.65149">
        <ele>21.39999961853</ele>
        <time>2012-10-12T08:06:58Z</time>
      </trkpt>
      <trkpt lat="43.43788" lon="6.65098">
        <ele>21.799999237061</ele>
        <time>2012-10-12T08:07:05Z</time>
      </trkpt>
      <trkpt lat="43.43805" lon="6.65069">
        <ele>21.60000038147</ele>
        <time>2012-10-12T08:07:10Z</time>
      </trkpt>
      <trkpt lat="43.4384" lon="6.65021">
        <ele>21.39999961853</ele>
        <time>2012-10-12T08:07:19Z</time>
      </trkpt>
      <trkpt lat="43.43867" lon="6.64976">
        <ele>20.39999961853</ele>
        <time>2012-10-12T08:07:26Z</time>
      </trkpt>
      <trkpt lat="43.43903" lon="6.64924">
        <ele>17.799999237061</ele>
        <time>2012-10-12T08:07:33Z</time>
      </trkpt>
      <trkpt lat="43.43934" lon="6.64883">
        <ele>16.39999961853</ele>
        <time>2012-10-12T08:07:38Z</time>
      </trkpt>
      <trkpt lat="43.43968" lon="6.64835">
        <ele>15.39999961853</ele>
        <time>2012-10-12T08:07:43Z</time>
      </trkpt>
      <trkpt lat="43.43999" lon="6.64792">
        <ele>16</ele>
        <time>2012-10-12T08:07:48Z</time>
      </trkpt>
      <trkpt lat="43.44038" lon="6.64734">
        <ele>17.60000038147</ele>
        <time>2012-10-12T08:07:55Z</time>
      </trkpt>
      <trkpt lat="43.44068" lon="6.64708">
        <ele>19.799999237061</ele>
        <time>2012-10-12T08:08:00Z</time>
      </trkpt>
      <trkpt lat="43.44087" lon="6.64698">
        <ele>21</ele>
        <time>2012-10-12T08:08:04Z</time>
      </trkpt>
      <trkpt lat="43.44103" lon="6.64689">
        <ele>22</ele>
        <time>2012-10-12T08:08:09Z</time>
      </trkpt>
      <trkpt lat="43.44118" lon="6.64673">
        <ele>23.39999961853</ele>
        <time>2012-10-12T08:08:16Z</time>
      </trkpt>
      <trkpt lat="43.44126" lon="6.64659">
        <ele>24.39999961853</ele>
        <time>2012-10-12T08:08:21Z</time>
      </trkpt>
      <trkpt lat="43.44132" lon="6.64636">
        <ele>25.799999237061</ele>
        <time>2012-10-12T08:08:27Z</time>
      </trkpt>
      <trkpt lat="43.4414" lon="6.64589">
        <ele>28</ele>
        <time>2012-10-12T08:08:36Z</time>
      </trkpt>
      <trkpt lat="43.44143" lon="6.64561">
        <ele>29</ele>
        <time>2012-10-12T08:08:42Z</time>
      </trkpt>
      <trkpt lat="43.44143" lon="6.64524">
        <ele>30.200000762939</ele>
        <time>2012-10-12T08:08:51Z</time>
      </trkpt>
      <trkpt lat="43.44134" lon="6.64499">
        <ele>31.799999237061</ele>
        <time>2012-10-12T08:08:58Z</time>
      </trkpt>
      <trkpt lat="43.44115" lon="6.64479">
        <ele>33.799999237061</ele>
        <time>2012-10-12T08:09:06Z</time>
      </trkpt>
      <trkpt lat="43.44091" lon="6.64463">
        <ele>36.200000762939</ele>
        <time>2012-10-12T08:09:15Z</time>
      </trkpt>
      <trkpt lat="43.44071" lon="6.64448">
        <ele>38.200000762939</ele>
        <time>2012-10-12T08:09:23Z</time>
      </trkpt>
      <trkpt lat="43.44049" lon="6.64431">
        <ele>40.799999237061</ele>
        <time>2012-10-12T08:09:32Z</time>
      </trkpt>
      <trkpt lat="43.44026" lon="6.64413">
        <ele>43.599998474121</ele>
        <time>2012-10-12T08:09:41Z</time>
      </trkpt>
      <trkpt lat="43.44005" lon="6.64394">
        <ele>45.799999237061</ele>
        <time>2012-10-12T08:09:50Z</time>
      </trkpt>
      <trkpt lat="43.43987" lon="6.6437">
        <ele>46.599998474121</ele>
        <time>2012-10-12T08:09:58Z</time>
      </trkpt>
      <trkpt lat="43.43975" lon="6.64349">
        <ele>47</ele>
        <time>2012-10-12T08:10:04Z</time>
      </trkpt>
      <trkpt lat="43.43955" lon="6.6432">
        <ele>47.400001525879</ele>
        <time>2012-10-12T08:10:12Z</time>
      </trkpt>
      <trkpt lat="43.43935" lon="6.64296">
        <ele>47.400001525879</ele>
        <time>2012-10-12T08:10:17Z</time>
      </trkpt>
      <trkpt lat="43.43911" lon="6.64262">
        <ele>46.599998474121</ele>
        <time>2012-10-12T08:10:22Z</time>
      </trkpt>
      <trkpt lat="43.43881" lon="6.64213">
        <ele>43.599998474121</ele>
        <time>2012-10-12T08:10:28Z</time>
      </trkpt>
      <trkpt lat="43.43835" lon="6.64135">
        <ele>43.599998474121</ele>
        <time>2012-10-12T08:10:37Z</time>
      </trkpt>
      <trkpt lat="43.43811" lon="6.6409">
        <ele>46.200000762939</ele>
        <time>2012-10-12T08:10:43Z</time>
      </trkpt>
      <trkpt lat="43.43808" lon="6.64064">
        <ele>47.200000762939</ele>
        <time>2012-10-12T08:10:47Z</time>
      </trkpt>
      <trkpt lat="43.43813" lon="6.64053">
        <ele>47.400001525879</ele>
        <time>2012-10-12T08:10:49Z</time>
      </trkpt>
      <trkpt lat="43.43837" lon="6.64013">
        <ele>46.799999237061</ele>
        <time>2012-10-12T08:10:55Z</time>
      </trkpt>
      <trkpt lat="43.43874" lon="6.63953">
        <ele>44.400001525879</ele>
        <time>2012-10-12T08:11:02Z</time>
      </trkpt>
      <trkpt lat="43.43903" lon="6.63902">
        <ele>41.400001525879</ele>
        <time>2012-10-12T08:11:07Z</time>
      </trkpt>
      <trkpt lat="43.43917" lon="6.63878">
        <ele>39.599998474121</ele>
        <time>2012-10-12T08:11:09Z</time>
      </trkpt>
      <trkpt lat="43.43957" lon="6.63838">
        <ele>35.200000762939</ele>
        <time>2012-10-12T08:11:13Z</time>
      </trkpt>
      <trkpt lat="43.43968" lon="6.63831">
        <ele>34.400001525879</ele>
        <time>2012-10-12T08:11:14Z</time>
      </trkpt>
      <trkpt lat="43.43991" lon="6.6382">
        <ele>33.200000762939</ele>
        <time>2012-10-12T08:11:16Z</time>
      </trkpt>
      <trkpt lat="43.44021" lon="6.63785">
        <ele>32.599998474121</ele>
        <time>2012-10-12T08:11:20Z</time>
      </trkpt>
      <trkpt lat="43.44035" lon="6.63772">
        <ele>32</ele>
        <time>2012-10-12T08:11:22Z</time>
      </trkpt>
      <trkpt lat="43.44066" lon="6.63751">
        <ele>30.200000762939</ele>
        <time>2012-10-12T08:11:26Z</time>
      </trkpt>
      <trkpt lat="43.44111" lon="6.63738">
        <ele>30.799999237061</ele>
        <time>2012-10-12T08:11:30Z</time>
      </trkpt>
      <trkpt lat="43.44132" lon="6.63735">
        <ele>31.60000038147</ele>
        <time>2012-10-12T08:11:32Z</time>
      </trkpt>
      <trkpt lat="43.44148" lon="6.63726">
        <ele>32.799999237061</ele>
        <time>2012-10-12T08:11:36Z</time>
      </trkpt>
      <trkpt lat="43.44146" lon="6.63727">
        <ele>32.599998474121</ele>
        <time>2012-10-12T08:11:39Z</time>
      </trkpt>
      <trkpt lat="43.44146" lon="6.63722">
        <ele>33</ele>
        <time>2012-10-12T08:11:45Z</time>
      </trkpt>
      <trkpt lat="43.44151" lon="6.63716">
        <ele>33.400001525879</ele>
        <time>2012-10-12T08:11:50Z</time>
      </trkpt>
      <trkpt lat="43.44158" lon="6.63716">
        <ele>33.799999237061</ele>
        <time>2012-10-12T08:11:56Z</time>
      </trkpt>
      <trkpt lat="43.4416" lon="6.63712">
        <ele>34</ele>
        <time>2012-10-12T08:12:00Z</time>
      </trkpt>
      <trkpt lat="43.44158" lon="6.63709">
        <ele>34.200000762939</ele>
        <time>2012-10-12T08:12:04Z</time>
      </trkpt>
      <trkpt lat="43.44151" lon="6.63704">
        <ele>34.200000762939</ele>
        <time>2012-10-12T08:12:08Z</time>
      </trkpt>
      <trkpt lat="43.44146" lon="6.63692">
        <ele>34.799999237061</ele>
        <time>2012-10-12T08:12:11Z</time>
      </trkpt>
      <trkpt lat="43.44137" lon="6.63654">
        <ele>36.200000762939</ele>
        <time>2012-10-12T08:12:17Z</time>
      </trkpt>
      <trkpt lat="43.44135" lon="6.63649">
        <ele>36.400001525879</ele>
        <time>2012-10-12T08:12:18Z</time>
      </trkpt>
      <trkpt lat="43.44134" lon="6.63636">
        <ele>36.799999237061</ele>
        <time>2012-10-12T08:12:20Z</time>
      </trkpt>
      <trkpt lat="43.44123" lon="6.63606">
        <ele>37.200000762939</ele>
        <time>2012-10-12T08:12:25Z</time>
      </trkpt>
      <trkpt lat="43.44117" lon="6.63594">
        <ele>37.400001525879</ele>
        <time>2012-10-12T08:12:27Z</time>
      </trkpt>
      <trkpt lat="43.44082" lon="6.6355">
        <ele>38.200000762939</ele>
        <time>2012-10-12T08:12:35Z</time>
      </trkpt>
      <trkpt lat="43.44059" lon="6.63514">
        <ele>40.200000762939</ele>
        <time>2012-10-12T08:12:41Z</time>
      </trkpt>
      <trkpt lat="43.44046" lon="6.63495">
        <ele>41</ele>
        <time>2012-10-12T08:12:46Z</time>
      </trkpt>
      <trkpt lat="43.44032" lon="6.63473">
        <ele>42.200000762939</ele>
        <time>2012-10-12T08:12:53Z</time>
      </trkpt>
      <trkpt lat="43.44017" lon="6.63448">
        <ele>43.400001525879</ele>
        <time>2012-10-12T08:13:01Z</time>
      </trkpt>
      <trkpt lat="43.44004" lon="6.63417">
        <ele>44.799999237061</ele>
        <time>2012-10-12T08:13:09Z</time>
      </trkpt>
      <trkpt lat="43.44002" lon="6.63414">
        <ele>45</ele>
        <time>2012-10-12T08:13:10Z</time>
      </trkpt>
      <trkpt lat="43.44003" lon="6.63395">
        <ele>45.799999237061</ele>
        <time>2012-10-12T08:13:15Z</time>
      </trkpt>
      <trkpt lat="43.44002" lon="6.63387">
        <ele>46.400001525879</ele>
        <time>2012-10-12T08:13:18Z</time>
      </trkpt>
      <trkpt lat="43.44002" lon="6.63386">
        <ele>46.400001525879</ele>
        <time>2012-10-12T08:13:24Z</time>
      </trkpt>
      <trkpt lat="43.44002" lon="6.63385">
        <ele>46.400001525879</ele>
        <time>2012-10-12T08:13:30Z</time>
      </trkpt>
      <trkpt lat="43.44002" lon="6.63386">
        <ele>46.400001525879</ele>
        <time>2012-10-12T08:13:34Z</time>
      </trkpt>
      <trkpt lat="43.44001" lon="6.63386">
        <ele>46.400001525879</ele>
        <time>2012-10-12T08:13:42Z</time>
      </trkpt>
      <trkpt lat="43.44001" lon="6.63386">
        <ele>46.400001525879</ele>
        <time>2012-10-12T08:13:50Z</time>
      </trkpt>
      <trkpt lat="43.44002" lon="6.63386">
        <ele>46.400001525879</ele>
        <time>2012-10-12T08:14:01Z</time>
      </trkpt>
      <trkpt lat="43.44003" lon="6.63385">
        <ele>46.400001525879</ele>
        <time>2012-10-12T08:14:08Z</time>
      </trkpt>
      <trkpt lat="43.44002" lon="6.63388">
        <ele>46.200000762939</ele>
        <time>2012-10-12T08:14:29Z</time>
      </trkpt>
      <trkpt lat="43.44001" lon="6.63388">
        <ele>46.400001525879</ele>
        <time>2012-10-12T08:14:34Z</time>
      </trkpt>
      <trkpt lat="43.44001" lon="6.63386">
        <ele>46.400001525879</ele>
        <time>2012-10-12T08:14:42Z</time>
      </trkpt>
      <trkpt lat="43.44001" lon="6.63385">
        <ele>46.599998474121</ele>
        <time>2012-10-12T08:15:14Z</time>
      </trkpt>
      <trkpt lat="43.44001" lon="6.63384">
        <ele>46.599998474121</ele>
        <time>2012-10-12T08:15:20Z</time>
      </trkpt>
      <trkpt lat="43.44" lon="6.63386">
        <ele>46.400001525879</ele>
        <time>2012-10-12T08:15:33Z</time>
      </trkpt>
      <trkpt lat="43.44" lon="6.63385">
        <ele>46.599998474121</ele>
        <time>2012-10-12T08:15:45Z</time>
      </trkpt>
      <trkpt lat="43.44003" lon="6.63381">
        <ele>46.599998474121</ele>
        <time>2012-10-12T08:16:00Z</time>
      </trkpt>
      <trkpt lat="43.44002" lon="6.63382">
        <ele>46.599998474121</ele>
        <time>2012-10-12T08:16:06Z</time>
      </trkpt>
      <trkpt lat="43.43995" lon="6.63382">
        <ele>47.400001525879</ele>
        <time>2012-10-12T08:16:11Z</time>
      </trkpt>
      <trkpt lat="43.43993" lon="6.63369">
        <ele>48.400001525879</ele>
        <time>2012-10-12T08:16:15Z</time>
      </trkpt>
      <trkpt lat="43.43983" lon="6.63363">
        <ele>50</ele>
        <time>2012-10-12T08:16:21Z</time>
      </trkpt>
      <trkpt lat="43.43975" lon="6.63365">
        <ele>51.200000762939</ele>
        <time>2012-10-12T08:16:25Z</time>
      </trkpt>
      <trkpt lat="43.43969" lon="6.63371">
        <ele>51.599998474121</ele>
        <time>2012-10-12T08:16:29Z</time>
      </trkpt>
      <trkpt lat="43.4396" lon="6.63369">
        <ele>53.200000762939</ele>
        <time>2012-10-12T08:16:34Z</time>
      </trkpt>
      <trkpt lat="43.43955" lon="6.63367">
        <ele>54</ele>
        <time>2012-10-12T08:16:38Z</time>
      </trkpt>
      <trkpt lat="43.43951" lon="6.63365">
        <ele>54.599998474121</ele>
        <time>2012-10-12T08:16:42Z</time>
      </trkpt>
      <trkpt lat="43.43945" lon="6.63359">
        <ele>56</ele>
        <time>2012-10-12T08:16:49Z</time>
      </trkpt>
      <trkpt lat="43.43939" lon="6.63354">
        <ele>57.200000762939</ele>
        <time>2012-10-12T08:16:56Z</time>
      </trkpt>
      <trkpt lat="43.43934" lon="6.63345">
        <ele>58.599998474121</ele>
        <time>2012-10-12T08:17:03Z</time>
      </trkpt>
      <trkpt lat="43.43933" lon="6.63341">
        <ele>59</ele>
        <time>2012-10-12T08:17:05Z</time>
      </trkpt>
      <trkpt lat="43.43929" lon="6.63336">
        <ele>59.799999237061</ele>
        <time>2012-10-12T08:17:10Z</time>
      </trkpt>
      <trkpt lat="43.4392" lon="6.63329">
        <ele>61.599998474121</ele>
        <time>2012-10-12T08:17:16Z</time>
      </trkpt>
      <trkpt lat="43.43918" lon="6.63326">
        <ele>62.200000762939</ele>
        <time>2012-10-12T08:17:19Z</time>
      </trkpt>
      <trkpt lat="43.43913" lon="6.63323">
        <ele>63.200000762939</ele>
        <time>2012-10-12T08:17:24Z</time>
      </trkpt>
      <trkpt lat="43.43913" lon="6.63323">
        <ele>63.400001525879</ele>
        <time>2012-10-12T08:17:25Z</time>
      </trkpt>
      <trkpt lat="43.43903" lon="6.6333">
        <ele>64.599998474121</ele>
        <time>2012-10-12T08:17:33Z</time>
      </trkpt>
      <trkpt lat="43.43897" lon="6.63335">
        <ele>65.400001525879</ele>
        <time>2012-10-12T08:17:39Z</time>
      </trkpt>
      <trkpt lat="43.4389" lon="6.63338">
        <ele>66.400001525879</ele>
        <time>2012-10-12T08:17:46Z</time>
      </trkpt>
      <trkpt lat="43.43883" lon="6.63344">
        <ele>67.199996948242</ele>
        <time>2012-10-12T08:17:55Z</time>
      </trkpt>
      <trkpt lat="43.43876" lon="6.63349">
        <ele>68.199996948242</ele>
        <time>2012-10-12T08:18:03Z</time>
      </trkpt>
      <trkpt lat="43.4387" lon="6.63352">
        <ele>69</ele>
        <time>2012-10-12T08:18:09Z</time>
      </trkpt>
      <trkpt lat="43.43869" lon="6.63353">
        <ele>69</ele>
        <time>2012-10-12T08:18:10Z</time>
      </trkpt>
      <trkpt lat="43.43862" lon="6.63352">
        <ele>70.599998474121</ele>
        <time>2012-10-12T08:18:16Z</time>
      </trkpt>
      <trkpt lat="43.43853" lon="6.63354">
        <ele>72</ele>
        <time>2012-10-12T08:18:21Z</time>
      </trkpt>
      <trkpt lat="43.43846" lon="6.63361">
        <ele>72.800003051758</ele>
        <time>2012-10-12T08:18:27Z</time>
      </trkpt>
      <trkpt lat="43.4384" lon="6.63366">
        <ele>73.400001525879</ele>
        <time>2012-10-12T08:18:32Z</time>
      </trkpt>
      <trkpt lat="43.43843" lon="6.63368">
        <ele>72.800003051758</ele>
        <time>2012-10-12T08:18:42Z</time>
      </trkpt>
      <trkpt lat="43.43841" lon="6.63372">
        <ele>72.800003051758</ele>
        <time>2012-10-12T08:18:46Z</time>
      </trkpt>
      <trkpt lat="43.43837" lon="6.63373">
        <ele>73.400001525879</ele>
        <time>2012-10-12T08:18:51Z</time>
      </trkpt>
      <trkpt lat="43.4383" lon="6.63374">
        <ele>75</ele>
        <time>2012-10-12T08:18:57Z</time>
      </trkpt>
      <trkpt lat="43.4382" lon="6.63375">
        <ele>77.800003051758</ele>
        <time>2012-10-12T08:19:03Z</time>
      </trkpt>
      <trkpt lat="43.43819" lon="6.63375">
        <ele>78</ele>
        <time>2012-10-12T08:19:04Z</time>
      </trkpt>
      <trkpt lat="43.43813" lon="6.63372">
        <ele>80</ele>
        <time>2012-10-12T08:19:10Z</time>
      </trkpt>
      <trkpt lat="43.43812" lon="6.63373">
        <ele>80.599998474121</ele>
        <time>2012-10-12T08:19:11Z</time>
      </trkpt>
      <trkpt lat="43.4381" lon="6.63372">
        <ele>81.199996948242</ele>
        <time>2012-10-12T08:19:13Z</time>
      </trkpt>
      <trkpt lat="43.43804" lon="6.63376">
        <ele>82.599998474121</ele>
        <time>2012-10-12T08:19:18Z</time>
      </trkpt>
      <trkpt lat="43.43804" lon="6.63378">
        <ele>82.599998474121</ele>
        <time>2012-10-12T08:19:19Z</time>
      </trkpt>
      <trkpt lat="43.43802" lon="6.63384">
        <ele>82.800003051758</ele>
        <time>2012-10-12T08:19:22Z</time>
      </trkpt>
      <trkpt lat="43.43802" lon="6.6339">
        <ele>82.400001525879</ele>
        <time>2012-10-12T08:19:26Z</time>
      </trkpt>
      <trkpt lat="43.43803" lon="6.63395">
        <ele>81.599998474121</ele>
        <time>2012-10-12T08:19:31Z</time>
      </trkpt>
      <trkpt lat="43.43804" lon="6.63397">
        <ele>81.400001525879</ele>
        <time>2012-10-12T08:19:32Z</time>
      </trkpt>
      <trkpt lat="43.43805" lon="6.63404">
        <ele>80.800003051758</ele>
        <time>2012-10-12T08:19:36Z</time>
      </trkpt>
      <trkpt lat="43.43805" lon="6.63423">
        <ele>79.599998474121</ele>
        <time>2012-10-12T08:19:44Z</time>
      </trkpt>
      <trkpt lat="43.43803" lon="6.63446">
        <ele>79</ele>
        <time>2012-10-12T08:19:50Z</time>
      </trkpt>
      <trkpt lat="43.43805" lon="6.63455">
        <ele>78</ele>
        <time>2012-10-12T08:19:53Z</time>
      </trkpt>
      <trkpt lat="43.43802" lon="6.6347">
        <ele>78.199996948242</ele>
        <time>2012-10-12T08:19:59Z</time>
      </trkpt>
      <trkpt lat="43.43801" lon="6.63483">
        <ele>78</ele>
        <time>2012-10-12T08:20:04Z</time>
      </trkpt>
      <trkpt lat="43.43791" lon="6.63499">
        <ele>79.800003051758</ele>
        <time>2012-10-12T08:20:11Z</time>
      </trkpt>
      <trkpt lat="43.4378" lon="6.63514">
        <ele>81</ele>
        <time>2012-10-12T08:20:17Z</time>
      </trkpt>
      <trkpt lat="43.43769" lon="6.63532">
        <ele>81.800003051758</ele>
        <time>2012-10-12T08:20:24Z</time>
      </trkpt>
      <trkpt lat="43.43757" lon="6.63536">
        <ele>84.199996948242</ele>
        <time>2012-10-12T08:20:30Z</time>
      </trkpt>
      <trkpt lat="43.43747" lon="6.63535">
        <ele>86.400001525879</ele>
        <time>2012-10-12T08:20:33Z</time>
      </trkpt>
      <trkpt lat="43.43737" lon="6.63549">
        <ele>86.599998474121</ele>
        <time>2012-10-12T08:20:37Z</time>
      </trkpt>
      <trkpt lat="43.43735" lon="6.63561">
        <ele>85.199996948242</ele>
        <time>2012-10-12T08:20:40Z</time>
      </trkpt>
      <trkpt lat="43.43725" lon="6.63589">
        <ele>83</ele>
        <time>2012-10-12T08:20:47Z</time>
      </trkpt>
      <trkpt lat="43.43716" lon="6.63603">
        <ele>82.199996948242</ele>
        <time>2012-10-12T08:20:52Z</time>
      </trkpt>
      <trkpt lat="43.43705" lon="6.63619">
        <ele>81.599998474121</ele>
        <time>2012-10-12T08:20:57Z</time>
      </trkpt>
      <trkpt lat="43.43688" lon="6.6364">
        <ele>80.400001525879</ele>
        <time>2012-10-12T08:21:03Z</time>
      </trkpt>
      <trkpt lat="43.43681" lon="6.63643">
        <ele>81</ele>
        <time>2012-10-12T08:21:08Z</time>
      </trkpt>
      <trkpt lat="43.43675" lon="6.63642">
        <ele>81.800003051758</ele>
        <time>2012-10-12T08:21:12Z</time>
      </trkpt>
      <trkpt lat="43.43665" lon="6.63647">
        <ele>82.199996948242</ele>
        <time>2012-10-12T08:21:17Z</time>
      </trkpt>
      <trkpt lat="43.43648" lon="6.63641">
        <ele>84.199996948242</ele>
        <time>2012-10-12T08:21:23Z</time>
      </trkpt>
      <trkpt lat="43.43636" lon="6.63633">
        <ele>86.400001525879</ele>
        <time>2012-10-12T08:21:28Z</time>
      </trkpt>
      <trkpt lat="43.43621" lon="6.63622">
        <ele>89</ele>
        <time>2012-10-12T08:21:33Z</time>
      </trkpt>
      <trkpt lat="43.43609" lon="6.63629">
        <ele>88.199996948242</ele>
        <time>2012-10-12T08:21:37Z</time>
      </trkpt>
      <trkpt lat="43.43597" lon="6.63643">
        <ele>86.599998474121</ele>
        <time>2012-10-12T08:21:42Z</time>
      </trkpt>
      <trkpt lat="43.43586" lon="6.63638">
        <ele>88</ele>
        <time>2012-10-12T08:21:46Z</time>
      </trkpt>
      <trkpt lat="43.43584" lon="6.63634">
        <ele>88.599998474121</ele>
        <time>2012-10-12T08:21:47Z</time>
      </trkpt>
      <trkpt lat="43.43574" lon="6.63621">
        <ele>89.400001525879</ele>
        <time>2012-10-12T08:21:51Z</time>
      </trkpt>
      <trkpt lat="43.4356" lon="6.6362">
        <ele>88</ele>
        <time>2012-10-12T08:21:55Z</time>
      </trkpt>
      <trkpt lat="43.43551" lon="6.63605">
        <ele>88.800003051758</ele>
        <time>2012-10-12T08:21:59Z</time>
      </trkpt>
      <trkpt lat="43.43539" lon="6.63587">
        <ele>89.599998474121</ele>
        <time>2012-10-12T08:22:03Z</time>
      </trkpt>
      <trkpt lat="43.43533" lon="6.63576">
        <ele>90.199996948242</ele>
        <time>2012-10-12T08:22:05Z</time>
      </trkpt>
      <trkpt lat="43.43525" lon="6.63543">
        <ele>92.199996948242</ele>
        <time>2012-10-12T08:22:10Z</time>
      </trkpt>
      <trkpt lat="43.43522" lon="6.63532">
        <ele>93</ele>
        <time>2012-10-12T08:22:12Z</time>
      </trkpt>
      <trkpt lat="43.4351" lon="6.63526">
        <ele>92</ele>
        <time>2012-10-12T08:22:15Z</time>
      </trkpt>
      <trkpt lat="43.43498" lon="6.63518">
        <ele>91</ele>
        <time>2012-10-12T08:22:19Z</time>
      </trkpt>
      <trkpt lat="43.43488" lon="6.63498">
        <ele>92.199996948242</ele>
        <time>2012-10-12T08:22:23Z</time>
      </trkpt>
      <trkpt lat="43.43476" lon="6.63488">
        <ele>91.800003051758</ele>
        <time>2012-10-12T08:22:27Z</time>
      </trkpt>
      <trkpt lat="43.43474" lon="6.63485">
        <ele>92</ele>
        <time>2012-10-12T08:22:28Z</time>
      </trkpt>
      <trkpt lat="43.43464" lon="6.63466">
        <ele>92.599998474121</ele>
        <time>2012-10-12T08:22:33Z</time>
      </trkpt>
      <trkpt lat="43.43457" lon="6.63453">
        <ele>93.199996948242</ele>
        <time>2012-10-12T08:22:37Z</time>
      </trkpt>
      <trkpt lat="43.43447" lon="6.63437">
        <ele>93.599998474121</ele>
        <time>2012-10-12T08:22:42Z</time>
      </trkpt>
      <trkpt lat="43.43438" lon="6.63415">
        <ele>94.599998474121</ele>
        <time>2012-10-12T08:22:46Z</time>
      </trkpt>
      <trkpt lat="43.43429" lon="6.63394">
        <ele>94.400001525879</ele>
        <time>2012-10-12T08:22:50Z</time>
      </trkpt>
      <trkpt lat="43.43419" lon="6.63372">
        <ele>93.800003051758</ele>
        <time>2012-10-12T08:22:55Z</time>
      </trkpt>
      <trkpt lat="43.43415" lon="6.63354">
        <ele>93.800003051758</ele>
        <time>2012-10-12T08:23:00Z</time>
      </trkpt>
      <trkpt lat="43.43418" lon="6.63341">
        <ele>94.199996948242</ele>
        <time>2012-10-12T08:23:04Z</time>
      </trkpt>
      <trkpt lat="43.43416" lon="6.63332">
        <ele>94</ele>
        <time>2012-10-12T08:23:07Z</time>
      </trkpt>
      <trkpt lat="43.43417" lon="6.63318">
        <ele>94.599998474121</ele>
        <time>2012-10-12T08:23:11Z</time>
      </trkpt>
      <trkpt lat="43.43417" lon="6.63312">
        <ele>94.800003051758</ele>
        <time>2012-10-12T08:23:13Z</time>
      </trkpt>
      <trkpt lat="43.43422" lon="6.63291">
        <ele>96.400001525879</ele>
        <time>2012-10-12T08:23:19Z</time>
      </trkpt>
      <trkpt lat="43.43427" lon="6.63276">
        <ele>98</ele>
        <time>2012-10-12T08:23:24Z</time>
      </trkpt>
      <trkpt lat="43.43432" lon="6.63263">
        <ele>99.599998474121</ele>
        <time>2012-10-12T08:23:29Z</time>
      </trkpt>
      <trkpt lat="43.43438" lon="6.63252">
        <ele>101.19999694824</ele>
        <time>2012-10-12T08:23:35Z</time>
      </trkpt>
      <trkpt lat="43.43438" lon="6.63251">
        <ele>101.40000152588</ele>
        <time>2012-10-12T08:23:36Z</time>
      </trkpt>
      <trkpt lat="43.43442" lon="6.63244">
        <ele>102</ele>
        <time>2012-10-12T08:23:43Z</time>
      </trkpt>
      <trkpt lat="43.43448" lon="6.63236">
        <ele>103.40000152588</ele>
        <time>2012-10-12T08:23:50Z</time>
      </trkpt>
      <trkpt lat="43.43451" lon="6.63232">
        <ele>103.80000305176</ele>
        <time>2012-10-12T08:23:53Z</time>
      </trkpt>
      <trkpt lat="43.43457" lon="6.63218">
        <ele>105.19999694824</ele>
        <time>2012-10-12T08:24:01Z</time>
      </trkpt>
      <trkpt lat="43.43463" lon="6.63209">
        <ele>106.59999847412</ele>
        <time>2012-10-12T08:24:08Z</time>
      </trkpt>
      <trkpt lat="43.43464" lon="6.63205">
        <ele>107</ele>
        <time>2012-10-12T08:24:12Z</time>
      </trkpt>
      <trkpt lat="43.43471" lon="6.6319">
        <ele>108.80000305176</ele>
        <time>2012-10-12T08:24:19Z</time>
      </trkpt>
      <trkpt lat="43.43471" lon="6.63183">
        <ele>109</ele>
        <time>2012-10-12T08:24:21Z</time>
      </trkpt>
      <trkpt lat="43.43476" lon="6.63151">
        <ele>110</ele>
        <time>2012-10-12T08:24:27Z</time>
      </trkpt>
      <trkpt lat="43.43478" lon="6.63127">
        <ele>109.59999847412</ele>
        <time>2012-10-12T08:24:30Z</time>
      </trkpt>
      <trkpt lat="43.4348" lon="6.631">
        <ele>109</ele>
        <time>2012-10-12T08:24:34Z</time>
      </trkpt>
      <trkpt lat="43.43489" lon="6.63077">
        <ele>110.19999694824</ele>
        <time>2012-10-12T08:24:38Z</time>
      </trkpt>
      <trkpt lat="43.43502" lon="6.6307">
        <ele>112.80000305176</ele>
        <time>2012-10-12T08:24:42Z</time>
      </trkpt>
      <trkpt lat="43.43504" lon="6.63061">
        <ele>111.59999847412</ele>
        <time>2012-10-12T08:24:45Z</time>
      </trkpt>
      <trkpt lat="43.4351" lon="6.63037">
        <ele>108</ele>
        <time>2012-10-12T08:24:49Z</time>
      </trkpt>
      <trkpt lat="43.43515" lon="6.6302">
        <ele>105</ele>
        <time>2012-10-12T08:24:52Z</time>
      </trkpt>
      <trkpt lat="43.4352" lon="6.6301">
        <ele>103.59999847412</ele>
        <time>2012-10-12T08:24:54Z</time>
      </trkpt>
      <trkpt lat="43.43533" lon="6.63">
        <ele>102.80000305176</ele>
        <time>2012-10-12T08:24:58Z</time>
      </trkpt>
      <trkpt lat="43.43544" lon="6.62997">
        <ele>102.80000305176</ele>
        <time>2012-10-12T08:25:02Z</time>
      </trkpt>
      <trkpt lat="43.43556" lon="6.62996">
        <ele>103.59999847412</ele>
        <time>2012-10-12T08:25:06Z</time>
      </trkpt>
      <trkpt lat="43.43558" lon="6.62996">
        <ele>103.59999847412</ele>
        <time>2012-10-12T08:25:07Z</time>
      </trkpt>
      <trkpt lat="43.43571" lon="6.62998">
        <ele>105.19999694824</ele>
        <time>2012-10-12T08:25:12Z</time>
      </trkpt>
      <trkpt lat="43.43575" lon="6.62999">
        <ele>106</ele>
        <time>2012-10-12T08:25:16Z</time>
      </trkpt>
      <trkpt lat="43.43582" lon="6.62999">
        <ele>106.40000152588</ele>
        <time>2012-10-12T08:25:27Z</time>
      </trkpt>
      <trkpt lat="43.43586" lon="6.62998">
        <ele>106.40000152588</ele>
        <time>2012-10-12T08:25:29Z</time>
      </trkpt>
      <trkpt lat="43.43591" lon="6.63002">
        <ele>107.59999847412</ele>
        <time>2012-10-12T08:25:34Z</time>
      </trkpt>
      <trkpt lat="43.43593" lon="6.63003">
        <ele>107.80000305176</ele>
        <time>2012-10-12T08:25:37Z</time>
      </trkpt>
      <trkpt lat="43.43599" lon="6.63004">
        <ele>108.19999694824</ele>
        <time>2012-10-12T08:25:44Z</time>
      </trkpt>
      <trkpt lat="43.43605" lon="6.63004">
        <ele>108.19999694824</ele>
        <time>2012-10-12T08:25:49Z</time>
      </trkpt>
      <trkpt lat="43.43606" lon="6.63003">
        <ele>108</ele>
        <time>2012-10-12T08:25:51Z</time>
      </trkpt>
      <trkpt lat="43.43612" lon="6.62997">
        <ele>106.59999847412</ele>
        <time>2012-10-12T08:25:56Z</time>
      </trkpt>
      <trkpt lat="43.43622" lon="6.62991">
        <ele>105.19999694824</ele>
        <time>2012-10-12T08:26:02Z</time>
      </trkpt>
      <trkpt lat="43.43627" lon="6.62992">
        <ele>105.59999847412</ele>
        <time>2012-10-12T08:26:06Z</time>
      </trkpt>
      <trkpt lat="43.43628" lon="6.62992">
        <ele>105.59999847412</ele>
        <time>2012-10-12T08:26:08Z</time>
      </trkpt>
      <trkpt lat="43.43635" lon="6.62985">
        <ele>104.19999694824</ele>
        <time>2012-10-12T08:26:13Z</time>
      </trkpt>
      <trkpt lat="43.43643" lon="6.62988">
        <ele>105.19999694824</ele>
        <time>2012-10-12T08:26:20Z</time>
      </trkpt>
      <trkpt lat="43.43649" lon="6.62994">
        <ele>106.59999847412</ele>
        <time>2012-10-12T08:26:26Z</time>
      </trkpt>
      <trkpt lat="43.43657" lon="6.62999">
        <ele>107.80000305176</ele>
        <time>2012-10-12T08:26:33Z</time>
      </trkpt>
      <trkpt lat="43.4366" lon="6.63002">
        <ele>108.40000152588</ele>
        <time>2012-10-12T08:26:38Z</time>
      </trkpt>
      <trkpt lat="43.43662" lon="6.63003">
        <ele>108.59999847412</ele>
        <time>2012-10-12T08:26:41Z</time>
      </trkpt>
      <trkpt lat="43.43666" lon="6.63007">
        <ele>110</ele>
        <time>2012-10-12T08:26:47Z</time>
      </trkpt>
      <trkpt lat="43.43668" lon="6.63009">
        <ele>110.40000152588</ele>
        <time>2012-10-12T08:26:50Z</time>
      </trkpt>
      <trkpt lat="43.43671" lon="6.63012">
        <ele>111.19999694824</ele>
        <time>2012-10-12T08:26:56Z</time>
      </trkpt>
      <trkpt lat="43.43675" lon="6.63017">
        <ele>112.80000305176</ele>
        <time>2012-10-12T08:27:02Z</time>
      </trkpt>
      <trkpt lat="43.43681" lon="6.63024">
        <ele>114.19999694824</ele>
        <time>2012-10-12T08:27:09Z</time>
      </trkpt>
      <trkpt lat="43.43687" lon="6.6303">
        <ele>115.40000152588</ele>
        <time>2012-10-12T08:27:17Z</time>
      </trkpt>
      <trkpt lat="43.43689" lon="6.63033">
        <ele>115.80000305176</ele>
        <time>2012-10-12T08:27:20Z</time>
      </trkpt>
      <trkpt lat="43.43692" lon="6.63036">
        <ele>116.40000152588</ele>
        <time>2012-10-12T08:27:25Z</time>
      </trkpt>
      <trkpt lat="43.43693" lon="6.63037">
        <ele>116.40000152588</ele>
        <time>2012-10-12T08:27:27Z</time>
      </trkpt>
      <trkpt lat="43.43697" lon="6.63038">
        <ele>116.40000152588</ele>
        <time>2012-10-12T08:27:30Z</time>
      </trkpt>
      <trkpt lat="43.43701" lon="6.63039">
        <ele>116.19999694824</ele>
        <time>2012-10-12T08:27:34Z</time>
      </trkpt>
      <trkpt lat="43.43713" lon="6.6304">
        <ele>115.59999847412</ele>
        <time>2012-10-12T08:27:40Z</time>
      </trkpt>
      <trkpt lat="43.43727" lon="6.63028">
        <ele>113.19999694824</ele>
        <time>2012-10-12T08:27:44Z</time>
      </trkpt>
      <trkpt lat="43.43744" lon="6.63004">
        <ele>111</ele>
        <time>2012-10-12T08:27:48Z</time>
      </trkpt>
      <trkpt lat="43.43753" lon="6.62989">
        <ele>111.40000152588</ele>
        <time>2012-10-12T08:27:50Z</time>
      </trkpt>
      <trkpt lat="43.43763" lon="6.62979">
        <ele>111</ele>
        <time>2012-10-12T08:27:53Z</time>
      </trkpt>
      <trkpt lat="43.43776" lon="6.62965">
        <ele>111.19999694824</ele>
        <time>2012-10-12T08:27:59Z</time>
      </trkpt>
      <trkpt lat="43.43789" lon="6.62959">
        <ele>111</ele>
        <time>2012-10-12T08:28:04Z</time>
      </trkpt>
      <trkpt lat="43.438" lon="6.62953">
        <ele>111</ele>
        <time>2012-10-12T08:28:10Z</time>
      </trkpt>
      <trkpt lat="43.43814" lon="6.62938">
        <ele>112.59999847412</ele>
        <time>2012-10-12T08:28:18Z</time>
      </trkpt>
      <trkpt lat="43.43818" lon="6.62922">
        <ele>115.19999694824</ele>
        <time>2012-10-12T08:28:24Z</time>
      </trkpt>
      <trkpt lat="43.43821" lon="6.62907">
        <ele>116.80000305176</ele>
        <time>2012-10-12T08:28:29Z</time>
      </trkpt>
      <trkpt lat="43.43825" lon="6.62881">
        <ele>119.19999694824</ele>
        <time>2012-10-12T08:28:36Z</time>
      </trkpt>
      <trkpt lat="43.43829" lon="6.62863">
        <ele>121</ele>
        <time>2012-10-12T08:28:42Z</time>
      </trkpt>
      <trkpt lat="43.43834" lon="6.62846">
        <ele>122.59999847412</ele>
        <time>2012-10-12T08:28:47Z</time>
      </trkpt>
      <trkpt lat="43.43838" lon="6.62823">
        <ele>122.40000152588</ele>
        <time>2012-10-12T08:28:52Z</time>
      </trkpt>
      <trkpt lat="43.43839" lon="6.62808">
        <ele>121.59999847412</ele>
        <time>2012-10-12T08:28:56Z</time>
      </trkpt>
      <trkpt lat="43.43847" lon="6.62781">
        <ele>119</ele>
        <time>2012-10-12T08:29:02Z</time>
      </trkpt>
      <trkpt lat="43.43854" lon="6.62756">
        <ele>116.80000305176</ele>
        <time>2012-10-12T08:29:06Z</time>
      </trkpt>
      <trkpt lat="43.43857" lon="6.62747">
        <ele>115.59999847412</ele>
        <time>2012-10-12T08:29:10Z</time>
      </trkpt>
      <trkpt lat="43.43862" lon="6.62734">
        <ele>113</ele>
        <time>2012-10-12T08:29:14Z</time>
      </trkpt>
      <trkpt lat="43.43867" lon="6.62715">
        <ele>110</ele>
        <time>2012-10-12T08:29:19Z</time>
      </trkpt>
      <trkpt lat="43.43873" lon="6.62696">
        <ele>107.40000152588</ele>
        <time>2012-10-12T08:29:23Z</time>
      </trkpt>
      <trkpt lat="43.43878" lon="6.62681">
        <ele>105.59999847412</ele>
        <time>2012-10-12T08:29:26Z</time>
      </trkpt>
      <trkpt lat="43.43882" lon="6.6267">
        <ele>104.40000152588</ele>
        <time>2012-10-12T08:29:29Z</time>
      </trkpt>
      <trkpt lat="43.43886" lon="6.62651">
        <ele>102</ele>
        <time>2012-10-12T08:29:33Z</time>
      </trkpt>
      <trkpt lat="43.4389" lon="6.62633">
        <ele>100</ele>
        <time>2012-10-12T08:29:37Z</time>
      </trkpt>
      <trkpt lat="43.43899" lon="6.62619">
        <ele>98.599998474121</ele>
        <time>2012-10-12T08:29:41Z</time>
      </trkpt>
      <trkpt lat="43.43903" lon="6.626">
        <ele>96.800003051758</ele>
        <time>2012-10-12T08:29:46Z</time>
      </trkpt>
      <trkpt lat="43.43905" lon="6.62597">
        <ele>96.599998474121</ele>
        <time>2012-10-12T08:29:47Z</time>
      </trkpt>
      <trkpt lat="43.43905" lon="6.62589">
        <ele>96</ele>
        <time>2012-10-12T08:29:49Z</time>
      </trkpt>
      <trkpt lat="43.43917" lon="6.62568">
        <ele>93</ele>
        <time>2012-10-12T08:29:54Z</time>
      </trkpt>
      <trkpt lat="43.43926" lon="6.62556">
        <ele>88.800003051758</ele>
        <time>2012-10-12T08:29:57Z</time>
      </trkpt>
      <trkpt lat="43.43938" lon="6.6254">
        <ele>84.400001525879</ele>
        <time>2012-10-12T08:30:02Z</time>
      </trkpt>
      <trkpt lat="43.43944" lon="6.62526">
        <ele>81.599998474121</ele>
        <time>2012-10-12T08:30:06Z</time>
      </trkpt>
      <trkpt lat="43.43954" lon="6.62531">
        <ele>80.800003051758</ele>
        <time>2012-10-12T08:30:09Z</time>
      </trkpt>
      <trkpt lat="43.43966" lon="6.62562">
        <ele>81.400001525879</ele>
        <time>2012-10-12T08:30:14Z</time>
      </trkpt>
      <trkpt lat="43.43967" lon="6.6257">
        <ele>81.800003051758</ele>
        <time>2012-10-12T08:30:15Z</time>
      </trkpt>
      <trkpt lat="43.43961" lon="6.62608">
        <ele>85.199996948242</ele>
        <time>2012-10-12T08:30:20Z</time>
      </trkpt>
      <trkpt lat="43.43957" lon="6.62624">
        <ele>86.800003051758</ele>
        <time>2012-10-12T08:30:22Z</time>
      </trkpt>
      <trkpt lat="43.43954" lon="6.6265">
        <ele>88.599998474121</ele>
        <time>2012-10-12T08:30:26Z</time>
      </trkpt>
      <trkpt lat="43.43957" lon="6.62669">
        <ele>88.599998474121</ele>
        <time>2012-10-12T08:30:29Z</time>
      </trkpt>
      <trkpt lat="43.43963" lon="6.62694">
        <ele>87.599998474121</ele>
        <time>2012-10-12T08:30:34Z</time>
      </trkpt>
      <trkpt lat="43.43972" lon="6.62702">
        <ele>85.199996948242</ele>
        <time>2012-10-12T08:30:36Z</time>
      </trkpt>
      <trkpt lat="43.43994" lon="6.62731">
        <ele>80.400001525879</ele>
        <time>2012-10-12T08:30:42Z</time>
      </trkpt>
      <trkpt lat="43.44" lon="6.62747">
        <ele>80</ele>
        <time>2012-10-12T08:30:45Z</time>
      </trkpt>
      <trkpt lat="43.44004" lon="6.62757">
        <ele>79.400001525879</ele>
        <time>2012-10-12T08:30:48Z</time>
      </trkpt>
      <trkpt lat="43.44015" lon="6.62765">
        <ele>78</ele>
        <time>2012-10-12T08:30:52Z</time>
      </trkpt>
      <trkpt lat="43.44026" lon="6.62772">
        <ele>76.199996948242</ele>
        <time>2012-10-12T08:30:55Z</time>
      </trkpt>
      <trkpt lat="43.44041" lon="6.62778">
        <ele>74</ele>
        <time>2012-10-12T08:30:58Z</time>
      </trkpt>
      <trkpt lat="43.44052" lon="6.62781">
        <ele>72.199996948242</ele>
        <time>2012-10-12T08:31:02Z</time>
      </trkpt>
      <trkpt lat="43.44056" lon="6.62784">
        <ele>71.599998474121</ele>
        <time>2012-10-12T08:31:04Z</time>
      </trkpt>
      <trkpt lat="43.44066" lon="6.62791">
        <ele>69.800003051758</ele>
        <time>2012-10-12T08:31:07Z</time>
      </trkpt>
      <trkpt lat="43.44078" lon="6.62785">
        <ele>68</ele>
        <time>2012-10-12T08:31:11Z</time>
      </trkpt>
      <trkpt lat="43.44074" lon="6.6277">
        <ele>69</ele>
        <time>2012-10-12T08:31:14Z</time>
      </trkpt>
      <trkpt lat="43.44067" lon="6.6276">
        <ele>70.199996948242</ele>
        <time>2012-10-12T08:31:16Z</time>
      </trkpt>
      <trkpt lat="43.44057" lon="6.62748">
        <ele>71.599998474121</ele>
        <time>2012-10-12T08:31:18Z</time>
      </trkpt>
      <trkpt lat="43.44041" lon="6.62707">
        <ele>70.400001525879</ele>
        <time>2012-10-12T08:31:22Z</time>
      </trkpt>
      <trkpt lat="43.44028" lon="6.62674">
        <ele>69.800003051758</ele>
        <time>2012-10-12T08:31:25Z</time>
      </trkpt>
      <trkpt lat="43.44025" lon="6.62629">
        <ele>69</ele>
        <time>2012-10-12T08:31:29Z</time>
      </trkpt>
      <trkpt lat="43.44032" lon="6.62582">
        <ele>66.400001525879</ele>
        <time>2012-10-12T08:31:33Z</time>
      </trkpt>
      <trkpt lat="43.44053" lon="6.625">
        <ele>57.799999237061</ele>
        <time>2012-10-12T08:31:39Z</time>
      </trkpt>
      <trkpt lat="43.44067" lon="6.62443">
        <ele>48.599998474121</ele>
        <time>2012-10-12T08:31:43Z</time>
      </trkpt>
      <trkpt lat="43.44079" lon="6.62385">
        <ele>37.799999237061</ele>
        <time>2012-10-12T08:31:47Z</time>
      </trkpt>
      <trkpt lat="43.44075" lon="6.62358">
        <ele>32.799999237061</ele>
        <time>2012-10-12T08:31:50Z</time>
      </trkpt>
      <trkpt lat="43.44056" lon="6.62341">
        <ele>31.39999961853</ele>
        <time>2012-10-12T08:31:53Z</time>
      </trkpt>
      <trkpt lat="43.44047" lon="6.62336">
        <ele>31.200000762939</ele>
        <time>2012-10-12T08:31:54Z</time>
      </trkpt>
      <trkpt lat="43.44004" lon="6.62316">
        <ele>31.60000038147</ele>
        <time>2012-10-12T08:31:59Z</time>
      </trkpt>
      <trkpt lat="43.43956" lon="6.62322">
        <ele>34</ele>
        <time>2012-10-12T08:32:04Z</time>
      </trkpt>
      <trkpt lat="43.43928" lon="6.62311">
        <ele>32.799999237061</ele>
        <time>2012-10-12T08:32:07Z</time>
      </trkpt>
      <trkpt lat="43.43918" lon="6.62311">
        <ele>33</ele>
        <time>2012-10-12T08:32:08Z</time>
      </trkpt>
      <trkpt lat="43.43856" lon="6.62296">
        <ele>30</ele>
        <time>2012-10-12T08:32:14Z</time>
      </trkpt>
      <trkpt lat="43.43846" lon="6.62293">
        <ele>29.60000038147</ele>
        <time>2012-10-12T08:32:15Z</time>
      </trkpt>
      <trkpt lat="43.43783" lon="6.62282">
        <ele>27</ele>
        <time>2012-10-12T08:32:21Z</time>
      </trkpt>
      <trkpt lat="43.43747" lon="6.62269">
        <ele>25.60000038147</ele>
        <time>2012-10-12T08:32:25Z</time>
      </trkpt>
      <trkpt lat="43.4374" lon="6.62265">
        <ele>25.799999237061</ele>
        <time>2012-10-12T08:32:26Z</time>
      </trkpt>
      <trkpt lat="43.43709" lon="6.62255">
        <ele>27</ele>
        <time>2012-10-12T08:32:31Z</time>
      </trkpt>
      <trkpt lat="43.43674" lon="6.62236">
        <ele>29.60000038147</ele>
        <time>2012-10-12T08:32:37Z</time>
      </trkpt>
      <trkpt lat="43.43663" lon="6.62229">
        <ele>30.39999961853</ele>
        <time>2012-10-12T08:32:39Z</time>
      </trkpt>
      <trkpt lat="43.43643" lon="6.62225">
        <ele>31</ele>
        <time>2012-10-12T08:32:43Z</time>
      </trkpt>
      <trkpt lat="43.43621" lon="6.62232">
        <ele>31.39999961853</ele>
        <time>2012-10-12T08:32:48Z</time>
      </trkpt>
      <trkpt lat="43.43609" lon="6.62237">
        <ele>31.60000038147</ele>
        <time>2012-10-12T08:32:51Z</time>
      </trkpt>
      <trkpt lat="43.43568" lon="6.62259">
        <ele>33.799999237061</ele>
        <time>2012-10-12T08:33:01Z</time>
      </trkpt>
      <trkpt lat="43.43538" lon="6.62283">
        <ele>37.799999237061</ele>
        <time>2012-10-12T08:33:09Z</time>
      </trkpt>
      <trkpt lat="43.43527" lon="6.62292">
        <ele>39</ele>
        <time>2012-10-12T08:33:12Z</time>
      </trkpt>
      <trkpt lat="43.43502" lon="6.62303">
        <ele>40</ele>
        <time>2012-10-12T08:33:18Z</time>
      </trkpt>
      <trkpt lat="43.43485" lon="6.6231">
        <ele>40</ele>
        <time>2012-10-12T08:33:22Z</time>
      </trkpt>
      <trkpt lat="43.43456" lon="6.62321">
        <ele>39.200000762939</ele>
        <time>2012-10-12T08:33:29Z</time>
      </trkpt>
      <trkpt lat="43.43444" lon="6.62329">
        <ele>39</ele>
        <time>2012-10-12T08:33:32Z</time>
      </trkpt>
      <trkpt lat="43.43425" lon="6.62358">
        <ele>41.400001525879</ele>
        <time>2012-10-12T08:33:37Z</time>
      </trkpt>
      <trkpt lat="43.43411" lon="6.62366">
        <ele>42.200000762939</ele>
        <time>2012-10-12T08:33:40Z</time>
      </trkpt>
      <trkpt lat="43.43409" lon="6.62356">
        <ele>41</ele>
        <time>2012-10-12T08:33:42Z</time>
      </trkpt>
      <trkpt lat="43.43409" lon="6.6235">
        <ele>40</ele>
        <time>2012-10-12T08:33:43Z</time>
      </trkpt>
      <trkpt lat="43.43402" lon="6.62315">
        <ele>36.799999237061</ele>
        <time>2012-10-12T08:33:49Z</time>
      </trkpt>
      <trkpt lat="43.43391" lon="6.62308">
        <ele>37.200000762939</ele>
        <time>2012-10-12T08:33:51Z</time>
      </trkpt>
      <trkpt lat="43.43347" lon="6.62286">
        <ele>37.599998474121</ele>
        <time>2012-10-12T08:33:58Z</time>
      </trkpt>
      <trkpt lat="43.43319" lon="6.62285">
        <ele>39.400001525879</ele>
        <time>2012-10-12T08:34:03Z</time>
      </trkpt>
      <trkpt lat="43.43304" lon="6.6228">
        <ele>39.799999237061</ele>
        <time>2012-10-12T08:34:07Z</time>
      </trkpt>
      <trkpt lat="43.43302" lon="6.62254">
        <ele>36.799999237061</ele>
        <time>2012-10-12T08:34:11Z</time>
      </trkpt>
      <trkpt lat="43.43287" lon="6.62239">
        <ele>37.799999237061</ele>
        <time>2012-10-12T08:34:15Z</time>
      </trkpt>
      <trkpt lat="43.43268" lon="6.62237">
        <ele>39.400001525879</ele>
        <time>2012-10-12T08:34:18Z</time>
      </trkpt>
      <trkpt lat="43.43261" lon="6.62214">
        <ele>41.599998474121</ele>
        <time>2012-10-12T08:34:21Z</time>
      </trkpt>
      <trkpt lat="43.43267" lon="6.62189">
        <ele>42.400001525879</ele>
        <time>2012-10-12T08:34:24Z</time>
      </trkpt>
      <trkpt lat="43.43271" lon="6.62185">
        <ele>42.200000762939</ele>
        <time>2012-10-12T08:34:25Z</time>
      </trkpt>
      <trkpt lat="43.43277" lon="6.62153">
        <ele>44.200000762939</ele>
        <time>2012-10-12T08:34:29Z</time>
      </trkpt>
      <trkpt lat="43.43282" lon="6.62137">
        <ele>45.599998474121</ele>
        <time>2012-10-12T08:34:32Z</time>
      </trkpt>
      <trkpt lat="43.43286" lon="6.62122">
        <ele>46.599998474121</ele>
        <time>2012-10-12T08:34:36Z</time>
      </trkpt>
      <trkpt lat="43.433" lon="6.62104">
        <ele>45.200000762939</ele>
        <time>2012-10-12T08:34:42Z</time>
      </trkpt>
      <trkpt lat="43.43312" lon="6.62088">
        <ele>43.599998474121</ele>
        <time>2012-10-12T08:34:47Z</time>
      </trkpt>
      <trkpt lat="43.43316" lon="6.62076">
        <ele>44.200000762939</ele>
        <time>2012-10-12T08:34:52Z</time>
      </trkpt>
      <trkpt lat="43.43324" lon="6.62062">
        <ele>44.200000762939</ele>
        <time>2012-10-12T08:34:58Z</time>
      </trkpt>
      <trkpt lat="43.43345" lon="6.62048">
        <ele>43.599998474121</ele>
        <time>2012-10-12T08:35:05Z</time>
      </trkpt>
      <trkpt lat="43.43371" lon="6.62028">
        <ele>44.400001525879</ele>
        <time>2012-10-12T08:35:11Z</time>
      </trkpt>
      <trkpt lat="43.43379" lon="6.62021">
        <ele>44.200000762939</ele>
        <time>2012-10-12T08:35:13Z</time>
      </trkpt>
      <trkpt lat="43.43392" lon="6.62002">
        <ele>43.400001525879</ele>
        <time>2012-10-12T08:35:18Z</time>
      </trkpt>
      <trkpt lat="43.43405" lon="6.61968">
        <ele>43</ele>
        <time>2012-10-12T08:35:25Z</time>
      </trkpt>
      <trkpt lat="43.43411" lon="6.61933">
        <ele>43.400001525879</ele>
        <time>2012-10-12T08:35:30Z</time>
      </trkpt>
      <trkpt lat="43.43412" lon="6.61911">
        <ele>44</ele>
        <time>2012-10-12T08:35:33Z</time>
      </trkpt>
      <trkpt lat="43.43408" lon="6.61885">
        <ele>45.599998474121</ele>
        <time>2012-10-12T08:35:36Z</time>
      </trkpt>
      <trkpt lat="43.43404" lon="6.61852">
        <ele>47.400001525879</ele>
        <time>2012-10-12T08:35:40Z</time>
      </trkpt>
      <trkpt lat="43.43397" lon="6.61829">
        <ele>49.400001525879</ele>
        <time>2012-10-12T08:35:43Z</time>
      </trkpt>
      <trkpt lat="43.43383" lon="6.618">
        <ele>51.799999237061</ele>
        <time>2012-10-12T08:35:48Z</time>
      </trkpt>
      <trkpt lat="43.43382" lon="6.61796">
        <ele>52</ele>
        <time>2012-10-12T08:35:49Z</time>
      </trkpt>
      <trkpt lat="43.43375" lon="6.61785">
        <ele>52.599998474121</ele>
        <time>2012-10-12T08:35:52Z</time>
      </trkpt>
      <trkpt lat="43.43373" lon="6.61773">
        <ele>52.799999237061</ele>
        <time>2012-10-12T08:35:56Z</time>
      </trkpt>
      <trkpt lat="43.43375" lon="6.61768">
        <ele>52.599998474121</ele>
        <time>2012-10-12T08:35:59Z</time>
      </trkpt>
      <trkpt lat="43.4338" lon="6.61758">
        <ele>52.200000762939</ele>
        <time>2012-10-12T08:36:06Z</time>
      </trkpt>
      <trkpt lat="43.43383" lon="6.61749">
        <ele>52</ele>
        <time>2012-10-12T08:36:11Z</time>
      </trkpt>
      <trkpt lat="43.43381" lon="6.61743">
        <ele>52.400001525879</ele>
        <time>2012-10-12T08:36:14Z</time>
      </trkpt>
      <trkpt lat="43.43375" lon="6.61738">
        <ele>52.799999237061</ele>
        <time>2012-10-12T08:36:20Z</time>
      </trkpt>
      <trkpt lat="43.43371" lon="6.6173">
        <ele>53</ele>
        <time>2012-10-12T08:36:24Z</time>
      </trkpt>
      <trkpt lat="43.4337" lon="6.61722">
        <ele>53.200000762939</ele>
        <time>2012-10-12T08:36:28Z</time>
      </trkpt>
      <trkpt lat="43.43369" lon="6.61702">
        <ele>53.400001525879</ele>
        <time>2012-10-12T08:36:34Z</time>
      </trkpt>
      <trkpt lat="43.4337" lon="6.61688">
        <ele>53.599998474121</ele>
        <time>2012-10-12T08:36:39Z</time>
      </trkpt>
      <trkpt lat="43.43363" lon="6.61669">
        <ele>53.799999237061</ele>
        <time>2012-10-12T08:36:45Z</time>
      </trkpt>
      <trkpt lat="43.43362" lon="6.61656">
        <ele>53.799999237061</ele>
        <time>2012-10-12T08:36:49Z</time>
      </trkpt>
      <trkpt lat="43.43361" lon="6.61652">
        <ele>53.799999237061</ele>
        <time>2012-10-12T08:36:52Z</time>
      </trkpt>
      <trkpt lat="43.43362" lon="6.61648">
        <ele>53.799999237061</ele>
        <time>2012-10-12T08:36:58Z</time>
      </trkpt>
      <trkpt lat="43.43363" lon="6.61638">
        <ele>54</ele>
        <time>2012-10-12T08:37:05Z</time>
      </trkpt>
      <trkpt lat="43.43366" lon="6.61618">
        <ele>54.200000762939</ele>
        <time>2012-10-12T08:37:12Z</time>
      </trkpt>
      <trkpt lat="43.43361" lon="6.61597">
        <ele>54.200000762939</ele>
        <time>2012-10-12T08:37:16Z</time>
      </trkpt>
      <trkpt lat="43.43356" lon="6.61582">
        <ele>54</ele>
        <time>2012-10-12T08:37:20Z</time>
      </trkpt>
      <trkpt lat="43.43354" lon="6.61566">
        <ele>53.200000762939</ele>
        <time>2012-10-12T08:37:25Z</time>
      </trkpt>
      <trkpt lat="43.43358" lon="6.61532">
        <ele>51.799999237061</ele>
        <time>2012-10-12T08:37:32Z</time>
      </trkpt>
      <trkpt lat="43.43355" lon="6.61517">
        <ele>51</ele>
        <time>2012-10-12T08:37:36Z</time>
      </trkpt>
      <trkpt lat="43.43353" lon="6.61497">
        <ele>50</ele>
        <time>2012-10-12T08:37:42Z</time>
      </trkpt>
      <trkpt lat="43.43352" lon="6.61466">
        <ele>50.200000762939</ele>
        <time>2012-10-12T08:37:49Z</time>
      </trkpt>
      <trkpt lat="43.43353" lon="6.6145">
        <ele>50.400001525879</ele>
        <time>2012-10-12T08:37:54Z</time>
      </trkpt>
      <trkpt lat="43.43359" lon="6.61429">
        <ele>51.400001525879</ele>
        <time>2012-10-12T08:37:58Z</time>
      </trkpt>
      <trkpt lat="43.4336" lon="6.614">
        <ele>52.200000762939</ele>
        <time>2012-10-12T08:38:02Z</time>
      </trkpt>
      <trkpt lat="43.43355" lon="6.61353">
        <ele>53.599998474121</ele>
        <time>2012-10-12T08:38:09Z</time>
      </trkpt>
      <trkpt lat="43.43355" lon="6.61347">
        <ele>53.799999237061</ele>
        <time>2012-10-12T08:38:10Z</time>
      </trkpt>
      <trkpt lat="43.43351" lon="6.61325">
        <ele>54.200000762939</ele>
        <time>2012-10-12T08:38:14Z</time>
      </trkpt>
      <trkpt lat="43.43348" lon="6.61314">
        <ele>54.400001525879</ele>
        <time>2012-10-12T08:38:16Z</time>
      </trkpt>
      <trkpt lat="43.43345" lon="6.61283">
        <ele>55.599998474121</ele>
        <time>2012-10-12T08:38:22Z</time>
      </trkpt>
      <trkpt lat="43.43344" lon="6.61277">
        <ele>55.799999237061</ele>
        <time>2012-10-12T08:38:24Z</time>
      </trkpt>
      <trkpt lat="43.43341" lon="6.61262">
        <ele>56</ele>
        <time>2012-10-12T08:38:30Z</time>
      </trkpt>
      <trkpt lat="43.43339" lon="6.61247">
        <ele>56.200000762939</ele>
        <time>2012-10-12T08:38:34Z</time>
      </trkpt>
      <trkpt lat="43.43332" lon="6.61226">
        <ele>55.599998474121</ele>
        <time>2012-10-12T08:38:40Z</time>
      </trkpt>
      <trkpt lat="43.43335" lon="6.61194">
        <ele>56</ele>
        <time>2012-10-12T08:38:47Z</time>
      </trkpt>
      <trkpt lat="43.43334" lon="6.61177">
        <ele>56</ele>
        <time>2012-10-12T08:38:50Z</time>
      </trkpt>
      <trkpt lat="43.43327" lon="6.61162">
        <ele>57.200000762939</ele>
        <time>2012-10-12T08:38:53Z</time>
      </trkpt>
      <trkpt lat="43.43326" lon="6.61158">
        <ele>57.799999237061</ele>
        <time>2012-10-12T08:38:54Z</time>
      </trkpt>
      <trkpt lat="43.43317" lon="6.61146">
        <ele>59.799999237061</ele>
        <time>2012-10-12T08:38:59Z</time>
      </trkpt>
      <trkpt lat="43.43306" lon="6.61141">
        <ele>60.799999237061</ele>
        <time>2012-10-12T08:39:03Z</time>
      </trkpt>
      <trkpt lat="43.43296" lon="6.61129">
        <ele>62</ele>
        <time>2012-10-12T08:39:08Z</time>
      </trkpt>
      <trkpt lat="43.43274" lon="6.61111">
        <ele>62.599998474121</ele>
        <time>2012-10-12T08:39:15Z</time>
      </trkpt>
      <trkpt lat="43.43264" lon="6.61103">
        <ele>62.400001525879</ele>
        <time>2012-10-12T08:39:20Z</time>
      </trkpt>
      <trkpt lat="43.43263" lon="6.61093">
        <ele>62.200000762939</ele>
        <time>2012-10-12T08:39:26Z</time>
      </trkpt>
      <trkpt lat="43.43266" lon="6.6108">
        <ele>62.200000762939</ele>
        <time>2012-10-12T08:39:34Z</time>
      </trkpt>
      <trkpt lat="43.43265" lon="6.61076">
        <ele>62.200000762939</ele>
        <time>2012-10-12T08:39:39Z</time>
      </trkpt>
      <trkpt lat="43.43264" lon="6.61074">
        <ele>62</ele>
        <time>2012-10-12T08:39:42Z</time>
      </trkpt>
      <trkpt lat="43.4326" lon="6.61056">
        <ele>61.799999237061</ele>
        <time>2012-10-12T08:39:47Z</time>
      </trkpt>
      <trkpt lat="43.43254" lon="6.61042">
        <ele>61</ele>
        <time>2012-10-12T08:39:51Z</time>
      </trkpt>
      <trkpt lat="43.43245" lon="6.61013">
        <ele>61</ele>
        <time>2012-10-12T08:39:56Z</time>
      </trkpt>
      <trkpt lat="43.43242" lon="6.60987">
        <ele>61.400001525879</ele>
        <time>2012-10-12T08:40:01Z</time>
      </trkpt>
      <trkpt lat="43.43242" lon="6.60982">
        <ele>61.599998474121</ele>
        <time>2012-10-12T08:40:02Z</time>
      </trkpt>
      <trkpt lat="43.43241" lon="6.60976">
        <ele>61.799999237061</ele>
        <time>2012-10-12T08:40:06Z</time>
      </trkpt>
      <trkpt lat="43.43241" lon="6.60975">
        <ele>62</ele>
        <time>2012-10-12T08:40:07Z</time>
      </trkpt>
      <trkpt lat="43.43241" lon="6.60966">
        <ele>62.200000762939</ele>
        <time>2012-10-12T08:40:12Z</time>
      </trkpt>
      <trkpt lat="43.43247" lon="6.60962">
        <ele>61.599998474121</ele>
        <time>2012-10-12T08:40:16Z</time>
      </trkpt>
      <trkpt lat="43.43249" lon="6.60954">
        <ele>61.799999237061</ele>
        <time>2012-10-12T08:40:20Z</time>
      </trkpt>
      <trkpt lat="43.43247" lon="6.60951">
        <ele>62</ele>
        <time>2012-10-12T08:40:21Z</time>
      </trkpt>
      <trkpt lat="43.43241" lon="6.60935">
        <ele>63</ele>
        <time>2012-10-12T08:40:28Z</time>
      </trkpt>
      <trkpt lat="43.43236" lon="6.60923">
        <ele>63.599998474121</ele>
        <time>2012-10-12T08:40:34Z</time>
      </trkpt>
      <trkpt lat="43.4323" lon="6.60911">
        <ele>64.400001525879</ele>
        <time>2012-10-12T08:40:38Z</time>
      </trkpt>
      <trkpt lat="43.43225" lon="6.60892">
        <ele>65.400001525879</ele>
        <time>2012-10-12T08:40:42Z</time>
      </trkpt>
      <trkpt lat="43.43213" lon="6.60872">
        <ele>66.199996948242</ele>
        <time>2012-10-12T08:40:47Z</time>
      </trkpt>
      <trkpt lat="43.43208" lon="6.60862">
        <ele>66.400001525879</ele>
        <time>2012-10-12T08:40:49Z</time>
      </trkpt>
      <trkpt lat="43.43194" lon="6.60846">
        <ele>66.400001525879</ele>
        <time>2012-10-12T08:40:53Z</time>
      </trkpt>
      <trkpt lat="43.43187" lon="6.60837">
        <ele>66</ele>
        <time>2012-10-12T08:40:55Z</time>
      </trkpt>
      <trkpt lat="43.43176" lon="6.60818">
        <ele>66</ele>
        <time>2012-10-12T08:40:59Z</time>
      </trkpt>
      <trkpt lat="43.4316" lon="6.60797">
        <ele>66.199996948242</ele>
        <time>2012-10-12T08:41:04Z</time>
      </trkpt>
      <trkpt lat="43.43155" lon="6.60789">
        <ele>66.400001525879</ele>
        <time>2012-10-12T08:41:06Z</time>
      </trkpt>
      <trkpt lat="43.43151" lon="6.60779">
        <ele>66.599998474121</ele>
        <time>2012-10-12T08:41:08Z</time>
      </trkpt>
      <trkpt lat="43.43138" lon="6.60756">
        <ele>66.400001525879</ele>
        <time>2012-10-12T08:41:13Z</time>
      </trkpt>
      <trkpt lat="43.43135" lon="6.60752">
        <ele>66.199996948242</ele>
        <time>2012-10-12T08:41:14Z</time>
      </trkpt>
      <trkpt lat="43.43118" lon="6.60746">
        <ele>66</ele>
        <time>2012-10-12T08:41:18Z</time>
      </trkpt>
      <trkpt lat="43.43107" lon="6.60748">
        <ele>65.599998474121</ele>
        <time>2012-10-12T08:41:20Z</time>
      </trkpt>
      <trkpt lat="43.43084" lon="6.6074">
        <ele>65</ele>
        <time>2012-10-12T08:41:25Z</time>
      </trkpt>
      <trkpt lat="43.43046" lon="6.60716">
        <ele>66</ele>
        <time>2012-10-12T08:41:34Z</time>
      </trkpt>
      <trkpt lat="43.43042" lon="6.60713">
        <ele>66</ele>
        <time>2012-10-12T08:41:35Z</time>
      </trkpt>
      <trkpt lat="43.43032" lon="6.60703">
        <ele>66.199996948242</ele>
        <time>2012-10-12T08:41:38Z</time>
      </trkpt>
      <trkpt lat="43.43023" lon="6.60688">
        <ele>66.400001525879</ele>
        <time>2012-10-12T08:41:42Z</time>
      </trkpt>
      <trkpt lat="43.43021" lon="6.60682">
        <ele>66.400001525879</ele>
        <time>2012-10-12T08:41:44Z</time>
      </trkpt>
      <trkpt lat="43.43014" lon="6.6066">
        <ele>66.800003051758</ele>
        <time>2012-10-12T08:41:50Z</time>
      </trkpt>
      <trkpt lat="43.43012" lon="6.60638">
        <ele>67.800003051758</ele>
        <time>2012-10-12T08:41:55Z</time>
      </trkpt>
      <trkpt lat="43.43006" lon="6.60623">
        <ele>68.400001525879</ele>
        <time>2012-10-12T08:41:59Z</time>
      </trkpt>
      <trkpt lat="43.42993" lon="6.60614">
        <ele>69.599998474121</ele>
        <time>2012-10-12T08:42:05Z</time>
      </trkpt>
      <trkpt lat="43.42987" lon="6.60602">
        <ele>70.599998474121</ele>
        <time>2012-10-12T08:42:09Z</time>
      </trkpt>
      <trkpt lat="43.42985" lon="6.60581">
        <ele>71.599998474121</ele>
        <time>2012-10-12T08:42:14Z</time>
      </trkpt>
      <trkpt lat="43.42993" lon="6.60557">
        <ele>70.800003051758</ele>
        <time>2012-10-12T08:42:19Z</time>
      </trkpt>
      <trkpt lat="43.4299" lon="6.60537">
        <ele>71.199996948242</ele>
        <time>2012-10-12T08:42:23Z</time>
      </trkpt>
      <trkpt lat="43.42985" lon="6.60526">
        <ele>71.800003051758</ele>
        <time>2012-10-12T08:42:25Z</time>
      </trkpt>
      <trkpt lat="43.42968" lon="6.60505">
        <ele>74.199996948242</ele>
        <time>2012-10-12T08:42:30Z</time>
      </trkpt>
      <trkpt lat="43.42952" lon="6.60493">
        <ele>76.400001525879</ele>
        <time>2012-10-12T08:42:35Z</time>
      </trkpt>
      <trkpt lat="43.42931" lon="6.60466">
        <ele>78.199996948242</ele>
        <time>2012-10-12T08:42:42Z</time>
      </trkpt>
      <trkpt lat="43.42922" lon="6.60455">
        <ele>78.599998474121</ele>
        <time>2012-10-12T08:42:45Z</time>
      </trkpt>
      <trkpt lat="43.42908" lon="6.60434">
        <ele>79.599998474121</ele>
        <time>2012-10-12T08:42:50Z</time>
      </trkpt>
      <trkpt lat="43.42904" lon="6.60424">
        <ele>79.800003051758</ele>
        <time>2012-10-12T08:42:54Z</time>
      </trkpt>
      <trkpt lat="43.42901" lon="6.60406">
        <ele>80.400001525879</ele>
        <time>2012-10-12T08:42:59Z</time>
      </trkpt>
      <trkpt lat="43.42897" lon="6.60384">
        <ele>81.400001525879</ele>
        <time>2012-10-12T08:43:05Z</time>
      </trkpt>
      <trkpt lat="43.42894" lon="6.60366">
        <ele>82</ele>
        <time>2012-10-12T08:43:09Z</time>
      </trkpt>
      <trkpt lat="43.42881" lon="6.60347">
        <ele>83.199996948242</ele>
        <time>2012-10-12T08:43:14Z</time>
      </trkpt>
      <trkpt lat="43.42874" lon="6.60332">
        <ele>83.599998474121</ele>
        <time>2012-10-12T08:43:18Z</time>
      </trkpt>
      <trkpt lat="43.42862" lon="6.60319">
        <ele>84.400001525879</ele>
        <time>2012-10-12T08:43:22Z</time>
      </trkpt>
      <trkpt lat="43.42851" lon="6.6031">
        <ele>85</ele>
        <time>2012-10-12T08:43:27Z</time>
      </trkpt>
      <trkpt lat="43.4285" lon="6.6031">
        <ele>85</ele>
        <time>2012-10-12T08:43:28Z</time>
      </trkpt>
      <trkpt lat="43.42845" lon="6.60302">
        <ele>85</ele>
        <time>2012-10-12T08:43:32Z</time>
      </trkpt>
      <trkpt lat="43.4284" lon="6.60296">
        <ele>85</ele>
        <time>2012-10-12T08:43:35Z</time>
      </trkpt>
      <trkpt lat="43.4284" lon="6.60286">
        <ele>84.800003051758</ele>
        <time>2012-10-12T08:43:41Z</time>
      </trkpt>
      <trkpt lat="43.42842" lon="6.60283">
        <ele>84.800003051758</ele>
        <time>2012-10-12T08:43:43Z</time>
      </trkpt>
      <trkpt lat="43.4284" lon="6.60274">
        <ele>84.599998474121</ele>
        <time>2012-10-12T08:43:48Z</time>
      </trkpt>
      <trkpt lat="43.42839" lon="6.60273">
        <ele>84.599998474121</ele>
        <time>2012-10-12T08:43:50Z</time>
      </trkpt>
      <trkpt lat="43.42837" lon="6.60268">
        <ele>84.599998474121</ele>
        <time>2012-10-12T08:43:54Z</time>
      </trkpt>
      <trkpt lat="43.42836" lon="6.60255">
        <ele>84.199996948242</ele>
        <time>2012-10-12T08:43:59Z</time>
      </trkpt>
      <trkpt lat="43.42835" lon="6.60247">
        <ele>84.400001525879</ele>
        <time>2012-10-12T08:44:04Z</time>
      </trkpt>
      <trkpt lat="43.42835" lon="6.60244">
        <ele>84.400001525879</ele>
        <time>2012-10-12T08:44:05Z</time>
      </trkpt>
      <trkpt lat="43.42836" lon="6.60239">
        <ele>84.800003051758</ele>
        <time>2012-10-12T08:44:07Z</time>
      </trkpt>
      <trkpt lat="43.42834" lon="6.60231">
        <ele>85.199996948242</ele>
        <time>2012-10-12T08:44:12Z</time>
      </trkpt>
      <trkpt lat="43.42833" lon="6.60218">
        <ele>86</ele>
        <time>2012-10-12T08:44:21Z</time>
      </trkpt>
      <trkpt lat="43.42834" lon="6.60208">
        <ele>86.599998474121</ele>
        <time>2012-10-12T08:44:29Z</time>
      </trkpt>
      <trkpt lat="43.42834" lon="6.60199">
        <ele>87.199996948242</ele>
        <time>2012-10-12T08:44:38Z</time>
      </trkpt>
      <trkpt lat="43.42835" lon="6.60194">
        <ele>87.400001525879</ele>
        <time>2012-10-12T08:44:42Z</time>
      </trkpt>
      <trkpt lat="43.42838" lon="6.60188">
        <ele>88.199996948242</ele>
        <time>2012-10-12T08:44:47Z</time>
      </trkpt>
      <trkpt lat="43.42845" lon="6.60179">
        <ele>89.400001525879</ele>
        <time>2012-10-12T08:44:57Z</time>
      </trkpt>
      <trkpt lat="43.4285" lon="6.60168">
        <ele>90.599998474121</ele>
        <time>2012-10-12T08:45:06Z</time>
      </trkpt>
      <trkpt lat="43.42855" lon="6.60155">
        <ele>92.800003051758</ele>
        <time>2012-10-12T08:45:16Z</time>
      </trkpt>
      <trkpt lat="43.42858" lon="6.60144">
        <ele>94.599998474121</ele>
        <time>2012-10-12T08:45:24Z</time>
      </trkpt>
      <trkpt lat="43.42861" lon="6.60139">
        <ele>95.599998474121</ele>
        <time>2012-10-12T08:45:29Z</time>
      </trkpt>
      <trkpt lat="43.42867" lon="6.60126">
        <ele>98</ele>
        <time>2012-10-12T08:45:39Z</time>
      </trkpt>
      <trkpt lat="43.42872" lon="6.60115">
        <ele>100.19999694824</ele>
        <time>2012-10-12T08:45:47Z</time>
      </trkpt>
      <trkpt lat="43.42877" lon="6.60101">
        <ele>102.80000305176</ele>
        <time>2012-10-12T08:45:56Z</time>
      </trkpt>
      <trkpt lat="43.42878" lon="6.60093">
        <ele>104.19999694824</ele>
        <time>2012-10-12T08:46:02Z</time>
      </trkpt>
      <trkpt lat="43.42882" lon="6.60074">
        <ele>108</ele>
        <time>2012-10-12T08:46:08Z</time>
      </trkpt>
      <trkpt lat="43.42883" lon="6.60064">
        <ele>110.40000152588</ele>
        <time>2012-10-12T08:46:10Z</time>
      </trkpt>
      <trkpt lat="43.42869" lon="6.60047">
        <ele>112.19999694824</ele>
        <time>2012-10-12T08:46:15Z</time>
      </trkpt>
      <trkpt lat="43.42866" lon="6.60045">
        <ele>112.19999694824</ele>
        <time>2012-10-12T08:46:16Z</time>
      </trkpt>
      <trkpt lat="43.42854" lon="6.6003">
        <ele>113.59999847412</ele>
        <time>2012-10-12T08:46:24Z</time>
      </trkpt>
      <trkpt lat="43.42847" lon="6.60014">
        <ele>116.19999694824</ele>
        <time>2012-10-12T08:46:31Z</time>
      </trkpt>
      <trkpt lat="43.42837" lon="6.60007">
        <ele>116</ele>
        <time>2012-10-12T08:46:37Z</time>
      </trkpt>
      <trkpt lat="43.42826" lon="6.6">
        <ele>115.80000305176</ele>
        <time>2012-10-12T08:46:44Z</time>
      </trkpt>
      <trkpt lat="43.42812" lon="6.59996">
        <ele>114.40000152588</ele>
        <time>2012-10-12T08:46:51Z</time>
      </trkpt>
      <trkpt lat="43.42797" lon="6.59995">
        <ele>112</ele>
        <time>2012-10-12T08:46:59Z</time>
      </trkpt>
      <trkpt lat="43.42785" lon="6.59991">
        <ele>110.80000305176</ele>
        <time>2012-10-12T08:47:06Z</time>
      </trkpt>
      <trkpt lat="43.42781" lon="6.59975">
        <ele>113.59999847412</ele>
        <time>2012-10-12T08:47:13Z</time>
      </trkpt>
      <trkpt lat="43.42779" lon="6.59957">
        <ele>117</ele>
        <time>2012-10-12T08:47:20Z</time>
      </trkpt>
      <trkpt lat="43.42773" lon="6.5994">
        <ele>119</ele>
        <time>2012-10-12T08:47:27Z</time>
      </trkpt>
      <trkpt lat="43.42771" lon="6.59921">
        <ele>122</ele>
        <time>2012-10-12T08:47:34Z</time>
      </trkpt>
      <trkpt lat="43.42776" lon="6.599">
        <ele>127</ele>
        <time>2012-10-12T08:47:40Z</time>
      </trkpt>
      <trkpt lat="43.42781" lon="6.59879">
        <ele>131.60000610352</ele>
        <time>2012-10-12T08:47:45Z</time>
      </trkpt>
      <trkpt lat="43.42783" lon="6.59857">
        <ele>136</ele>
        <time>2012-10-12T08:47:51Z</time>
      </trkpt>
      <trkpt lat="43.42779" lon="6.59833">
        <ele>138.39999389648</ele>
        <time>2012-10-12T08:47:58Z</time>
      </trkpt>
      <trkpt lat="43.42778" lon="6.5983">
        <ele>138.60000610352</ele>
        <time>2012-10-12T08:47:59Z</time>
      </trkpt>
      <trkpt lat="43.42764" lon="6.59817">
        <ele>136.39999389648</ele>
        <time>2012-10-12T08:48:06Z</time>
      </trkpt>
      <trkpt lat="43.42751" lon="6.59805">
        <ele>135.19999694824</ele>
        <time>2012-10-12T08:48:12Z</time>
      </trkpt>
      <trkpt lat="43.42746" lon="6.5979">
        <ele>138.19999694824</ele>
        <time>2012-10-12T08:48:19Z</time>
      </trkpt>
      <trkpt lat="43.42741" lon="6.59768">
        <ele>143.60000610352</ele>
        <time>2012-10-12T08:48:27Z</time>
      </trkpt>
      <trkpt lat="43.42739" lon="6.59747">
        <ele>149.19999694824</ele>
        <time>2012-10-12T08:48:35Z</time>
      </trkpt>
      <trkpt lat="43.4273" lon="6.59736">
        <ele>151</ele>
        <time>2012-10-12T08:48:40Z</time>
      </trkpt>
      <trkpt lat="43.4272" lon="6.59735">
        <ele>150.39999389648</ele>
        <time>2012-10-12T08:48:44Z</time>
      </trkpt>
      <trkpt lat="43.42709" lon="6.59737">
        <ele>148.19999694824</ele>
        <time>2012-10-12T08:48:51Z</time>
      </trkpt>
      <trkpt lat="43.42699" lon="6.59739">
        <ele>146.39999389648</ele>
        <time>2012-10-12T08:48:57Z</time>
      </trkpt>
      <trkpt lat="43.42689" lon="6.59735">
        <ele>146.39999389648</ele>
        <time>2012-10-12T08:49:04Z</time>
      </trkpt>
      <trkpt lat="43.42676" lon="6.59727">
        <ele>147.39999389648</ele>
        <time>2012-10-12T08:49:13Z</time>
      </trkpt>
      <trkpt lat="43.42668" lon="6.59721">
        <ele>148.60000610352</ele>
        <time>2012-10-12T08:49:20Z</time>
      </trkpt>
      <trkpt lat="43.42658" lon="6.59715">
        <ele>150</ele>
        <time>2012-10-12T08:49:27Z</time>
      </trkpt>
      <trkpt lat="43.42647" lon="6.59712">
        <ele>150.39999389648</ele>
        <time>2012-10-12T08:49:36Z</time>
      </trkpt>
      <trkpt lat="43.42636" lon="6.59707">
        <ele>151.19999694824</ele>
        <time>2012-10-12T08:49:44Z</time>
      </trkpt>
      <trkpt lat="43.4263" lon="6.59696">
        <ele>154.19999694824</ele>
        <time>2012-10-12T08:49:51Z</time>
      </trkpt>
      <trkpt lat="43.42624" lon="6.59685">
        <ele>157.19999694824</ele>
        <time>2012-10-12T08:49:58Z</time>
      </trkpt>
      <trkpt lat="43.42615" lon="6.5967">
        <ele>160.60000610352</ele>
        <time>2012-10-12T08:50:07Z</time>
      </trkpt>
      <trkpt lat="43.42606" lon="6.5966">
        <ele>162.19999694824</ele>
        <time>2012-10-12T08:50:14Z</time>
      </trkpt>
      <trkpt lat="43.42594" lon="6.59647">
        <ele>163.60000610352</ele>
        <time>2012-10-12T08:50:22Z</time>
      </trkpt>
      <trkpt lat="43.42591" lon="6.59645">
        <ele>164</ele>
        <time>2012-10-12T08:50:24Z</time>
      </trkpt>
      <trkpt lat="43.42572" lon="6.59641">
        <ele>163.19999694824</ele>
        <time>2012-10-12T08:50:34Z</time>
      </trkpt>
      <trkpt lat="43.42553" lon="6.59642">
        <ele>162.39999389648</ele>
        <time>2012-10-12T08:50:41Z</time>
      </trkpt>
      <trkpt lat="43.42541" lon="6.59626">
        <ele>165.19999694824</ele>
        <time>2012-10-12T08:50:46Z</time>
      </trkpt>
      <trkpt lat="43.42523" lon="6.59603">
        <ele>169.19999694824</ele>
        <time>2012-10-12T08:50:52Z</time>
      </trkpt>
      <trkpt lat="43.42514" lon="6.59603">
        <ele>168.80000305176</ele>
        <time>2012-10-12T08:50:55Z</time>
      </trkpt>
      <trkpt lat="43.42501" lon="6.59609">
        <ele>167</ele>
        <time>2012-10-12T08:51:01Z</time>
      </trkpt>
      <trkpt lat="43.4249" lon="6.59614">
        <ele>165.19999694824</ele>
        <time>2012-10-12T08:51:07Z</time>
      </trkpt>
      <trkpt lat="43.42473" lon="6.59615">
        <ele>164.39999389648</ele>
        <time>2012-10-12T08:51:15Z</time>
      </trkpt>
      <trkpt lat="43.42467" lon="6.59601">
        <ele>166.19999694824</ele>
        <time>2012-10-12T08:51:20Z</time>
      </trkpt>
      <trkpt lat="43.42462" lon="6.59577">
        <ele>169.60000610352</ele>
        <time>2012-10-12T08:51:26Z</time>
      </trkpt>
      <trkpt lat="43.42453" lon="6.59547">
        <ele>172.39999389648</ele>
        <time>2012-10-12T08:51:33Z</time>
      </trkpt>
      <trkpt lat="43.42442" lon="6.59529">
        <ele>174</ele>
        <time>2012-10-12T08:51:38Z</time>
      </trkpt>
      <trkpt lat="43.4244" lon="6.59515">
        <ele>175.60000610352</ele>
        <time>2012-10-12T08:51:41Z</time>
      </trkpt>
      <trkpt lat="43.42427" lon="6.59508">
        <ele>175.60000610352</ele>
        <time>2012-10-12T08:51:45Z</time>
      </trkpt>
      <trkpt lat="43.4242" lon="6.59512">
        <ele>174.60000610352</ele>
        <time>2012-10-12T08:51:47Z</time>
      </trkpt>
      <trkpt lat="43.42393" lon="6.59524">
        <ele>172.60000610352</ele>
        <time>2012-10-12T08:51:54Z</time>
      </trkpt>
      <trkpt lat="43.42372" lon="6.59518">
        <ele>173</ele>
        <time>2012-10-12T08:51:58Z</time>
      </trkpt>
      <trkpt lat="43.42361" lon="6.59512">
        <ele>173.39999389648</ele>
        <time>2012-10-12T08:52:00Z</time>
      </trkpt>
      <trkpt lat="43.42345" lon="6.59491">
        <ele>174.60000610352</ele>
        <time>2012-10-12T08:52:04Z</time>
      </trkpt>
      <trkpt lat="43.42343" lon="6.59477">
        <ele>176.60000610352</ele>
        <time>2012-10-12T08:52:06Z</time>
      </trkpt>
      <trkpt lat="43.42332" lon="6.59465">
        <ele>178</ele>
        <time>2012-10-12T08:52:11Z</time>
      </trkpt>
      <trkpt lat="43.42326" lon="6.59475">
        <ele>176.60000610352</ele>
        <time>2012-10-12T08:52:13Z</time>
      </trkpt>
      <trkpt lat="43.42302" lon="6.59478">
        <ele>176.39999389648</ele>
        <time>2012-10-12T08:52:18Z</time>
      </trkpt>
      <trkpt lat="43.42292" lon="6.59472">
        <ele>177.19999694824</ele>
        <time>2012-10-12T08:52:20Z</time>
      </trkpt>
      <trkpt lat="43.42266" lon="6.59473">
        <ele>177.19999694824</ele>
        <time>2012-10-12T08:52:24Z</time>
      </trkpt>
      <trkpt lat="43.42253" lon="6.59483">
        <ele>176.80000305176</ele>
        <time>2012-10-12T08:52:26Z</time>
      </trkpt>
      <trkpt lat="43.4224" lon="6.59496">
        <ele>177.19999694824</ele>
        <time>2012-10-12T08:52:30Z</time>
      </trkpt>
      <trkpt lat="43.42241" lon="6.59504">
        <ele>177.19999694824</ele>
        <time>2012-10-12T08:52:37Z</time>
      </trkpt>
      <trkpt lat="43.4224" lon="6.59506">
        <ele>177.39999389648</ele>
        <time>2012-10-12T08:52:38Z</time>
      </trkpt>
      <trkpt lat="43.42239" lon="6.59516">
        <ele>178</ele>
        <time>2012-10-12T08:52:49Z</time>
      </trkpt>
      <trkpt lat="43.42238" lon="6.59524">
        <ele>178.39999389648</ele>
        <time>2012-10-12T08:52:58Z</time>
      </trkpt>
      <trkpt lat="43.42238" lon="6.59535">
        <ele>178.80000305176</ele>
        <time>2012-10-12T08:53:08Z</time>
      </trkpt>
      <trkpt lat="43.42243" lon="6.59548">
        <ele>179</ele>
        <time>2012-10-12T08:53:17Z</time>
      </trkpt>
      <trkpt lat="43.42244" lon="6.59554">
        <ele>179.19999694824</ele>
        <time>2012-10-12T08:53:21Z</time>
      </trkpt>
      <trkpt lat="43.42239" lon="6.59563">
        <ele>180</ele>
        <time>2012-10-12T08:53:28Z</time>
      </trkpt>
      <trkpt lat="43.42236" lon="6.59567">
        <ele>180.39999389648</ele>
        <time>2012-10-12T08:53:31Z</time>
      </trkpt>
      <trkpt lat="43.42228" lon="6.59574">
        <ele>181.39999389648</ele>
        <time>2012-10-12T08:53:37Z</time>
      </trkpt>
      <trkpt lat="43.42226" lon="6.59583">
        <ele>182</ele>
        <time>2012-10-12T08:53:43Z</time>
      </trkpt>
      <trkpt lat="43.42226" lon="6.59586">
        <ele>182.19999694824</ele>
        <time>2012-10-12T08:53:44Z</time>
      </trkpt>
      <trkpt lat="43.42225" lon="6.59602">
        <ele>183.19999694824</ele>
        <time>2012-10-12T08:53:51Z</time>
      </trkpt>
      <trkpt lat="43.42217" lon="6.59621">
        <ele>185.19999694824</ele>
        <time>2012-10-12T08:54:00Z</time>
      </trkpt>
      <trkpt lat="43.42208" lon="6.59641">
        <ele>187</ele>
        <time>2012-10-12T08:54:10Z</time>
      </trkpt>
      <trkpt lat="43.422" lon="6.59649">
        <ele>188</ele>
        <time>2012-10-12T08:54:16Z</time>
      </trkpt>
      <trkpt lat="43.42191" lon="6.59657">
        <ele>189</ele>
        <time>2012-10-12T08:54:23Z</time>
      </trkpt>
      <trkpt lat="43.42177" lon="6.59665">
        <ele>190.19999694824</ele>
        <time>2012-10-12T08:54:28Z</time>
      </trkpt>
      <trkpt lat="43.42162" lon="6.59678">
        <ele>192.19999694824</ele>
        <time>2012-10-12T08:54:32Z</time>
      </trkpt>
      <trkpt lat="43.42149" lon="6.59687">
        <ele>194.19999694824</ele>
        <time>2012-10-12T08:54:35Z</time>
      </trkpt>
      <trkpt lat="43.42142" lon="6.59705">
        <ele>195.80000305176</ele>
        <time>2012-10-12T08:54:40Z</time>
      </trkpt>
      <trkpt lat="43.42136" lon="6.59727">
        <ele>197.39999389648</ele>
        <time>2012-10-12T08:54:47Z</time>
      </trkpt>
      <trkpt lat="43.42127" lon="6.59747">
        <ele>199</ele>
        <time>2012-10-12T08:54:54Z</time>
      </trkpt>
      <trkpt lat="43.42116" lon="6.59768">
        <ele>201.39999389648</ele>
        <time>2012-10-12T08:55:03Z</time>
      </trkpt>
      <trkpt lat="43.42102" lon="6.59784">
        <ele>203</ele>
        <time>2012-10-12T08:55:10Z</time>
      </trkpt>
      <trkpt lat="43.42095" lon="6.59804">
        <ele>203.80000305176</ele>
        <time>2012-10-12T08:55:16Z</time>
      </trkpt>
      <trkpt lat="43.42085" lon="6.59826">
        <ele>204</ele>
        <time>2012-10-12T08:55:23Z</time>
      </trkpt>
      <trkpt lat="43.42073" lon="6.59843">
        <ele>205.39999389648</ele>
        <time>2012-10-12T08:55:29Z</time>
      </trkpt>
      <trkpt lat="43.42068" lon="6.59862">
        <ele>206.60000610352</ele>
        <time>2012-10-12T08:55:33Z</time>
      </trkpt>
      <trkpt lat="43.4207" lon="6.59869">
        <ele>206.80000305176</ele>
        <time>2012-10-12T08:55:34Z</time>
      </trkpt>
      <trkpt lat="43.42085" lon="6.59879">
        <ele>206.19999694824</ele>
        <time>2012-10-12T08:55:38Z</time>
      </trkpt>
      <trkpt lat="43.42097" lon="6.59872">
        <ele>206</ele>
        <time>2012-10-12T08:55:41Z</time>
      </trkpt>
      <trkpt lat="43.42112" lon="6.59853">
        <ele>205</ele>
        <time>2012-10-12T08:55:46Z</time>
      </trkpt>
      <trkpt lat="43.42126" lon="6.5984">
        <ele>204</ele>
        <time>2012-10-12T08:55:50Z</time>
      </trkpt>
      <trkpt lat="43.42139" lon="6.59832">
        <ele>203.19999694824</ele>
        <time>2012-10-12T08:55:53Z</time>
      </trkpt>
      <trkpt lat="43.42164" lon="6.59825">
        <ele>202.19999694824</ele>
        <time>2012-10-12T08:55:59Z</time>
      </trkpt>
      <trkpt lat="43.42167" lon="6.59825">
        <ele>202</ele>
        <time>2012-10-12T08:56:00Z</time>
      </trkpt>
      <trkpt lat="43.42186" lon="6.59826">
        <ele>200.39999389648</ele>
        <time>2012-10-12T08:56:06Z</time>
      </trkpt>
      <trkpt lat="43.422" lon="6.59841">
        <ele>200.80000305176</ele>
        <time>2012-10-12T08:56:12Z</time>
      </trkpt>
      <trkpt lat="43.42213" lon="6.59855">
        <ele>201.60000610352</ele>
        <time>2012-10-12T08:56:19Z</time>
      </trkpt>
      <trkpt lat="43.42227" lon="6.59871">
        <ele>202.80000305176</ele>
        <time>2012-10-12T08:56:27Z</time>
      </trkpt>
      <trkpt lat="43.42234" lon="6.59884">
        <ele>204.39999389648</ele>
        <time>2012-10-12T08:56:34Z</time>
      </trkpt>
      <trkpt lat="43.42239" lon="6.59894">
        <ele>205.80000305176</ele>
        <time>2012-10-12T08:56:39Z</time>
      </trkpt>
      <trkpt lat="43.42244" lon="6.59908">
        <ele>207.80000305176</ele>
        <time>2012-10-12T08:56:45Z</time>
      </trkpt>
      <trkpt lat="43.42247" lon="6.59928">
        <ele>210.19999694824</ele>
        <time>2012-10-12T08:56:53Z</time>
      </trkpt>
      <trkpt lat="43.42249" lon="6.59947">
        <ele>211.80000305176</ele>
        <time>2012-10-12T08:57:01Z</time>
      </trkpt>
      <trkpt lat="43.42246" lon="6.59965">
        <ele>213.80000305176</ele>
        <time>2012-10-12T08:57:08Z</time>
      </trkpt>
      <trkpt lat="43.42237" lon="6.59974">
        <ele>214.80000305176</ele>
        <time>2012-10-12T08:57:13Z</time>
      </trkpt>
      <trkpt lat="43.42218" lon="6.59986">
        <ele>216.19999694824</ele>
        <time>2012-10-12T08:57:21Z</time>
      </trkpt>
      <trkpt lat="43.42203" lon="6.60007">
        <ele>217.60000610352</ele>
        <time>2012-10-12T08:57:26Z</time>
      </trkpt>
      <trkpt lat="43.42183" lon="6.60032">
        <ele>218.80000305176</ele>
        <time>2012-10-12T08:57:31Z</time>
      </trkpt>
      <trkpt lat="43.42161" lon="6.60064">
        <ele>221.19999694824</ele>
        <time>2012-10-12T08:57:38Z</time>
      </trkpt>
      <trkpt lat="43.42154" lon="6.60075">
        <ele>221.80000305176</ele>
        <time>2012-10-12T08:57:41Z</time>
      </trkpt>
      <trkpt lat="43.42137" lon="6.60105">
        <ele>223</ele>
        <time>2012-10-12T08:57:50Z</time>
      </trkpt>
      <trkpt lat="43.42127" lon="6.6013">
        <ele>224</ele>
        <time>2012-10-12T08:57:57Z</time>
      </trkpt>
      <trkpt lat="43.42117" lon="6.6016">
        <ele>225.80000305176</ele>
        <time>2012-10-12T08:58:05Z</time>
      </trkpt>
      <trkpt lat="43.42118" lon="6.6018">
        <ele>226.19999694824</ele>
        <time>2012-10-12T08:58:09Z</time>
      </trkpt>
      <trkpt lat="43.42132" lon="6.60209">
        <ele>225.80000305176</ele>
        <time>2012-10-12T08:58:14Z</time>
      </trkpt>
      <trkpt lat="43.42154" lon="6.60254">
        <ele>224.80000305176</ele>
        <time>2012-10-12T08:58:20Z</time>
      </trkpt>
      <trkpt lat="43.4217" lon="6.60288">
        <ele>222.60000610352</ele>
        <time>2012-10-12T08:58:24Z</time>
      </trkpt>
      <trkpt lat="43.42178" lon="6.60339">
        <ele>220.39999389648</ele>
        <time>2012-10-12T08:58:28Z</time>
      </trkpt>
      <trkpt lat="43.42175" lon="6.60364">
        <ele>220.80000305176</ele>
        <time>2012-10-12T08:58:30Z</time>
      </trkpt>
      <trkpt lat="43.42184" lon="6.60395">
        <ele>219.19999694824</ele>
        <time>2012-10-12T08:58:34Z</time>
      </trkpt>
      <trkpt lat="43.42193" lon="6.60401">
        <ele>218</ele>
        <time>2012-10-12T08:58:35Z</time>
      </trkpt>
      <trkpt lat="43.42218" lon="6.60416">
        <ele>214</ele>
        <time>2012-10-12T08:58:38Z</time>
      </trkpt>
      <trkpt lat="43.42261" lon="6.60423">
        <ele>207</ele>
        <time>2012-10-12T08:58:42Z</time>
      </trkpt>
      <trkpt lat="43.42287" lon="6.6041">
        <ele>204.60000610352</ele>
        <time>2012-10-12T08:58:45Z</time>
      </trkpt>
      <trkpt lat="43.42302" lon="6.60406">
        <ele>203</ele>
        <time>2012-10-12T08:58:48Z</time>
      </trkpt>
      <trkpt lat="43.42304" lon="6.6042">
        <ele>202.19999694824</ele>
        <time>2012-10-12T08:58:50Z</time>
      </trkpt>
      <trkpt lat="43.42302" lon="6.60426">
        <ele>201.60000610352</ele>
        <time>2012-10-12T08:58:51Z</time>
      </trkpt>
      <trkpt lat="43.42288" lon="6.60441">
        <ele>201.60000610352</ele>
        <time>2012-10-12T08:58:54Z</time>
      </trkpt>
      <trkpt lat="43.42282" lon="6.60445">
        <ele>202.19999694824</ele>
        <time>2012-10-12T08:58:55Z</time>
      </trkpt>
      <trkpt lat="43.42266" lon="6.60451">
        <ele>203.60000610352</ele>
        <time>2012-10-12T08:58:57Z</time>
      </trkpt>
      <trkpt lat="43.42244" lon="6.60484">
        <ele>204.39999389648</ele>
        <time>2012-10-12T08:59:01Z</time>
      </trkpt>
      <trkpt lat="43.42242" lon="6.60495">
        <ele>203.80000305176</ele>
        <time>2012-10-12T08:59:02Z</time>
      </trkpt>
      <trkpt lat="43.42249" lon="6.60537">
        <ele>196.80000305176</ele>
        <time>2012-10-12T08:59:06Z</time>
      </trkpt>
      <trkpt lat="43.42255" lon="6.60563">
        <ele>192</ele>
        <time>2012-10-12T08:59:09Z</time>
      </trkpt>
      <trkpt lat="43.42245" lon="6.60575">
        <ele>192</ele>
        <time>2012-10-12T08:59:11Z</time>
      </trkpt>
      <trkpt lat="43.42239" lon="6.60579">
        <ele>192.39999389648</ele>
        <time>2012-10-12T08:59:12Z</time>
      </trkpt>
      <trkpt lat="43.4221" lon="6.60604">
        <ele>195.19999694824</ele>
        <time>2012-10-12T08:59:16Z</time>
      </trkpt>
      <trkpt lat="43.42197" lon="6.60623">
        <ele>195.39999389648</ele>
        <time>2012-10-12T08:59:18Z</time>
      </trkpt>
      <trkpt lat="43.42182" lon="6.60671">
        <ele>192.60000610352</ele>
        <time>2012-10-12T08:59:22Z</time>
      </trkpt>
      <trkpt lat="43.42177" lon="6.60697">
        <ele>192.60000610352</ele>
        <time>2012-10-12T08:59:24Z</time>
      </trkpt>
      <trkpt lat="43.42182" lon="6.60743">
        <ele>192</ele>
        <time>2012-10-12T08:59:28Z</time>
      </trkpt>
      <trkpt lat="43.42184" lon="6.60752">
        <ele>192.19999694824</ele>
        <time>2012-10-12T08:59:29Z</time>
      </trkpt>
      <trkpt lat="43.42184" lon="6.60763">
        <ele>193.60000610352</ele>
        <time>2012-10-12T08:59:31Z</time>
      </trkpt>
      <trkpt lat="43.42188" lon="6.60782">
        <ele>196</ele>
        <time>2012-10-12T08:59:36Z</time>
      </trkpt>
      <trkpt lat="43.42198" lon="6.60794">
        <ele>198.19999694824</ele>
        <time>2012-10-12T08:59:44Z</time>
      </trkpt>
      <trkpt lat="43.42209" lon="6.6079">
        <ele>198.60000610352</ele>
        <time>2012-10-12T08:59:50Z</time>
      </trkpt>
      <trkpt lat="43.42224" lon="6.60774">
        <ele>197.60000610352</ele>
        <time>2012-10-12T08:59:59Z</time>
      </trkpt>
      <trkpt lat="43.42237" lon="6.60767">
        <ele>197.60000610352</ele>
        <time>2012-10-12T09:00:06Z</time>
      </trkpt>
      <trkpt lat="43.42251" lon="6.60769">
        <ele>198.60000610352</ele>
        <time>2012-10-12T09:00:13Z</time>
      </trkpt>
      <trkpt lat="43.42264" lon="6.60783">
        <ele>200.39999389648</ele>
        <time>2012-10-12T09:00:22Z</time>
      </trkpt>
      <trkpt lat="43.42275" lon="6.60794">
        <ele>202.19999694824</ele>
        <time>2012-10-12T09:00:28Z</time>
      </trkpt>
      <trkpt lat="43.42286" lon="6.60807">
        <ele>204.60000610352</ele>
        <time>2012-10-12T09:00:35Z</time>
      </trkpt>
      <trkpt lat="43.42293" lon="6.60817">
        <ele>206.60000610352</ele>
        <time>2012-10-12T09:00:41Z</time>
      </trkpt>
      <trkpt lat="43.42297" lon="6.60823">
        <ele>207.80000305176</ele>
        <time>2012-10-12T09:00:45Z</time>
      </trkpt>
      <trkpt lat="43.42307" lon="6.60834">
        <ele>210.19999694824</ele>
        <time>2012-10-12T09:00:53Z</time>
      </trkpt>
      <trkpt lat="43.42314" lon="6.60839">
        <ele>211.19999694824</ele>
        <time>2012-10-12T09:00:58Z</time>
      </trkpt>
      <trkpt lat="43.42327" lon="6.60844">
        <ele>212.39999389648</ele>
        <time>2012-10-12T09:01:04Z</time>
      </trkpt>
      <trkpt lat="43.42341" lon="6.60844">
        <ele>211.60000610352</ele>
        <time>2012-10-12T09:01:10Z</time>
      </trkpt>
      <trkpt lat="43.42353" lon="6.60847">
        <ele>210.60000610352</ele>
        <time>2012-10-12T09:01:16Z</time>
      </trkpt>
      <trkpt lat="43.42356" lon="6.60862">
        <ele>212.19999694824</ele>
        <time>2012-10-12T09:01:23Z</time>
      </trkpt>
      <trkpt lat="43.42356" lon="6.60879">
        <ele>214.39999389648</ele>
        <time>2012-10-12T09:01:30Z</time>
      </trkpt>
      <trkpt lat="43.42354" lon="6.60895">
        <ele>216.60000610352</ele>
        <time>2012-10-12T09:01:38Z</time>
      </trkpt>
      <trkpt lat="43.42348" lon="6.60909">
        <ele>219.39999389648</ele>
        <time>2012-10-12T09:01:47Z</time>
      </trkpt>
      <trkpt lat="43.42341" lon="6.60924">
        <ele>222</ele>
        <time>2012-10-12T09:01:57Z</time>
      </trkpt>
      <trkpt lat="43.42333" lon="6.60933">
        <ele>224</ele>
        <time>2012-10-12T09:02:05Z</time>
      </trkpt>
      <trkpt lat="43.42324" lon="6.60945">
        <ele>224.80000305176</ele>
        <time>2012-10-12T09:02:14Z</time>
      </trkpt>
      <trkpt lat="43.42317" lon="6.60954">
        <ele>225.39999389648</ele>
        <time>2012-10-12T09:02:21Z</time>
      </trkpt>
      <trkpt lat="43.42312" lon="6.60967">
        <ele>226.39999389648</ele>
        <time>2012-10-12T09:02:28Z</time>
      </trkpt>
      <trkpt lat="43.42304" lon="6.60985">
        <ele>227.60000610352</ele>
        <time>2012-10-12T09:02:36Z</time>
      </trkpt>
      <trkpt lat="43.42296" lon="6.61011">
        <ele>229.80000305176</ele>
        <time>2012-10-12T09:02:44Z</time>
      </trkpt>
      <trkpt lat="43.42287" lon="6.61035">
        <ele>232.19999694824</ele>
        <time>2012-10-12T09:02:50Z</time>
      </trkpt>
      <trkpt lat="43.42282" lon="6.61058">
        <ele>234.60000610352</ele>
        <time>2012-10-12T09:02:56Z</time>
      </trkpt>
      <trkpt lat="43.42284" lon="6.61089">
        <ele>237.39999389648</ele>
        <time>2012-10-12T09:03:02Z</time>
      </trkpt>
      <trkpt lat="43.42296" lon="6.61108">
        <ele>238.60000610352</ele>
        <time>2012-10-12T09:03:06Z</time>
      </trkpt>
      <trkpt lat="43.42303" lon="6.61116">
        <ele>238.60000610352</ele>
        <time>2012-10-12T09:03:08Z</time>
      </trkpt>
      <trkpt lat="43.42328" lon="6.6115">
        <ele>239.80000305176</ele>
        <time>2012-10-12T09:03:15Z</time>
      </trkpt>
      <trkpt lat="43.4235" lon="6.61186">
        <ele>240</ele>
        <time>2012-10-12T09:03:21Z</time>
      </trkpt>
      <trkpt lat="43.42373" lon="6.61223">
        <ele>240</ele>
        <time>2012-10-12T09:03:27Z</time>
      </trkpt>
      <trkpt lat="43.42388" lon="6.6125">
        <ele>240.39999389648</ele>
        <time>2012-10-12T09:03:31Z</time>
      </trkpt>
      <trkpt lat="43.42397" lon="6.61278">
        <ele>241.39999389648</ele>
        <time>2012-10-12T09:03:35Z</time>
      </trkpt>
      <trkpt lat="43.42415" lon="6.61321">
        <ele>242</ele>
        <time>2012-10-12T09:03:40Z</time>
      </trkpt>
      <trkpt lat="43.42433" lon="6.61335">
        <ele>240.19999694824</ele>
        <time>2012-10-12T09:03:43Z</time>
      </trkpt>
      <trkpt lat="43.42443" lon="6.61348">
        <ele>240</ele>
        <time>2012-10-12T09:03:45Z</time>
      </trkpt>
      <trkpt lat="43.42452" lon="6.61365">
        <ele>240.39999389648</ele>
        <time>2012-10-12T09:03:47Z</time>
      </trkpt>
      <trkpt lat="43.42484" lon="6.61404">
        <ele>237.60000610352</ele>
        <time>2012-10-12T09:03:52Z</time>
      </trkpt>
      <trkpt lat="43.425" lon="6.61419">
        <ele>235.19999694824</ele>
        <time>2012-10-12T09:03:54Z</time>
      </trkpt>
      <trkpt lat="43.42534" lon="6.61423">
        <ele>232.80000305176</ele>
        <time>2012-10-12T09:03:58Z</time>
      </trkpt>
      <trkpt lat="43.42543" lon="6.61419">
        <ele>231.60000610352</ele>
        <time>2012-10-12T09:03:59Z</time>
      </trkpt>
      <trkpt lat="43.42568" lon="6.61407">
        <ele>228.19999694824</ele>
        <time>2012-10-12T09:04:02Z</time>
      </trkpt>
      <trkpt lat="43.42596" lon="6.61411">
        <ele>226</ele>
        <time>2012-10-12T09:04:06Z</time>
      </trkpt>
      <trkpt lat="43.42644" lon="6.61466">
        <ele>225.39999389648</ele>
        <time>2012-10-12T09:04:13Z</time>
      </trkpt>
      <trkpt lat="43.42662" lon="6.61498">
        <ele>224.60000610352</ele>
        <time>2012-10-12T09:04:16Z</time>
      </trkpt>
      <trkpt lat="43.42678" lon="6.61536">
        <ele>221.19999694824</ele>
        <time>2012-10-12T09:04:20Z</time>
      </trkpt>
      <trkpt lat="43.42686" lon="6.61554">
        <ele>219.19999694824</ele>
        <time>2012-10-12T09:04:22Z</time>
      </trkpt>
      <trkpt lat="43.427" lon="6.61594">
        <ele>213.60000610352</ele>
        <time>2012-10-12T09:04:27Z</time>
      </trkpt>
      <trkpt lat="43.42695" lon="6.61636">
        <ele>208</ele>
        <time>2012-10-12T09:04:31Z</time>
      </trkpt>
      <trkpt lat="43.42688" lon="6.61656">
        <ele>206.80000305176</ele>
        <time>2012-10-12T09:04:33Z</time>
      </trkpt>
      <trkpt lat="43.42665" lon="6.61729">
        <ele>195.80000305176</ele>
        <time>2012-10-12T09:04:41Z</time>
      </trkpt>
      <trkpt lat="43.42658" lon="6.61765">
        <ele>188</ele>
        <time>2012-10-12T09:04:46Z</time>
      </trkpt>
      <trkpt lat="43.42657" lon="6.61771">
        <ele>186.60000610352</ele>
        <time>2012-10-12T09:04:47Z</time>
      </trkpt>
      <trkpt lat="43.42648" lon="6.61798">
        <ele>181.60000610352</ele>
        <time>2012-10-12T09:04:51Z</time>
      </trkpt>
      <trkpt lat="43.42634" lon="6.61822">
        <ele>177.80000305176</ele>
        <time>2012-10-12T09:04:54Z</time>
      </trkpt>
      <trkpt lat="43.42624" lon="6.61835">
        <ele>176.19999694824</ele>
        <time>2012-10-12T09:04:56Z</time>
      </trkpt>
      <trkpt lat="43.42607" lon="6.61868">
        <ele>169</ele>
        <time>2012-10-12T09:05:01Z</time>
      </trkpt>
      <trkpt lat="43.42587" lon="6.61891">
        <ele>165.19999694824</ele>
        <time>2012-10-12T09:05:05Z</time>
      </trkpt>
      <trkpt lat="43.4258" lon="6.61896">
        <ele>163.80000305176</ele>
        <time>2012-10-12T09:05:06Z</time>
      </trkpt>
      <trkpt lat="43.42543" lon="6.61933">
        <ele>152</ele>
        <time>2012-10-12T09:05:12Z</time>
      </trkpt>
      <trkpt lat="43.42539" lon="6.61938">
        <ele>150.60000610352</ele>
        <time>2012-10-12T09:05:13Z</time>
      </trkpt>
      <trkpt lat="43.4252" lon="6.61952">
        <ele>147.39999389648</ele>
        <time>2012-10-12T09:05:17Z</time>
      </trkpt>
      <trkpt lat="43.42497" lon="6.6197">
        <ele>143.60000610352</ele>
        <time>2012-10-12T09:05:23Z</time>
      </trkpt>
      <trkpt lat="43.42489" lon="6.61998">
        <ele>137.80000305176</ele>
        <time>2012-10-12T09:05:27Z</time>
      </trkpt>
      <trkpt lat="43.42492" lon="6.62015">
        <ele>136</ele>
        <time>2012-10-12T09:05:30Z</time>
      </trkpt>
      <trkpt lat="43.425" lon="6.62021">
        <ele>135.39999389648</ele>
        <time>2012-10-12T09:05:32Z</time>
      </trkpt>
      <trkpt lat="43.42518" lon="6.62028">
        <ele>134.39999389648</ele>
        <time>2012-10-12T09:05:35Z</time>
      </trkpt>
      <trkpt lat="43.42532" lon="6.62046">
        <ele>132.60000610352</ele>
        <time>2012-10-12T09:05:39Z</time>
      </trkpt>
      <trkpt lat="43.42544" lon="6.62071">
        <ele>130.19999694824</ele>
        <time>2012-10-12T09:05:43Z</time>
      </trkpt>
      <trkpt lat="43.42553" lon="6.62086">
        <ele>129.39999389648</ele>
        <time>2012-10-12T09:05:47Z</time>
      </trkpt>
      <trkpt lat="43.42554" lon="6.62097">
        <ele>130.19999694824</ele>
        <time>2012-10-12T09:05:51Z</time>
      </trkpt>
      <trkpt lat="43.42543" lon="6.62103">
        <ele>130</ele>
        <time>2012-10-12T09:05:54Z</time>
      </trkpt>
      <trkpt lat="43.42518" lon="6.62104">
        <ele>128.80000305176</ele>
        <time>2012-10-12T09:05:58Z</time>
      </trkpt>
      <trkpt lat="43.42503" lon="6.62096">
        <ele>128.19999694824</ele>
        <time>2012-10-12T09:06:00Z</time>
      </trkpt>
      <trkpt lat="43.42488" lon="6.62087">
        <ele>128.80000305176</ele>
        <time>2012-10-12T09:06:02Z</time>
      </trkpt>
      <trkpt lat="43.42463" lon="6.62059">
        <ele>131.80000305176</ele>
        <time>2012-10-12T09:06:06Z</time>
      </trkpt>
      <trkpt lat="43.42441" lon="6.62024">
        <ele>133.60000610352</ele>
        <time>2012-10-12T09:06:11Z</time>
      </trkpt>
      <trkpt lat="43.42426" lon="6.62013">
        <ele>133.39999389648</ele>
        <time>2012-10-12T09:06:14Z</time>
      </trkpt>
      <trkpt lat="43.42412" lon="6.62002">
        <ele>133.60000610352</ele>
        <time>2012-10-12T09:06:18Z</time>
      </trkpt>
      <trkpt lat="43.42406" lon="6.61997">
        <ele>135</ele>
        <time>2012-10-12T09:06:20Z</time>
      </trkpt>
      <trkpt lat="43.42387" lon="6.61996">
        <ele>137.19999694824</ele>
        <time>2012-10-12T09:06:25Z</time>
      </trkpt>
      <trkpt lat="43.42383" lon="6.61998">
        <ele>137.39999389648</ele>
        <time>2012-10-12T09:06:26Z</time>
      </trkpt>
      <trkpt lat="43.42357" lon="6.62014">
        <ele>139.39999389648</ele>
        <time>2012-10-12T09:06:33Z</time>
      </trkpt>
      <trkpt lat="43.42325" lon="6.62032">
        <ele>141</ele>
        <time>2012-10-12T09:06:41Z</time>
      </trkpt>
      <trkpt lat="43.42298" lon="6.62038">
        <ele>141.60000610352</ele>
        <time>2012-10-12T09:06:47Z</time>
      </trkpt>
      <trkpt lat="43.42264" lon="6.6204">
        <ele>142.60000610352</ele>
        <time>2012-10-12T09:06:54Z</time>
      </trkpt>
      <trkpt lat="43.4224" lon="6.62033">
        <ele>144.19999694824</ele>
        <time>2012-10-12T09:07:00Z</time>
      </trkpt>
      <trkpt lat="43.42221" lon="6.62024">
        <ele>145.80000305176</ele>
        <time>2012-10-12T09:07:08Z</time>
      </trkpt>
      <trkpt lat="43.42207" lon="6.62017">
        <ele>147</ele>
        <time>2012-10-12T09:07:14Z</time>
      </trkpt>
      <trkpt lat="43.42195" lon="6.62012">
        <ele>148</ele>
        <time>2012-10-12T09:07:21Z</time>
      </trkpt>
      <trkpt lat="43.42182" lon="6.62006">
        <ele>149</ele>
        <time>2012-10-12T09:07:28Z</time>
      </trkpt>
      <trkpt lat="43.42165" lon="6.62002">
        <ele>149.80000305176</ele>
        <time>2012-10-12T09:07:36Z</time>
      </trkpt>
      <trkpt lat="43.42147" lon="6.62002">
        <ele>149.19999694824</ele>
        <time>2012-10-12T09:07:43Z</time>
      </trkpt>
      <trkpt lat="43.42116" lon="6.61999">
        <ele>148.60000610352</ele>
        <time>2012-10-12T09:07:50Z</time>
      </trkpt>
      <trkpt lat="43.42086" lon="6.61992">
        <ele>149.80000305176</ele>
        <time>2012-10-12T09:07:56Z</time>
      </trkpt>
      <trkpt lat="43.42065" lon="6.61988">
        <ele>151.19999694824</ele>
        <time>2012-10-12T09:08:00Z</time>
      </trkpt>
      <trkpt lat="43.42032" lon="6.61983">
        <ele>152.19999694824</ele>
        <time>2012-10-12T09:08:07Z</time>
      </trkpt>
      <trkpt lat="43.42002" lon="6.6198">
        <ele>152.39999389648</ele>
        <time>2012-10-12T09:08:15Z</time>
      </trkpt>
      <trkpt lat="43.41995" lon="6.61984">
        <ele>152.80000305176</ele>
        <time>2012-10-12T09:08:18Z</time>
      </trkpt>
      <trkpt lat="43.41984" lon="6.61996">
        <ele>153.19999694824</ele>
        <time>2012-10-12T09:08:23Z</time>
      </trkpt>
      <trkpt lat="43.41966" lon="6.62008">
        <ele>156.80000305176</ele>
        <time>2012-10-12T09:08:29Z</time>
      </trkpt>
      <trkpt lat="43.41942" lon="6.62022">
        <ele>160.80000305176</ele>
        <time>2012-10-12T09:08:37Z</time>
      </trkpt>
      <trkpt lat="43.41926" lon="6.62034">
        <ele>163</ele>
        <time>2012-10-12T09:08:43Z</time>
      </trkpt>
      <trkpt lat="43.419" lon="6.62049">
        <ele>164.19999694824</ele>
        <time>2012-10-12T09:08:51Z</time>
      </trkpt>
      <trkpt lat="43.41882" lon="6.62057">
        <ele>164.80000305176</ele>
        <time>2012-10-12T09:08:57Z</time>
      </trkpt>
      <trkpt lat="43.41854" lon="6.62062">
        <ele>166.39999389648</ele>
        <time>2012-10-12T09:09:05Z</time>
      </trkpt>
      <trkpt lat="43.41828" lon="6.62071">
        <ele>166.80000305176</ele>
        <time>2012-10-12T09:09:12Z</time>
      </trkpt>
      <trkpt lat="43.418" lon="6.62075">
        <ele>167.19999694824</ele>
        <time>2012-10-12T09:09:19Z</time>
      </trkpt>
      <trkpt lat="43.41782" lon="6.62071">
        <ele>168.80000305176</ele>
        <time>2012-10-12T09:09:24Z</time>
      </trkpt>
      <trkpt lat="43.41757" lon="6.62069">
        <ele>170.19999694824</ele>
        <time>2012-10-12T09:09:31Z</time>
      </trkpt>
      <trkpt lat="43.41742" lon="6.62062">
        <ele>172.60000610352</ele>
        <time>2012-10-12T09:09:37Z</time>
      </trkpt>
      <trkpt lat="43.41727" lon="6.62059">
        <ele>174.60000610352</ele>
        <time>2012-10-12T09:09:43Z</time>
      </trkpt>
      <trkpt lat="43.41714" lon="6.62058">
        <ele>175.80000305176</ele>
        <time>2012-10-12T09:09:50Z</time>
      </trkpt>
      <trkpt lat="43.41702" lon="6.62053">
        <ele>177.80000305176</ele>
        <time>2012-10-12T09:09:57Z</time>
      </trkpt>
      <trkpt lat="43.41687" lon="6.62049">
        <ele>180</ele>
        <time>2012-10-12T09:10:04Z</time>
      </trkpt>
      <trkpt lat="43.41666" lon="6.62046">
        <ele>182.19999694824</ele>
        <time>2012-10-12T09:10:12Z</time>
      </trkpt>
      <trkpt lat="43.41646" lon="6.6204">
        <ele>184</ele>
        <time>2012-10-12T09:10:20Z</time>
      </trkpt>
      <trkpt lat="43.41631" lon="6.62036">
        <ele>185.39999389648</ele>
        <time>2012-10-12T09:10:26Z</time>
      </trkpt>
      <trkpt lat="43.41616" lon="6.62031">
        <ele>186.80000305176</ele>
        <time>2012-10-12T09:10:33Z</time>
      </trkpt>
      <trkpt lat="43.41607" lon="6.62029">
        <ele>187.39999389648</ele>
        <time>2012-10-12T09:10:38Z</time>
      </trkpt>
      <trkpt lat="43.41592" lon="6.6203">
        <ele>188</ele>
        <time>2012-10-12T09:10:45Z</time>
      </trkpt>
      <trkpt lat="43.41577" lon="6.62032">
        <ele>188.19999694824</ele>
        <time>2012-10-12T09:10:52Z</time>
      </trkpt>
      <trkpt lat="43.41561" lon="6.62034">
        <ele>188</ele>
        <time>2012-10-12T09:10:59Z</time>
      </trkpt>
      <trkpt lat="43.41543" lon="6.62034">
        <ele>188.39999389648</ele>
        <time>2012-10-12T09:11:08Z</time>
      </trkpt>
      <trkpt lat="43.41534" lon="6.6203">
        <ele>188.80000305176</ele>
        <time>2012-10-12T09:11:14Z</time>
      </trkpt>
      <trkpt lat="43.41523" lon="6.62022">
        <ele>189.19999694824</ele>
        <time>2012-10-12T09:11:21Z</time>
      </trkpt>
      <trkpt lat="43.41512" lon="6.62013">
        <ele>189.19999694824</ele>
        <time>2012-10-12T09:11:28Z</time>
      </trkpt>
      <trkpt lat="43.41502" lon="6.62004">
        <ele>189.19999694824</ele>
        <time>2012-10-12T09:11:35Z</time>
      </trkpt>
      <trkpt lat="43.41498" lon="6.61998">
        <ele>189.80000305176</ele>
        <time>2012-10-12T09:11:39Z</time>
      </trkpt>
      <trkpt lat="43.41497" lon="6.61995">
        <ele>190.60000610352</ele>
        <time>2012-10-12T09:11:41Z</time>
      </trkpt>
      <trkpt lat="43.41494" lon="6.6199">
        <ele>192</ele>
        <time>2012-10-12T09:11:45Z</time>
      </trkpt>
      <trkpt lat="43.41489" lon="6.61976">
        <ele>196</ele>
        <time>2012-10-12T09:11:54Z</time>
      </trkpt>
      <trkpt lat="43.41483" lon="6.61961">
        <ele>199.80000305176</ele>
        <time>2012-10-12T09:12:01Z</time>
      </trkpt>
      <trkpt lat="43.41477" lon="6.61951">
        <ele>202</ele>
        <time>2012-10-12T09:12:07Z</time>
      </trkpt>
      <trkpt lat="43.4147" lon="6.61938">
        <ele>204.80000305176</ele>
        <time>2012-10-12T09:12:15Z</time>
      </trkpt>
      <trkpt lat="43.41461" lon="6.61925">
        <ele>207</ele>
        <time>2012-10-12T09:12:23Z</time>
      </trkpt>
      <trkpt lat="43.41453" lon="6.61912">
        <ele>208.60000610352</ele>
        <time>2012-10-12T09:12:30Z</time>
      </trkpt>
      <trkpt lat="43.41447" lon="6.61898">
        <ele>209.60000610352</ele>
        <time>2012-10-12T09:12:36Z</time>
      </trkpt>
      <trkpt lat="43.41447" lon="6.61871">
        <ele>212.60000610352</ele>
        <time>2012-10-12T09:12:44Z</time>
      </trkpt>
      <trkpt lat="43.41446" lon="6.61845">
        <ele>215.39999389648</ele>
        <time>2012-10-12T09:12:50Z</time>
      </trkpt>
      <trkpt lat="43.41437" lon="6.61819">
        <ele>216.39999389648</ele>
        <time>2012-10-12T09:12:57Z</time>
      </trkpt>
      <trkpt lat="43.41422" lon="6.61799">
        <ele>214.39999389648</ele>
        <time>2012-10-12T09:13:04Z</time>
      </trkpt>
      <trkpt lat="43.41411" lon="6.6179">
        <ele>214.39999389648</ele>
        <time>2012-10-12T09:13:10Z</time>
      </trkpt>
      <trkpt lat="43.414" lon="6.61781">
        <ele>216.19999694824</ele>
        <time>2012-10-12T09:13:18Z</time>
      </trkpt>
      <trkpt lat="43.41387" lon="6.61768">
        <ele>217.60000610352</ele>
        <time>2012-10-12T09:13:25Z</time>
      </trkpt>
      <trkpt lat="43.41371" lon="6.61751">
        <ele>217.39999389648</ele>
        <time>2012-10-12T09:13:32Z</time>
      </trkpt>
      <trkpt lat="43.41353" lon="6.61732">
        <ele>217.39999389648</ele>
        <time>2012-10-12T09:13:39Z</time>
      </trkpt>
      <trkpt lat="43.41345" lon="6.61712">
        <ele>217</ele>
        <time>2012-10-12T09:13:44Z</time>
      </trkpt>
      <trkpt lat="43.41346" lon="6.61695">
        <ele>217</ele>
        <time>2012-10-12T09:13:49Z</time>
      </trkpt>
      <trkpt lat="43.41355" lon="6.61676">
        <ele>217.80000305176</ele>
        <time>2012-10-12T09:13:56Z</time>
      </trkpt>
      <trkpt lat="43.41368" lon="6.61665">
        <ele>219.19999694824</ele>
        <time>2012-10-12T09:14:03Z</time>
      </trkpt>
      <trkpt lat="43.41377" lon="6.61656">
        <ele>221.19999694824</ele>
        <time>2012-10-12T09:14:09Z</time>
      </trkpt>
      <trkpt lat="43.41389" lon="6.61642">
        <ele>223.60000610352</ele>
        <time>2012-10-12T09:14:18Z</time>
      </trkpt>
      <trkpt lat="43.41396" lon="6.61624">
        <ele>226</ele>
        <time>2012-10-12T09:14:27Z</time>
      </trkpt>
      <trkpt lat="43.41403" lon="6.6161">
        <ele>227.19999694824</ele>
        <time>2012-10-12T09:14:34Z</time>
      </trkpt>
      <trkpt lat="43.41417" lon="6.61598">
        <ele>228</ele>
        <time>2012-10-12T09:14:40Z</time>
      </trkpt>
      <trkpt lat="43.41436" lon="6.61587">
        <ele>229.60000610352</ele>
        <time>2012-10-12T09:14:45Z</time>
      </trkpt>
      <trkpt lat="43.41453" lon="6.61583">
        <ele>230.39999389648</ele>
        <time>2012-10-12T09:14:52Z</time>
      </trkpt>
      <trkpt lat="43.41462" lon="6.61576">
        <ele>231.80000305176</ele>
        <time>2012-10-12T09:14:57Z</time>
      </trkpt>
      <trkpt lat="43.41472" lon="6.61565">
        <ele>233.60000610352</ele>
        <time>2012-10-12T09:15:05Z</time>
      </trkpt>
      <trkpt lat="43.41481" lon="6.61563">
        <ele>233.80000305176</ele>
        <time>2012-10-12T09:15:12Z</time>
      </trkpt>
      <trkpt lat="43.41492" lon="6.61565">
        <ele>233.80000305176</ele>
        <time>2012-10-12T09:15:20Z</time>
      </trkpt>
      <trkpt lat="43.41503" lon="6.61566">
        <ele>234.19999694824</ele>
        <time>2012-10-12T09:15:28Z</time>
      </trkpt>
      <trkpt lat="43.41513" lon="6.61566">
        <ele>236</ele>
        <time>2012-10-12T09:15:35Z</time>
      </trkpt>
      <trkpt lat="43.41517" lon="6.61568">
        <ele>236.60000610352</ele>
        <time>2012-10-12T09:15:38Z</time>
      </trkpt>
      <trkpt lat="43.41526" lon="6.61566">
        <ele>238.39999389648</ele>
        <time>2012-10-12T09:15:46Z</time>
      </trkpt>
      <trkpt lat="43.41528" lon="6.61565">
        <ele>238.80000305176</ele>
        <time>2012-10-12T09:15:51Z</time>
      </trkpt>
      <trkpt lat="43.41532" lon="6.61562">
        <ele>239.60000610352</ele>
        <time>2012-10-12T09:16:01Z</time>
      </trkpt>
      <trkpt lat="43.41536" lon="6.61561">
        <ele>240.39999389648</ele>
        <time>2012-10-12T09:16:06Z</time>
      </trkpt>
      <trkpt lat="43.41541" lon="6.6156">
        <ele>241.39999389648</ele>
        <time>2012-10-12T09:16:11Z</time>
      </trkpt>
      <trkpt lat="43.41546" lon="6.61561">
        <ele>242.19999694824</ele>
        <time>2012-10-12T09:16:17Z</time>
      </trkpt>
      <trkpt lat="43.41558" lon="6.61562">
        <ele>244</ele>
        <time>2012-10-12T09:16:26Z</time>
      </trkpt>
      <trkpt lat="43.41569" lon="6.61566">
        <ele>245.80000305176</ele>
        <time>2012-10-12T09:16:35Z</time>
      </trkpt>
      <trkpt lat="43.41575" lon="6.61569">
        <ele>246.60000610352</ele>
        <time>2012-10-12T09:16:41Z</time>
      </trkpt>
      <trkpt lat="43.41575" lon="6.6157">
        <ele>246.60000610352</ele>
        <time>2012-10-12T09:16:44Z</time>
      </trkpt>
      <trkpt lat="43.41581" lon="6.61575">
        <ele>247.19999694824</ele>
        <time>2012-10-12T09:16:51Z</time>
      </trkpt>
      <trkpt lat="43.41588" lon="6.61579">
        <ele>248</ele>
        <time>2012-10-12T09:17:00Z</time>
      </trkpt>
      <trkpt lat="43.41594" lon="6.61585">
        <ele>248.60000610352</ele>
        <time>2012-10-12T09:17:08Z</time>
      </trkpt>
      <trkpt lat="43.41599" lon="6.6159">
        <ele>250.19999694824</ele>
        <time>2012-10-12T09:17:15Z</time>
      </trkpt>
      <trkpt lat="43.41607" lon="6.61596">
        <ele>252</ele>
        <time>2012-10-12T09:17:25Z</time>
      </trkpt>
      <trkpt lat="43.41613" lon="6.61596">
        <ele>252.60000610352</ele>
        <time>2012-10-12T09:17:31Z</time>
      </trkpt>
      <trkpt lat="43.41618" lon="6.61593">
        <ele>253</ele>
        <time>2012-10-12T09:17:37Z</time>
      </trkpt>
      <trkpt lat="43.41623" lon="6.61592">
        <ele>253.60000610352</ele>
        <time>2012-10-12T09:17:42Z</time>
      </trkpt>
      <trkpt lat="43.41633" lon="6.61593">
        <ele>255</ele>
        <time>2012-10-12T09:17:51Z</time>
      </trkpt>
      <trkpt lat="43.41641" lon="6.61595">
        <ele>256.20001220703</ele>
        <time>2012-10-12T09:17:59Z</time>
      </trkpt>
      <trkpt lat="43.41652" lon="6.61598">
        <ele>257.79998779297</ele>
        <time>2012-10-12T09:18:09Z</time>
      </trkpt>
      <trkpt lat="43.41657" lon="6.61599">
        <ele>258.39999389648</ele>
        <time>2012-10-12T09:18:15Z</time>
      </trkpt>
      <trkpt lat="43.4166" lon="6.61599">
        <ele>258.79998779297</ele>
        <time>2012-10-12T09:18:20Z</time>
      </trkpt>
      <trkpt lat="43.41668" lon="6.61601">
        <ele>259.39999389648</ele>
        <time>2012-10-12T09:18:26Z</time>
      </trkpt>
      <trkpt lat="43.41679" lon="6.61602">
        <ele>258.20001220703</ele>
        <time>2012-10-12T09:18:35Z</time>
      </trkpt>
      <trkpt lat="43.41683" lon="6.61599">
        <ele>257.79998779297</ele>
        <time>2012-10-12T09:18:40Z</time>
      </trkpt>
      <trkpt lat="43.41687" lon="6.61587">
        <ele>257.39999389648</ele>
        <time>2012-10-12T09:18:48Z</time>
      </trkpt>
      <trkpt lat="43.41693" lon="6.61575">
        <ele>257.60000610352</ele>
        <time>2012-10-12T09:18:56Z</time>
      </trkpt>
      <trkpt lat="43.41699" lon="6.61559">
        <ele>258.39999389648</ele>
        <time>2012-10-12T09:19:05Z</time>
      </trkpt>
      <trkpt lat="43.41703" lon="6.61548">
        <ele>259.20001220703</ele>
        <time>2012-10-12T09:19:12Z</time>
      </trkpt>
      <trkpt lat="43.41706" lon="6.61533">
        <ele>260.39999389648</ele>
        <time>2012-10-12T09:19:20Z</time>
      </trkpt>
      <trkpt lat="43.41707" lon="6.61523">
        <ele>261.20001220703</ele>
        <time>2012-10-12T09:19:25Z</time>
      </trkpt>
      <trkpt lat="43.41716" lon="6.61527">
        <ele>260.60000610352</ele>
        <time>2012-10-12T09:19:30Z</time>
      </trkpt>
      <trkpt lat="43.41728" lon="6.61527">
        <ele>260.20001220703</ele>
        <time>2012-10-12T09:19:33Z</time>
      </trkpt>
      <trkpt lat="43.41751" lon="6.61515">
        <ele>260.79998779297</ele>
        <time>2012-10-12T09:19:38Z</time>
      </trkpt>
      <trkpt lat="43.41755" lon="6.61512">
        <ele>260.60000610352</ele>
        <time>2012-10-12T09:19:39Z</time>
      </trkpt>
      <trkpt lat="43.41779" lon="6.61482">
        <ele>258.39999389648</ele>
        <time>2012-10-12T09:19:45Z</time>
      </trkpt>
      <trkpt lat="43.41811" lon="6.61466">
        <ele>254.39999389648</ele>
        <time>2012-10-12T09:19:49Z</time>
      </trkpt>
      <trkpt lat="43.41819" lon="6.61462">
        <ele>253.39999389648</ele>
        <time>2012-10-12T09:19:50Z</time>
      </trkpt>
      <trkpt lat="43.41835" lon="6.61456">
        <ele>252</ele>
        <time>2012-10-12T09:19:52Z</time>
      </trkpt>
      <trkpt lat="43.41866" lon="6.61457">
        <ele>251.80000305176</ele>
        <time>2012-10-12T09:19:56Z</time>
      </trkpt>
      <trkpt lat="43.41893" lon="6.61452">
        <ele>252</ele>
        <time>2012-10-12T09:20:00Z</time>
      </trkpt>
      <trkpt lat="43.41938" lon="6.61448">
        <ele>253.60000610352</ele>
        <time>2012-10-12T09:20:06Z</time>
      </trkpt>
      <trkpt lat="43.41976" lon="6.61461">
        <ele>256.20001220703</ele>
        <time>2012-10-12T09:20:12Z</time>
      </trkpt>
      <trkpt lat="43.4198" lon="6.61463">
        <ele>256.39999389648</ele>
        <time>2012-10-12T09:20:13Z</time>
      </trkpt>
      <trkpt lat="43.41986" lon="6.61465">
        <ele>256.79998779297</ele>
        <time>2012-10-12T09:20:16Z</time>
      </trkpt>
      <trkpt lat="43.41998" lon="6.61466">
        <ele>257.79998779297</ele>
        <time>2012-10-12T09:20:22Z</time>
      </trkpt>
      <trkpt lat="43.42008" lon="6.61465">
        <ele>259</ele>
        <time>2012-10-12T09:20:29Z</time>
      </trkpt>
      <trkpt lat="43.42021" lon="6.61463">
        <ele>260.39999389648</ele>
        <time>2012-10-12T09:20:35Z</time>
      </trkpt>
      <trkpt lat="43.42046" lon="6.61464">
        <ele>263.20001220703</ele>
        <time>2012-10-12T09:20:42Z</time>
      </trkpt>
      <trkpt lat="43.4206" lon="6.61474">
        <ele>265.20001220703</ele>
        <time>2012-10-12T09:20:48Z</time>
      </trkpt>
      <trkpt lat="43.42075" lon="6.61482">
        <ele>267.39999389648</ele>
        <time>2012-10-12T09:20:54Z</time>
      </trkpt>
      <trkpt lat="43.42091" lon="6.61486">
        <ele>269.39999389648</ele>
        <time>2012-10-12T09:20:59Z</time>
      </trkpt>
      <trkpt lat="43.42108" lon="6.61492">
        <ele>271.39999389648</ele>
        <time>2012-10-12T09:21:05Z</time>
      </trkpt>
      <trkpt lat="43.42117" lon="6.61501">
        <ele>272.60000610352</ele>
        <time>2012-10-12T09:21:09Z</time>
      </trkpt>
      <trkpt lat="43.42121" lon="6.61518">
        <ele>272.39999389648</ele>
        <time>2012-10-12T09:21:13Z</time>
      </trkpt>
      <trkpt lat="43.42125" lon="6.61529">
        <ele>272.39999389648</ele>
        <time>2012-10-12T09:21:15Z</time>
      </trkpt>
      <trkpt lat="43.42132" lon="6.61547">
        <ele>272.20001220703</ele>
        <time>2012-10-12T09:21:19Z</time>
      </trkpt>
      <trkpt lat="43.42146" lon="6.61551">
        <ele>273.39999389648</ele>
        <time>2012-10-12T09:21:24Z</time>
      </trkpt>
      <trkpt lat="43.42152" lon="6.61546">
        <ele>274.39999389648</ele>
        <time>2012-10-12T09:21:27Z</time>
      </trkpt>
      <trkpt lat="43.42163" lon="6.6154">
        <ele>275.60000610352</ele>
        <time>2012-10-12T09:21:33Z</time>
      </trkpt>
      <trkpt lat="43.42174" lon="6.61535">
        <ele>275.79998779297</ele>
        <time>2012-10-12T09:21:39Z</time>
      </trkpt>
      <trkpt lat="43.42186" lon="6.61523">
        <ele>276.39999389648</ele>
        <time>2012-10-12T09:21:45Z</time>
      </trkpt>
      <trkpt lat="43.42199" lon="6.61504">
        <ele>278.20001220703</ele>
        <time>2012-10-12T09:21:52Z</time>
      </trkpt>
      <trkpt lat="43.42204" lon="6.61494">
        <ele>279</ele>
        <time>2012-10-12T09:21:56Z</time>
      </trkpt>
      <trkpt lat="43.42198" lon="6.61492">
        <ele>279</ele>
        <time>2012-10-12T09:22:00Z</time>
      </trkpt>
      <trkpt lat="43.42174" lon="6.61496">
        <ele>278.20001220703</ele>
        <time>2012-10-12T09:22:05Z</time>
      </trkpt>
      <trkpt lat="43.42161" lon="6.61494">
        <ele>277.39999389648</ele>
        <time>2012-10-12T09:22:08Z</time>
      </trkpt>
      <trkpt lat="43.42156" lon="6.61485">
        <ele>276.79998779297</ele>
        <time>2012-10-12T09:22:10Z</time>
      </trkpt>
      <trkpt lat="43.42144" lon="6.61468">
        <ele>275.20001220703</ele>
        <time>2012-10-12T09:22:14Z</time>
      </trkpt>
      <trkpt lat="43.42132" lon="6.61465">
        <ele>273.79998779297</ele>
        <time>2012-10-12T09:22:17Z</time>
      </trkpt>
      <trkpt lat="43.42118" lon="6.61449">
        <ele>271.60000610352</ele>
        <time>2012-10-12T09:22:21Z</time>
      </trkpt>
      <trkpt lat="43.42107" lon="6.61443">
        <ele>270</ele>
        <time>2012-10-12T09:22:24Z</time>
      </trkpt>
      <trkpt lat="43.4209" lon="6.61429">
        <ele>267.39999389648</ele>
        <time>2012-10-12T09:22:30Z</time>
      </trkpt>
      <trkpt lat="43.42085" lon="6.61415">
        <ele>266</ele>
        <time>2012-10-12T09:22:33Z</time>
      </trkpt>
      <trkpt lat="43.42081" lon="6.61402">
        <ele>264</ele>
        <time>2012-10-12T09:22:35Z</time>
      </trkpt>
      <trkpt lat="43.42077" lon="6.61379">
        <ele>260.79998779297</ele>
        <time>2012-10-12T09:22:39Z</time>
      </trkpt>
      <trkpt lat="43.42083" lon="6.61364">
        <ele>259.60000610352</ele>
        <time>2012-10-12T09:22:43Z</time>
      </trkpt>
      <trkpt lat="43.42088" lon="6.61358">
        <ele>259.79998779297</ele>
        <time>2012-10-12T09:22:47Z</time>
      </trkpt>
      <trkpt lat="43.42088" lon="6.61357">
        <ele>259.79998779297</ele>
        <time>2012-10-12T09:22:50Z</time>
      </trkpt>
      <trkpt lat="43.42089" lon="6.61343">
        <ele>258.20001220703</ele>
        <time>2012-10-12T09:22:57Z</time>
      </trkpt>
      <trkpt lat="43.42088" lon="6.61341">
        <ele>257.79998779297</ele>
        <time>2012-10-12T09:23:02Z</time>
      </trkpt>
      <trkpt lat="43.42089" lon="6.6134">
        <ele>258</ele>
        <time>2012-10-12T09:23:04Z</time>
      </trkpt>
      <trkpt lat="43.42092" lon="6.61334">
        <ele>258</ele>
        <time>2012-10-12T09:23:09Z</time>
      </trkpt>
      <trkpt lat="43.42098" lon="6.61324">
        <ele>258.39999389648</ele>
        <time>2012-10-12T09:23:15Z</time>
      </trkpt>
      <trkpt lat="43.42102" lon="6.61321">
        <ele>258.60000610352</ele>
        <time>2012-10-12T09:23:17Z</time>
      </trkpt>
      <trkpt lat="43.42102" lon="6.61315">
        <ele>258.20001220703</ele>
        <time>2012-10-12T09:23:21Z</time>
      </trkpt>
      <trkpt lat="43.42094" lon="6.61304">
        <ele>255.19999694824</ele>
        <time>2012-10-12T09:23:27Z</time>
      </trkpt>
      <trkpt lat="43.42092" lon="6.61301">
        <ele>254.39999389648</ele>
        <time>2012-10-12T09:23:40Z</time>
      </trkpt>
      <trkpt lat="43.42089" lon="6.613">
        <ele>253.80000305176</ele>
        <time>2012-10-12T09:23:46Z</time>
      </trkpt>
      <trkpt lat="43.42087" lon="6.61297">
        <ele>252.80000305176</ele>
        <time>2012-10-12T09:23:52Z</time>
      </trkpt>
      <trkpt lat="43.4208" lon="6.61285">
        <ele>250.39999389648</ele>
        <time>2012-10-12T09:23:58Z</time>
      </trkpt>
      <trkpt lat="43.42075" lon="6.61281">
        <ele>249.19999694824</ele>
        <time>2012-10-12T09:24:02Z</time>
      </trkpt>
      <trkpt lat="43.42065" lon="6.61278">
        <ele>247.39999389648</ele>
        <time>2012-10-12T09:24:07Z</time>
      </trkpt>
      <trkpt lat="43.42064" lon="6.61266">
        <ele>246.19999694824</ele>
        <time>2012-10-12T09:24:10Z</time>
      </trkpt>
      <trkpt lat="43.4206" lon="6.61257">
        <ele>244.39999389648</ele>
        <time>2012-10-12T09:24:13Z</time>
      </trkpt>
      <trkpt lat="43.42052" lon="6.61239">
        <ele>241.60000610352</ele>
        <time>2012-10-12T09:24:18Z</time>
      </trkpt>
      <trkpt lat="43.42038" lon="6.61232">
        <ele>238.60000610352</ele>
        <time>2012-10-12T09:24:22Z</time>
      </trkpt>
      <trkpt lat="43.42027" lon="6.61214">
        <ele>234.60000610352</ele>
        <time>2012-10-12T09:24:26Z</time>
      </trkpt>
      <trkpt lat="43.42018" lon="6.61204">
        <ele>231.80000305176</ele>
        <time>2012-10-12T09:24:29Z</time>
      </trkpt>
      <trkpt lat="43.42015" lon="6.61195">
        <ele>230.19999694824</ele>
        <time>2012-10-12T09:24:33Z</time>
      </trkpt>
      <trkpt lat="43.42008" lon="6.61181">
        <ele>226.80000305176</ele>
        <time>2012-10-12T09:24:38Z</time>
      </trkpt>
      <trkpt lat="43.41994" lon="6.61156">
        <ele>222.19999694824</ele>
        <time>2012-10-12T09:24:43Z</time>
      </trkpt>
      <trkpt lat="43.41989" lon="6.61137">
        <ele>220.80000305176</ele>
        <time>2012-10-12T09:24:48Z</time>
      </trkpt>
      <trkpt lat="43.41987" lon="6.61125">
        <ele>220</ele>
        <time>2012-10-12T09:24:54Z</time>
      </trkpt>
      <trkpt lat="43.41985" lon="6.61108">
        <ele>218.80000305176</ele>
        <time>2012-10-12T09:25:01Z</time>
      </trkpt>
      <trkpt lat="43.4198" lon="6.61106">
        <ele>218.80000305176</ele>
        <time>2012-10-12T09:25:05Z</time>
      </trkpt>
      <trkpt lat="43.41976" lon="6.61111">
        <ele>219.39999389648</ele>
        <time>2012-10-12T09:25:10Z</time>
      </trkpt>
      <trkpt lat="43.41973" lon="6.61115">
        <ele>219.60000610352</ele>
        <time>2012-10-12T09:25:13Z</time>
      </trkpt>
      <trkpt lat="43.4197" lon="6.61117">
        <ele>220</ele>
        <time>2012-10-12T09:25:17Z</time>
      </trkpt>
      <trkpt lat="43.41964" lon="6.61124">
        <ele>220.60000610352</ele>
        <time>2012-10-12T09:25:23Z</time>
      </trkpt>
      <trkpt lat="43.41963" lon="6.61126">
        <ele>220.60000610352</ele>
        <time>2012-10-12T09:25:24Z</time>
      </trkpt>
      <trkpt lat="43.41954" lon="6.61137">
        <ele>221.39999389648</ele>
        <time>2012-10-12T09:25:32Z</time>
      </trkpt>
      <trkpt lat="43.41941" lon="6.61144">
        <ele>222</ele>
        <time>2012-10-12T09:25:40Z</time>
      </trkpt>
      <trkpt lat="43.4193" lon="6.6115">
        <ele>222.39999389648</ele>
        <time>2012-10-12T09:25:46Z</time>
      </trkpt>
      <trkpt lat="43.41922" lon="6.61153">
        <ele>222.60000610352</ele>
        <time>2012-10-12T09:25:51Z</time>
      </trkpt>
      <trkpt lat="43.41912" lon="6.61154">
        <ele>223</ele>
        <time>2012-10-12T09:25:58Z</time>
      </trkpt>
      <trkpt lat="43.41908" lon="6.61154">
        <ele>223.19999694824</ele>
        <time>2012-10-12T09:26:03Z</time>
      </trkpt>
      <trkpt lat="43.41903" lon="6.61157">
        <ele>223.60000610352</ele>
        <time>2012-10-12T09:26:09Z</time>
      </trkpt>
      <trkpt lat="43.41896" lon="6.61166">
        <ele>224</ele>
        <time>2012-10-12T09:26:16Z</time>
      </trkpt>
      <trkpt lat="43.41888" lon="6.61172">
        <ele>225</ele>
        <time>2012-10-12T09:26:22Z</time>
      </trkpt>
      <trkpt lat="43.4188" lon="6.61177">
        <ele>225.80000305176</ele>
        <time>2012-10-12T09:26:28Z</time>
      </trkpt>
      <trkpt lat="43.41869" lon="6.61185">
        <ele>227</ele>
        <time>2012-10-12T09:26:34Z</time>
      </trkpt>
      <trkpt lat="43.41848" lon="6.61202">
        <ele>228.39999389648</ele>
        <time>2012-10-12T09:26:43Z</time>
      </trkpt>
      <trkpt lat="43.41835" lon="6.61215">
        <ele>228.80000305176</ele>
        <time>2012-10-12T09:26:51Z</time>
      </trkpt>
      <trkpt lat="43.41822" lon="6.61216">
        <ele>229</ele>
        <time>2012-10-12T09:26:55Z</time>
      </trkpt>
      <trkpt lat="43.41808" lon="6.6122">
        <ele>229.60000610352</ele>
        <time>2012-10-12T09:26:59Z</time>
      </trkpt>
      <trkpt lat="43.41794" lon="6.61232">
        <ele>230.19999694824</ele>
        <time>2012-10-12T09:27:05Z</time>
      </trkpt>
      <trkpt lat="43.41789" lon="6.61231">
        <ele>230.19999694824</ele>
        <time>2012-10-12T09:27:09Z</time>
      </trkpt>
      <trkpt lat="43.41786" lon="6.61231">
        <ele>230.19999694824</ele>
        <time>2012-10-12T09:27:14Z</time>
      </trkpt>
      <trkpt lat="43.4178" lon="6.61232">
        <ele>230.39999389648</ele>
        <time>2012-10-12T09:27:21Z</time>
      </trkpt>
      <trkpt lat="43.41771" lon="6.61233">
        <ele>230.60000610352</ele>
        <time>2012-10-12T09:27:27Z</time>
      </trkpt>
      <trkpt lat="43.41771" lon="6.61233">
        <ele>230.60000610352</ele>
        <time>2012-10-12T09:27:28Z</time>
      </trkpt>
      <trkpt lat="43.41764" lon="6.61236">
        <ele>230.80000305176</ele>
        <time>2012-10-12T09:27:35Z</time>
      </trkpt>
      <trkpt lat="43.41758" lon="6.61238">
        <ele>230.80000305176</ele>
        <time>2012-10-12T09:27:40Z</time>
      </trkpt>
      <trkpt lat="43.41758" lon="6.61239">
        <ele>230.80000305176</ele>
        <time>2012-10-12T09:27:41Z</time>
      </trkpt>
      <trkpt lat="43.4175" lon="6.61248">
        <ele>231</ele>
        <time>2012-10-12T09:27:50Z</time>
      </trkpt>
      <trkpt lat="43.41746" lon="6.61249">
        <ele>231.19999694824</ele>
        <time>2012-10-12T09:27:54Z</time>
      </trkpt>
      <trkpt lat="43.41732" lon="6.6125">
        <ele>232.19999694824</ele>
        <time>2012-10-12T09:28:02Z</time>
      </trkpt>
      <trkpt lat="43.41717" lon="6.61249">
        <ele>233.39999389648</ele>
        <time>2012-10-12T09:28:10Z</time>
      </trkpt>
      <trkpt lat="43.41713" lon="6.61247">
        <ele>233.60000610352</ele>
        <time>2012-10-12T09:28:12Z</time>
      </trkpt>
      <trkpt lat="43.4171" lon="6.61235">
        <ele>233.80000305176</ele>
        <time>2012-10-12T09:28:17Z</time>
      </trkpt>
      <trkpt lat="43.41711" lon="6.61232">
        <ele>233.60000610352</ele>
        <time>2012-10-12T09:28:18Z</time>
      </trkpt>
      <trkpt lat="43.41723" lon="6.61206">
        <ele>232.60000610352</ele>
        <time>2012-10-12T09:28:24Z</time>
      </trkpt>
      <trkpt lat="43.41725" lon="6.61177">
        <ele>232.19999694824</ele>
        <time>2012-10-12T09:28:29Z</time>
      </trkpt>
      <trkpt lat="43.41722" lon="6.61164">
        <ele>232.80000305176</ele>
        <time>2012-10-12T09:28:31Z</time>
      </trkpt>
      <trkpt lat="43.41723" lon="6.61143">
        <ele>236.39999389648</ele>
        <time>2012-10-12T09:28:35Z</time>
      </trkpt>
      <trkpt lat="43.41725" lon="6.61141">
        <ele>236.80000305176</ele>
        <time>2012-10-12T09:28:36Z</time>
      </trkpt>
      <trkpt lat="43.41731" lon="6.61132">
        <ele>238.19999694824</ele>
        <time>2012-10-12T09:28:41Z</time>
      </trkpt>
      <trkpt lat="43.41724" lon="6.61124">
        <ele>239.80000305176</ele>
        <time>2012-10-12T09:28:47Z</time>
      </trkpt>
      <trkpt lat="43.41717" lon="6.61125">
        <ele>239.80000305176</ele>
        <time>2012-10-12T09:28:51Z</time>
      </trkpt>
      <trkpt lat="43.41701" lon="6.61122">
        <ele>240.60000610352</ele>
        <time>2012-10-12T09:29:00Z</time>
      </trkpt>
      <trkpt lat="43.41687" lon="6.61117">
        <ele>241.80000305176</ele>
        <time>2012-10-12T09:29:08Z</time>
      </trkpt>
      <trkpt lat="43.41678" lon="6.6111">
        <ele>243</ele>
        <time>2012-10-12T09:29:13Z</time>
      </trkpt>
      <trkpt lat="43.4167" lon="6.61093">
        <ele>245.60000610352</ele>
        <time>2012-10-12T09:29:20Z</time>
      </trkpt>
      <trkpt lat="43.41663" lon="6.61071">
        <ele>249</ele>
        <time>2012-10-12T09:29:27Z</time>
      </trkpt>
      <trkpt lat="43.4165" lon="6.61064">
        <ele>250.19999694824</ele>
        <time>2012-10-12T09:29:33Z</time>
      </trkpt>
      <trkpt lat="43.41635" lon="6.61054">
        <ele>252.19999694824</ele>
        <time>2012-10-12T09:29:41Z</time>
      </trkpt>
      <trkpt lat="43.41623" lon="6.61045">
        <ele>253.60000610352</ele>
        <time>2012-10-12T09:29:48Z</time>
      </trkpt>
      <trkpt lat="43.41612" lon="6.61034">
        <ele>255.80000305176</ele>
        <time>2012-10-12T09:29:56Z</time>
      </trkpt>
      <trkpt lat="43.41604" lon="6.61019">
        <ele>258.20001220703</ele>
        <time>2012-10-12T09:30:04Z</time>
      </trkpt>
      <trkpt lat="43.41597" lon="6.61004">
        <ele>261</ele>
        <time>2012-10-12T09:30:12Z</time>
      </trkpt>
      <trkpt lat="43.41591" lon="6.61003">
        <ele>261.39999389648</ele>
        <time>2012-10-12T09:30:16Z</time>
      </trkpt>
      <trkpt lat="43.41587" lon="6.6102">
        <ele>258.60000610352</ele>
        <time>2012-10-12T09:30:24Z</time>
      </trkpt>
      <trkpt lat="43.41582" lon="6.6104">
        <ele>255.60000610352</ele>
        <time>2012-10-12T09:30:32Z</time>
      </trkpt>
      <trkpt lat="43.41569" lon="6.61045">
        <ele>256.20001220703</ele>
        <time>2012-10-12T09:30:39Z</time>
      </trkpt>
      <trkpt lat="43.41553" lon="6.6104">
        <ele>258.79998779297</ele>
        <time>2012-10-12T09:30:46Z</time>
      </trkpt>
      <trkpt lat="43.41537" lon="6.61038">
        <ele>261</ele>
        <time>2012-10-12T09:30:53Z</time>
      </trkpt>
      <trkpt lat="43.41521" lon="6.61032">
        <ele>264</ele>
        <time>2012-10-12T09:31:00Z</time>
      </trkpt>
      <trkpt lat="43.41504" lon="6.61019">
        <ele>268.60000610352</ele>
        <time>2012-10-12T09:31:07Z</time>
      </trkpt>
      <trkpt lat="43.41489" lon="6.61018">
        <ele>269.79998779297</ele>
        <time>2012-10-12T09:31:13Z</time>
      </trkpt>
      <trkpt lat="43.41468" lon="6.61022">
        <ele>270.20001220703</ele>
        <time>2012-10-12T09:31:21Z</time>
      </trkpt>
      <trkpt lat="43.41451" lon="6.61019">
        <ele>271.60000610352</ele>
        <time>2012-10-12T09:31:27Z</time>
      </trkpt>
      <trkpt lat="43.41431" lon="6.61013">
        <ele>273.60000610352</ele>
        <time>2012-10-12T09:31:35Z</time>
      </trkpt>
      <trkpt lat="43.41408" lon="6.61008">
        <ele>275</ele>
        <time>2012-10-12T09:31:43Z</time>
      </trkpt>
      <trkpt lat="43.41378" lon="6.60999">
        <ele>275.79998779297</ele>
        <time>2012-10-12T09:31:53Z</time>
      </trkpt>
      <trkpt lat="43.41359" lon="6.60988">
        <ele>277.39999389648</ele>
        <time>2012-10-12T09:31:59Z</time>
      </trkpt>
      <trkpt lat="43.41323" lon="6.60966">
        <ele>281.60000610352</ele>
        <time>2012-10-12T09:32:09Z</time>
      </trkpt>
      <trkpt lat="43.41304" lon="6.60947">
        <ele>285.39999389648</ele>
        <time>2012-10-12T09:32:16Z</time>
      </trkpt>
      <trkpt lat="43.41288" lon="6.60921">
        <ele>286.79998779297</ele>
        <time>2012-10-12T09:32:24Z</time>
      </trkpt>
      <trkpt lat="43.41277" lon="6.60899">
        <ele>289</ele>
        <time>2012-10-12T09:32:30Z</time>
      </trkpt>
      <trkpt lat="43.41265" lon="6.60883">
        <ele>290.60000610352</ele>
        <time>2012-10-12T09:32:37Z</time>
      </trkpt>
      <trkpt lat="43.41248" lon="6.60874">
        <ele>290.79998779297</ele>
        <time>2012-10-12T09:32:45Z</time>
      </trkpt>
      <trkpt lat="43.41233" lon="6.60873">
        <ele>293</ele>
        <time>2012-10-12T09:32:52Z</time>
      </trkpt>
      <trkpt lat="43.41218" lon="6.60866">
        <ele>295.39999389648</ele>
        <time>2012-10-12T09:33:00Z</time>
      </trkpt>
      <trkpt lat="43.41206" lon="6.60853">
        <ele>297</ele>
        <time>2012-10-12T09:33:07Z</time>
      </trkpt>
      <trkpt lat="43.41189" lon="6.60842">
        <ele>298.20001220703</ele>
        <time>2012-10-12T09:33:16Z</time>
      </trkpt>
      <trkpt lat="43.41174" lon="6.60833">
        <ele>298.60000610352</ele>
        <time>2012-10-12T09:33:24Z</time>
      </trkpt>
      <trkpt lat="43.41161" lon="6.60819">
        <ele>303</ele>
        <time>2012-10-12T09:33:32Z</time>
      </trkpt>
      <trkpt lat="43.4116" lon="6.60817">
        <ele>303.60000610352</ele>
        <time>2012-10-12T09:33:33Z</time>
      </trkpt>
      <trkpt lat="43.41151" lon="6.60822">
        <ele>304.39999389648</ele>
        <time>2012-10-12T09:33:38Z</time>
      </trkpt>
      <trkpt lat="43.41153" lon="6.60836">
        <ele>302.60000610352</ele>
        <time>2012-10-12T09:33:43Z</time>
      </trkpt>
      <trkpt lat="43.41155" lon="6.60841">
        <ele>302.39999389648</ele>
        <time>2012-10-12T09:33:45Z</time>
      </trkpt>
      <trkpt lat="43.41163" lon="6.60868">
        <ele>302.79998779297</ele>
        <time>2012-10-12T09:33:54Z</time>
      </trkpt>
      <trkpt lat="43.41171" lon="6.60889">
        <ele>303</ele>
        <time>2012-10-12T09:34:02Z</time>
      </trkpt>
      <trkpt lat="43.41181" lon="6.60907">
        <ele>302.20001220703</ele>
        <time>2012-10-12T09:34:09Z</time>
      </trkpt>
      <trkpt lat="43.4119" lon="6.60921">
        <ele>301</ele>
        <time>2012-10-12T09:34:14Z</time>
      </trkpt>
      <trkpt lat="43.41197" lon="6.60935">
        <ele>300.79998779297</ele>
        <time>2012-10-12T09:34:18Z</time>
      </trkpt>
      <trkpt lat="43.41214" lon="6.60965">
        <ele>300</ele>
        <time>2012-10-12T09:34:27Z</time>
      </trkpt>
      <trkpt lat="43.41225" lon="6.60989">
        <ele>300</ele>
        <time>2012-10-12T09:34:34Z</time>
      </trkpt>
      <trkpt lat="43.41235" lon="6.61011">
        <ele>299.39999389648</ele>
        <time>2012-10-12T09:34:40Z</time>
      </trkpt>
      <trkpt lat="43.41247" lon="6.61036">
        <ele>299</ele>
        <time>2012-10-12T09:34:47Z</time>
      </trkpt>
      <trkpt lat="43.4126" lon="6.61063">
        <ele>298.79998779297</ele>
        <time>2012-10-12T09:34:55Z</time>
      </trkpt>
      <trkpt lat="43.41265" lon="6.61078">
        <ele>299</ele>
        <time>2012-10-12T09:34:59Z</time>
      </trkpt>
      <trkpt lat="43.41262" lon="6.61092">
        <ele>299.39999389648</ele>
        <time>2012-10-12T09:35:03Z</time>
      </trkpt>
      <trkpt lat="43.41256" lon="6.61093">
        <ele>300.39999389648</ele>
        <time>2012-10-12T09:35:05Z</time>
      </trkpt>
      <trkpt lat="43.41241" lon="6.61085">
        <ele>303.20001220703</ele>
        <time>2012-10-12T09:35:11Z</time>
      </trkpt>
      <trkpt lat="43.41221" lon="6.61075">
        <ele>304.20001220703</ele>
        <time>2012-10-12T09:35:19Z</time>
      </trkpt>
      <trkpt lat="43.41203" lon="6.61074">
        <ele>305.39999389648</ele>
        <time>2012-10-12T09:35:26Z</time>
      </trkpt>
      <trkpt lat="43.41187" lon="6.61075">
        <ele>306.60000610352</ele>
        <time>2012-10-12T09:35:32Z</time>
      </trkpt>
      <trkpt lat="43.41166" lon="6.6107">
        <ele>308.39999389648</ele>
        <time>2012-10-12T09:35:40Z</time>
      </trkpt>
      <trkpt lat="43.41149" lon="6.61063">
        <ele>308.39999389648</ele>
        <time>2012-10-12T09:35:46Z</time>
      </trkpt>
      <trkpt lat="43.41126" lon="6.61055">
        <ele>308.39999389648</ele>
        <time>2012-10-12T09:35:54Z</time>
      </trkpt>
      <trkpt lat="43.41109" lon="6.61047">
        <ele>309</ele>
        <time>2012-10-12T09:36:00Z</time>
      </trkpt>
      <trkpt lat="43.41087" lon="6.61028">
        <ele>311.60000610352</ele>
        <time>2012-10-12T09:36:08Z</time>
      </trkpt>
      <trkpt lat="43.41075" lon="6.60999">
        <ele>313.60000610352</ele>
        <time>2012-10-12T09:36:15Z</time>
      </trkpt>
      <trkpt lat="43.41065" lon="6.60957">
        <ele>312.39999389648</ele>
        <time>2012-10-12T09:36:23Z</time>
      </trkpt>
      <trkpt lat="43.41062" lon="6.60934">
        <ele>312.60000610352</ele>
        <time>2012-10-12T09:36:27Z</time>
      </trkpt>
      <trkpt lat="43.41053" lon="6.60887">
        <ele>313.39999389648</ele>
        <time>2012-10-12T09:36:36Z</time>
      </trkpt>
      <trkpt lat="43.4104" lon="6.60854">
        <ele>314.79998779297</ele>
        <time>2012-10-12T09:36:43Z</time>
      </trkpt>
      <trkpt lat="43.41027" lon="6.60826">
        <ele>317.79998779297</ele>
        <time>2012-10-12T09:36:49Z</time>
      </trkpt>
      <trkpt lat="43.41008" lon="6.60803">
        <ele>321.60000610352</ele>
        <time>2012-10-12T09:36:54Z</time>
      </trkpt>
      <trkpt lat="43.41004" lon="6.608">
        <ele>322.20001220703</ele>
        <time>2012-10-12T09:36:55Z</time>
      </trkpt>
      <trkpt lat="43.40976" lon="6.60786">
        <ele>324.39999389648</ele>
        <time>2012-10-12T09:37:02Z</time>
      </trkpt>
      <trkpt lat="43.40951" lon="6.60766">
        <ele>329.20001220703</ele>
        <time>2012-10-12T09:37:09Z</time>
      </trkpt>
      <trkpt lat="43.40932" lon="6.6076">
        <ele>331.39999389648</ele>
        <time>2012-10-12T09:37:14Z</time>
      </trkpt>
      <trkpt lat="43.40927" lon="6.60761">
        <ele>331</ele>
        <time>2012-10-12T09:37:15Z</time>
      </trkpt>
      <trkpt lat="43.40898" lon="6.60778">
        <ele>325.60000610352</ele>
        <time>2012-10-12T09:37:21Z</time>
      </trkpt>
      <trkpt lat="43.40863" lon="6.6079">
        <ele>321.79998779297</ele>
        <time>2012-10-12T09:37:27Z</time>
      </trkpt>
      <trkpt lat="43.4084" lon="6.60784">
        <ele>324</ele>
        <time>2012-10-12T09:37:31Z</time>
      </trkpt>
      <trkpt lat="43.4082" lon="6.60766">
        <ele>329.20001220703</ele>
        <time>2012-10-12T09:37:35Z</time>
      </trkpt>
      <trkpt lat="43.40801" lon="6.60747">
        <ele>332.39999389648</ele>
        <time>2012-10-12T09:37:39Z</time>
      </trkpt>
      <trkpt lat="43.40781" lon="6.60732">
        <ele>334.60000610352</ele>
        <time>2012-10-12T09:37:43Z</time>
      </trkpt>
      <trkpt lat="43.40773" lon="6.60719">
        <ele>337</ele>
        <time>2012-10-12T09:37:45Z</time>
      </trkpt>
      <trkpt lat="43.40743" lon="6.60704">
        <ele>338.60000610352</ele>
        <time>2012-10-12T09:37:50Z</time>
      </trkpt>
      <trkpt lat="43.40711" lon="6.60695">
        <ele>342.79998779297</ele>
        <time>2012-10-12T09:37:56Z</time>
      </trkpt>
      <trkpt lat="43.40691" lon="6.6069">
        <ele>344.20001220703</ele>
        <time>2012-10-12T09:38:01Z</time>
      </trkpt>
      <trkpt lat="43.4067" lon="6.60678">
        <ele>344.60000610352</ele>
        <time>2012-10-12T09:38:07Z</time>
      </trkpt>
      <trkpt lat="43.40651" lon="6.60662">
        <ele>347</ele>
        <time>2012-10-12T09:38:13Z</time>
      </trkpt>
      <trkpt lat="43.40636" lon="6.60656">
        <ele>349.79998779297</ele>
        <time>2012-10-12T09:38:17Z</time>
      </trkpt>
      <trkpt lat="43.40633" lon="6.60658">
        <ele>349.79998779297</ele>
        <time>2012-10-12T09:38:18Z</time>
      </trkpt>
      <trkpt lat="43.40631" lon="6.60674">
        <ele>348.79998779297</ele>
        <time>2012-10-12T09:38:22Z</time>
      </trkpt>
      <trkpt lat="43.40636" lon="6.60682">
        <ele>349</ele>
        <time>2012-10-12T09:38:24Z</time>
      </trkpt>
      <trkpt lat="43.40661" lon="6.60709">
        <ele>347.20001220703</ele>
        <time>2012-10-12T09:38:31Z</time>
      </trkpt>
      <trkpt lat="43.40688" lon="6.60735">
        <ele>342.79998779297</ele>
        <time>2012-10-12T09:38:37Z</time>
      </trkpt>
      <trkpt lat="43.40704" lon="6.60751">
        <ele>338.20001220703</ele>
        <time>2012-10-12T09:38:40Z</time>
      </trkpt>
      <trkpt lat="43.40729" lon="6.60785">
        <ele>332.39999389648</ele>
        <time>2012-10-12T09:38:45Z</time>
      </trkpt>
      <trkpt lat="43.40733" lon="6.60804">
        <ele>331.20001220703</ele>
        <time>2012-10-12T09:38:47Z</time>
      </trkpt>
      <trkpt lat="43.40743" lon="6.60868">
        <ele>330.20001220703</ele>
        <time>2012-10-12T09:38:54Z</time>
      </trkpt>
      <trkpt lat="43.40746" lon="6.60891">
        <ele>331.60000610352</ele>
        <time>2012-10-12T09:38:57Z</time>
      </trkpt>
      <trkpt lat="43.40749" lon="6.60905">
        <ele>332</ele>
        <time>2012-10-12T09:38:59Z</time>
      </trkpt>
      <trkpt lat="43.40764" lon="6.60932">
        <ele>328.60000610352</ele>
        <time>2012-10-12T09:39:04Z</time>
      </trkpt>
      <trkpt lat="43.40774" lon="6.60949">
        <ele>326</ele>
        <time>2012-10-12T09:39:07Z</time>
      </trkpt>
      <trkpt lat="43.40777" lon="6.60974">
        <ele>325</ele>
        <time>2012-10-12T09:39:11Z</time>
      </trkpt>
      <trkpt lat="43.40763" lon="6.60978">
        <ele>327.20001220703</ele>
        <time>2012-10-12T09:39:14Z</time>
      </trkpt>
      <trkpt lat="43.40757" lon="6.60976">
        <ele>328.20001220703</ele>
        <time>2012-10-12T09:39:15Z</time>
      </trkpt>
      <trkpt lat="43.40722" lon="6.6096">
        <ele>339</ele>
        <time>2012-10-12T09:39:21Z</time>
      </trkpt>
      <trkpt lat="43.40706" lon="6.60965">
        <ele>343.79998779297</ele>
        <time>2012-10-12T09:39:25Z</time>
      </trkpt>
      <trkpt lat="43.40709" lon="6.60979">
        <ele>342.20001220703</ele>
        <time>2012-10-12T09:39:28Z</time>
      </trkpt>
      <trkpt lat="43.40712" lon="6.61003">
        <ele>340</ele>
        <time>2012-10-12T09:39:32Z</time>
      </trkpt>
      <trkpt lat="43.40704" lon="6.61019">
        <ele>341.79998779297</ele>
        <time>2012-10-12T09:39:35Z</time>
      </trkpt>
      <trkpt lat="43.4069" lon="6.6105">
        <ele>345.79998779297</ele>
        <time>2012-10-12T09:39:41Z</time>
      </trkpt>
      <trkpt lat="43.40689" lon="6.61083">
        <ele>344.79998779297</ele>
        <time>2012-10-12T09:39:47Z</time>
      </trkpt>
      <trkpt lat="43.40696" lon="6.6111">
        <ele>342.20001220703</ele>
        <time>2012-10-12T09:39:53Z</time>
      </trkpt>
      <trkpt lat="43.40704" lon="6.61134">
        <ele>339</ele>
        <time>2012-10-12T09:39:59Z</time>
      </trkpt>
      <trkpt lat="43.40711" lon="6.61165">
        <ele>336.79998779297</ele>
        <time>2012-10-12T09:40:06Z</time>
      </trkpt>
      <trkpt lat="43.40717" lon="6.61199">
        <ele>331.79998779297</ele>
        <time>2012-10-12T09:40:13Z</time>
      </trkpt>
      <trkpt lat="43.4071" lon="6.61223">
        <ele>331.79998779297</ele>
        <time>2012-10-12T09:40:18Z</time>
      </trkpt>
      <trkpt lat="43.40689" lon="6.61245">
        <ele>335</ele>
        <time>2012-10-12T09:40:25Z</time>
      </trkpt>
      <trkpt lat="43.4067" lon="6.61245">
        <ele>340</ele>
        <time>2012-10-12T09:40:31Z</time>
      </trkpt>
      <trkpt lat="43.40648" lon="6.61241">
        <ele>344.39999389648</ele>
        <time>2012-10-12T09:40:37Z</time>
      </trkpt>
      <trkpt lat="43.40629" lon="6.61243">
        <ele>346.60000610352</ele>
        <time>2012-10-12T09:40:43Z</time>
      </trkpt>
      <trkpt lat="43.40611" lon="6.61257">
        <ele>345.20001220703</ele>
        <time>2012-10-12T09:40:49Z</time>
      </trkpt>
      <trkpt lat="43.4059" lon="6.61267">
        <ele>345.39999389648</ele>
        <time>2012-10-12T09:40:55Z</time>
      </trkpt>
      <trkpt lat="43.40568" lon="6.61267">
        <ele>346.60000610352</ele>
        <time>2012-10-12T09:41:00Z</time>
      </trkpt>
      <trkpt lat="43.40542" lon="6.61253">
        <ele>349</ele>
        <time>2012-10-12T09:41:07Z</time>
      </trkpt>
      <trkpt lat="43.40531" lon="6.61244">
        <ele>350.60000610352</ele>
        <time>2012-10-12T09:41:10Z</time>
      </trkpt>
      <trkpt lat="43.40521" lon="6.61228">
        <ele>354.79998779297</ele>
        <time>2012-10-12T09:41:14Z</time>
      </trkpt>
      <trkpt lat="43.40508" lon="6.61219">
        <ele>356.79998779297</ele>
        <time>2012-10-12T09:41:18Z</time>
      </trkpt>
      <trkpt lat="43.40483" lon="6.61208">
        <ele>362</ele>
        <time>2012-10-12T09:41:26Z</time>
      </trkpt>
      <trkpt lat="43.40458" lon="6.61186">
        <ele>369.79998779297</ele>
        <time>2012-10-12T09:41:34Z</time>
      </trkpt>
      <trkpt lat="43.40449" lon="6.61195">
        <ele>369.60000610352</ele>
        <time>2012-10-12T09:41:38Z</time>
      </trkpt>
      <trkpt lat="43.40449" lon="6.61205">
        <ele>368.60000610352</ele>
        <time>2012-10-12T09:41:40Z</time>
      </trkpt>
      <trkpt lat="43.40454" lon="6.61253">
        <ele>361.60000610352</ele>
        <time>2012-10-12T09:41:48Z</time>
      </trkpt>
      <trkpt lat="43.40456" lon="6.61266">
        <ele>361.20001220703</ele>
        <time>2012-10-12T09:41:50Z</time>
      </trkpt>
      <trkpt lat="43.4045" lon="6.613">
        <ele>363</ele>
        <time>2012-10-12T09:41:56Z</time>
      </trkpt>
      <trkpt lat="43.40447" lon="6.61305">
        <ele>363.79998779297</ele>
        <time>2012-10-12T09:41:57Z</time>
      </trkpt>
      <trkpt lat="43.40441" lon="6.61332">
        <ele>366.20001220703</ele>
        <time>2012-10-12T09:42:03Z</time>
      </trkpt>
      <trkpt lat="43.40444" lon="6.61339">
        <ele>366</ele>
        <time>2012-10-12T09:42:05Z</time>
      </trkpt>
      <trkpt lat="43.40457" lon="6.61354">
        <ele>364.20001220703</ele>
        <time>2012-10-12T09:42:10Z</time>
      </trkpt>
      <trkpt lat="43.40471" lon="6.61368">
        <ele>361.79998779297</ele>
        <time>2012-10-12T09:42:15Z</time>
      </trkpt>
      <trkpt lat="43.40491" lon="6.61391">
        <ele>359.39999389648</ele>
        <time>2012-10-12T09:42:22Z</time>
      </trkpt>
      <trkpt lat="43.40517" lon="6.61428">
        <ele>360</ele>
        <time>2012-10-12T09:42:32Z</time>
      </trkpt>
      <trkpt lat="43.40531" lon="6.61461">
        <ele>365.60000610352</ele>
        <time>2012-10-12T09:42:39Z</time>
      </trkpt>
      <trkpt lat="43.40548" lon="6.6148">
        <ele>366.20001220703</ele>
        <time>2012-10-12T09:42:45Z</time>
      </trkpt>
      <trkpt lat="43.40567" lon="6.61498">
        <ele>365.20001220703</ele>
        <time>2012-10-12T09:42:52Z</time>
      </trkpt>
      <trkpt lat="43.40587" lon="6.61515">
        <ele>365</ele>
        <time>2012-10-12T09:42:59Z</time>
      </trkpt>
      <trkpt lat="43.40611" lon="6.61522">
        <ele>364.60000610352</ele>
        <time>2012-10-12T09:43:06Z</time>
      </trkpt>
      <trkpt lat="43.4064" lon="6.61529">
        <ele>363</ele>
        <time>2012-10-12T09:43:14Z</time>
      </trkpt>
      <trkpt lat="43.40668" lon="6.61537">
        <ele>362</ele>
        <time>2012-10-12T09:43:22Z</time>
      </trkpt>
      <trkpt lat="43.40685" lon="6.61545">
        <ele>363</ele>
        <time>2012-10-12T09:43:27Z</time>
      </trkpt>
      <trkpt lat="43.4071" lon="6.61554">
        <ele>363</ele>
        <time>2012-10-12T09:43:35Z</time>
      </trkpt>
      <trkpt lat="43.4073" lon="6.61563">
        <ele>363.39999389648</ele>
        <time>2012-10-12T09:43:41Z</time>
      </trkpt>
      <trkpt lat="43.40752" lon="6.61579">
        <ele>365.20001220703</ele>
        <time>2012-10-12T09:43:48Z</time>
      </trkpt>
      <trkpt lat="43.40775" lon="6.61601">
        <ele>361.79998779297</ele>
        <time>2012-10-12T09:43:56Z</time>
      </trkpt>
      <trkpt lat="43.40795" lon="6.61628">
        <ele>359</ele>
        <time>2012-10-12T09:44:04Z</time>
      </trkpt>
      <trkpt lat="43.40793" lon="6.61648">
        <ele>360.79998779297</ele>
        <time>2012-10-12T09:44:08Z</time>
      </trkpt>
      <trkpt lat="43.40783" lon="6.61661">
        <ele>364</ele>
        <time>2012-10-12T09:44:12Z</time>
      </trkpt>
      <trkpt lat="43.40764" lon="6.6167">
        <ele>367.20001220703</ele>
        <time>2012-10-12T09:44:17Z</time>
      </trkpt>
      <trkpt lat="43.40739" lon="6.61684">
        <ele>369</ele>
        <time>2012-10-12T09:44:25Z</time>
      </trkpt>
      <trkpt lat="43.40714" lon="6.61697">
        <ele>371.60000610352</ele>
        <time>2012-10-12T09:44:33Z</time>
      </trkpt>
      <trkpt lat="43.40689" lon="6.61715">
        <ele>373.20001220703</ele>
        <time>2012-10-12T09:44:41Z</time>
      </trkpt>
      <trkpt lat="43.40666" lon="6.61725">
        <ele>376.60000610352</ele>
        <time>2012-10-12T09:44:48Z</time>
      </trkpt>
      <trkpt lat="43.40647" lon="6.6173">
        <ele>381.20001220703</ele>
        <time>2012-10-12T09:44:54Z</time>
      </trkpt>
      <trkpt lat="43.40626" lon="6.61745">
        <ele>384.60000610352</ele>
        <time>2012-10-12T09:45:01Z</time>
      </trkpt>
      <trkpt lat="43.40601" lon="6.61771">
        <ele>386.60000610352</ele>
        <time>2012-10-12T09:45:10Z</time>
      </trkpt>
      <trkpt lat="43.40588" lon="6.61793">
        <ele>386</ele>
        <time>2012-10-12T09:45:16Z</time>
      </trkpt>
      <trkpt lat="43.40569" lon="6.61827">
        <ele>385.60000610352</ele>
        <time>2012-10-12T09:45:25Z</time>
      </trkpt>
      <trkpt lat="43.40549" lon="6.61868">
        <ele>383.39999389648</ele>
        <time>2012-10-12T09:45:35Z</time>
      </trkpt>
      <trkpt lat="43.40528" lon="6.61901">
        <ele>382.20001220703</ele>
        <time>2012-10-12T09:45:43Z</time>
      </trkpt>
      <trkpt lat="43.40524" lon="6.61905">
        <ele>382.79998779297</ele>
        <time>2012-10-12T09:45:44Z</time>
      </trkpt>
      <trkpt lat="43.40492" lon="6.61918">
        <ele>391</ele>
        <time>2012-10-12T09:45:50Z</time>
      </trkpt>
      <trkpt lat="43.40466" lon="6.61937">
        <ele>397.39999389648</ele>
        <time>2012-10-12T09:45:55Z</time>
      </trkpt>
      <trkpt lat="43.40462" lon="6.61959">
        <ele>394.60000610352</ele>
        <time>2012-10-12T09:45:58Z</time>
      </trkpt>
      <trkpt lat="43.40461" lon="6.62006">
        <ele>386</ele>
        <time>2012-10-12T09:46:05Z</time>
      </trkpt>
      <trkpt lat="43.40456" lon="6.62046">
        <ele>384.60000610352</ele>
        <time>2012-10-12T09:46:12Z</time>
      </trkpt>
      <trkpt lat="43.40442" lon="6.62085">
        <ele>387</ele>
        <time>2012-10-12T09:46:20Z</time>
      </trkpt>
      <trkpt lat="43.40424" lon="6.62117">
        <ele>393.60000610352</ele>
        <time>2012-10-12T09:46:28Z</time>
      </trkpt>
      <trkpt lat="43.40404" lon="6.62149">
        <ele>394.39999389648</ele>
        <time>2012-10-12T09:46:37Z</time>
      </trkpt>
      <trkpt lat="43.40398" lon="6.62174">
        <ele>392.79998779297</ele>
        <time>2012-10-12T09:46:43Z</time>
      </trkpt>
      <trkpt lat="43.40396" lon="6.6218">
        <ele>392.79998779297</ele>
        <time>2012-10-12T09:46:46Z</time>
      </trkpt>
      <trkpt lat="43.40396" lon="6.62181">
        <ele>393</ele>
        <time>2012-10-12T09:46:53Z</time>
      </trkpt>
      <trkpt lat="43.40397" lon="6.62179">
        <ele>392.79998779297</ele>
        <time>2012-10-12T09:47:08Z</time>
      </trkpt>
      <trkpt lat="43.40397" lon="6.62179">
        <ele>393</ele>
        <time>2012-10-12T09:47:12Z</time>
      </trkpt>
      <trkpt lat="43.40397" lon="6.62179">
        <ele>393</ele>
        <time>2012-10-12T09:47:21Z</time>
      </trkpt>
      <trkpt lat="43.40397" lon="6.62179">
        <ele>393</ele>
        <time>2012-10-12T09:47:22Z</time>
      </trkpt>
      <trkpt lat="43.40398" lon="6.62179">
        <ele>393</ele>
        <time>2012-10-12T09:47:24Z</time>
      </trkpt>
      <trkpt lat="43.40398" lon="6.62179">
        <ele>393</ele>
        <time>2012-10-12T09:47:25Z</time>
      </trkpt>
      <trkpt lat="43.40398" lon="6.62179">
        <ele>393</ele>
        <time>2012-10-12T09:47:30Z</time>
      </trkpt>
      <trkpt lat="43.40398" lon="6.6218">
        <ele>393.20001220703</ele>
        <time>2012-10-12T09:47:33Z</time>
      </trkpt>
      <trkpt lat="43.40398" lon="6.62179">
        <ele>393</ele>
        <time>2012-10-12T09:47:39Z</time>
      </trkpt>
      <trkpt lat="43.40398" lon="6.62178">
        <ele>393</ele>
        <time>2012-10-12T09:47:45Z</time>
      </trkpt>
      <trkpt lat="43.40396" lon="6.62178">
        <ele>392.79998779297</ele>
        <time>2012-10-12T09:47:53Z</time>
      </trkpt>
      <trkpt lat="43.40383" lon="6.62183">
        <ele>391.39999389648</ele>
        <time>2012-10-12T09:47:59Z</time>
      </trkpt>
      <trkpt lat="43.40366" lon="6.62205">
        <ele>388.60000610352</ele>
        <time>2012-10-12T09:48:06Z</time>
      </trkpt>
      <trkpt lat="43.40356" lon="6.62235">
        <ele>385.39999389648</ele>
        <time>2012-10-12T09:48:12Z</time>
      </trkpt>
      <trkpt lat="43.40352" lon="6.62282">
        <ele>386.39999389648</ele>
        <time>2012-10-12T09:48:19Z</time>
      </trkpt>
      <trkpt lat="43.40347" lon="6.6234">
        <ele>390.60000610352</ele>
        <time>2012-10-12T09:48:27Z</time>
      </trkpt>
      <trkpt lat="43.4033" lon="6.62374">
        <ele>389.79998779297</ele>
        <time>2012-10-12T09:48:32Z</time>
      </trkpt>
      <trkpt lat="43.403" lon="6.62421">
        <ele>386.79998779297</ele>
        <time>2012-10-12T09:48:38Z</time>
      </trkpt>
      <trkpt lat="43.40288" lon="6.62438">
        <ele>387.20001220703</ele>
        <time>2012-10-12T09:48:40Z</time>
      </trkpt>
      <trkpt lat="43.40244" lon="6.6248">
        <ele>385</ele>
        <time>2012-10-12T09:48:46Z</time>
      </trkpt>
      <trkpt lat="43.40212" lon="6.62507">
        <ele>383</ele>
        <time>2012-10-12T09:48:50Z</time>
      </trkpt>
      <trkpt lat="43.4015" lon="6.62557">
        <ele>377.20001220703</ele>
        <time>2012-10-12T09:48:57Z</time>
      </trkpt>
      <trkpt lat="43.40093" lon="6.62608">
        <ele>374.39999389648</ele>
        <time>2012-10-12T09:49:03Z</time>
      </trkpt>
      <trkpt lat="43.40059" lon="6.62655">
        <ele>374.60000610352</ele>
        <time>2012-10-12T09:49:07Z</time>
      </trkpt>
      <trkpt lat="43.40051" lon="6.62666">
        <ele>374.39999389648</ele>
        <time>2012-10-12T09:49:08Z</time>
      </trkpt>
      <trkpt lat="43.40014" lon="6.62709">
        <ele>369.60000610352</ele>
        <time>2012-10-12T09:49:12Z</time>
      </trkpt>
      <trkpt lat="43.39979" lon="6.62776">
        <ele>369.79998779297</ele>
        <time>2012-10-12T09:49:17Z</time>
      </trkpt>
      <trkpt lat="43.39973" lon="6.6279">
        <ele>370</ele>
        <time>2012-10-12T09:49:18Z</time>
      </trkpt>
      <trkpt lat="43.39927" lon="6.62862">
        <ele>365</ele>
        <time>2012-10-12T09:49:24Z</time>
      </trkpt>
      <trkpt lat="43.3989" lon="6.62927">
        <ele>363.79998779297</ele>
        <time>2012-10-12T09:49:29Z</time>
      </trkpt>
      <trkpt lat="43.39876" lon="6.62952">
        <ele>361</ele>
        <time>2012-10-12T09:49:31Z</time>
      </trkpt>
      <trkpt lat="43.39857" lon="6.63012">
        <ele>359.20001220703</ele>
        <time>2012-10-12T09:49:35Z</time>
      </trkpt>
      <trkpt lat="43.39833" lon="6.63105">
        <ele>360.39999389648</ele>
        <time>2012-10-12T09:49:41Z</time>
      </trkpt>
      <trkpt lat="43.39817" lon="6.63147">
        <ele>357.60000610352</ele>
        <time>2012-10-12T09:49:44Z</time>
      </trkpt>
      <trkpt lat="43.39799" lon="6.63203">
        <ele>356</ele>
        <time>2012-10-12T09:49:48Z</time>
      </trkpt>
      <trkpt lat="43.39771" lon="6.63265">
        <ele>352.20001220703</ele>
        <time>2012-10-12T09:49:53Z</time>
      </trkpt>
      <trkpt lat="43.39752" lon="6.63298">
        <ele>348.20001220703</ele>
        <time>2012-10-12T09:49:56Z</time>
      </trkpt>
      <trkpt lat="43.39732" lon="6.63343">
        <ele>345.79998779297</ele>
        <time>2012-10-12T09:50:00Z</time>
      </trkpt>
      <trkpt lat="43.39729" lon="6.63369">
        <ele>344.39999389648</ele>
        <time>2012-10-12T09:50:03Z</time>
      </trkpt>
      <trkpt lat="43.39729" lon="6.63374">
        <ele>344.39999389648</ele>
        <time>2012-10-12T09:50:04Z</time>
      </trkpt>
      <trkpt lat="43.39724" lon="6.63388">
        <ele>343.20001220703</ele>
        <time>2012-10-12T09:50:08Z</time>
      </trkpt>
      <trkpt lat="43.39703" lon="6.63403">
        <ele>339.39999389648</ele>
        <time>2012-10-12T09:50:12Z</time>
      </trkpt>
      <trkpt lat="43.39679" lon="6.63429">
        <ele>336.39999389648</ele>
        <time>2012-10-12T09:50:16Z</time>
      </trkpt>
      <trkpt lat="43.39662" lon="6.63453">
        <ele>333.60000610352</ele>
        <time>2012-10-12T09:50:21Z</time>
      </trkpt>
      <trkpt lat="43.39651" lon="6.63457">
        <ele>331.20001220703</ele>
        <time>2012-10-12T09:50:25Z</time>
      </trkpt>
      <trkpt lat="43.39648" lon="6.63461">
        <ele>330.39999389648</ele>
        <time>2012-10-12T09:50:26Z</time>
      </trkpt>
      <trkpt lat="43.39639" lon="6.63469">
        <ele>328.79998779297</ele>
        <time>2012-10-12T09:50:28Z</time>
      </trkpt>
      <trkpt lat="43.3962" lon="6.63488">
        <ele>326.39999389648</ele>
        <time>2012-10-12T09:50:33Z</time>
      </trkpt>
      <trkpt lat="43.39611" lon="6.63496">
        <ele>325.60000610352</ele>
        <time>2012-10-12T09:50:35Z</time>
      </trkpt>
      <trkpt lat="43.39586" lon="6.63508">
        <ele>321.39999389648</ele>
        <time>2012-10-12T09:50:41Z</time>
      </trkpt>
      <trkpt lat="43.3957" lon="6.63511">
        <ele>317.79998779297</ele>
        <time>2012-10-12T09:50:45Z</time>
      </trkpt>
      <trkpt lat="43.39557" lon="6.63514">
        <ele>314.79998779297</ele>
        <time>2012-10-12T09:50:49Z</time>
      </trkpt>
      <trkpt lat="43.39537" lon="6.63508">
        <ele>311.20001220703</ele>
        <time>2012-10-12T09:50:54Z</time>
      </trkpt>
      <trkpt lat="43.39524" lon="6.63512">
        <ele>308.20001220703</ele>
        <time>2012-10-12T09:50:58Z</time>
      </trkpt>
      <trkpt lat="43.39515" lon="6.63518">
        <ele>305.60000610352</ele>
        <time>2012-10-12T09:51:00Z</time>
      </trkpt>
      <trkpt lat="43.39503" lon="6.63521">
        <ele>303</ele>
        <time>2012-10-12T09:51:02Z</time>
      </trkpt>
      <trkpt lat="43.39487" lon="6.63523">
        <ele>299.20001220703</ele>
        <time>2012-10-12T09:51:05Z</time>
      </trkpt>
      <trkpt lat="43.39465" lon="6.63536">
        <ele>293.60000610352</ele>
        <time>2012-10-12T09:51:09Z</time>
      </trkpt>
      <trkpt lat="43.39442" lon="6.63562">
        <ele>288.39999389648</ele>
        <time>2012-10-12T09:51:14Z</time>
      </trkpt>
      <trkpt lat="43.39423" lon="6.63584">
        <ele>285</ele>
        <time>2012-10-12T09:51:19Z</time>
      </trkpt>
      <trkpt lat="43.39417" lon="6.63612">
        <ele>281.20001220703</ele>
        <time>2012-10-12T09:51:22Z</time>
      </trkpt>
      <trkpt lat="43.3941" lon="6.63632">
        <ele>277</ele>
        <time>2012-10-12T09:51:24Z</time>
      </trkpt>
      <trkpt lat="43.394" lon="6.63651">
        <ele>272.39999389648</ele>
        <time>2012-10-12T09:51:27Z</time>
      </trkpt>
      <trkpt lat="43.39392" lon="6.63671">
        <ele>268.60000610352</ele>
        <time>2012-10-12T09:51:31Z</time>
      </trkpt>
      <trkpt lat="43.39388" lon="6.63678">
        <ele>266.60000610352</ele>
        <time>2012-10-12T09:51:33Z</time>
      </trkpt>
      <trkpt lat="43.39377" lon="6.63684">
        <ele>263.20001220703</ele>
        <time>2012-10-12T09:51:38Z</time>
      </trkpt>
      <trkpt lat="43.39355" lon="6.63705">
        <ele>256.60000610352</ele>
        <time>2012-10-12T09:51:43Z</time>
      </trkpt>
      <trkpt lat="43.3934" lon="6.63726">
        <ele>253.39999389648</ele>
        <time>2012-10-12T09:51:47Z</time>
      </trkpt>
      <trkpt lat="43.39334" lon="6.63735">
        <ele>252.19999694824</ele>
        <time>2012-10-12T09:51:49Z</time>
      </trkpt>
      <trkpt lat="43.39326" lon="6.63752">
        <ele>249</ele>
        <time>2012-10-12T09:51:53Z</time>
      </trkpt>
      <trkpt lat="43.39316" lon="6.6376">
        <ele>244.39999389648</ele>
        <time>2012-10-12T09:51:58Z</time>
      </trkpt>
      <trkpt lat="43.39305" lon="6.63767">
        <ele>239.80000305176</ele>
        <time>2012-10-12T09:52:01Z</time>
      </trkpt>
      <trkpt lat="43.39297" lon="6.63779">
        <ele>235.60000610352</ele>
        <time>2012-10-12T09:52:05Z</time>
      </trkpt>
      <trkpt lat="43.3929" lon="6.63786">
        <ele>232.80000305176</ele>
        <time>2012-10-12T09:52:12Z</time>
      </trkpt>
      <trkpt lat="43.39289" lon="6.63787">
        <ele>232.39999389648</ele>
        <time>2012-10-12T09:52:13Z</time>
      </trkpt>
      <trkpt lat="43.39282" lon="6.63789">
        <ele>230.39999389648</ele>
        <time>2012-10-12T09:52:18Z</time>
      </trkpt>
      <trkpt lat="43.39281" lon="6.63801">
        <ele>228.80000305176</ele>
        <time>2012-10-12T09:52:23Z</time>
      </trkpt>
      <trkpt lat="43.3928" lon="6.63811">
        <ele>227.39999389648</ele>
        <time>2012-10-12T09:52:27Z</time>
      </trkpt>
      <trkpt lat="43.39276" lon="6.63825">
        <ele>225.19999694824</ele>
        <time>2012-10-12T09:52:31Z</time>
      </trkpt>
      <trkpt lat="43.39276" lon="6.63829">
        <ele>224.80000305176</ele>
        <time>2012-10-12T09:52:32Z</time>
      </trkpt>
      <trkpt lat="43.39271" lon="6.63859">
        <ele>220.39999389648</ele>
        <time>2012-10-12T09:52:37Z</time>
      </trkpt>
      <trkpt lat="43.39266" lon="6.63876">
        <ele>218.19999694824</ele>
        <time>2012-10-12T09:52:40Z</time>
      </trkpt>
      <trkpt lat="43.39264" lon="6.63891">
        <ele>216.60000610352</ele>
        <time>2012-10-12T09:52:43Z</time>
      </trkpt>
      <trkpt lat="43.39256" lon="6.63921">
        <ele>214</ele>
        <time>2012-10-12T09:52:47Z</time>
      </trkpt>
      <trkpt lat="43.39249" lon="6.63959">
        <ele>211</ele>
        <time>2012-10-12T09:52:52Z</time>
      </trkpt>
      <trkpt lat="43.39247" lon="6.63975">
        <ele>209.19999694824</ele>
        <time>2012-10-12T09:52:54Z</time>
      </trkpt>
      <trkpt lat="43.39252" lon="6.63997">
        <ele>207</ele>
        <time>2012-10-12T09:52:59Z</time>
      </trkpt>
      <trkpt lat="43.39255" lon="6.64002">
        <ele>205.80000305176</ele>
        <time>2012-10-12T09:53:04Z</time>
      </trkpt>
      <trkpt lat="43.3927" lon="6.64005">
        <ele>202.80000305176</ele>
        <time>2012-10-12T09:53:07Z</time>
      </trkpt>
      <trkpt lat="43.39283" lon="6.63979">
        <ele>204.19999694824</ele>
        <time>2012-10-12T09:53:11Z</time>
      </trkpt>
      <trkpt lat="43.39304" lon="6.63953">
        <ele>205.39999389648</ele>
        <time>2012-10-12T09:53:15Z</time>
      </trkpt>
      <trkpt lat="43.39331" lon="6.63943">
        <ele>204</ele>
        <time>2012-10-12T09:53:18Z</time>
      </trkpt>
      <trkpt lat="43.39362" lon="6.63937">
        <ele>201.60000610352</ele>
        <time>2012-10-12T09:53:21Z</time>
      </trkpt>
      <trkpt lat="43.39406" lon="6.6394">
        <ele>195.60000610352</ele>
        <time>2012-10-12T09:53:25Z</time>
      </trkpt>
      <trkpt lat="43.39427" lon="6.63948">
        <ele>192</ele>
        <time>2012-10-12T09:53:27Z</time>
      </trkpt>
      <trkpt lat="43.39454" lon="6.63942">
        <ele>193.60000610352</ele>
        <time>2012-10-12T09:53:30Z</time>
      </trkpt>
      <trkpt lat="43.39485" lon="6.63951">
        <ele>190.19999694824</ele>
        <time>2012-10-12T09:53:34Z</time>
      </trkpt>
      <trkpt lat="43.39508" lon="6.63961">
        <ele>187.19999694824</ele>
        <time>2012-10-12T09:53:37Z</time>
      </trkpt>
      <trkpt lat="43.39535" lon="6.6395">
        <ele>190.80000305176</ele>
        <time>2012-10-12T09:53:41Z</time>
      </trkpt>
      <trkpt lat="43.39547" lon="6.63938">
        <ele>193.80000305176</ele>
        <time>2012-10-12T09:53:43Z</time>
      </trkpt>
      <trkpt lat="43.3957" lon="6.63927">
        <ele>196</ele>
        <time>2012-10-12T09:53:47Z</time>
      </trkpt>
      <trkpt lat="43.39594" lon="6.6394">
        <ele>195.19999694824</ele>
        <time>2012-10-12T09:53:52Z</time>
      </trkpt>
      <trkpt lat="43.39598" lon="6.63959">
        <ele>191.80000305176</ele>
        <time>2012-10-12T09:53:55Z</time>
      </trkpt>
      <trkpt lat="43.39601" lon="6.63974">
        <ele>189.19999694824</ele>
        <time>2012-10-12T09:53:57Z</time>
      </trkpt>
      <trkpt lat="43.39608" lon="6.63995">
        <ele>185.80000305176</ele>
        <time>2012-10-12T09:54:00Z</time>
      </trkpt>
      <trkpt lat="43.39631" lon="6.64022">
        <ele>184.19999694824</ele>
        <time>2012-10-12T09:54:05Z</time>
      </trkpt>
      <trkpt lat="43.39656" lon="6.64029">
        <ele>186.39999389648</ele>
        <time>2012-10-12T09:54:08Z</time>
      </trkpt>
      <trkpt lat="43.39689" lon="6.64049">
        <ele>183.60000610352</ele>
        <time>2012-10-12T09:54:12Z</time>
      </trkpt>
      <trkpt lat="43.39703" lon="6.64055">
        <ele>182.80000305176</ele>
        <time>2012-10-12T09:54:14Z</time>
      </trkpt>
      <trkpt lat="43.39751" lon="6.64053">
        <ele>186</ele>
        <time>2012-10-12T09:54:21Z</time>
      </trkpt>
      <trkpt lat="43.39783" lon="6.64068">
        <ele>181.39999389648</ele>
        <time>2012-10-12T09:54:25Z</time>
      </trkpt>
      <trkpt lat="43.39808" lon="6.64074">
        <ele>179.60000610352</ele>
        <time>2012-10-12T09:54:29Z</time>
      </trkpt>
      <trkpt lat="43.39829" lon="6.64074">
        <ele>179.39999389648</ele>
        <time>2012-10-12T09:54:32Z</time>
      </trkpt>
      <trkpt lat="43.39857" lon="6.64063">
        <ele>184.19999694824</ele>
        <time>2012-10-12T09:54:36Z</time>
      </trkpt>
      <trkpt lat="43.39874" lon="6.64045">
        <ele>190</ele>
        <time>2012-10-12T09:54:39Z</time>
      </trkpt>
      <trkpt lat="43.39881" lon="6.64042">
        <ele>190.80000305176</ele>
        <time>2012-10-12T09:54:40Z</time>
      </trkpt>
      <trkpt lat="43.39898" lon="6.64061">
        <ele>187.60000610352</ele>
        <time>2012-10-12T09:54:45Z</time>
      </trkpt>
      <trkpt lat="43.39907" lon="6.64072">
        <ele>185.60000610352</ele>
        <time>2012-10-12T09:54:47Z</time>
      </trkpt>
      <trkpt lat="43.39926" lon="6.64088">
        <ele>185</ele>
        <time>2012-10-12T09:54:51Z</time>
      </trkpt>
      <trkpt lat="43.39952" lon="6.64112">
        <ele>186.80000305176</ele>
        <time>2012-10-12T09:54:57Z</time>
      </trkpt>
      <trkpt lat="43.39959" lon="6.64118">
        <ele>187.39999389648</ele>
        <time>2012-10-12T09:54:59Z</time>
      </trkpt>
      <trkpt lat="43.39965" lon="6.64122">
        <ele>187.80000305176</ele>
        <time>2012-10-12T09:55:01Z</time>
      </trkpt>
      <trkpt lat="43.39986" lon="6.64135">
        <ele>189.80000305176</ele>
        <time>2012-10-12T09:55:09Z</time>
      </trkpt>
      <trkpt lat="43.40011" lon="6.64151">
        <ele>190.19999694824</ele>
        <time>2012-10-12T09:55:18Z</time>
      </trkpt>
      <trkpt lat="43.40032" lon="6.64163">
        <ele>189.19999694824</ele>
        <time>2012-10-12T09:55:26Z</time>
      </trkpt>
      <trkpt lat="43.40038" lon="6.64171">
        <ele>189.39999389648</ele>
        <time>2012-10-12T09:55:29Z</time>
      </trkpt>
      <trkpt lat="43.40042" lon="6.64196">
        <ele>192.60000610352</ele>
        <time>2012-10-12T09:55:36Z</time>
      </trkpt>
      <trkpt lat="43.40047" lon="6.64216">
        <ele>195</ele>
        <time>2012-10-12T09:55:42Z</time>
      </trkpt>
      <trkpt lat="43.40055" lon="6.64234">
        <ele>197.39999389648</ele>
        <time>2012-10-12T09:55:48Z</time>
      </trkpt>
      <trkpt lat="43.40064" lon="6.64244">
        <ele>198.80000305176</ele>
        <time>2012-10-12T09:55:53Z</time>
      </trkpt>
      <trkpt lat="43.40072" lon="6.64248">
        <ele>199.39999389648</ele>
        <time>2012-10-12T09:55:59Z</time>
      </trkpt>
      <trkpt lat="43.40076" lon="6.64258">
        <ele>201.39999389648</ele>
        <time>2012-10-12T09:56:06Z</time>
      </trkpt>
      <trkpt lat="43.40074" lon="6.64269">
        <ele>203.39999389648</ele>
        <time>2012-10-12T09:56:11Z</time>
      </trkpt>
      <trkpt lat="43.40074" lon="6.64271">
        <ele>204</ele>
        <time>2012-10-12T09:56:14Z</time>
      </trkpt>
      <trkpt lat="43.40075" lon="6.64281">
        <ele>205.80000305176</ele>
        <time>2012-10-12T09:56:20Z</time>
      </trkpt>
      <trkpt lat="43.40074" lon="6.64282">
        <ele>206</ele>
        <time>2012-10-12T09:56:21Z</time>
      </trkpt>
      <trkpt lat="43.4007" lon="6.64291">
        <ele>207.80000305176</ele>
        <time>2012-10-12T09:56:28Z</time>
      </trkpt>
      <trkpt lat="43.40067" lon="6.64298">
        <ele>209</ele>
        <time>2012-10-12T09:56:33Z</time>
      </trkpt>
      <trkpt lat="43.40063" lon="6.64316">
        <ele>212.60000610352</ele>
        <time>2012-10-12T09:56:41Z</time>
      </trkpt>
      <trkpt lat="43.4006" lon="6.64322">
        <ele>213.60000610352</ele>
        <time>2012-10-12T09:56:47Z</time>
      </trkpt>
      <trkpt lat="43.40059" lon="6.64324">
        <ele>214</ele>
        <time>2012-10-12T09:56:53Z</time>
      </trkpt>
      <trkpt lat="43.40056" lon="6.64328">
        <ele>215</ele>
        <time>2012-10-12T09:56:59Z</time>
      </trkpt>
      <trkpt lat="43.40052" lon="6.64333">
        <ele>216</ele>
        <time>2012-10-12T09:57:07Z</time>
      </trkpt>
      <trkpt lat="43.40049" lon="6.64337">
        <ele>216.80000305176</ele>
        <time>2012-10-12T09:57:15Z</time>
      </trkpt>
      <trkpt lat="43.40044" lon="6.64339">
        <ele>217.39999389648</ele>
        <time>2012-10-12T09:57:20Z</time>
      </trkpt>
      <trkpt lat="43.40034" lon="6.64344">
        <ele>218.19999694824</ele>
        <time>2012-10-12T09:57:30Z</time>
      </trkpt>
      <trkpt lat="43.4003" lon="6.64345">
        <ele>218.39999389648</ele>
        <time>2012-10-12T09:57:34Z</time>
      </trkpt>
      <trkpt lat="43.40027" lon="6.64345">
        <ele>218.39999389648</ele>
        <time>2012-10-12T09:57:38Z</time>
      </trkpt>
      <trkpt lat="43.40018" lon="6.64344">
        <ele>218</ele>
        <time>2012-10-12T09:57:44Z</time>
      </trkpt>
      <trkpt lat="43.40008" lon="6.64345">
        <ele>218.19999694824</ele>
        <time>2012-10-12T09:57:51Z</time>
      </trkpt>
      <trkpt lat="43.39997" lon="6.64351">
        <ele>219.19999694824</ele>
        <time>2012-10-12T09:57:58Z</time>
      </trkpt>
      <trkpt lat="43.39985" lon="6.64357">
        <ele>218.60000610352</ele>
        <time>2012-10-12T09:58:05Z</time>
      </trkpt>
      <trkpt lat="43.39973" lon="6.64361">
        <ele>218</ele>
        <time>2012-10-12T09:58:11Z</time>
      </trkpt>
      <trkpt lat="43.39961" lon="6.64377">
        <ele>219.80000305176</ele>
        <time>2012-10-12T09:58:18Z</time>
      </trkpt>
      <trkpt lat="43.39957" lon="6.64389">
        <ele>221.60000610352</ele>
        <time>2012-10-12T09:58:20Z</time>
      </trkpt>
      <trkpt lat="43.39949" lon="6.64411">
        <ele>224.80000305176</ele>
        <time>2012-10-12T09:58:23Z</time>
      </trkpt>
      <trkpt lat="43.39937" lon="6.64429">
        <ele>227.19999694824</ele>
        <time>2012-10-12T09:58:26Z</time>
      </trkpt>
      <trkpt lat="43.39919" lon="6.6444">
        <ele>227</ele>
        <time>2012-10-12T09:58:30Z</time>
      </trkpt>
      <trkpt lat="43.39907" lon="6.6444">
        <ele>226.19999694824</ele>
        <time>2012-10-12T09:58:34Z</time>
      </trkpt>
      <trkpt lat="43.39886" lon="6.64449">
        <ele>227</ele>
        <time>2012-10-12T09:58:42Z</time>
      </trkpt>
      <trkpt lat="43.39884" lon="6.6445">
        <ele>227.19999694824</ele>
        <time>2012-10-12T09:58:43Z</time>
      </trkpt>
      <trkpt lat="43.39877" lon="6.64458">
        <ele>228.19999694824</ele>
        <time>2012-10-12T09:58:48Z</time>
      </trkpt>
      <trkpt lat="43.39866" lon="6.64466">
        <ele>229.19999694824</ele>
        <time>2012-10-12T09:58:56Z</time>
      </trkpt>
      <trkpt lat="43.39858" lon="6.64474">
        <ele>230.39999389648</ele>
        <time>2012-10-12T09:59:03Z</time>
      </trkpt>
      <trkpt lat="43.39851" lon="6.64483">
        <ele>231.60000610352</ele>
        <time>2012-10-12T09:59:09Z</time>
      </trkpt>
      <trkpt lat="43.39843" lon="6.64494">
        <ele>233.39999389648</ele>
        <time>2012-10-12T09:59:17Z</time>
      </trkpt>
      <trkpt lat="43.39832" lon="6.64502">
        <ele>234.19999694824</ele>
        <time>2012-10-12T09:59:25Z</time>
      </trkpt>
      <trkpt lat="43.39823" lon="6.6451">
        <ele>235</ele>
        <time>2012-10-12T09:59:31Z</time>
      </trkpt>
      <trkpt lat="43.39813" lon="6.64519">
        <ele>235.80000305176</ele>
        <time>2012-10-12T09:59:37Z</time>
      </trkpt>
      <trkpt lat="43.39802" lon="6.64523">
        <ele>235.80000305176</ele>
        <time>2012-10-12T09:59:43Z</time>
      </trkpt>
      <trkpt lat="43.39787" lon="6.64518">
        <ele>235.39999389648</ele>
        <time>2012-10-12T09:59:50Z</time>
      </trkpt>
      <trkpt lat="43.39769" lon="6.64512">
        <ele>235.19999694824</ele>
        <time>2012-10-12T09:59:57Z</time>
      </trkpt>
      <trkpt lat="43.39748" lon="6.64509">
        <ele>235.39999389648</ele>
        <time>2012-10-12T10:00:04Z</time>
      </trkpt>
      <trkpt lat="43.39725" lon="6.64504">
        <ele>233.60000610352</ele>
        <time>2012-10-12T10:00:10Z</time>
      </trkpt>
      <trkpt lat="43.39715" lon="6.64502">
        <ele>233</ele>
        <time>2012-10-12T10:00:12Z</time>
      </trkpt>
      <trkpt lat="43.39699" lon="6.64516">
        <ele>231.19999694824</ele>
        <time>2012-10-12T10:00:16Z</time>
      </trkpt>
      <trkpt lat="43.39682" lon="6.64525">
        <ele>229.60000610352</ele>
        <time>2012-10-12T10:00:20Z</time>
      </trkpt>
      <trkpt lat="43.39646" lon="6.6453">
        <ele>225.60000610352</ele>
        <time>2012-10-12T10:00:25Z</time>
      </trkpt>
      <trkpt lat="43.3961" lon="6.64544">
        <ele>221.19999694824</ele>
        <time>2012-10-12T10:00:29Z</time>
      </trkpt>
      <trkpt lat="43.39588" lon="6.6457">
        <ele>219.80000305176</ele>
        <time>2012-10-12T10:00:33Z</time>
      </trkpt>
      <trkpt lat="43.39583" lon="6.64575">
        <ele>219.60000610352</ele>
        <time>2012-10-12T10:00:34Z</time>
      </trkpt>
      <trkpt lat="43.39567" lon="6.64591">
        <ele>215.39999389648</ele>
        <time>2012-10-12T10:00:37Z</time>
      </trkpt>
      <trkpt lat="43.39543" lon="6.64598">
        <ele>210.39999389648</ele>
        <time>2012-10-12T10:00:41Z</time>
      </trkpt>
      <trkpt lat="43.39512" lon="6.64614">
        <ele>204</ele>
        <time>2012-10-12T10:00:46Z</time>
      </trkpt>
      <trkpt lat="43.39491" lon="6.64628">
        <ele>200.60000610352</ele>
        <time>2012-10-12T10:00:49Z</time>
      </trkpt>
      <trkpt lat="43.39449" lon="6.6465">
        <ele>195.60000610352</ele>
        <time>2012-10-12T10:00:54Z</time>
      </trkpt>
      <trkpt lat="43.39439" lon="6.64653">
        <ele>194.80000305176</ele>
        <time>2012-10-12T10:00:55Z</time>
      </trkpt>
      <trkpt lat="43.39403" lon="6.64646">
        <ele>191.19999694824</ele>
        <time>2012-10-12T10:00:59Z</time>
      </trkpt>
      <trkpt lat="43.39391" lon="6.64639">
        <ele>190</ele>
        <time>2012-10-12T10:01:01Z</time>
      </trkpt>
      <trkpt lat="43.39365" lon="6.64633">
        <ele>188.60000610352</ele>
        <time>2012-10-12T10:01:05Z</time>
      </trkpt>
      <trkpt lat="43.39341" lon="6.64632">
        <ele>187.80000305176</ele>
        <time>2012-10-12T10:01:09Z</time>
      </trkpt>
      <trkpt lat="43.39333" lon="6.64618">
        <ele>186.60000610352</ele>
        <time>2012-10-12T10:01:12Z</time>
      </trkpt>
      <trkpt lat="43.39327" lon="6.64603">
        <ele>185.60000610352</ele>
        <time>2012-10-12T10:01:15Z</time>
      </trkpt>
      <trkpt lat="43.39303" lon="6.64582">
        <ele>184.39999389648</ele>
        <time>2012-10-12T10:01:20Z</time>
      </trkpt>
      <trkpt lat="43.39269" lon="6.64577">
        <ele>183.39999389648</ele>
        <time>2012-10-12T10:01:24Z</time>
      </trkpt>
      <trkpt lat="43.39233" lon="6.64588">
        <ele>184.39999389648</ele>
        <time>2012-10-12T10:01:28Z</time>
      </trkpt>
      <trkpt lat="43.39215" lon="6.64594">
        <ele>183.19999694824</ele>
        <time>2012-10-12T10:01:30Z</time>
      </trkpt>
      <trkpt lat="43.39167" lon="6.64608">
        <ele>180.39999389648</ele>
        <time>2012-10-12T10:01:35Z</time>
      </trkpt>
      <trkpt lat="43.39115" lon="6.64607">
        <ele>174</ele>
        <time>2012-10-12T10:01:40Z</time>
      </trkpt>
      <trkpt lat="43.39065" lon="6.64616">
        <ele>168</ele>
        <time>2012-10-12T10:01:45Z</time>
      </trkpt>
      <trkpt lat="43.39037" lon="6.64624">
        <ele>163</ele>
        <time>2012-10-12T10:01:48Z</time>
      </trkpt>
      <trkpt lat="43.39002" lon="6.64659">
        <ele>161.80000305176</ele>
        <time>2012-10-12T10:01:53Z</time>
      </trkpt>
      <trkpt lat="43.38989" lon="6.64678">
        <ele>162</ele>
        <time>2012-10-12T10:01:55Z</time>
      </trkpt>
      <trkpt lat="43.38951" lon="6.64707">
        <ele>157.39999389648</ele>
        <time>2012-10-12T10:01:59Z</time>
      </trkpt>
      <trkpt lat="43.3894" lon="6.64712">
        <ele>155.39999389648</ele>
        <time>2012-10-12T10:02:00Z</time>
      </trkpt>
      <trkpt lat="43.38885" lon="6.64743">
        <ele>152.60000610352</ele>
        <time>2012-10-12T10:02:05Z</time>
      </trkpt>
      <trkpt lat="43.38875" lon="6.6475">
        <ele>153</ele>
        <time>2012-10-12T10:02:06Z</time>
      </trkpt>
      <trkpt lat="43.38844" lon="6.64748">
        <ele>147</ele>
        <time>2012-10-12T10:02:09Z</time>
      </trkpt>
      <trkpt lat="43.38833" lon="6.64743">
        <ele>144</ele>
        <time>2012-10-12T10:02:10Z</time>
      </trkpt>
      <trkpt lat="43.38794" lon="6.64741">
        <ele>135.39999389648</ele>
        <time>2012-10-12T10:02:14Z</time>
      </trkpt>
      <trkpt lat="43.38786" lon="6.64741">
        <ele>134</ele>
        <time>2012-10-12T10:02:15Z</time>
      </trkpt>
      <trkpt lat="43.38765" lon="6.64753">
        <ele>131.80000305176</ele>
        <time>2012-10-12T10:02:19Z</time>
      </trkpt>
      <trkpt lat="43.38758" lon="6.6475">
        <ele>129.80000305176</ele>
        <time>2012-10-12T10:02:22Z</time>
      </trkpt>
      <trkpt lat="43.38763" lon="6.64737">
        <ele>128.60000610352</ele>
        <time>2012-10-12T10:02:24Z</time>
      </trkpt>
      <trkpt lat="43.38768" lon="6.64713">
        <ele>125.19999694824</ele>
        <time>2012-10-12T10:02:27Z</time>
      </trkpt>
      <trkpt lat="43.3876" lon="6.64694">
        <ele>121</ele>
        <time>2012-10-12T10:02:30Z</time>
      </trkpt>
      <trkpt lat="43.38745" lon="6.64682">
        <ele>117</ele>
        <time>2012-10-12T10:02:33Z</time>
      </trkpt>
      <trkpt lat="43.3873" lon="6.64671">
        <ele>112</ele>
        <time>2012-10-12T10:02:36Z</time>
      </trkpt>
      <trkpt lat="43.38726" lon="6.64666">
        <ele>110.59999847412</ele>
        <time>2012-10-12T10:02:37Z</time>
      </trkpt>
      <trkpt lat="43.38702" lon="6.64653">
        <ele>102.80000305176</ele>
        <time>2012-10-12T10:02:43Z</time>
      </trkpt>
      <trkpt lat="43.38698" lon="6.64652">
        <ele>102</ele>
        <time>2012-10-12T10:02:44Z</time>
      </trkpt>
      <trkpt lat="43.38685" lon="6.64651">
        <ele>99.199996948242</ele>
        <time>2012-10-12T10:02:47Z</time>
      </trkpt>
      <trkpt lat="43.38669" lon="6.6464">
        <ele>95</ele>
        <time>2012-10-12T10:02:53Z</time>
      </trkpt>
      <trkpt lat="43.3866" lon="6.64641">
        <ele>93.400001525879</ele>
        <time>2012-10-12T10:02:56Z</time>
      </trkpt>
      <trkpt lat="43.38649" lon="6.64644">
        <ele>91.199996948242</ele>
        <time>2012-10-12T10:02:59Z</time>
      </trkpt>
      <trkpt lat="43.38646" lon="6.64641">
        <ele>90.199996948242</ele>
        <time>2012-10-12T10:03:00Z</time>
      </trkpt>
      <trkpt lat="43.38634" lon="6.64631">
        <ele>87</ele>
        <time>2012-10-12T10:03:03Z</time>
      </trkpt>
      <trkpt lat="43.38619" lon="6.64612">
        <ele>83.599998474121</ele>
        <time>2012-10-12T10:03:07Z</time>
      </trkpt>
      <trkpt lat="43.38608" lon="6.6461">
        <ele>81.400001525879</ele>
        <time>2012-10-12T10:03:09Z</time>
      </trkpt>
      <trkpt lat="43.38599" lon="6.64607">
        <ele>80</ele>
        <time>2012-10-12T10:03:11Z</time>
      </trkpt>
      <trkpt lat="43.386" lon="6.64603">
        <ele>80.199996948242</ele>
        <time>2012-10-12T10:03:12Z</time>
      </trkpt>
      <trkpt lat="43.38604" lon="6.64594">
        <ele>81</ele>
        <time>2012-10-12T10:03:14Z</time>
      </trkpt>
      <trkpt lat="43.38613" lon="6.64576">
        <ele>82</ele>
        <time>2012-10-12T10:03:18Z</time>
      </trkpt>
      <trkpt lat="43.38624" lon="6.64567">
        <ele>82.800003051758</ele>
        <time>2012-10-12T10:03:21Z</time>
      </trkpt>
      <trkpt lat="43.38627" lon="6.64555">
        <ele>82.199996948242</ele>
        <time>2012-10-12T10:03:25Z</time>
      </trkpt>
      <trkpt lat="43.38628" lon="6.64545">
        <ele>81.800003051758</ele>
        <time>2012-10-12T10:03:29Z</time>
      </trkpt>
      <trkpt lat="43.38621" lon="6.6454">
        <ele>80.800003051758</ele>
        <time>2012-10-12T10:03:32Z</time>
      </trkpt>
      <trkpt lat="43.38617" lon="6.64541">
        <ele>80.599998474121</ele>
        <time>2012-10-12T10:03:33Z</time>
      </trkpt>
      <trkpt lat="43.38588" lon="6.64543">
        <ele>78.400001525879</ele>
        <time>2012-10-12T10:03:39Z</time>
      </trkpt>
      <trkpt lat="43.38574" lon="6.64532">
        <ele>77.599998474121</ele>
        <time>2012-10-12T10:03:43Z</time>
      </trkpt>
      <trkpt lat="43.3856" lon="6.64531">
        <ele>77</ele>
        <time>2012-10-12T10:03:47Z</time>
      </trkpt>
      <trkpt lat="43.38546" lon="6.64528">
        <ele>76.400001525879</ele>
        <time>2012-10-12T10:03:50Z</time>
      </trkpt>
      <trkpt lat="43.38521" lon="6.64538">
        <ele>75</ele>
        <time>2012-10-12T10:03:54Z</time>
      </trkpt>
      <trkpt lat="43.38514" lon="6.64546">
        <ele>74.599998474121</ele>
        <time>2012-10-12T10:03:56Z</time>
      </trkpt>
      <trkpt lat="43.38504" lon="6.64552">
        <ele>74</ele>
        <time>2012-10-12T10:04:00Z</time>
      </trkpt>
      <trkpt lat="43.38491" lon="6.64557">
        <ele>75.599998474121</ele>
        <time>2012-10-12T10:04:07Z</time>
      </trkpt>
      <trkpt lat="43.38477" lon="6.64559">
        <ele>78.599998474121</ele>
        <time>2012-10-12T10:04:14Z</time>
      </trkpt>
      <trkpt lat="43.38467" lon="6.6456">
        <ele>80.800003051758</ele>
        <time>2012-10-12T10:04:20Z</time>
      </trkpt>
      <trkpt lat="43.38454" lon="6.64561">
        <ele>83.599998474121</ele>
        <time>2012-10-12T10:04:28Z</time>
      </trkpt>
      <trkpt lat="43.38443" lon="6.64561">
        <ele>86</ele>
        <time>2012-10-12T10:04:36Z</time>
      </trkpt>
      <trkpt lat="43.3843" lon="6.64562">
        <ele>88.800003051758</ele>
        <time>2012-10-12T10:04:45Z</time>
      </trkpt>
      <trkpt lat="43.3842" lon="6.64561">
        <ele>91</ele>
        <time>2012-10-12T10:04:53Z</time>
      </trkpt>
      <trkpt lat="43.38412" lon="6.64561">
        <ele>92.199996948242</ele>
        <time>2012-10-12T10:05:00Z</time>
      </trkpt>
      <trkpt lat="43.38406" lon="6.64561">
        <ele>92.800003051758</ele>
        <time>2012-10-12T10:05:06Z</time>
      </trkpt>
      <trkpt lat="43.38398" lon="6.64561">
        <ele>93.599998474121</ele>
        <time>2012-10-12T10:05:13Z</time>
      </trkpt>
      <trkpt lat="43.38397" lon="6.64561">
        <ele>93.599998474121</ele>
        <time>2012-10-12T10:05:14Z</time>
      </trkpt>
      <trkpt lat="43.38389" lon="6.64561">
        <ele>94.199996948242</ele>
        <time>2012-10-12T10:05:21Z</time>
      </trkpt>
      <trkpt lat="43.38381" lon="6.64564">
        <ele>94.800003051758</ele>
        <time>2012-10-12T10:05:27Z</time>
      </trkpt>
      <trkpt lat="43.38373" lon="6.64568">
        <ele>95.400001525879</ele>
        <time>2012-10-12T10:05:33Z</time>
      </trkpt>
      <trkpt lat="43.38361" lon="6.64575">
        <ele>96.199996948242</ele>
        <time>2012-10-12T10:05:41Z</time>
      </trkpt>
      <trkpt lat="43.38347" lon="6.64581">
        <ele>97</ele>
        <time>2012-10-12T10:05:49Z</time>
      </trkpt>
      <trkpt lat="43.3833" lon="6.64579">
        <ele>98</ele>
        <time>2012-10-12T10:05:54Z</time>
      </trkpt>
      <trkpt lat="43.38306" lon="6.64572">
        <ele>97.400001525879</ele>
        <time>2012-10-12T10:05:59Z</time>
      </trkpt>
      <trkpt lat="43.38301" lon="6.6457">
        <ele>97.400001525879</ele>
        <time>2012-10-12T10:06:00Z</time>
      </trkpt>
      <trkpt lat="43.38273" lon="6.64559">
        <ele>96.800003051758</ele>
        <time>2012-10-12T10:06:05Z</time>
      </trkpt>
      <trkpt lat="43.38229" lon="6.6455">
        <ele>93.599998474121</ele>
        <time>2012-10-12T10:06:13Z</time>
      </trkpt>
      <trkpt lat="43.38209" lon="6.64534">
        <ele>91.800003051758</ele>
        <time>2012-10-12T10:06:18Z</time>
      </trkpt>
      <trkpt lat="43.38206" lon="6.64522">
        <ele>92</ele>
        <time>2012-10-12T10:06:20Z</time>
      </trkpt>
      <trkpt lat="43.38202" lon="6.64488">
        <ele>93</ele>
        <time>2012-10-12T10:06:26Z</time>
      </trkpt>
      <trkpt lat="43.38205" lon="6.64471">
        <ele>94</ele>
        <time>2012-10-12T10:06:29Z</time>
      </trkpt>
      <trkpt lat="43.38204" lon="6.64438">
        <ele>95</ele>
        <time>2012-10-12T10:06:34Z</time>
      </trkpt>
      <trkpt lat="43.38201" lon="6.64419">
        <ele>95</ele>
        <time>2012-10-12T10:06:37Z</time>
      </trkpt>
      <trkpt lat="43.38204" lon="6.64382">
        <ele>96.599998474121</ele>
        <time>2012-10-12T10:06:42Z</time>
      </trkpt>
      <trkpt lat="43.3821" lon="6.64368">
        <ele>97.800003051758</ele>
        <time>2012-10-12T10:06:44Z</time>
      </trkpt>
      <trkpt lat="43.38228" lon="6.64336">
        <ele>100.59999847412</ele>
        <time>2012-10-12T10:06:49Z</time>
      </trkpt>
      <trkpt lat="43.38235" lon="6.64308">
        <ele>102</ele>
        <time>2012-10-12T10:06:54Z</time>
      </trkpt>
      <trkpt lat="43.38234" lon="6.64289">
        <ele>102.40000152588</ele>
        <time>2012-10-12T10:06:57Z</time>
      </trkpt>
      <trkpt lat="43.38239" lon="6.64269">
        <ele>103</ele>
        <time>2012-10-12T10:07:01Z</time>
      </trkpt>
      <trkpt lat="43.38241" lon="6.64266">
        <ele>103</ele>
        <time>2012-10-12T10:07:02Z</time>
      </trkpt>
      <trkpt lat="43.38253" lon="6.64249">
        <ele>103</ele>
        <time>2012-10-12T10:07:10Z</time>
      </trkpt>
      <trkpt lat="43.38264" lon="6.64233">
        <ele>102.59999847412</ele>
        <time>2012-10-12T10:07:17Z</time>
      </trkpt>
      <trkpt lat="43.38268" lon="6.64212">
        <ele>101.59999847412</ele>
        <time>2012-10-12T10:07:23Z</time>
      </trkpt>
      <trkpt lat="43.38259" lon="6.64195">
        <ele>101.19999694824</ele>
        <time>2012-10-12T10:07:27Z</time>
      </trkpt>
      <trkpt lat="43.38239" lon="6.64176">
        <ele>102.80000305176</ele>
        <time>2012-10-12T10:07:31Z</time>
      </trkpt>
      <trkpt lat="43.38228" lon="6.64165">
        <ele>104.80000305176</ele>
        <time>2012-10-12T10:07:33Z</time>
      </trkpt>
      <trkpt lat="43.38219" lon="6.64143">
        <ele>108.19999694824</ele>
        <time>2012-10-12T10:07:36Z</time>
      </trkpt>
      <trkpt lat="43.38231" lon="6.64124">
        <ele>107</ele>
        <time>2012-10-12T10:07:39Z</time>
      </trkpt>
      <trkpt lat="43.38278" lon="6.64074">
        <ele>99.599998474121</ele>
        <time>2012-10-12T10:07:48Z</time>
      </trkpt>
      <trkpt lat="43.38282" lon="6.64069">
        <ele>99.400001525879</ele>
        <time>2012-10-12T10:07:49Z</time>
      </trkpt>
      <trkpt lat="43.38294" lon="6.64049">
        <ele>98.599998474121</ele>
        <time>2012-10-12T10:07:54Z</time>
      </trkpt>
      <trkpt lat="43.38298" lon="6.64042">
        <ele>98.400001525879</ele>
        <time>2012-10-12T10:07:56Z</time>
      </trkpt>
      <trkpt lat="43.38303" lon="6.64024">
        <ele>98.599998474121</ele>
        <time>2012-10-12T10:08:00Z</time>
      </trkpt>
      <trkpt lat="43.38302" lon="6.63988">
        <ele>100.40000152588</ele>
        <time>2012-10-12T10:08:07Z</time>
      </trkpt>
      <trkpt lat="43.38297" lon="6.63945">
        <ele>100.59999847412</ele>
        <time>2012-10-12T10:08:17Z</time>
      </trkpt>
      <trkpt lat="43.38285" lon="6.63915">
        <ele>102.40000152588</ele>
        <time>2012-10-12T10:08:24Z</time>
      </trkpt>
      <trkpt lat="43.38266" lon="6.63896">
        <ele>104</ele>
        <time>2012-10-12T10:08:30Z</time>
      </trkpt>
      <trkpt lat="43.38244" lon="6.63876">
        <ele>105</ele>
        <time>2012-10-12T10:08:36Z</time>
      </trkpt>
      <trkpt lat="43.38237" lon="6.63869">
        <ele>105.40000152588</ele>
        <time>2012-10-12T10:08:38Z</time>
      </trkpt>
      <trkpt lat="43.38227" lon="6.63858">
        <ele>106.19999694824</ele>
        <time>2012-10-12T10:08:42Z</time>
      </trkpt>
      <trkpt lat="43.38207" lon="6.63843">
        <ele>108.59999847412</ele>
        <time>2012-10-12T10:08:50Z</time>
      </trkpt>
      <trkpt lat="43.38196" lon="6.63836">
        <ele>110</ele>
        <time>2012-10-12T10:08:56Z</time>
      </trkpt>
      <trkpt lat="43.38184" lon="6.63824">
        <ele>110.80000305176</ele>
        <time>2012-10-12T10:09:04Z</time>
      </trkpt>
      <trkpt lat="43.38169" lon="6.6382">
        <ele>113.19999694824</ele>
        <time>2012-10-12T10:09:12Z</time>
      </trkpt>
      <trkpt lat="43.38157" lon="6.63815">
        <ele>114.80000305176</ele>
        <time>2012-10-12T10:09:18Z</time>
      </trkpt>
      <trkpt lat="43.3814" lon="6.63806">
        <ele>116.19999694824</ele>
        <time>2012-10-12T10:09:27Z</time>
      </trkpt>
      <trkpt lat="43.38127" lon="6.63801">
        <ele>118</ele>
        <time>2012-10-12T10:09:34Z</time>
      </trkpt>
      <trkpt lat="43.3811" lon="6.63797">
        <ele>120.40000152588</ele>
        <time>2012-10-12T10:09:42Z</time>
      </trkpt>
      <trkpt lat="43.38094" lon="6.63794">
        <ele>123.19999694824</ele>
        <time>2012-10-12T10:09:50Z</time>
      </trkpt>
      <trkpt lat="43.38076" lon="6.63786">
        <ele>124.80000305176</ele>
        <time>2012-10-12T10:09:59Z</time>
      </trkpt>
      <trkpt lat="43.38065" lon="6.63779">
        <ele>125.19999694824</ele>
        <time>2012-10-12T10:10:05Z</time>
      </trkpt>
      <trkpt lat="43.38052" lon="6.63775">
        <ele>126.59999847412</ele>
        <time>2012-10-12T10:10:12Z</time>
      </trkpt>
      <trkpt lat="43.38039" lon="6.63773">
        <ele>128.19999694824</ele>
        <time>2012-10-12T10:10:18Z</time>
      </trkpt>
      <trkpt lat="43.38023" lon="6.63766">
        <ele>129.39999389648</ele>
        <time>2012-10-12T10:10:26Z</time>
      </trkpt>
      <trkpt lat="43.38008" lon="6.63761">
        <ele>131</ele>
        <time>2012-10-12T10:10:34Z</time>
      </trkpt>
      <trkpt lat="43.37993" lon="6.63753">
        <ele>131.19999694824</ele>
        <time>2012-10-12T10:10:42Z</time>
      </trkpt>
      <trkpt lat="43.3799" lon="6.63752">
        <ele>131</ele>
        <time>2012-10-12T10:10:44Z</time>
      </trkpt>
      <trkpt lat="43.37973" lon="6.63753">
        <ele>132.60000610352</ele>
        <time>2012-10-12T10:10:52Z</time>
      </trkpt>
      <trkpt lat="43.3796" lon="6.63755">
        <ele>134</ele>
        <time>2012-10-12T10:10:59Z</time>
      </trkpt>
      <trkpt lat="43.37944" lon="6.63758">
        <ele>136.19999694824</ele>
        <time>2012-10-12T10:11:07Z</time>
      </trkpt>
      <trkpt lat="43.37927" lon="6.63759">
        <ele>137.80000305176</ele>
        <time>2012-10-12T10:11:15Z</time>
      </trkpt>
      <trkpt lat="43.37904" lon="6.63764">
        <ele>141.19999694824</ele>
        <time>2012-10-12T10:11:25Z</time>
      </trkpt>
      <trkpt lat="43.3789" lon="6.63764">
        <ele>142.60000610352</ele>
        <time>2012-10-12T10:11:31Z</time>
      </trkpt>
      <trkpt lat="43.37871" lon="6.63763">
        <ele>144.39999389648</ele>
        <time>2012-10-12T10:11:38Z</time>
      </trkpt>
      <trkpt lat="43.37855" lon="6.63757">
        <ele>144.60000610352</ele>
        <time>2012-10-12T10:11:45Z</time>
      </trkpt>
      <trkpt lat="43.37836" lon="6.63757">
        <ele>146.39999389648</ele>
        <time>2012-10-12T10:11:54Z</time>
      </trkpt>
      <trkpt lat="43.37823" lon="6.63758">
        <ele>148.60000610352</ele>
        <time>2012-10-12T10:12:00Z</time>
      </trkpt>
      <trkpt lat="43.37804" lon="6.63757">
        <ele>151.60000610352</ele>
        <time>2012-10-12T10:12:09Z</time>
      </trkpt>
      <trkpt lat="43.37793" lon="6.6375">
        <ele>151.80000305176</ele>
        <time>2012-10-12T10:12:15Z</time>
      </trkpt>
      <trkpt lat="43.3778" lon="6.63746">
        <ele>153.39999389648</ele>
        <time>2012-10-12T10:12:22Z</time>
      </trkpt>
      <trkpt lat="43.37766" lon="6.63745">
        <ele>155.60000610352</ele>
        <time>2012-10-12T10:12:29Z</time>
      </trkpt>
      <trkpt lat="43.37757" lon="6.63745">
        <ele>157.19999694824</ele>
        <time>2012-10-12T10:12:34Z</time>
      </trkpt>
      <trkpt lat="43.37749" lon="6.63736">
        <ele>157.60000610352</ele>
        <time>2012-10-12T10:12:39Z</time>
      </trkpt>
      <trkpt lat="43.37747" lon="6.63716">
        <ele>156.19999694824</ele>
        <time>2012-10-12T10:12:46Z</time>
      </trkpt>
      <trkpt lat="43.37742" lon="6.63699">
        <ele>155.60000610352</ele>
        <time>2012-10-12T10:12:52Z</time>
      </trkpt>
      <trkpt lat="43.37727" lon="6.63681">
        <ele>157.39999389648</ele>
        <time>2012-10-12T10:12:57Z</time>
      </trkpt>
      <trkpt lat="43.37712" lon="6.63651">
        <ele>158.80000305176</ele>
        <time>2012-10-12T10:13:02Z</time>
      </trkpt>
      <trkpt lat="43.37706" lon="6.6364">
        <ele>160</ele>
        <time>2012-10-12T10:13:04Z</time>
      </trkpt>
      <trkpt lat="43.37701" lon="6.63628">
        <ele>160.80000305176</ele>
        <time>2012-10-12T10:13:06Z</time>
      </trkpt>
      <trkpt lat="43.37706" lon="6.63603">
        <ele>158.39999389648</ele>
        <time>2012-10-12T10:13:10Z</time>
      </trkpt>
      <trkpt lat="43.3772" lon="6.63585">
        <ele>154</ele>
        <time>2012-10-12T10:13:14Z</time>
      </trkpt>
      <trkpt lat="43.37722" lon="6.6356">
        <ele>154.80000305176</ele>
        <time>2012-10-12T10:13:18Z</time>
      </trkpt>
      <trkpt lat="43.37722" lon="6.63554">
        <ele>155.19999694824</ele>
        <time>2012-10-12T10:13:19Z</time>
      </trkpt>
      <trkpt lat="43.37723" lon="6.63541">
        <ele>155.80000305176</ele>
        <time>2012-10-12T10:13:21Z</time>
      </trkpt>
      <trkpt lat="43.37732" lon="6.63505">
        <ele>155.19999694824</ele>
        <time>2012-10-12T10:13:27Z</time>
      </trkpt>
      <trkpt lat="43.37733" lon="6.63499">
        <ele>155</ele>
        <time>2012-10-12T10:13:28Z</time>
      </trkpt>
      <trkpt lat="43.37738" lon="6.63462">
        <ele>154.60000610352</ele>
        <time>2012-10-12T10:13:34Z</time>
      </trkpt>
      <trkpt lat="43.37735" lon="6.63436">
        <ele>156</ele>
        <time>2012-10-12T10:13:40Z</time>
      </trkpt>
      <trkpt lat="43.37733" lon="6.63433">
        <ele>156.60000610352</ele>
        <time>2012-10-12T10:13:41Z</time>
      </trkpt>
      <trkpt lat="43.37721" lon="6.63409">
        <ele>159.19999694824</ele>
        <time>2012-10-12T10:13:49Z</time>
      </trkpt>
      <trkpt lat="43.37715" lon="6.63384">
        <ele>159.39999389648</ele>
        <time>2012-10-12T10:13:56Z</time>
      </trkpt>
      <trkpt lat="43.37711" lon="6.63366">
        <ele>159</ele>
        <time>2012-10-12T10:14:01Z</time>
      </trkpt>
      <trkpt lat="43.37703" lon="6.6336">
        <ele>159.80000305176</ele>
        <time>2012-10-12T10:14:05Z</time>
      </trkpt>
      <trkpt lat="43.37694" lon="6.63359">
        <ele>161</ele>
        <time>2012-10-12T10:14:10Z</time>
      </trkpt>
      <trkpt lat="43.37684" lon="6.63361">
        <ele>162.39999389648</ele>
        <time>2012-10-12T10:14:15Z</time>
      </trkpt>
      <trkpt lat="43.37664" lon="6.63362">
        <ele>165</ele>
        <time>2012-10-12T10:14:24Z</time>
      </trkpt>
      <trkpt lat="43.37646" lon="6.63365">
        <ele>166.39999389648</ele>
        <time>2012-10-12T10:14:31Z</time>
      </trkpt>
      <trkpt lat="43.37644" lon="6.63367">
        <ele>166.60000610352</ele>
        <time>2012-10-12T10:14:32Z</time>
      </trkpt>
      <trkpt lat="43.37644" lon="6.63378">
        <ele>168</ele>
        <time>2012-10-12T10:14:37Z</time>
      </trkpt>
      <trkpt lat="43.37648" lon="6.63382">
        <ele>168.39999389648</ele>
        <time>2012-10-12T10:14:39Z</time>
      </trkpt>
      <trkpt lat="43.37665" lon="6.63402">
        <ele>170.19999694824</ele>
        <time>2012-10-12T10:14:49Z</time>
      </trkpt>
      <trkpt lat="43.37675" lon="6.63421">
        <ele>170.19999694824</ele>
        <time>2012-10-12T10:14:56Z</time>
      </trkpt>
      <trkpt lat="43.37677" lon="6.63441">
        <ele>170.39999389648</ele>
        <time>2012-10-12T10:15:02Z</time>
      </trkpt>
      <trkpt lat="43.37675" lon="6.63471">
        <ele>171.60000610352</ele>
        <time>2012-10-12T10:15:11Z</time>
      </trkpt>
      <trkpt lat="43.3767" lon="6.63498">
        <ele>173.80000305176</ele>
        <time>2012-10-12T10:15:18Z</time>
      </trkpt>
      <trkpt lat="43.37658" lon="6.63526">
        <ele>174.39999389648</ele>
        <time>2012-10-12T10:15:24Z</time>
      </trkpt>
      <trkpt lat="43.3764" lon="6.63559">
        <ele>176.39999389648</ele>
        <time>2012-10-12T10:15:32Z</time>
      </trkpt>
      <trkpt lat="43.37627" lon="6.6358">
        <ele>179</ele>
        <time>2012-10-12T10:15:38Z</time>
      </trkpt>
      <trkpt lat="43.3761" lon="6.63596">
        <ele>184.39999389648</ele>
        <time>2012-10-12T10:15:44Z</time>
      </trkpt>
      <trkpt lat="43.37605" lon="6.63612">
        <ele>187</ele>
        <time>2012-10-12T10:15:48Z</time>
      </trkpt>
      <trkpt lat="43.37604" lon="6.63629">
        <ele>188.19999694824</ele>
        <time>2012-10-12T10:15:54Z</time>
      </trkpt>
      <trkpt lat="43.37605" lon="6.63644">
        <ele>188.80000305176</ele>
        <time>2012-10-12T10:16:01Z</time>
      </trkpt>
      <trkpt lat="43.3761" lon="6.63662">
        <ele>188.60000610352</ele>
        <time>2012-10-12T10:16:08Z</time>
      </trkpt>
      <trkpt lat="43.37617" lon="6.63682">
        <ele>188.60000610352</ele>
        <time>2012-10-12T10:16:15Z</time>
      </trkpt>
      <trkpt lat="43.37626" lon="6.637">
        <ele>188</ele>
        <time>2012-10-12T10:16:22Z</time>
      </trkpt>
      <trkpt lat="43.37631" lon="6.63716">
        <ele>188.39999389648</ele>
        <time>2012-10-12T10:16:29Z</time>
      </trkpt>
      <trkpt lat="43.37631" lon="6.63734">
        <ele>191</ele>
        <time>2012-10-12T10:16:37Z</time>
      </trkpt>
      <trkpt lat="43.37624" lon="6.63746">
        <ele>194.60000610352</ele>
        <time>2012-10-12T10:16:43Z</time>
      </trkpt>
      <trkpt lat="43.37622" lon="6.63761">
        <ele>197.80000305176</ele>
        <time>2012-10-12T10:16:49Z</time>
      </trkpt>
      <trkpt lat="43.37627" lon="6.63776">
        <ele>198.80000305176</ele>
        <time>2012-10-12T10:16:56Z</time>
      </trkpt>
      <trkpt lat="43.37633" lon="6.63789">
        <ele>199.39999389648</ele>
        <time>2012-10-12T10:17:03Z</time>
      </trkpt>
      <trkpt lat="43.3764" lon="6.63803">
        <ele>200</ele>
        <time>2012-10-12T10:17:10Z</time>
      </trkpt>
      <trkpt lat="43.37646" lon="6.63816">
        <ele>200.80000305176</ele>
        <time>2012-10-12T10:17:17Z</time>
      </trkpt>
      <trkpt lat="43.37654" lon="6.6383">
        <ele>201.39999389648</ele>
        <time>2012-10-12T10:17:25Z</time>
      </trkpt>
      <trkpt lat="43.37662" lon="6.63846">
        <ele>201.80000305176</ele>
        <time>2012-10-12T10:17:32Z</time>
      </trkpt>
      <trkpt lat="43.37667" lon="6.63866">
        <ele>203.19999694824</ele>
        <time>2012-10-12T10:17:41Z</time>
      </trkpt>
      <trkpt lat="43.37671" lon="6.63884">
        <ele>205</ele>
        <time>2012-10-12T10:17:49Z</time>
      </trkpt>
      <trkpt lat="43.37674" lon="6.63901">
        <ele>206.60000610352</ele>
        <time>2012-10-12T10:17:57Z</time>
      </trkpt>
      <trkpt lat="43.37679" lon="6.63919">
        <ele>207.80000305176</ele>
        <time>2012-10-12T10:18:05Z</time>
      </trkpt>
      <trkpt lat="43.37678" lon="6.63936">
        <ele>205.80000305176</ele>
        <time>2012-10-12T10:18:11Z</time>
      </trkpt>
      <trkpt lat="43.37668" lon="6.63944">
        <ele>206.19999694824</ele>
        <time>2012-10-12T10:18:16Z</time>
      </trkpt>
      <trkpt lat="43.37651" lon="6.63955">
        <ele>206.19999694824</ele>
        <time>2012-10-12T10:18:21Z</time>
      </trkpt>
      <trkpt lat="43.37633" lon="6.63977">
        <ele>204.39999389648</ele>
        <time>2012-10-12T10:18:25Z</time>
      </trkpt>
      <trkpt lat="43.37611" lon="6.63998">
        <ele>202.60000610352</ele>
        <time>2012-10-12T10:18:29Z</time>
      </trkpt>
      <trkpt lat="43.37608" lon="6.64005">
        <ele>201.60000610352</ele>
        <time>2012-10-12T10:18:30Z</time>
      </trkpt>
      <trkpt lat="43.37598" lon="6.64024">
        <ele>198.80000305176</ele>
        <time>2012-10-12T10:18:33Z</time>
      </trkpt>
      <trkpt lat="43.37596" lon="6.64042">
        <ele>195.39999389648</ele>
        <time>2012-10-12T10:18:37Z</time>
      </trkpt>
      <trkpt lat="43.37612" lon="6.64044">
        <ele>193.80000305176</ele>
        <time>2012-10-12T10:18:39Z</time>
      </trkpt>
      <trkpt lat="43.3764" lon="6.64043">
        <ele>191.80000305176</ele>
        <time>2012-10-12T10:18:42Z</time>
      </trkpt>
      <trkpt lat="43.37658" lon="6.64042">
        <ele>190.39999389648</ele>
        <time>2012-10-12T10:18:44Z</time>
      </trkpt>
      <trkpt lat="43.37682" lon="6.64061">
        <ele>184</ele>
        <time>2012-10-12T10:18:48Z</time>
      </trkpt>
      <trkpt lat="43.37676" lon="6.64065">
        <ele>184</ele>
        <time>2012-10-12T10:18:50Z</time>
      </trkpt>
      <trkpt lat="43.37672" lon="6.64068">
        <ele>183.60000610352</ele>
        <time>2012-10-12T10:18:51Z</time>
      </trkpt>
      <trkpt lat="43.37655" lon="6.64085">
        <ele>181.60000610352</ele>
        <time>2012-10-12T10:18:54Z</time>
      </trkpt>
      <trkpt lat="43.37636" lon="6.64099">
        <ele>180</ele>
        <time>2012-10-12T10:18:57Z</time>
      </trkpt>
      <trkpt lat="43.37638" lon="6.64113">
        <ele>176.19999694824</ele>
        <time>2012-10-12T10:19:01Z</time>
      </trkpt>
      <trkpt lat="43.37665" lon="6.64118">
        <ele>171.19999694824</ele>
        <time>2012-10-12T10:19:05Z</time>
      </trkpt>
      <trkpt lat="43.37688" lon="6.6411">
        <ele>170.19999694824</ele>
        <time>2012-10-12T10:19:08Z</time>
      </trkpt>
      <trkpt lat="43.37724" lon="6.64103">
        <ele>166.80000305176</ele>
        <time>2012-10-12T10:19:13Z</time>
      </trkpt>
      <trkpt lat="43.37737" lon="6.64101">
        <ele>165.60000610352</ele>
        <time>2012-10-12T10:19:15Z</time>
      </trkpt>
      <trkpt lat="43.37765" lon="6.64091">
        <ele>165.19999694824</ele>
        <time>2012-10-12T10:19:19Z</time>
      </trkpt>
      <trkpt lat="43.37779" lon="6.64092">
        <ele>163</ele>
        <time>2012-10-12T10:19:21Z</time>
      </trkpt>
      <trkpt lat="43.37808" lon="6.64088">
        <ele>160.19999694824</ele>
        <time>2012-10-12T10:19:25Z</time>
      </trkpt>
      <trkpt lat="43.37825" lon="6.64086">
        <ele>158.39999389648</ele>
        <time>2012-10-12T10:19:27Z</time>
      </trkpt>
      <trkpt lat="43.37854" lon="6.64075">
        <ele>159</ele>
        <time>2012-10-12T10:19:31Z</time>
      </trkpt>
      <trkpt lat="43.37881" lon="6.64077">
        <ele>156.39999389648</ele>
        <time>2012-10-12T10:19:35Z</time>
      </trkpt>
      <trkpt lat="43.37887" lon="6.64079">
        <ele>155.39999389648</ele>
        <time>2012-10-12T10:19:36Z</time>
      </trkpt>
      <trkpt lat="43.37907" lon="6.64083">
        <ele>152.60000610352</ele>
        <time>2012-10-12T10:19:39Z</time>
      </trkpt>
      <trkpt lat="43.37928" lon="6.64092">
        <ele>149.80000305176</ele>
        <time>2012-10-12T10:19:42Z</time>
      </trkpt>
      <trkpt lat="43.37957" lon="6.64102">
        <ele>147.80000305176</ele>
        <time>2012-10-12T10:19:47Z</time>
      </trkpt>
      <trkpt lat="43.37964" lon="6.64106">
        <ele>146.80000305176</ele>
        <time>2012-10-12T10:19:48Z</time>
      </trkpt>
      <trkpt lat="43.38011" lon="6.6414">
        <ele>137.39999389648</ele>
        <time>2012-10-12T10:19:55Z</time>
      </trkpt>
      <trkpt lat="43.38051" lon="6.64175">
        <ele>129.39999389648</ele>
        <time>2012-10-12T10:20:01Z</time>
      </trkpt>
      <trkpt lat="43.38061" lon="6.642">
        <ele>125.80000305176</ele>
        <time>2012-10-12T10:20:05Z</time>
      </trkpt>
      <trkpt lat="43.38065" lon="6.6422">
        <ele>122.40000152588</ele>
        <time>2012-10-12T10:20:08Z</time>
      </trkpt>
      <trkpt lat="43.38066" lon="6.64243">
        <ele>118.59999847412</ele>
        <time>2012-10-12T10:20:12Z</time>
      </trkpt>
      <trkpt lat="43.38065" lon="6.6426">
        <ele>115.19999694824</ele>
        <time>2012-10-12T10:20:16Z</time>
      </trkpt>
      <trkpt lat="43.3807" lon="6.64272">
        <ele>113.40000152588</ele>
        <time>2012-10-12T10:20:20Z</time>
      </trkpt>
      <trkpt lat="43.38078" lon="6.64279">
        <ele>112.40000152588</ele>
        <time>2012-10-12T10:20:24Z</time>
      </trkpt>
      <trkpt lat="43.38085" lon="6.64281">
        <ele>112</ele>
        <time>2012-10-12T10:20:27Z</time>
      </trkpt>
      <trkpt lat="43.38101" lon="6.64279">
        <ele>110.40000152588</ele>
        <time>2012-10-12T10:20:33Z</time>
      </trkpt>
      <trkpt lat="43.38111" lon="6.6427">
        <ele>110.80000305176</ele>
        <time>2012-10-12T10:20:37Z</time>
      </trkpt>
      <trkpt lat="43.38123" lon="6.64265">
        <ele>110.19999694824</ele>
        <time>2012-10-12T10:20:41Z</time>
      </trkpt>
      <trkpt lat="43.38141" lon="6.64266">
        <ele>107.19999694824</ele>
        <time>2012-10-12T10:20:45Z</time>
      </trkpt>
      <trkpt lat="43.38151" lon="6.64262">
        <ele>106.59999847412</ele>
        <time>2012-10-12T10:20:47Z</time>
      </trkpt>
      <trkpt lat="43.38172" lon="6.64247">
        <ele>106.19999694824</ele>
        <time>2012-10-12T10:20:52Z</time>
      </trkpt>
      <trkpt lat="43.38188" lon="6.64234">
        <ele>106.40000152588</ele>
        <time>2012-10-12T10:20:57Z</time>
      </trkpt>
      <trkpt lat="43.38212" lon="6.64226">
        <ele>105.19999694824</ele>
        <time>2012-10-12T10:21:02Z</time>
      </trkpt>
      <trkpt lat="43.38221" lon="6.64237">
        <ele>104.40000152588</ele>
        <time>2012-10-12T10:21:04Z</time>
      </trkpt>
      <trkpt lat="43.38223" lon="6.64259">
        <ele>103.59999847412</ele>
        <time>2012-10-12T10:21:07Z</time>
      </trkpt>
      <trkpt lat="43.38226" lon="6.64285">
        <ele>102.40000152588</ele>
        <time>2012-10-12T10:21:11Z</time>
      </trkpt>
      <trkpt lat="43.38224" lon="6.64304">
        <ele>101.59999847412</ele>
        <time>2012-10-12T10:21:14Z</time>
      </trkpt>
      <trkpt lat="43.38213" lon="6.64324">
        <ele>99.599998474121</ele>
        <time>2012-10-12T10:21:18Z</time>
      </trkpt>
      <trkpt lat="43.38207" lon="6.64328">
        <ele>98.800003051758</ele>
        <time>2012-10-12T10:21:19Z</time>
      </trkpt>
      <trkpt lat="43.38179" lon="6.64346">
        <ele>94.599998474121</ele>
        <time>2012-10-12T10:21:23Z</time>
      </trkpt>
      <trkpt lat="43.38154" lon="6.64378">
        <ele>91.599998474121</ele>
        <time>2012-10-12T10:21:27Z</time>
      </trkpt>
      <trkpt lat="43.38138" lon="6.6441">
        <ele>88.599998474121</ele>
        <time>2012-10-12T10:21:30Z</time>
      </trkpt>
      <trkpt lat="43.38113" lon="6.64438">
        <ele>86</ele>
        <time>2012-10-12T10:21:34Z</time>
      </trkpt>
      <trkpt lat="43.38092" lon="6.64429">
        <ele>85.599998474121</ele>
        <time>2012-10-12T10:21:37Z</time>
      </trkpt>
      <trkpt lat="43.38069" lon="6.64419">
        <ele>86.199996948242</ele>
        <time>2012-10-12T10:21:40Z</time>
      </trkpt>
      <trkpt lat="43.38047" lon="6.64428">
        <ele>86.199996948242</ele>
        <time>2012-10-12T10:21:43Z</time>
      </trkpt>
      <trkpt lat="43.3802" lon="6.64451">
        <ele>86</ele>
        <time>2012-10-12T10:21:47Z</time>
      </trkpt>
      <trkpt lat="43.38004" lon="6.64451">
        <ele>86.599998474121</ele>
        <time>2012-10-12T10:21:49Z</time>
      </trkpt>
      <trkpt lat="43.37965" lon="6.64444">
        <ele>86.800003051758</ele>
        <time>2012-10-12T10:21:54Z</time>
      </trkpt>
      <trkpt lat="43.37956" lon="6.64442">
        <ele>86.599998474121</ele>
        <time>2012-10-12T10:21:55Z</time>
      </trkpt>
      <trkpt lat="43.37924" lon="6.64445">
        <ele>86.400001525879</ele>
        <time>2012-10-12T10:21:59Z</time>
      </trkpt>
      <trkpt lat="43.3788" lon="6.64452">
        <ele>88.400001525879</ele>
        <time>2012-10-12T10:22:05Z</time>
      </trkpt>
      <trkpt lat="43.37857" lon="6.64464">
        <ele>89.400001525879</ele>
        <time>2012-10-12T10:22:09Z</time>
      </trkpt>
      <trkpt lat="43.37826" lon="6.64487">
        <ele>89.800003051758</ele>
        <time>2012-10-12T10:22:15Z</time>
      </trkpt>
      <trkpt lat="43.37802" lon="6.64504">
        <ele>90.800003051758</ele>
        <time>2012-10-12T10:22:20Z</time>
      </trkpt>
      <trkpt lat="43.37775" lon="6.64515">
        <ele>92</ele>
        <time>2012-10-12T10:22:26Z</time>
      </trkpt>
      <trkpt lat="43.37758" lon="6.6453">
        <ele>92.400001525879</ele>
        <time>2012-10-12T10:22:31Z</time>
      </trkpt>
      <trkpt lat="43.37755" lon="6.64539">
        <ele>92.199996948242</ele>
        <time>2012-10-12T10:22:34Z</time>
      </trkpt>
      <trkpt lat="43.3775" lon="6.64556">
        <ele>91.599998474121</ele>
        <time>2012-10-12T10:22:42Z</time>
      </trkpt>
      <trkpt lat="43.37742" lon="6.64568">
        <ele>91.800003051758</ele>
        <time>2012-10-12T10:22:48Z</time>
      </trkpt>
      <trkpt lat="43.37732" lon="6.64579">
        <ele>91.800003051758</ele>
        <time>2012-10-12T10:22:54Z</time>
      </trkpt>
      <trkpt lat="43.37719" lon="6.64587">
        <ele>92.400001525879</ele>
        <time>2012-10-12T10:22:59Z</time>
      </trkpt>
      <trkpt lat="43.37697" lon="6.64595">
        <ele>93.599998474121</ele>
        <time>2012-10-12T10:23:05Z</time>
      </trkpt>
      <trkpt lat="43.37675" lon="6.64597">
        <ele>94.199996948242</ele>
        <time>2012-10-12T10:23:11Z</time>
      </trkpt>
      <trkpt lat="43.37661" lon="6.6459">
        <ele>94.400001525879</ele>
        <time>2012-10-12T10:23:16Z</time>
      </trkpt>
      <trkpt lat="43.37646" lon="6.64579">
        <ele>95.400001525879</ele>
        <time>2012-10-12T10:23:22Z</time>
      </trkpt>
      <trkpt lat="43.37624" lon="6.64574">
        <ele>97</ele>
        <time>2012-10-12T10:23:27Z</time>
      </trkpt>
      <trkpt lat="43.37593" lon="6.64582">
        <ele>96.800003051758</ele>
        <time>2012-10-12T10:23:33Z</time>
      </trkpt>
      <trkpt lat="43.37575" lon="6.64589">
        <ele>98</ele>
        <time>2012-10-12T10:23:36Z</time>
      </trkpt>
      <trkpt lat="43.37557" lon="6.64602">
        <ele>99.599998474121</ele>
        <time>2012-10-12T10:23:39Z</time>
      </trkpt>
      <trkpt lat="43.37546" lon="6.64611">
        <ele>100.19999694824</ele>
        <time>2012-10-12T10:23:41Z</time>
      </trkpt>
      <trkpt lat="43.37494" lon="6.64656">
        <ele>99.599998474121</ele>
        <time>2012-10-12T10:23:51Z</time>
      </trkpt>
      <trkpt lat="43.37483" lon="6.64666">
        <ele>99.800003051758</ele>
        <time>2012-10-12T10:23:54Z</time>
      </trkpt>
      <trkpt lat="43.37464" lon="6.64677">
        <ele>102.80000305176</ele>
        <time>2012-10-12T10:23:59Z</time>
      </trkpt>
      <trkpt lat="43.37442" lon="6.64697">
        <ele>105</ele>
        <time>2012-10-12T10:24:05Z</time>
      </trkpt>
      <trkpt lat="43.37409" lon="6.64723">
        <ele>104.80000305176</ele>
        <time>2012-10-12T10:24:14Z</time>
      </trkpt>
      <trkpt lat="43.37384" lon="6.64746">
        <ele>102.80000305176</ele>
        <time>2012-10-12T10:24:21Z</time>
      </trkpt>
      <trkpt lat="43.37372" lon="6.64757">
        <ele>103.40000152588</ele>
        <time>2012-10-12T10:24:24Z</time>
      </trkpt>
      <trkpt lat="43.37353" lon="6.64764">
        <ele>104.19999694824</ele>
        <time>2012-10-12T10:24:28Z</time>
      </trkpt>
      <trkpt lat="43.37343" lon="6.64765">
        <ele>104.40000152588</ele>
        <time>2012-10-12T10:24:30Z</time>
      </trkpt>
      <trkpt lat="43.37323" lon="6.64766">
        <ele>105.19999694824</ele>
        <time>2012-10-12T10:24:34Z</time>
      </trkpt>
      <trkpt lat="43.37314" lon="6.64767">
        <ele>105.80000305176</ele>
        <time>2012-10-12T10:24:36Z</time>
      </trkpt>
      <trkpt lat="43.3729" lon="6.64768">
        <ele>106.80000305176</ele>
        <time>2012-10-12T10:24:41Z</time>
      </trkpt>
      <trkpt lat="43.37286" lon="6.64769">
        <ele>107.19999694824</ele>
        <time>2012-10-12T10:24:42Z</time>
      </trkpt>
      <trkpt lat="43.3727" lon="6.64761">
        <ele>106.59999847412</ele>
        <time>2012-10-12T10:24:46Z</time>
      </trkpt>
      <trkpt lat="43.37267" lon="6.64757">
        <ele>106.40000152588</ele>
        <time>2012-10-12T10:24:47Z</time>
      </trkpt>
      <trkpt lat="43.3725" lon="6.64734">
        <ele>106</ele>
        <time>2012-10-12T10:24:53Z</time>
      </trkpt>
      <trkpt lat="43.37238" lon="6.64717">
        <ele>106.40000152588</ele>
        <time>2012-10-12T10:24:57Z</time>
      </trkpt>
      <trkpt lat="43.37233" lon="6.64707">
        <ele>106.59999847412</ele>
        <time>2012-10-12T10:24:59Z</time>
      </trkpt>
      <trkpt lat="43.37214" lon="6.64694">
        <ele>107.59999847412</ele>
        <time>2012-10-12T10:25:04Z</time>
      </trkpt>
      <trkpt lat="43.37198" lon="6.64699">
        <ele>108.19999694824</ele>
        <time>2012-10-12T10:25:08Z</time>
      </trkpt>
      <trkpt lat="43.37178" lon="6.64704">
        <ele>108.80000305176</ele>
        <time>2012-10-12T10:25:13Z</time>
      </trkpt>
      <trkpt lat="43.37163" lon="6.64715">
        <ele>108.80000305176</ele>
        <time>2012-10-12T10:25:18Z</time>
      </trkpt>
      <trkpt lat="43.37128" lon="6.64728">
        <ele>109</ele>
        <time>2012-10-12T10:25:26Z</time>
      </trkpt>
      <trkpt lat="43.37101" lon="6.64741">
        <ele>107.59999847412</ele>
        <time>2012-10-12T10:25:32Z</time>
      </trkpt>
      <trkpt lat="43.37066" lon="6.64763">
        <ele>108</ele>
        <time>2012-10-12T10:25:40Z</time>
      </trkpt>
      <trkpt lat="43.37052" lon="6.6477">
        <ele>109</ele>
        <time>2012-10-12T10:25:43Z</time>
      </trkpt>
      <trkpt lat="43.37033" lon="6.64774">
        <ele>109.80000305176</ele>
        <time>2012-10-12T10:25:47Z</time>
      </trkpt>
      <trkpt lat="43.37009" lon="6.64772">
        <ele>110.40000152588</ele>
        <time>2012-10-12T10:25:52Z</time>
      </trkpt>
      <trkpt lat="43.36984" lon="6.64761">
        <ele>110.19999694824</ele>
        <time>2012-10-12T10:25:57Z</time>
      </trkpt>
      <trkpt lat="43.36965" lon="6.64758">
        <ele>110.40000152588</ele>
        <time>2012-10-12T10:26:01Z</time>
      </trkpt>
      <trkpt lat="43.3694" lon="6.64761">
        <ele>111</ele>
        <time>2012-10-12T10:26:07Z</time>
      </trkpt>
      <trkpt lat="43.36924" lon="6.64764">
        <ele>111.59999847412</ele>
        <time>2012-10-12T10:26:11Z</time>
      </trkpt>
      <trkpt lat="43.36911" lon="6.64772">
        <ele>112.59999847412</ele>
        <time>2012-10-12T10:26:14Z</time>
      </trkpt>
      <trkpt lat="43.36901" lon="6.64779">
        <ele>114</ele>
        <time>2012-10-12T10:26:17Z</time>
      </trkpt>
      <trkpt lat="43.36886" lon="6.64787">
        <ele>115.59999847412</ele>
        <time>2012-10-12T10:26:22Z</time>
      </trkpt>
      <trkpt lat="43.36884" lon="6.64791">
        <ele>115.80000305176</ele>
        <time>2012-10-12T10:26:23Z</time>
      </trkpt>
      <trkpt lat="43.36872" lon="6.64818">
        <ele>116.40000152588</ele>
        <time>2012-10-12T10:26:29Z</time>
      </trkpt>
      <trkpt lat="43.36871" lon="6.64835">
        <ele>116.19999694824</ele>
        <time>2012-10-12T10:26:34Z</time>
      </trkpt>
      <trkpt lat="43.36868" lon="6.64844">
        <ele>117.59999847412</ele>
        <time>2012-10-12T10:26:38Z</time>
      </trkpt>
      <trkpt lat="43.36861" lon="6.64858">
        <ele>119.80000305176</ele>
        <time>2012-10-12T10:26:44Z</time>
      </trkpt>
      <trkpt lat="43.36849" lon="6.64861">
        <ele>120.59999847412</ele>
        <time>2012-10-12T10:26:48Z</time>
      </trkpt>
      <trkpt lat="43.36825" lon="6.64866">
        <ele>122</ele>
        <time>2012-10-12T10:26:54Z</time>
      </trkpt>
      <trkpt lat="43.36801" lon="6.64874">
        <ele>123.80000305176</ele>
        <time>2012-10-12T10:27:00Z</time>
      </trkpt>
      <trkpt lat="43.36797" lon="6.64874">
        <ele>124</ele>
        <time>2012-10-12T10:27:01Z</time>
      </trkpt>
      <trkpt lat="43.3677" lon="6.64879">
        <ele>125</ele>
        <time>2012-10-12T10:27:08Z</time>
      </trkpt>
      <trkpt lat="43.36739" lon="6.64879">
        <ele>125.40000152588</ele>
        <time>2012-10-12T10:27:15Z</time>
      </trkpt>
      <trkpt lat="43.3671" lon="6.64886">
        <ele>125</ele>
        <time>2012-10-12T10:27:22Z</time>
      </trkpt>
      <trkpt lat="43.36695" lon="6.64893">
        <ele>124.59999847412</ele>
        <time>2012-10-12T10:27:27Z</time>
      </trkpt>
      <trkpt lat="43.36676" lon="6.64902">
        <ele>124</ele>
        <time>2012-10-12T10:27:33Z</time>
      </trkpt>
      <trkpt lat="43.36645" lon="6.64918">
        <ele>123.19999694824</ele>
        <time>2012-10-12T10:27:42Z</time>
      </trkpt>
      <trkpt lat="43.36617" lon="6.64934">
        <ele>124.59999847412</ele>
        <time>2012-10-12T10:27:49Z</time>
      </trkpt>
      <trkpt lat="43.36589" lon="6.64952">
        <ele>125</ele>
        <time>2012-10-12T10:27:56Z</time>
      </trkpt>
      <trkpt lat="43.3658" lon="6.64962">
        <ele>125.19999694824</ele>
        <time>2012-10-12T10:28:01Z</time>
      </trkpt>
      <trkpt lat="43.36573" lon="6.64969">
        <ele>126</ele>
        <time>2012-10-12T10:28:08Z</time>
      </trkpt>
      <trkpt lat="43.36568" lon="6.64977">
        <ele>126.59999847412</ele>
        <time>2012-10-12T10:28:14Z</time>
      </trkpt>
      <trkpt lat="43.36565" lon="6.64995">
        <ele>127.80000305176</ele>
        <time>2012-10-12T10:28:20Z</time>
      </trkpt>
      <trkpt lat="43.36564" lon="6.65026">
        <ele>129.39999389648</ele>
        <time>2012-10-12T10:28:26Z</time>
      </trkpt>
      <trkpt lat="43.36568" lon="6.65054">
        <ele>130.60000610352</ele>
        <time>2012-10-12T10:28:30Z</time>
      </trkpt>
      <trkpt lat="43.36571" lon="6.65091">
        <ele>132</ele>
        <time>2012-10-12T10:28:35Z</time>
      </trkpt>
      <trkpt lat="43.36577" lon="6.65114">
        <ele>131.80000305176</ele>
        <time>2012-10-12T10:28:39Z</time>
      </trkpt>
      <trkpt lat="43.3658" lon="6.6512">
        <ele>131.80000305176</ele>
        <time>2012-10-12T10:28:41Z</time>
      </trkpt>
      <trkpt lat="43.36582" lon="6.65138">
        <ele>131.80000305176</ele>
        <time>2012-10-12T10:28:45Z</time>
      </trkpt>
      <trkpt lat="43.36586" lon="6.65164">
        <ele>133</ele>
        <time>2012-10-12T10:28:50Z</time>
      </trkpt>
      <trkpt lat="43.36587" lon="6.65186">
        <ele>133.19999694824</ele>
        <time>2012-10-12T10:28:55Z</time>
      </trkpt>
      <trkpt lat="43.36588" lon="6.65207">
        <ele>134</ele>
        <time>2012-10-12T10:28:59Z</time>
      </trkpt>
      <trkpt lat="43.36584" lon="6.65255">
        <ele>133.60000610352</ele>
        <time>2012-10-12T10:29:07Z</time>
      </trkpt>
      <trkpt lat="43.36583" lon="6.65272">
        <ele>134</ele>
        <time>2012-10-12T10:29:10Z</time>
      </trkpt>
      <trkpt lat="43.36587" lon="6.65306">
        <ele>136.60000610352</ele>
        <time>2012-10-12T10:29:17Z</time>
      </trkpt>
      <trkpt lat="43.36595" lon="6.6534">
        <ele>140.19999694824</ele>
        <time>2012-10-12T10:29:24Z</time>
      </trkpt>
      <trkpt lat="43.36595" lon="6.65382">
        <ele>141.39999389648</ele>
        <time>2012-10-12T10:29:31Z</time>
      </trkpt>
      <trkpt lat="43.36595" lon="6.65387">
        <ele>141.60000610352</ele>
        <time>2012-10-12T10:29:32Z</time>
      </trkpt>
      <trkpt lat="43.36596" lon="6.65419">
        <ele>142.60000610352</ele>
        <time>2012-10-12T10:29:38Z</time>
      </trkpt>
      <trkpt lat="43.36597" lon="6.65453">
        <ele>145</ele>
        <time>2012-10-12T10:29:43Z</time>
      </trkpt>
      <trkpt lat="43.36603" lon="6.65478">
        <ele>147</ele>
        <time>2012-10-12T10:29:48Z</time>
      </trkpt>
      <trkpt lat="43.36611" lon="6.65501">
        <ele>148.39999389648</ele>
        <time>2012-10-12T10:29:55Z</time>
      </trkpt>
      <trkpt lat="43.36615" lon="6.65518">
        <ele>148.39999389648</ele>
        <time>2012-10-12T10:30:01Z</time>
      </trkpt>
      <trkpt lat="43.36613" lon="6.65541">
        <ele>148.60000610352</ele>
        <time>2012-10-12T10:30:08Z</time>
      </trkpt>
      <trkpt lat="43.36609" lon="6.65564">
        <ele>148.80000305176</ele>
        <time>2012-10-12T10:30:13Z</time>
      </trkpt>
      <trkpt lat="43.36612" lon="6.65595">
        <ele>149</ele>
        <time>2012-10-12T10:30:19Z</time>
      </trkpt>
      <trkpt lat="43.36616" lon="6.65606">
        <ele>149</ele>
        <time>2012-10-12T10:30:23Z</time>
      </trkpt>
      <trkpt lat="43.36624" lon="6.65619">
        <ele>149</ele>
        <time>2012-10-12T10:30:29Z</time>
      </trkpt>
      <trkpt lat="43.36631" lon="6.65638">
        <ele>149.19999694824</ele>
        <time>2012-10-12T10:30:36Z</time>
      </trkpt>
      <trkpt lat="43.36637" lon="6.65656">
        <ele>149.39999389648</ele>
        <time>2012-10-12T10:30:42Z</time>
      </trkpt>
      <trkpt lat="43.36643" lon="6.65672">
        <ele>150</ele>
        <time>2012-10-12T10:30:47Z</time>
      </trkpt>
      <trkpt lat="43.36655" lon="6.65697">
        <ele>150.80000305176</ele>
        <time>2012-10-12T10:30:54Z</time>
      </trkpt>
      <trkpt lat="43.36668" lon="6.65726">
        <ele>151</ele>
        <time>2012-10-12T10:31:01Z</time>
      </trkpt>
      <trkpt lat="43.3668" lon="6.65752">
        <ele>154</ele>
        <time>2012-10-12T10:31:09Z</time>
      </trkpt>
      <trkpt lat="43.36679" lon="6.65776">
        <ele>154.19999694824</ele>
        <time>2012-10-12T10:31:16Z</time>
      </trkpt>
      <trkpt lat="43.36671" lon="6.65795">
        <ele>153.39999389648</ele>
        <time>2012-10-12T10:31:22Z</time>
      </trkpt>
      <trkpt lat="43.36662" lon="6.65811">
        <ele>154.19999694824</ele>
        <time>2012-10-12T10:31:28Z</time>
      </trkpt>
      <trkpt lat="43.36652" lon="6.65834">
        <ele>157</ele>
        <time>2012-10-12T10:31:36Z</time>
      </trkpt>
      <trkpt lat="43.36649" lon="6.6586">
        <ele>159.80000305176</ele>
        <time>2012-10-12T10:31:43Z</time>
      </trkpt>
      <trkpt lat="43.36655" lon="6.65872">
        <ele>159.60000610352</ele>
        <time>2012-10-12T10:31:47Z</time>
      </trkpt>
      <trkpt lat="43.36661" lon="6.65874">
        <ele>158.39999389648</ele>
        <time>2012-10-12T10:31:50Z</time>
      </trkpt>
      <trkpt lat="43.36669" lon="6.65872">
        <ele>157.39999389648</ele>
        <time>2012-10-12T10:31:54Z</time>
      </trkpt>
      <trkpt lat="43.36686" lon="6.65862">
        <ele>158</ele>
        <time>2012-10-12T10:32:02Z</time>
      </trkpt>
      <trkpt lat="43.36698" lon="6.65854">
        <ele>158.39999389648</ele>
        <time>2012-10-12T10:32:08Z</time>
      </trkpt>
      <trkpt lat="43.36702" lon="6.65855">
        <ele>158.80000305176</ele>
        <time>2012-10-12T10:32:10Z</time>
      </trkpt>
      <trkpt lat="43.36712" lon="6.6587">
        <ele>160.39999389648</ele>
        <time>2012-10-12T10:32:17Z</time>
      </trkpt>
      <trkpt lat="43.36719" lon="6.65888">
        <ele>162</ele>
        <time>2012-10-12T10:32:24Z</time>
      </trkpt>
      <trkpt lat="43.36726" lon="6.65906">
        <ele>163.39999389648</ele>
        <time>2012-10-12T10:32:32Z</time>
      </trkpt>
      <trkpt lat="43.36731" lon="6.65923">
        <ele>164.80000305176</ele>
        <time>2012-10-12T10:32:39Z</time>
      </trkpt>
      <trkpt lat="43.36735" lon="6.65936">
        <ele>166.19999694824</ele>
        <time>2012-10-12T10:32:45Z</time>
      </trkpt>
      <trkpt lat="43.36737" lon="6.65948">
        <ele>167.39999389648</ele>
        <time>2012-10-12T10:32:51Z</time>
      </trkpt>
      <trkpt lat="43.3674" lon="6.6596">
        <ele>168.80000305176</ele>
        <time>2012-10-12T10:32:57Z</time>
      </trkpt>
      <trkpt lat="43.36744" lon="6.65975">
        <ele>170.39999389648</ele>
        <time>2012-10-12T10:33:04Z</time>
      </trkpt>
      <trkpt lat="43.36747" lon="6.65994">
        <ele>172.39999389648</ele>
        <time>2012-10-12T10:33:11Z</time>
      </trkpt>
      <trkpt lat="43.3675" lon="6.66009">
        <ele>173.60000610352</ele>
        <time>2012-10-12T10:33:16Z</time>
      </trkpt>
      <trkpt lat="43.36756" lon="6.66024">
        <ele>174.19999694824</ele>
        <time>2012-10-12T10:33:22Z</time>
      </trkpt>
      <trkpt lat="43.36759" lon="6.66038">
        <ele>174.60000610352</ele>
        <time>2012-10-12T10:33:28Z</time>
      </trkpt>
      <trkpt lat="43.36759" lon="6.66059">
        <ele>175.80000305176</ele>
        <time>2012-10-12T10:33:36Z</time>
      </trkpt>
      <trkpt lat="43.36757" lon="6.66074">
        <ele>177</ele>
        <time>2012-10-12T10:33:42Z</time>
      </trkpt>
      <trkpt lat="43.36756" lon="6.66087">
        <ele>178</ele>
        <time>2012-10-12T10:33:48Z</time>
      </trkpt>
      <trkpt lat="43.36756" lon="6.661">
        <ele>177.80000305176</ele>
        <time>2012-10-12T10:33:54Z</time>
      </trkpt>
      <trkpt lat="43.36758" lon="6.66115">
        <ele>177.60000610352</ele>
        <time>2012-10-12T10:34:02Z</time>
      </trkpt>
      <trkpt lat="43.36758" lon="6.66135">
        <ele>177.19999694824</ele>
        <time>2012-10-12T10:34:09Z</time>
      </trkpt>
      <trkpt lat="43.36751" lon="6.66145">
        <ele>179.60000610352</ele>
        <time>2012-10-12T10:34:14Z</time>
      </trkpt>
      <trkpt lat="43.36741" lon="6.66155">
        <ele>180.60000610352</ele>
        <time>2012-10-12T10:34:19Z</time>
      </trkpt>
      <trkpt lat="43.36735" lon="6.66168">
        <ele>181.39999389648</ele>
        <time>2012-10-12T10:34:24Z</time>
      </trkpt>
      <trkpt lat="43.3673" lon="6.66181">
        <ele>182.39999389648</ele>
        <time>2012-10-12T10:34:30Z</time>
      </trkpt>
      <trkpt lat="43.36724" lon="6.66197">
        <ele>183.19999694824</ele>
        <time>2012-10-12T10:34:37Z</time>
      </trkpt>
      <trkpt lat="43.36715" lon="6.66215">
        <ele>184.80000305176</ele>
        <time>2012-10-12T10:34:45Z</time>
      </trkpt>
      <trkpt lat="43.36709" lon="6.66228">
        <ele>185.80000305176</ele>
        <time>2012-10-12T10:34:51Z</time>
      </trkpt>
      <trkpt lat="43.36708" lon="6.66227">
        <ele>185.80000305176</ele>
        <time>2012-10-12T10:34:55Z</time>
      </trkpt>
      <trkpt lat="43.36706" lon="6.66225">
        <ele>186</ele>
        <time>2012-10-12T10:35:01Z</time>
      </trkpt>
      <trkpt lat="43.36705" lon="6.66227">
        <ele>186.19999694824</ele>
        <time>2012-10-12T10:35:41Z</time>
      </trkpt>
      <trkpt lat="43.36704" lon="6.66228">
        <ele>186.39999389648</ele>
        <time>2012-10-12T10:35:53Z</time>
      </trkpt>
      <trkpt lat="43.36704" lon="6.66229">
        <ele>186.39999389648</ele>
        <time>2012-10-12T10:35:57Z</time>
      </trkpt>
      <trkpt lat="43.36704" lon="6.66232">
        <ele>186.39999389648</ele>
        <time>2012-10-12T10:36:02Z</time>
      </trkpt>
      <trkpt lat="43.36705" lon="6.66232">
        <ele>186.19999694824</ele>
        <time>2012-10-12T10:36:26Z</time>
      </trkpt>
      <trkpt lat="43.36707" lon="6.66231">
        <ele>186</ele>
        <time>2012-10-12T10:36:30Z</time>
      </trkpt>
      <trkpt lat="43.36708" lon="6.66232">
        <ele>186</ele>
        <time>2012-10-12T10:36:38Z</time>
      </trkpt>
      <trkpt lat="43.36708" lon="6.66237">
        <ele>186.19999694824</ele>
        <time>2012-10-12T10:36:45Z</time>
      </trkpt>
      <trkpt lat="43.36701" lon="6.66246">
        <ele>187.19999694824</ele>
        <time>2012-10-12T10:36:50Z</time>
      </trkpt>
      <trkpt lat="43.36699" lon="6.66248">
        <ele>187.39999389648</ele>
        <time>2012-10-12T10:36:51Z</time>
      </trkpt>
      <trkpt lat="43.36694" lon="6.66266">
        <ele>187.60000610352</ele>
        <time>2012-10-12T10:36:56Z</time>
      </trkpt>
      <trkpt lat="43.36693" lon="6.66276">
        <ele>187.60000610352</ele>
        <time>2012-10-12T10:36:58Z</time>
      </trkpt>
      <trkpt lat="43.36684" lon="6.66284">
        <ele>188</ele>
        <time>2012-10-12T10:37:02Z</time>
      </trkpt>
      <trkpt lat="43.36672" lon="6.66301">
        <ele>188.19999694824</ele>
        <time>2012-10-12T10:37:08Z</time>
      </trkpt>
      <trkpt lat="43.36668" lon="6.66324">
        <ele>187.39999389648</ele>
        <time>2012-10-12T10:37:12Z</time>
      </trkpt>
      <trkpt lat="43.36668" lon="6.66348">
        <ele>186.39999389648</ele>
        <time>2012-10-12T10:37:15Z</time>
      </trkpt>
      <trkpt lat="43.36672" lon="6.66396">
        <ele>184.80000305176</ele>
        <time>2012-10-12T10:37:20Z</time>
      </trkpt>
      <trkpt lat="43.36676" lon="6.66423">
        <ele>183.19999694824</ele>
        <time>2012-10-12T10:37:23Z</time>
      </trkpt>
      <trkpt lat="43.36683" lon="6.6644">
        <ele>180.80000305176</ele>
        <time>2012-10-12T10:37:27Z</time>
      </trkpt>
      <trkpt lat="43.36686" lon="6.66458">
        <ele>178.19999694824</ele>
        <time>2012-10-12T10:37:31Z</time>
      </trkpt>
      <trkpt lat="43.36687" lon="6.66476">
        <ele>175.80000305176</ele>
        <time>2012-10-12T10:37:37Z</time>
      </trkpt>
      <trkpt lat="43.36687" lon="6.66488">
        <ele>173.80000305176</ele>
        <time>2012-10-12T10:37:42Z</time>
      </trkpt>
      <trkpt lat="43.3669" lon="6.66508">
        <ele>171.39999389648</ele>
        <time>2012-10-12T10:37:49Z</time>
      </trkpt>
      <trkpt lat="43.36694" lon="6.66531">
        <ele>169</ele>
        <time>2012-10-12T10:37:55Z</time>
      </trkpt>
      <trkpt lat="43.36696" lon="6.66555">
        <ele>166.19999694824</ele>
        <time>2012-10-12T10:37:59Z</time>
      </trkpt>
      <trkpt lat="43.36702" lon="6.66573">
        <ele>163.39999389648</ele>
        <time>2012-10-12T10:38:02Z</time>
      </trkpt>
      <trkpt lat="43.36705" lon="6.66588">
        <ele>161.19999694824</ele>
        <time>2012-10-12T10:38:04Z</time>
      </trkpt>
      <trkpt lat="43.36715" lon="6.66606">
        <ele>156.60000610352</ele>
        <time>2012-10-12T10:38:08Z</time>
      </trkpt>
      <trkpt lat="43.36719" lon="6.66617">
        <ele>154.39999389648</ele>
        <time>2012-10-12T10:38:10Z</time>
      </trkpt>
      <trkpt lat="43.36724" lon="6.66639">
        <ele>150.39999389648</ele>
        <time>2012-10-12T10:38:14Z</time>
      </trkpt>
      <trkpt lat="43.36726" lon="6.66648">
        <ele>149</ele>
        <time>2012-10-12T10:38:16Z</time>
      </trkpt>
      <trkpt lat="43.36729" lon="6.66664">
        <ele>146.39999389648</ele>
        <time>2012-10-12T10:38:20Z</time>
      </trkpt>
      <trkpt lat="43.36733" lon="6.66689">
        <ele>141.80000305176</ele>
        <time>2012-10-12T10:38:25Z</time>
      </trkpt>
      <trkpt lat="43.36732" lon="6.66712">
        <ele>138.19999694824</ele>
        <time>2012-10-12T10:38:28Z</time>
      </trkpt>
      <trkpt lat="43.36729" lon="6.66733">
        <ele>135</ele>
        <time>2012-10-12T10:38:31Z</time>
      </trkpt>
      <trkpt lat="43.36729" lon="6.66766">
        <ele>130.60000610352</ele>
        <time>2012-10-12T10:38:36Z</time>
      </trkpt>
      <trkpt lat="43.36727" lon="6.66792">
        <ele>128</ele>
        <time>2012-10-12T10:38:40Z</time>
      </trkpt>
      <trkpt lat="43.36731" lon="6.66811">
        <ele>125.80000305176</ele>
        <time>2012-10-12T10:38:43Z</time>
      </trkpt>
      <trkpt lat="43.36732" lon="6.66838">
        <ele>123</ele>
        <time>2012-10-12T10:38:47Z</time>
      </trkpt>
      <trkpt lat="43.36726" lon="6.66856">
        <ele>122.59999847412</ele>
        <time>2012-10-12T10:38:50Z</time>
      </trkpt>
      <trkpt lat="43.36711" lon="6.66867">
        <ele>124.19999694824</ele>
        <time>2012-10-12T10:38:54Z</time>
      </trkpt>
      <trkpt lat="43.36698" lon="6.66875">
        <ele>126</ele>
        <time>2012-10-12T10:39:00Z</time>
      </trkpt>
      <trkpt lat="43.36699" lon="6.66881">
        <ele>126</ele>
        <time>2012-10-12T10:39:03Z</time>
      </trkpt>
      <trkpt lat="43.36701" lon="6.66888">
        <ele>125.80000305176</ele>
        <time>2012-10-12T10:39:09Z</time>
      </trkpt>
      <trkpt lat="43.36703" lon="6.669">
        <ele>125.19999694824</ele>
        <time>2012-10-12T10:39:15Z</time>
      </trkpt>
      <trkpt lat="43.36703" lon="6.66902">
        <ele>125.19999694824</ele>
        <time>2012-10-12T10:39:16Z</time>
      </trkpt>
      <trkpt lat="43.36705" lon="6.66915">
        <ele>124.80000305176</ele>
        <time>2012-10-12T10:39:23Z</time>
      </trkpt>
      <trkpt lat="43.36706" lon="6.66922">
        <ele>124.40000152588</ele>
        <time>2012-10-12T10:39:27Z</time>
      </trkpt>
      <trkpt lat="43.36708" lon="6.66936">
        <ele>123.80000305176</ele>
        <time>2012-10-12T10:39:32Z</time>
      </trkpt>
      <trkpt lat="43.36709" lon="6.66958">
        <ele>123.19999694824</ele>
        <time>2012-10-12T10:39:38Z</time>
      </trkpt>
      <trkpt lat="43.36708" lon="6.66992">
        <ele>122.80000305176</ele>
        <time>2012-10-12T10:39:46Z</time>
      </trkpt>
      <trkpt lat="43.36701" lon="6.67025">
        <ele>122.19999694824</ele>
        <time>2012-10-12T10:39:53Z</time>
      </trkpt>
      <trkpt lat="43.36693" lon="6.6705">
        <ele>121.80000305176</ele>
        <time>2012-10-12T10:39:57Z</time>
      </trkpt>
      <trkpt lat="43.36686" lon="6.67076">
        <ele>120.59999847412</ele>
        <time>2012-10-12T10:40:01Z</time>
      </trkpt>
      <trkpt lat="43.36686" lon="6.671">
        <ele>118.40000152588</ele>
        <time>2012-10-12T10:40:05Z</time>
      </trkpt>
      <trkpt lat="43.36689" lon="6.67114">
        <ele>116.59999847412</ele>
        <time>2012-10-12T10:40:07Z</time>
      </trkpt>
      <trkpt lat="43.36692" lon="6.67172">
        <ele>111.40000152588</ele>
        <time>2012-10-12T10:40:13Z</time>
      </trkpt>
      <trkpt lat="43.36691" lon="6.67193">
        <ele>110.40000152588</ele>
        <time>2012-10-12T10:40:15Z</time>
      </trkpt>
      <trkpt lat="43.36687" lon="6.67211">
        <ele>110</ele>
        <time>2012-10-12T10:40:18Z</time>
      </trkpt>
      <trkpt lat="43.3667" lon="6.67219">
        <ele>111.40000152588</ele>
        <time>2012-10-12T10:40:22Z</time>
      </trkpt>
      <trkpt lat="43.36664" lon="6.67233">
        <ele>111.80000305176</ele>
        <time>2012-10-12T10:40:25Z</time>
      </trkpt>
      <trkpt lat="43.36662" lon="6.67241">
        <ele>111.59999847412</ele>
        <time>2012-10-12T10:40:26Z</time>
      </trkpt>
      <trkpt lat="43.3666" lon="6.67275">
        <ele>112</ele>
        <time>2012-10-12T10:40:31Z</time>
      </trkpt>
      <trkpt lat="43.36656" lon="6.67284">
        <ele>113</ele>
        <time>2012-10-12T10:40:33Z</time>
      </trkpt>
      <trkpt lat="43.36654" lon="6.67308">
        <ele>113.40000152588</ele>
        <time>2012-10-12T10:40:38Z</time>
      </trkpt>
      <trkpt lat="43.36658" lon="6.67312">
        <ele>112.80000305176</ele>
        <time>2012-10-12T10:40:39Z</time>
      </trkpt>
      <trkpt lat="43.36679" lon="6.6733">
        <ele>110.80000305176</ele>
        <time>2012-10-12T10:40:44Z</time>
      </trkpt>
      <trkpt lat="43.3669" lon="6.67342">
        <ele>111.19999694824</ele>
        <time>2012-10-12T10:40:48Z</time>
      </trkpt>
      <trkpt lat="43.36703" lon="6.67364">
        <ele>112.80000305176</ele>
        <time>2012-10-12T10:40:54Z</time>
      </trkpt>
      <trkpt lat="43.36707" lon="6.67398">
        <ele>116.80000305176</ele>
        <time>2012-10-12T10:41:00Z</time>
      </trkpt>
      <trkpt lat="43.36706" lon="6.67415">
        <ele>119.19999694824</ele>
        <time>2012-10-12T10:41:03Z</time>
      </trkpt>
      <trkpt lat="43.36717" lon="6.67448">
        <ele>119.40000152588</ele>
        <time>2012-10-12T10:41:08Z</time>
      </trkpt>
      <trkpt lat="43.36733" lon="6.675">
        <ele>118.59999847412</ele>
        <time>2012-10-12T10:41:15Z</time>
      </trkpt>
      <trkpt lat="43.36754" lon="6.67547">
        <ele>117.40000152588</ele>
        <time>2012-10-12T10:41:22Z</time>
      </trkpt>
      <trkpt lat="43.36759" lon="6.67566">
        <ele>119.40000152588</ele>
        <time>2012-10-12T10:41:25Z</time>
      </trkpt>
      <trkpt lat="43.36766" lon="6.67592">
        <ele>123</ele>
        <time>2012-10-12T10:41:30Z</time>
      </trkpt>
      <trkpt lat="43.36764" lon="6.67606">
        <ele>123.80000305176</ele>
        <time>2012-10-12T10:41:34Z</time>
      </trkpt>
      <trkpt lat="43.3676" lon="6.67626">
        <ele>124.80000305176</ele>
        <time>2012-10-12T10:41:41Z</time>
      </trkpt>
      <trkpt lat="43.36756" lon="6.67638">
        <ele>124.59999847412</ele>
        <time>2012-10-12T10:41:46Z</time>
      </trkpt>
      <trkpt lat="43.36751" lon="6.67657">
        <ele>125.19999694824</ele>
        <time>2012-10-12T10:41:55Z</time>
      </trkpt>
      <trkpt lat="43.36749" lon="6.67677">
        <ele>127.80000305176</ele>
        <time>2012-10-12T10:42:03Z</time>
      </trkpt>
      <trkpt lat="43.36745" lon="6.67696">
        <ele>131.39999389648</ele>
        <time>2012-10-12T10:42:10Z</time>
      </trkpt>
      <trkpt lat="43.36746" lon="6.67717">
        <ele>134.60000610352</ele>
        <time>2012-10-12T10:42:17Z</time>
      </trkpt>
      <trkpt lat="43.36746" lon="6.67729">
        <ele>136.39999389648</ele>
        <time>2012-10-12T10:42:22Z</time>
      </trkpt>
      <trkpt lat="43.3675" lon="6.6775">
        <ele>139</ele>
        <time>2012-10-12T10:42:31Z</time>
      </trkpt>
      <trkpt lat="43.36755" lon="6.67774">
        <ele>143.80000305176</ele>
        <time>2012-10-12T10:42:42Z</time>
      </trkpt>
      <trkpt lat="43.36759" lon="6.67793">
        <ele>147.39999389648</ele>
        <time>2012-10-12T10:42:51Z</time>
      </trkpt>
      <trkpt lat="43.36763" lon="6.67809">
        <ele>150.60000610352</ele>
        <time>2012-10-12T10:42:59Z</time>
      </trkpt>
      <trkpt lat="43.36765" lon="6.67828">
        <ele>153.80000305176</ele>
        <time>2012-10-12T10:43:08Z</time>
      </trkpt>
      <trkpt lat="43.36765" lon="6.67845">
        <ele>155.19999694824</ele>
        <time>2012-10-12T10:43:17Z</time>
      </trkpt>
      <trkpt lat="43.36763" lon="6.6786">
        <ele>155.60000610352</ele>
        <time>2012-10-12T10:43:25Z</time>
      </trkpt>
      <trkpt lat="43.36761" lon="6.67875">
        <ele>156.19999694824</ele>
        <time>2012-10-12T10:43:33Z</time>
      </trkpt>
      <trkpt lat="43.36762" lon="6.67891">
        <ele>157.19999694824</ele>
        <time>2012-10-12T10:43:42Z</time>
      </trkpt>
      <trkpt lat="43.36764" lon="6.67907">
        <ele>158.39999389648</ele>
        <time>2012-10-12T10:43:51Z</time>
      </trkpt>
      <trkpt lat="43.36766" lon="6.67921">
        <ele>158.80000305176</ele>
        <time>2012-10-12T10:43:59Z</time>
      </trkpt>
      <trkpt lat="43.36767" lon="6.67939">
        <ele>157.80000305176</ele>
        <time>2012-10-12T10:44:07Z</time>
      </trkpt>
      <trkpt lat="43.36763" lon="6.67954">
        <ele>156.60000610352</ele>
        <time>2012-10-12T10:44:12Z</time>
      </trkpt>
      <trkpt lat="43.36754" lon="6.6798">
        <ele>154.19999694824</ele>
        <time>2012-10-12T10:44:19Z</time>
      </trkpt>
      <trkpt lat="43.3674" lon="6.67998">
        <ele>155.80000305176</ele>
        <time>2012-10-12T10:44:24Z</time>
      </trkpt>
      <trkpt lat="43.36719" lon="6.68002">
        <ele>161.19999694824</ele>
        <time>2012-10-12T10:44:29Z</time>
      </trkpt>
      <trkpt lat="43.36714" lon="6.68003">
        <ele>162.19999694824</ele>
        <time>2012-10-12T10:44:30Z</time>
      </trkpt>
      <trkpt lat="43.36699" lon="6.68017">
        <ele>165.39999389648</ele>
        <time>2012-10-12T10:44:34Z</time>
      </trkpt>
      <trkpt lat="43.36695" lon="6.68043">
        <ele>164.80000305176</ele>
        <time>2012-10-12T10:44:38Z</time>
      </trkpt>
      <trkpt lat="43.36697" lon="6.68056">
        <ele>163.39999389648</ele>
        <time>2012-10-12T10:44:40Z</time>
      </trkpt>
      <trkpt lat="43.367" lon="6.68069">
        <ele>161.60000610352</ele>
        <time>2012-10-12T10:44:42Z</time>
      </trkpt>
      <trkpt lat="43.36715" lon="6.68104">
        <ele>155.19999694824</ele>
        <time>2012-10-12T10:44:48Z</time>
      </trkpt>
      <trkpt lat="43.36721" lon="6.6814">
        <ele>151.39999389648</ele>
        <time>2012-10-12T10:44:53Z</time>
      </trkpt>
      <trkpt lat="43.36714" lon="6.68165">
        <ele>151.80000305176</ele>
        <time>2012-10-12T10:44:56Z</time>
      </trkpt>
      <trkpt lat="43.36685" lon="6.68208">
        <ele>152.39999389648</ele>
        <time>2012-10-12T10:45:02Z</time>
      </trkpt>
      <trkpt lat="43.36661" lon="6.68232">
        <ele>152</ele>
        <time>2012-10-12T10:45:06Z</time>
      </trkpt>
      <trkpt lat="43.36633" lon="6.68242">
        <ele>148.60000610352</ele>
        <time>2012-10-12T10:45:10Z</time>
      </trkpt>
      <trkpt lat="43.36619" lon="6.68235">
        <ele>149.39999389648</ele>
        <time>2012-10-12T10:45:12Z</time>
      </trkpt>
      <trkpt lat="43.36567" lon="6.68202">
        <ele>153.80000305176</ele>
        <time>2012-10-12T10:45:20Z</time>
      </trkpt>
      <trkpt lat="43.36556" lon="6.68191">
        <ele>154.60000610352</ele>
        <time>2012-10-12T10:45:22Z</time>
      </trkpt>
      <trkpt lat="43.36535" lon="6.68155">
        <ele>158.60000610352</ele>
        <time>2012-10-12T10:45:27Z</time>
      </trkpt>
      <trkpt lat="43.36514" lon="6.68134">
        <ele>160.39999389648</ele>
        <time>2012-10-12T10:45:31Z</time>
      </trkpt>
      <trkpt lat="43.36466" lon="6.68118">
        <ele>167.80000305176</ele>
        <time>2012-10-12T10:45:38Z</time>
      </trkpt>
      <trkpt lat="43.36446" lon="6.6812">
        <ele>170.60000610352</ele>
        <time>2012-10-12T10:45:41Z</time>
      </trkpt>
      <trkpt lat="43.36437" lon="6.68143">
        <ele>168.80000305176</ele>
        <time>2012-10-12T10:45:44Z</time>
      </trkpt>
      <trkpt lat="43.36437" lon="6.68152">
        <ele>167.80000305176</ele>
        <time>2012-10-12T10:45:45Z</time>
      </trkpt>
      <trkpt lat="43.36439" lon="6.68204">
        <ele>163</ele>
        <time>2012-10-12T10:45:51Z</time>
      </trkpt>
      <trkpt lat="43.36447" lon="6.68256">
        <ele>157</ele>
        <time>2012-10-12T10:45:57Z</time>
      </trkpt>
      <trkpt lat="43.36441" lon="6.683">
        <ele>152.80000305176</ele>
        <time>2012-10-12T10:46:02Z</time>
      </trkpt>
      <trkpt lat="43.36423" lon="6.68328">
        <ele>153.19999694824</ele>
        <time>2012-10-12T10:46:06Z</time>
      </trkpt>
      <trkpt lat="43.36404" lon="6.68342">
        <ele>154.19999694824</ele>
        <time>2012-10-12T10:46:09Z</time>
      </trkpt>
      <trkpt lat="43.36377" lon="6.68354">
        <ele>155.80000305176</ele>
        <time>2012-10-12T10:46:13Z</time>
      </trkpt>
      <trkpt lat="43.36355" lon="6.68374">
        <ele>155.39999389648</ele>
        <time>2012-10-12T10:46:17Z</time>
      </trkpt>
      <trkpt lat="43.36351" lon="6.68381">
        <ele>154.39999389648</ele>
        <time>2012-10-12T10:46:18Z</time>
      </trkpt>
      <trkpt lat="43.36337" lon="6.68428">
        <ele>151.39999389648</ele>
        <time>2012-10-12T10:46:24Z</time>
      </trkpt>
      <trkpt lat="43.36335" lon="6.68434">
        <ele>152</ele>
        <time>2012-10-12T10:46:26Z</time>
      </trkpt>
      <trkpt lat="43.36337" lon="6.68439">
        <ele>152.19999694824</ele>
        <time>2012-10-12T10:46:30Z</time>
      </trkpt>
      <trkpt lat="43.3634" lon="6.6845">
        <ele>152.60000610352</ele>
        <time>2012-10-12T10:46:37Z</time>
      </trkpt>
      <trkpt lat="43.36345" lon="6.68456">
        <ele>152.60000610352</ele>
        <time>2012-10-12T10:46:41Z</time>
      </trkpt>
      <trkpt lat="43.36361" lon="6.68472">
        <ele>152.39999389648</ele>
        <time>2012-10-12T10:46:48Z</time>
      </trkpt>
      <trkpt lat="43.36377" lon="6.68491">
        <ele>153.39999389648</ele>
        <time>2012-10-12T10:46:55Z</time>
      </trkpt>
      <trkpt lat="43.36391" lon="6.68517">
        <ele>157</ele>
        <time>2012-10-12T10:47:03Z</time>
      </trkpt>
      <trkpt lat="43.36404" lon="6.68534">
        <ele>160.39999389648</ele>
        <time>2012-10-12T10:47:09Z</time>
      </trkpt>
      <trkpt lat="43.36416" lon="6.68542">
        <ele>162</ele>
        <time>2012-10-12T10:47:14Z</time>
      </trkpt>
      <trkpt lat="43.36435" lon="6.68555">
        <ele>159.80000305176</ele>
        <time>2012-10-12T10:47:21Z</time>
      </trkpt>
      <trkpt lat="43.36452" lon="6.68574">
        <ele>158.80000305176</ele>
        <time>2012-10-12T10:47:28Z</time>
      </trkpt>
      <trkpt lat="43.36465" lon="6.686">
        <ele>159.19999694824</ele>
        <time>2012-10-12T10:47:34Z</time>
      </trkpt>
      <trkpt lat="43.36479" lon="6.68627">
        <ele>158.80000305176</ele>
        <time>2012-10-12T10:47:39Z</time>
      </trkpt>
      <trkpt lat="43.36492" lon="6.68654">
        <ele>158.60000610352</ele>
        <time>2012-10-12T10:47:43Z</time>
      </trkpt>
      <trkpt lat="43.3651" lon="6.68693">
        <ele>155.19999694824</ele>
        <time>2012-10-12T10:47:49Z</time>
      </trkpt>
      <trkpt lat="43.36514" lon="6.68706">
        <ele>154</ele>
        <time>2012-10-12T10:47:51Z</time>
      </trkpt>
      <trkpt lat="43.36518" lon="6.68738">
        <ele>153.60000610352</ele>
        <time>2012-10-12T10:47:55Z</time>
      </trkpt>
      <trkpt lat="43.36517" lon="6.68753">
        <ele>154</ele>
        <time>2012-10-12T10:47:57Z</time>
      </trkpt>
      <trkpt lat="43.36514" lon="6.68775">
        <ele>151</ele>
        <time>2012-10-12T10:48:00Z</time>
      </trkpt>
      <trkpt lat="43.365" lon="6.68803">
        <ele>149.39999389648</ele>
        <time>2012-10-12T10:48:05Z</time>
      </trkpt>
      <trkpt lat="43.36488" lon="6.68807">
        <ele>150.19999694824</ele>
        <time>2012-10-12T10:48:08Z</time>
      </trkpt>
      <trkpt lat="43.36482" lon="6.68807">
        <ele>151.19999694824</ele>
        <time>2012-10-12T10:48:10Z</time>
      </trkpt>
      <trkpt lat="43.36471" lon="6.68808">
        <ele>152.19999694824</ele>
        <time>2012-10-12T10:48:15Z</time>
      </trkpt>
      <trkpt lat="43.3646" lon="6.68822">
        <ele>150</ele>
        <time>2012-10-12T10:48:19Z</time>
      </trkpt>
      <trkpt lat="43.3644" lon="6.68836">
        <ele>148.60000610352</ele>
        <time>2012-10-12T10:48:23Z</time>
      </trkpt>
      <trkpt lat="43.36428" lon="6.68835">
        <ele>150.39999389648</ele>
        <time>2012-10-12T10:48:26Z</time>
      </trkpt>
      <trkpt lat="43.3642" lon="6.68834">
        <ele>151.39999389648</ele>
        <time>2012-10-12T10:48:29Z</time>
      </trkpt>
      <trkpt lat="43.36407" lon="6.68833">
        <ele>154.39999389648</ele>
        <time>2012-10-12T10:48:35Z</time>
      </trkpt>
      <trkpt lat="43.36395" lon="6.68838">
        <ele>155.39999389648</ele>
        <time>2012-10-12T10:48:41Z</time>
      </trkpt>
      <trkpt lat="43.36381" lon="6.68844">
        <ele>157.19999694824</ele>
        <time>2012-10-12T10:48:48Z</time>
      </trkpt>
      <trkpt lat="43.36371" lon="6.68859">
        <ele>156.19999694824</ele>
        <time>2012-10-12T10:48:54Z</time>
      </trkpt>
      <trkpt lat="43.36362" lon="6.68884">
        <ele>153.19999694824</ele>
        <time>2012-10-12T10:49:00Z</time>
      </trkpt>
      <trkpt lat="43.36352" lon="6.68907">
        <ele>151.60000610352</ele>
        <time>2012-10-12T10:49:06Z</time>
      </trkpt>
      <trkpt lat="43.36334" lon="6.68933">
        <ele>152.60000610352</ele>
        <time>2012-10-12T10:49:13Z</time>
      </trkpt>
      <trkpt lat="43.3632" lon="6.68945">
        <ele>152.60000610352</ele>
        <time>2012-10-12T10:49:18Z</time>
      </trkpt>
      <trkpt lat="43.36301" lon="6.68959">
        <ele>154.19999694824</ele>
        <time>2012-10-12T10:49:23Z</time>
      </trkpt>
      <trkpt lat="43.36299" lon="6.68961">
        <ele>154.39999389648</ele>
        <time>2012-10-12T10:49:25Z</time>
      </trkpt>
      <trkpt lat="43.36297" lon="6.68969">
        <ele>154.19999694824</ele>
        <time>2012-10-12T10:49:30Z</time>
      </trkpt>
      <trkpt lat="43.36295" lon="6.68979">
        <ele>154</ele>
        <time>2012-10-12T10:49:36Z</time>
      </trkpt>
      <trkpt lat="43.36294" lon="6.68983">
        <ele>153.80000305176</ele>
        <time>2012-10-12T10:49:39Z</time>
      </trkpt>
      <trkpt lat="43.36291" lon="6.68994">
        <ele>154</ele>
        <time>2012-10-12T10:49:48Z</time>
      </trkpt>
      <trkpt lat="43.36288" lon="6.69003">
        <ele>154.80000305176</ele>
        <time>2012-10-12T10:49:55Z</time>
      </trkpt>
      <trkpt lat="43.36286" lon="6.69011">
        <ele>155.80000305176</ele>
        <time>2012-10-12T10:50:03Z</time>
      </trkpt>
      <trkpt lat="43.36284" lon="6.69016">
        <ele>156.80000305176</ele>
        <time>2012-10-12T10:50:11Z</time>
      </trkpt>
      <trkpt lat="43.36282" lon="6.69022">
        <ele>157.60000610352</ele>
        <time>2012-10-12T10:50:17Z</time>
      </trkpt>
      <trkpt lat="43.36281" lon="6.69026">
        <ele>158.39999389648</ele>
        <time>2012-10-12T10:50:21Z</time>
      </trkpt>
      <trkpt lat="43.36279" lon="6.6903">
        <ele>159.19999694824</ele>
        <time>2012-10-12T10:50:27Z</time>
      </trkpt>
      <trkpt lat="43.36278" lon="6.69035">
        <ele>159.80000305176</ele>
        <time>2012-10-12T10:50:38Z</time>
      </trkpt>
      <trkpt lat="43.36276" lon="6.69041">
        <ele>160.80000305176</ele>
        <time>2012-10-12T10:50:46Z</time>
      </trkpt>
      <trkpt lat="43.36273" lon="6.69044">
        <ele>162.19999694824</ele>
        <time>2012-10-12T10:50:53Z</time>
      </trkpt>
      <trkpt lat="43.36273" lon="6.69043">
        <ele>162.39999389648</ele>
        <time>2012-10-12T10:50:58Z</time>
      </trkpt>
      <trkpt lat="43.3627" lon="6.6904">
        <ele>163.19999694824</ele>
        <time>2012-10-12T10:51:06Z</time>
      </trkpt>
      <trkpt lat="43.36267" lon="6.69037">
        <ele>164</ele>
        <time>2012-10-12T10:51:14Z</time>
      </trkpt>
      <trkpt lat="43.36266" lon="6.69035">
        <ele>164.60000610352</ele>
        <time>2012-10-12T10:51:21Z</time>
      </trkpt>
      <trkpt lat="43.36264" lon="6.69032">
        <ele>165</ele>
        <time>2012-10-12T10:51:27Z</time>
      </trkpt>
      <trkpt lat="43.3626" lon="6.6903">
        <ele>166</ele>
        <time>2012-10-12T10:51:33Z</time>
      </trkpt>
      <trkpt lat="43.36259" lon="6.69036">
        <ele>167.19999694824</ele>
        <time>2012-10-12T10:51:39Z</time>
      </trkpt>
      <trkpt lat="43.36257" lon="6.69047">
        <ele>168.80000305176</ele>
        <time>2012-10-12T10:51:47Z</time>
      </trkpt>
      <trkpt lat="43.36257" lon="6.69058">
        <ele>169.80000305176</ele>
        <time>2012-10-12T10:51:56Z</time>
      </trkpt>
      <trkpt lat="43.36253" lon="6.69068">
        <ele>172.19999694824</ele>
        <time>2012-10-12T10:52:07Z</time>
      </trkpt>
      <trkpt lat="43.36251" lon="6.69074">
        <ele>173.60000610352</ele>
        <time>2012-10-12T10:52:14Z</time>
      </trkpt>
      <trkpt lat="43.36251" lon="6.69075">
        <ele>174</ele>
        <time>2012-10-12T10:52:15Z</time>
      </trkpt>
      <trkpt lat="43.36247" lon="6.69083">
        <ele>175.60000610352</ele>
        <time>2012-10-12T10:52:22Z</time>
      </trkpt>
      <trkpt lat="43.36246" lon="6.6909">
        <ele>176.39999389648</ele>
        <time>2012-10-12T10:52:27Z</time>
      </trkpt>
      <trkpt lat="43.36242" lon="6.69103">
        <ele>178.19999694824</ele>
        <time>2012-10-12T10:52:33Z</time>
      </trkpt>
      <trkpt lat="43.36237" lon="6.69118">
        <ele>180.80000305176</ele>
        <time>2012-10-12T10:52:40Z</time>
      </trkpt>
      <trkpt lat="43.36233" lon="6.69133">
        <ele>183.19999694824</ele>
        <time>2012-10-12T10:52:47Z</time>
      </trkpt>
      <trkpt lat="43.36233" lon="6.69149">
        <ele>184.39999389648</ele>
        <time>2012-10-12T10:52:53Z</time>
      </trkpt>
      <trkpt lat="43.36237" lon="6.69165">
        <ele>184.19999694824</ele>
        <time>2012-10-12T10:52:59Z</time>
      </trkpt>
      <trkpt lat="43.3624" lon="6.69179">
        <ele>184.60000610352</ele>
        <time>2012-10-12T10:53:04Z</time>
      </trkpt>
      <trkpt lat="43.36245" lon="6.6921">
        <ele>186.80000305176</ele>
        <time>2012-10-12T10:53:13Z</time>
      </trkpt>
      <trkpt lat="43.36244" lon="6.69232">
        <ele>190</ele>
        <time>2012-10-12T10:53:20Z</time>
      </trkpt>
      <trkpt lat="43.36242" lon="6.6925">
        <ele>193.39999389648</ele>
        <time>2012-10-12T10:53:26Z</time>
      </trkpt>
      <trkpt lat="43.36244" lon="6.69261">
        <ele>194.39999389648</ele>
        <time>2012-10-12T10:53:30Z</time>
      </trkpt>
      <trkpt lat="43.36257" lon="6.69281">
        <ele>193.39999389648</ele>
        <time>2012-10-12T10:53:38Z</time>
      </trkpt>
      <trkpt lat="43.36274" lon="6.69297">
        <ele>191</ele>
        <time>2012-10-12T10:53:45Z</time>
      </trkpt>
      <trkpt lat="43.36293" lon="6.69322">
        <ele>190.39999389648</ele>
        <time>2012-10-12T10:53:54Z</time>
      </trkpt>
      <trkpt lat="43.36301" lon="6.69341">
        <ele>191.60000610352</ele>
        <time>2012-10-12T10:54:01Z</time>
      </trkpt>
      <trkpt lat="43.36311" lon="6.69363">
        <ele>191.60000610352</ele>
        <time>2012-10-12T10:54:09Z</time>
      </trkpt>
      <trkpt lat="43.36317" lon="6.69377">
        <ele>191.80000305176</ele>
        <time>2012-10-12T10:54:15Z</time>
      </trkpt>
      <trkpt lat="43.36323" lon="6.6939">
        <ele>192.39999389648</ele>
        <time>2012-10-12T10:54:21Z</time>
      </trkpt>
      <trkpt lat="43.36327" lon="6.69407">
        <ele>193.80000305176</ele>
        <time>2012-10-12T10:54:27Z</time>
      </trkpt>
      <trkpt lat="43.36328" lon="6.69437">
        <ele>194.60000610352</ele>
        <time>2012-10-12T10:54:34Z</time>
      </trkpt>
      <trkpt lat="43.36325" lon="6.69453">
        <ele>194.60000610352</ele>
        <time>2012-10-12T10:54:39Z</time>
      </trkpt>
      <trkpt lat="43.36319" lon="6.69471">
        <ele>194.60000610352</ele>
        <time>2012-10-12T10:54:47Z</time>
      </trkpt>
      <trkpt lat="43.36315" lon="6.69478">
        <ele>194.60000610352</ele>
        <time>2012-10-12T10:54:51Z</time>
      </trkpt>
      <trkpt lat="43.36307" lon="6.69471">
        <ele>195.60000610352</ele>
        <time>2012-10-12T10:54:57Z</time>
      </trkpt>
      <trkpt lat="43.363" lon="6.69458">
        <ele>197.19999694824</ele>
        <time>2012-10-12T10:55:04Z</time>
      </trkpt>
      <trkpt lat="43.36291" lon="6.69444">
        <ele>199.80000305176</ele>
        <time>2012-10-12T10:55:12Z</time>
      </trkpt>
      <trkpt lat="43.36281" lon="6.69431">
        <ele>203</ele>
        <time>2012-10-12T10:55:21Z</time>
      </trkpt>
      <trkpt lat="43.36272" lon="6.69421">
        <ele>205.80000305176</ele>
        <time>2012-10-12T10:55:28Z</time>
      </trkpt>
      <trkpt lat="43.36264" lon="6.69411">
        <ele>207.60000610352</ele>
        <time>2012-10-12T10:55:35Z</time>
      </trkpt>
      <trkpt lat="43.36259" lon="6.694">
        <ele>208</ele>
        <time>2012-10-12T10:55:41Z</time>
      </trkpt>
      <trkpt lat="43.36253" lon="6.6939">
        <ele>208.80000305176</ele>
        <time>2012-10-12T10:55:47Z</time>
      </trkpt>
      <trkpt lat="43.36243" lon="6.69382">
        <ele>209.39999389648</ele>
        <time>2012-10-12T10:55:54Z</time>
      </trkpt>
      <trkpt lat="43.36232" lon="6.69378">
        <ele>209.80000305176</ele>
        <time>2012-10-12T10:56:02Z</time>
      </trkpt>
      <trkpt lat="43.36222" lon="6.69373">
        <ele>210.60000610352</ele>
        <time>2012-10-12T10:56:09Z</time>
      </trkpt>
      <trkpt lat="43.36213" lon="6.69366">
        <ele>211.39999389648</ele>
        <time>2012-10-12T10:56:15Z</time>
      </trkpt>
      <trkpt lat="43.36204" lon="6.69356">
        <ele>212.80000305176</ele>
        <time>2012-10-12T10:56:23Z</time>
      </trkpt>
      <trkpt lat="43.36196" lon="6.69344">
        <ele>214.39999389648</ele>
        <time>2012-10-12T10:56:31Z</time>
      </trkpt>
      <trkpt lat="43.3619" lon="6.69336">
        <ele>216</ele>
        <time>2012-10-12T10:56:37Z</time>
      </trkpt>
      <trkpt lat="43.36185" lon="6.69329">
        <ele>217</ele>
        <time>2012-10-12T10:56:43Z</time>
      </trkpt>
      <trkpt lat="43.36182" lon="6.69325">
        <ele>217.19999694824</ele>
        <time>2012-10-12T10:56:49Z</time>
      </trkpt>
      <trkpt lat="43.3618" lon="6.69322">
        <ele>217.80000305176</ele>
        <time>2012-10-12T10:56:54Z</time>
      </trkpt>
      <trkpt lat="43.36173" lon="6.69316">
        <ele>219.19999694824</ele>
        <time>2012-10-12T10:57:01Z</time>
      </trkpt>
      <trkpt lat="43.36166" lon="6.69313">
        <ele>220.80000305176</ele>
        <time>2012-10-12T10:57:07Z</time>
      </trkpt>
      <trkpt lat="43.36156" lon="6.69307">
        <ele>222</ele>
        <time>2012-10-12T10:57:14Z</time>
      </trkpt>
      <trkpt lat="43.36148" lon="6.69301">
        <ele>223.19999694824</ele>
        <time>2012-10-12T10:57:21Z</time>
      </trkpt>
      <trkpt lat="43.36147" lon="6.693">
        <ele>223.19999694824</ele>
        <time>2012-10-12T10:57:22Z</time>
      </trkpt>
      <trkpt lat="43.36144" lon="6.69295">
        <ele>224</ele>
        <time>2012-10-12T10:57:29Z</time>
      </trkpt>
      <trkpt lat="43.36139" lon="6.69288">
        <ele>224.80000305176</ele>
        <time>2012-10-12T10:57:35Z</time>
      </trkpt>
      <trkpt lat="43.36135" lon="6.69279">
        <ele>225.80000305176</ele>
        <time>2012-10-12T10:57:44Z</time>
      </trkpt>
      <trkpt lat="43.3613" lon="6.69273">
        <ele>226.80000305176</ele>
        <time>2012-10-12T10:57:52Z</time>
      </trkpt>
      <trkpt lat="43.36125" lon="6.69268">
        <ele>227.80000305176</ele>
        <time>2012-10-12T10:58:01Z</time>
      </trkpt>
      <trkpt lat="43.36119" lon="6.69264">
        <ele>228.80000305176</ele>
        <time>2012-10-12T10:58:12Z</time>
      </trkpt>
      <trkpt lat="43.3611" lon="6.69259">
        <ele>230.39999389648</ele>
        <time>2012-10-12T10:58:22Z</time>
      </trkpt>
      <trkpt lat="43.36104" lon="6.69254">
        <ele>231.80000305176</ele>
        <time>2012-10-12T10:58:28Z</time>
      </trkpt>
      <trkpt lat="43.36096" lon="6.69249">
        <ele>233</ele>
        <time>2012-10-12T10:58:35Z</time>
      </trkpt>
      <trkpt lat="43.36086" lon="6.69248">
        <ele>234.19999694824</ele>
        <time>2012-10-12T10:58:40Z</time>
      </trkpt>
      <trkpt lat="43.36084" lon="6.6925">
        <ele>234.80000305176</ele>
        <time>2012-10-12T10:58:41Z</time>
      </trkpt>
      <trkpt lat="43.36067" lon="6.69254">
        <ele>232.80000305176</ele>
        <time>2012-10-12T10:58:45Z</time>
      </trkpt>
      <trkpt lat="43.36059" lon="6.69263">
        <ele>231.39999389648</ele>
        <time>2012-10-12T10:58:47Z</time>
      </trkpt>
      <trkpt lat="43.3604" lon="6.69281">
        <ele>228.80000305176</ele>
        <time>2012-10-12T10:58:51Z</time>
      </trkpt>
      <trkpt lat="43.36012" lon="6.69293">
        <ele>226.80000305176</ele>
        <time>2012-10-12T10:58:55Z</time>
      </trkpt>
      <trkpt lat="43.35977" lon="6.69298">
        <ele>223.80000305176</ele>
        <time>2012-10-12T10:58:59Z</time>
      </trkpt>
      <trkpt lat="43.35961" lon="6.69299">
        <ele>222.19999694824</ele>
        <time>2012-10-12T10:59:01Z</time>
      </trkpt>
      <trkpt lat="43.35946" lon="6.69302">
        <ele>220.80000305176</ele>
        <time>2012-10-12T10:59:03Z</time>
      </trkpt>
      <trkpt lat="43.35908" lon="6.69315">
        <ele>217.19999694824</ele>
        <time>2012-10-12T10:59:07Z</time>
      </trkpt>
      <trkpt lat="43.35881" lon="6.69328">
        <ele>215.19999694824</ele>
        <time>2012-10-12T10:59:10Z</time>
      </trkpt>
      <trkpt lat="43.35858" lon="6.69349">
        <ele>211.60000610352</ele>
        <time>2012-10-12T10:59:13Z</time>
      </trkpt>
      <trkpt lat="43.35832" lon="6.69383">
        <ele>207.39999389648</ele>
        <time>2012-10-12T10:59:17Z</time>
      </trkpt>
      <trkpt lat="43.35822" lon="6.69414">
        <ele>203.39999389648</ele>
        <time>2012-10-12T10:59:20Z</time>
      </trkpt>
      <trkpt lat="43.35812" lon="6.69443">
        <ele>199</ele>
        <time>2012-10-12T10:59:23Z</time>
      </trkpt>
      <trkpt lat="43.35808" lon="6.69451">
        <ele>198.19999694824</ele>
        <time>2012-10-12T10:59:24Z</time>
      </trkpt>
      <trkpt lat="43.35801" lon="6.69471">
        <ele>196.60000610352</ele>
        <time>2012-10-12T10:59:27Z</time>
      </trkpt>
      <trkpt lat="43.35796" lon="6.69497">
        <ele>195.80000305176</ele>
        <time>2012-10-12T10:59:33Z</time>
      </trkpt>
      <trkpt lat="43.35798" lon="6.69504">
        <ele>195</ele>
        <time>2012-10-12T10:59:36Z</time>
      </trkpt>
      <trkpt lat="43.35797" lon="6.69517">
        <ele>194</ele>
        <time>2012-10-12T10:59:39Z</time>
      </trkpt>
      <trkpt lat="43.35797" lon="6.6953">
        <ele>193</ele>
        <time>2012-10-12T10:59:42Z</time>
      </trkpt>
      <trkpt lat="43.35798" lon="6.69541">
        <ele>191.60000610352</ele>
        <time>2012-10-12T10:59:45Z</time>
      </trkpt>
      <trkpt lat="43.35794" lon="6.69565">
        <ele>190.80000305176</ele>
        <time>2012-10-12T10:59:49Z</time>
      </trkpt>
      <trkpt lat="43.35787" lon="6.6959">
        <ele>190.60000610352</ele>
        <time>2012-10-12T10:59:53Z</time>
      </trkpt>
      <trkpt lat="43.35774" lon="6.6962">
        <ele>191.60000610352</ele>
        <time>2012-10-12T10:59:57Z</time>
      </trkpt>
      <trkpt lat="43.35767" lon="6.69643">
        <ele>191.60000610352</ele>
        <time>2012-10-12T11:00:00Z</time>
      </trkpt>
      <trkpt lat="43.35763" lon="6.69666">
        <ele>190.80000305176</ele>
        <time>2012-10-12T11:00:03Z</time>
      </trkpt>
      <trkpt lat="43.3576" lon="6.69696">
        <ele>186.60000610352</ele>
        <time>2012-10-12T11:00:07Z</time>
      </trkpt>
      <trkpt lat="43.35749" lon="6.69724">
        <ele>185</ele>
        <time>2012-10-12T11:00:11Z</time>
      </trkpt>
      <trkpt lat="43.35738" lon="6.69725">
        <ele>187.19999694824</ele>
        <time>2012-10-12T11:00:13Z</time>
      </trkpt>
      <trkpt lat="43.35716" lon="6.69719">
        <ele>192.60000610352</ele>
        <time>2012-10-12T11:00:17Z</time>
      </trkpt>
      <trkpt lat="43.35698" lon="6.69733">
        <ele>193.60000610352</ele>
        <time>2012-10-12T11:00:21Z</time>
      </trkpt>
      <trkpt lat="43.35687" lon="6.69747">
        <ele>193.39999389648</ele>
        <time>2012-10-12T11:00:24Z</time>
      </trkpt>
      <trkpt lat="43.35674" lon="6.69765">
        <ele>192.60000610352</ele>
        <time>2012-10-12T11:00:28Z</time>
      </trkpt>
      <trkpt lat="43.35655" lon="6.69808">
        <ele>187</ele>
        <time>2012-10-12T11:00:35Z</time>
      </trkpt>
      <trkpt lat="43.35637" lon="6.69853">
        <ele>181.19999694824</ele>
        <time>2012-10-12T11:00:41Z</time>
      </trkpt>
      <trkpt lat="43.35633" lon="6.69861">
        <ele>180.39999389648</ele>
        <time>2012-10-12T11:00:42Z</time>
      </trkpt>
      <trkpt lat="43.35606" lon="6.69913">
        <ele>177.39999389648</ele>
        <time>2012-10-12T11:00:48Z</time>
      </trkpt>
      <trkpt lat="43.356" lon="6.69928">
        <ele>177</ele>
        <time>2012-10-12T11:00:50Z</time>
      </trkpt>
      <trkpt lat="43.35586" lon="6.69987">
        <ele>175.19999694824</ele>
        <time>2012-10-12T11:00:56Z</time>
      </trkpt>
      <trkpt lat="43.35574" lon="6.70035">
        <ele>174.60000610352</ele>
        <time>2012-10-12T11:01:01Z</time>
      </trkpt>
      <trkpt lat="43.35571" lon="6.70044">
        <ele>174.60000610352</ele>
        <time>2012-10-12T11:01:02Z</time>
      </trkpt>
      <trkpt lat="43.35572" lon="6.70076">
        <ele>176.19999694824</ele>
        <time>2012-10-12T11:01:06Z</time>
      </trkpt>
      <trkpt lat="43.35574" lon="6.70084">
        <ele>176.80000305176</ele>
        <time>2012-10-12T11:01:07Z</time>
      </trkpt>
      <trkpt lat="43.35593" lon="6.70126">
        <ele>177.39999389648</ele>
        <time>2012-10-12T11:01:13Z</time>
      </trkpt>
      <trkpt lat="43.35599" lon="6.70137">
        <ele>176.60000610352</ele>
        <time>2012-10-12T11:01:15Z</time>
      </trkpt>
      <trkpt lat="43.35612" lon="6.70173">
        <ele>175.19999694824</ele>
        <time>2012-10-12T11:01:20Z</time>
      </trkpt>
      <trkpt lat="43.35628" lon="6.70217">
        <ele>173.39999389648</ele>
        <time>2012-10-12T11:01:26Z</time>
      </trkpt>
      <trkpt lat="43.3563" lon="6.70224">
        <ele>173.19999694824</ele>
        <time>2012-10-12T11:01:27Z</time>
      </trkpt>
      <trkpt lat="43.35641" lon="6.70247">
        <ele>171.60000610352</ele>
        <time>2012-10-12T11:01:30Z</time>
      </trkpt>
      <trkpt lat="43.35651" lon="6.7028">
        <ele>170.80000305176</ele>
        <time>2012-10-12T11:01:34Z</time>
      </trkpt>
      <trkpt lat="43.35672" lon="6.7032">
        <ele>168.19999694824</ele>
        <time>2012-10-12T11:01:40Z</time>
      </trkpt>
      <trkpt lat="43.35685" lon="6.70338">
        <ele>165.39999389648</ele>
        <time>2012-10-12T11:01:43Z</time>
      </trkpt>
      <trkpt lat="43.35698" lon="6.70376">
        <ele>162.60000610352</ele>
        <time>2012-10-12T11:01:49Z</time>
      </trkpt>
      <trkpt lat="43.35696" lon="6.70402">
        <ele>163.80000305176</ele>
        <time>2012-10-12T11:01:52Z</time>
      </trkpt>
      <trkpt lat="43.35697" lon="6.7042">
        <ele>164.39999389648</ele>
        <time>2012-10-12T11:01:54Z</time>
      </trkpt>
      <trkpt lat="43.35705" lon="6.70448">
        <ele>163.60000610352</ele>
        <time>2012-10-12T11:01:58Z</time>
      </trkpt>
      <trkpt lat="43.35711" lon="6.70453">
        <ele>162.39999389648</ele>
        <time>2012-10-12T11:02:00Z</time>
      </trkpt>
      <trkpt lat="43.35716" lon="6.70459">
        <ele>161.60000610352</ele>
        <time>2012-10-12T11:02:02Z</time>
      </trkpt>
      <trkpt lat="43.35726" lon="6.70474">
        <ele>160.60000610352</ele>
        <time>2012-10-12T11:02:06Z</time>
      </trkpt>
      <trkpt lat="43.35744" lon="6.70486">
        <ele>158.19999694824</ele>
        <time>2012-10-12T11:02:10Z</time>
      </trkpt>
      <trkpt lat="43.35772" lon="6.70488">
        <ele>151.39999389648</ele>
        <time>2012-10-12T11:02:14Z</time>
      </trkpt>
      <trkpt lat="43.35785" lon="6.70496">
        <ele>149.19999694824</ele>
        <time>2012-10-12T11:02:16Z</time>
      </trkpt>
      <trkpt lat="43.35804" lon="6.70515">
        <ele>145.39999389648</ele>
        <time>2012-10-12T11:02:21Z</time>
      </trkpt>
      <trkpt lat="43.35806" lon="6.70517">
        <ele>145</ele>
        <time>2012-10-12T11:02:22Z</time>
      </trkpt>
      <trkpt lat="43.35808" lon="6.7052">
        <ele>144.39999389648</ele>
        <time>2012-10-12T11:02:23Z</time>
      </trkpt>
      <trkpt lat="43.35816" lon="6.70528">
        <ele>142.80000305176</ele>
        <time>2012-10-12T11:02:27Z</time>
      </trkpt>
      <trkpt lat="43.35825" lon="6.70537">
        <ele>140.80000305176</ele>
        <time>2012-10-12T11:02:31Z</time>
      </trkpt>
      <trkpt lat="43.35841" lon="6.70551">
        <ele>137.80000305176</ele>
        <time>2012-10-12T11:02:36Z</time>
      </trkpt>
      <trkpt lat="43.35856" lon="6.70564">
        <ele>135.39999389648</ele>
        <time>2012-10-12T11:02:41Z</time>
      </trkpt>
      <trkpt lat="43.35874" lon="6.70567">
        <ele>131.80000305176</ele>
        <time>2012-10-12T11:02:46Z</time>
      </trkpt>
      <trkpt lat="43.35886" lon="6.70567">
        <ele>129.19999694824</ele>
        <time>2012-10-12T11:02:49Z</time>
      </trkpt>
      <trkpt lat="43.35899" lon="6.70582">
        <ele>127.59999847412</ele>
        <time>2012-10-12T11:02:53Z</time>
      </trkpt>
      <trkpt lat="43.35916" lon="6.70597">
        <ele>123.19999694824</ele>
        <time>2012-10-12T11:02:58Z</time>
      </trkpt>
      <trkpt lat="43.35927" lon="6.70591">
        <ele>121.80000305176</ele>
        <time>2012-10-12T11:03:01Z</time>
      </trkpt>
      <trkpt lat="43.35935" lon="6.70585">
        <ele>120.80000305176</ele>
        <time>2012-10-12T11:03:04Z</time>
      </trkpt>
      <trkpt lat="43.35945" lon="6.7058">
        <ele>118.80000305176</ele>
        <time>2012-10-12T11:03:07Z</time>
      </trkpt>
      <trkpt lat="43.35955" lon="6.70584">
        <ele>117.59999847412</ele>
        <time>2012-10-12T11:03:11Z</time>
      </trkpt>
      <trkpt lat="43.35965" lon="6.70596">
        <ele>115.59999847412</ele>
        <time>2012-10-12T11:03:15Z</time>
      </trkpt>
      <trkpt lat="43.35971" lon="6.70616">
        <ele>114.40000152588</ele>
        <time>2012-10-12T11:03:18Z</time>
      </trkpt>
      <trkpt lat="43.35987" lon="6.70627">
        <ele>112.19999694824</ele>
        <time>2012-10-12T11:03:21Z</time>
      </trkpt>
      <trkpt lat="43.36003" lon="6.70634">
        <ele>110.19999694824</ele>
        <time>2012-10-12T11:03:23Z</time>
      </trkpt>
      <trkpt lat="43.36021" lon="6.70637">
        <ele>107.40000152588</ele>
        <time>2012-10-12T11:03:25Z</time>
      </trkpt>
      <trkpt lat="43.36035" lon="6.70634">
        <ele>104.80000305176</ele>
        <time>2012-10-12T11:03:27Z</time>
      </trkpt>
      <trkpt lat="43.36069" lon="6.70647">
        <ele>100.59999847412</ele>
        <time>2012-10-12T11:03:32Z</time>
      </trkpt>
      <trkpt lat="43.36089" lon="6.70656">
        <ele>98.400001525879</ele>
        <time>2012-10-12T11:03:36Z</time>
      </trkpt>
      <trkpt lat="43.36104" lon="6.70662">
        <ele>95.199996948242</ele>
        <time>2012-10-12T11:03:41Z</time>
      </trkpt>
      <trkpt lat="43.36128" lon="6.70677">
        <ele>89.400001525879</ele>
        <time>2012-10-12T11:03:47Z</time>
      </trkpt>
      <trkpt lat="43.36142" lon="6.70687">
        <ele>86</ele>
        <time>2012-10-12T11:03:50Z</time>
      </trkpt>
      <trkpt lat="43.36156" lon="6.70699">
        <ele>83.199996948242</ele>
        <time>2012-10-12T11:03:54Z</time>
      </trkpt>
      <trkpt lat="43.36158" lon="6.707">
        <ele>82.800003051758</ele>
        <time>2012-10-12T11:03:55Z</time>
      </trkpt>
      <trkpt lat="43.36162" lon="6.70705">
        <ele>82.400001525879</ele>
        <time>2012-10-12T11:03:57Z</time>
      </trkpt>
      <trkpt lat="43.36172" lon="6.70723">
        <ele>80.800003051758</ele>
        <time>2012-10-12T11:04:04Z</time>
      </trkpt>
      <trkpt lat="43.36185" lon="6.70748">
        <ele>79</ele>
        <time>2012-10-12T11:04:10Z</time>
      </trkpt>
      <trkpt lat="43.36194" lon="6.70769">
        <ele>75.199996948242</ele>
        <time>2012-10-12T11:04:13Z</time>
      </trkpt>
      <trkpt lat="43.36209" lon="6.70792">
        <ele>70.800003051758</ele>
        <time>2012-10-12T11:04:17Z</time>
      </trkpt>
      <trkpt lat="43.36212" lon="6.70797">
        <ele>70.199996948242</ele>
        <time>2012-10-12T11:04:18Z</time>
      </trkpt>
      <trkpt lat="43.36237" lon="6.70828">
        <ele>66.599998474121</ele>
        <time>2012-10-12T11:04:24Z</time>
      </trkpt>
      <trkpt lat="43.36253" lon="6.70845">
        <ele>64.800003051758</ele>
        <time>2012-10-12T11:04:27Z</time>
      </trkpt>
      <trkpt lat="43.36271" lon="6.70874">
        <ele>61</ele>
        <time>2012-10-12T11:04:32Z</time>
      </trkpt>
      <trkpt lat="43.36273" lon="6.70877">
        <ele>60.599998474121</ele>
        <time>2012-10-12T11:04:33Z</time>
      </trkpt>
      <trkpt lat="43.36278" lon="6.70882">
        <ele>59.799999237061</ele>
        <time>2012-10-12T11:04:35Z</time>
      </trkpt>
      <trkpt lat="43.36287" lon="6.709">
        <ele>58.400001525879</ele>
        <time>2012-10-12T11:04:39Z</time>
      </trkpt>
      <trkpt lat="43.36294" lon="6.70913">
        <ele>57.400001525879</ele>
        <time>2012-10-12T11:04:42Z</time>
      </trkpt>
      <trkpt lat="43.36296" lon="6.70915">
        <ele>57.200000762939</ele>
        <time>2012-10-12T11:04:43Z</time>
      </trkpt>
      <trkpt lat="43.36298" lon="6.70916">
        <ele>57</ele>
        <time>2012-10-12T11:04:44Z</time>
      </trkpt>
      <trkpt lat="43.36301" lon="6.70919">
        <ele>56.799999237061</ele>
        <time>2012-10-12T11:04:45Z</time>
      </trkpt>
      <trkpt lat="43.36311" lon="6.70913">
        <ele>56.400001525879</ele>
        <time>2012-10-12T11:04:49Z</time>
      </trkpt>
      <trkpt lat="43.36317" lon="6.70907">
        <ele>56</ele>
        <time>2012-10-12T11:04:51Z</time>
      </trkpt>
      <trkpt lat="43.36319" lon="6.70904">
        <ele>55.799999237061</ele>
        <time>2012-10-12T11:04:52Z</time>
      </trkpt>
      <trkpt lat="43.36329" lon="6.70893">
        <ele>55</ele>
        <time>2012-10-12T11:04:57Z</time>
      </trkpt>
      <trkpt lat="43.36335" lon="6.70877">
        <ele>54.400001525879</ele>
        <time>2012-10-12T11:05:00Z</time>
      </trkpt>
      <trkpt lat="43.36332" lon="6.70835">
        <ele>54.200000762939</ele>
        <time>2012-10-12T11:05:05Z</time>
      </trkpt>
      <trkpt lat="43.36339" lon="6.70815">
        <ele>51</ele>
        <time>2012-10-12T11:05:09Z</time>
      </trkpt>
      <trkpt lat="43.36352" lon="6.70826">
        <ele>49.799999237061</ele>
        <time>2012-10-12T11:05:11Z</time>
      </trkpt>
      <trkpt lat="43.36369" lon="6.70846">
        <ele>47.599998474121</ele>
        <time>2012-10-12T11:05:14Z</time>
      </trkpt>
      <trkpt lat="43.364" lon="6.70866">
        <ele>42.400001525879</ele>
        <time>2012-10-12T11:05:18Z</time>
      </trkpt>
      <trkpt lat="43.36417" lon="6.70872">
        <ele>39.799999237061</ele>
        <time>2012-10-12T11:05:20Z</time>
      </trkpt>
      <trkpt lat="43.36433" lon="6.70874">
        <ele>37.599998474121</ele>
        <time>2012-10-12T11:05:23Z</time>
      </trkpt>
      <trkpt lat="43.36443" lon="6.70861">
        <ele>35.400001525879</ele>
        <time>2012-10-12T11:05:27Z</time>
      </trkpt>
      <trkpt lat="43.36443" lon="6.70854">
        <ele>35.200000762939</ele>
        <time>2012-10-12T11:05:28Z</time>
      </trkpt>
      <trkpt lat="43.3644" lon="6.70817">
        <ele>33.400001525879</ele>
        <time>2012-10-12T11:05:32Z</time>
      </trkpt>
      <trkpt lat="43.36441" lon="6.70784">
        <ele>30.60000038147</ele>
        <time>2012-10-12T11:05:35Z</time>
      </trkpt>
      <trkpt lat="43.36445" lon="6.70761">
        <ele>28.39999961853</ele>
        <time>2012-10-12T11:05:37Z</time>
      </trkpt>
      <trkpt lat="43.36466" lon="6.70736">
        <ele>24.39999961853</ele>
        <time>2012-10-12T11:05:41Z</time>
      </trkpt>
      <trkpt lat="43.36488" lon="6.70743">
        <ele>22.200000762939</ele>
        <time>2012-10-12T11:05:44Z</time>
      </trkpt>
      <trkpt lat="43.36499" lon="6.70771">
        <ele>22.39999961853</ele>
        <time>2012-10-12T11:05:47Z</time>
      </trkpt>
      <trkpt lat="43.36506" lon="6.70796">
        <ele>23</ele>
        <time>2012-10-12T11:05:50Z</time>
      </trkpt>
      <trkpt lat="43.36518" lon="6.70797">
        <ele>21.799999237061</ele>
        <time>2012-10-12T11:05:52Z</time>
      </trkpt>
      <trkpt lat="43.36529" lon="6.70783">
        <ele>20.200000762939</ele>
        <time>2012-10-12T11:05:54Z</time>
      </trkpt>
      <trkpt lat="43.36544" lon="6.70777">
        <ele>18.799999237061</ele>
        <time>2012-10-12T11:05:56Z</time>
      </trkpt>
      <trkpt lat="43.36559" lon="6.70759">
        <ele>17.39999961853</ele>
        <time>2012-10-12T11:06:01Z</time>
      </trkpt>
      <trkpt lat="43.36571" lon="6.70736">
        <ele>17.39999961853</ele>
        <time>2012-10-12T11:06:05Z</time>
      </trkpt>
      <trkpt lat="43.36586" lon="6.70736">
        <ele>17</ele>
        <time>2012-10-12T11:06:08Z</time>
      </trkpt>
      <trkpt lat="43.36599" lon="6.70748">
        <ele>16.799999237061</ele>
        <time>2012-10-12T11:06:11Z</time>
      </trkpt>
      <trkpt lat="43.36602" lon="6.70755">
        <ele>16.60000038147</ele>
        <time>2012-10-12T11:06:12Z</time>
      </trkpt>
      <trkpt lat="43.36608" lon="6.70767">
        <ele>16.39999961853</ele>
        <time>2012-10-12T11:06:14Z</time>
      </trkpt>
      <trkpt lat="43.36623" lon="6.70789">
        <ele>15.39999961853</ele>
        <time>2012-10-12T11:06:18Z</time>
      </trkpt>
      <trkpt lat="43.3665" lon="6.70802">
        <ele>14.39999961853</ele>
        <time>2012-10-12T11:06:23Z</time>
      </trkpt>
      <trkpt lat="43.36665" lon="6.70804">
        <ele>14.199999809265</ele>
        <time>2012-10-12T11:06:26Z</time>
      </trkpt>
      <trkpt lat="43.36681" lon="6.70797">
        <ele>14.39999961853</ele>
        <time>2012-10-12T11:06:30Z</time>
      </trkpt>
      <trkpt lat="43.36707" lon="6.70769">
        <ele>15.800000190735</ele>
        <time>2012-10-12T11:06:37Z</time>
      </trkpt>
      <trkpt lat="43.36718" lon="6.70742">
        <ele>17</ele>
        <time>2012-10-12T11:06:42Z</time>
      </trkpt>
      <trkpt lat="43.36719" lon="6.70737">
        <ele>17.200000762939</ele>
        <time>2012-10-12T11:06:43Z</time>
      </trkpt>
      <trkpt lat="43.36724" lon="6.70703">
        <ele>17.39999961853</ele>
        <time>2012-10-12T11:06:49Z</time>
      </trkpt>
      <trkpt lat="43.36727" lon="6.70662">
        <ele>17.799999237061</ele>
        <time>2012-10-12T11:06:55Z</time>
      </trkpt>
      <trkpt lat="43.36739" lon="6.70629">
        <ele>16.39999961853</ele>
        <time>2012-10-12T11:06:59Z</time>
      </trkpt>
      <trkpt lat="43.36754" lon="6.70635">
        <ele>15.39999961853</ele>
        <time>2012-10-12T11:07:01Z</time>
      </trkpt>
      <trkpt lat="43.36773" lon="6.70651">
        <ele>14.800000190735</ele>
        <time>2012-10-12T11:07:04Z</time>
      </trkpt>
      <trkpt lat="43.36786" lon="6.70638">
        <ele>14.39999961853</ele>
        <time>2012-10-12T11:07:07Z</time>
      </trkpt>
      <trkpt lat="43.36789" lon="6.70631">
        <ele>14.39999961853</ele>
        <time>2012-10-12T11:07:08Z</time>
      </trkpt>
      <trkpt lat="43.36791" lon="6.7059">
        <ele>14.39999961853</ele>
        <time>2012-10-12T11:07:13Z</time>
      </trkpt>
      <trkpt lat="43.36787" lon="6.70577">
        <ele>14.800000190735</ele>
        <time>2012-10-12T11:07:15Z</time>
      </trkpt>
      <trkpt lat="43.36792" lon="6.70549">
        <ele>15.199999809265</ele>
        <time>2012-10-12T11:07:19Z</time>
      </trkpt>
      <trkpt lat="43.36789" lon="6.70527">
        <ele>16</ele>
        <time>2012-10-12T11:07:22Z</time>
      </trkpt>
      <trkpt lat="43.36788" lon="6.70511">
        <ele>16.39999961853</ele>
        <time>2012-10-12T11:07:24Z</time>
      </trkpt>
      <trkpt lat="43.36792" lon="6.70462">
        <ele>17.60000038147</ele>
        <time>2012-10-12T11:07:30Z</time>
      </trkpt>
      <trkpt lat="43.36796" lon="6.7044">
        <ele>17.799999237061</ele>
        <time>2012-10-12T11:07:33Z</time>
      </trkpt>
      <trkpt lat="43.36813" lon="6.7043">
        <ele>16.200000762939</ele>
        <time>2012-10-12T11:07:37Z</time>
      </trkpt>
      <trkpt lat="43.36833" lon="6.7044">
        <ele>14</ele>
        <time>2012-10-12T11:07:43Z</time>
      </trkpt>
      <trkpt lat="43.36843" lon="6.70448">
        <ele>15.800000190735</ele>
        <time>2012-10-12T11:07:47Z</time>
      </trkpt>
      <trkpt lat="43.3686" lon="6.70469">
        <ele>18.60000038147</ele>
        <time>2012-10-12T11:07:55Z</time>
      </trkpt>
      <trkpt lat="43.36874" lon="6.70496">
        <ele>20.799999237061</ele>
        <time>2012-10-12T11:08:03Z</time>
      </trkpt>
      <trkpt lat="43.36879" lon="6.70513">
        <ele>21.799999237061</ele>
        <time>2012-10-12T11:08:08Z</time>
      </trkpt>
      <trkpt lat="43.36884" lon="6.70529">
        <ele>22.799999237061</ele>
        <time>2012-10-12T11:08:15Z</time>
      </trkpt>
      <trkpt lat="43.36886" lon="6.70551">
        <ele>23.799999237061</ele>
        <time>2012-10-12T11:08:24Z</time>
      </trkpt>
      <trkpt lat="43.36892" lon="6.70554">
        <ele>24.799999237061</ele>
        <time>2012-10-12T11:08:29Z</time>
      </trkpt>
      <trkpt lat="43.36901" lon="6.7055">
        <ele>26.39999961853</ele>
        <time>2012-10-12T11:08:36Z</time>
      </trkpt>
      <trkpt lat="43.36911" lon="6.70547">
        <ele>28</ele>
        <time>2012-10-12T11:08:44Z</time>
      </trkpt>
      <trkpt lat="43.36918" lon="6.70543">
        <ele>29.39999961853</ele>
        <time>2012-10-12T11:08:51Z</time>
      </trkpt>
      <trkpt lat="43.36926" lon="6.70538">
        <ele>31.200000762939</ele>
        <time>2012-10-12T11:08:59Z</time>
      </trkpt>
      <trkpt lat="43.36933" lon="6.70533">
        <ele>33</ele>
        <time>2012-10-12T11:09:07Z</time>
      </trkpt>
      <trkpt lat="43.3694" lon="6.70529">
        <ele>34.599998474121</ele>
        <time>2012-10-12T11:09:14Z</time>
      </trkpt>
      <trkpt lat="43.3695" lon="6.70524">
        <ele>36.799999237061</ele>
        <time>2012-10-12T11:09:22Z</time>
      </trkpt>
      <trkpt lat="43.36962" lon="6.70518">
        <ele>39.599998474121</ele>
        <time>2012-10-12T11:09:31Z</time>
      </trkpt>
      <trkpt lat="43.36974" lon="6.70512">
        <ele>42</ele>
        <time>2012-10-12T11:09:39Z</time>
      </trkpt>
      <trkpt lat="43.36987" lon="6.70502">
        <ele>44.200000762939</ele>
        <time>2012-10-12T11:09:48Z</time>
      </trkpt>
      <trkpt lat="43.37" lon="6.70488">
        <ele>46.799999237061</ele>
        <time>2012-10-12T11:09:57Z</time>
      </trkpt>
      <trkpt lat="43.37011" lon="6.70472">
        <ele>49.200000762939</ele>
        <time>2012-10-12T11:10:05Z</time>
      </trkpt>
      <trkpt lat="43.37022" lon="6.70457">
        <ele>51.400001525879</ele>
        <time>2012-10-12T11:10:13Z</time>
      </trkpt>
      <trkpt lat="43.37036" lon="6.70437">
        <ele>53.799999237061</ele>
        <time>2012-10-12T11:10:22Z</time>
      </trkpt>
      <trkpt lat="43.37049" lon="6.70422">
        <ele>55.799999237061</ele>
        <time>2012-10-12T11:10:29Z</time>
      </trkpt>
      <trkpt lat="43.37065" lon="6.70393">
        <ele>57</ele>
        <time>2012-10-12T11:10:39Z</time>
      </trkpt>
      <trkpt lat="43.37081" lon="6.70368">
        <ele>58</ele>
        <time>2012-10-12T11:10:48Z</time>
      </trkpt>
      <trkpt lat="43.37096" lon="6.70344">
        <ele>58.799999237061</ele>
        <time>2012-10-12T11:10:54Z</time>
      </trkpt>
      <trkpt lat="43.37106" lon="6.70309">
        <ele>57.799999237061</ele>
        <time>2012-10-12T11:11:00Z</time>
      </trkpt>
      <trkpt lat="43.37115" lon="6.70285">
        <ele>58</ele>
        <time>2012-10-12T11:11:04Z</time>
      </trkpt>
      <trkpt lat="43.37121" lon="6.70259">
        <ele>57.400001525879</ele>
        <time>2012-10-12T11:11:10Z</time>
      </trkpt>
      <trkpt lat="43.37126" lon="6.70237">
        <ele>56.599998474121</ele>
        <time>2012-10-12T11:11:18Z</time>
      </trkpt>
      <trkpt lat="43.37137" lon="6.70214">
        <ele>56.799999237061</ele>
        <time>2012-10-12T11:11:28Z</time>
      </trkpt>
      <trkpt lat="43.37147" lon="6.70198">
        <ele>57</ele>
        <time>2012-10-12T11:11:35Z</time>
      </trkpt>
      <trkpt lat="43.3716" lon="6.70189">
        <ele>58.599998474121</ele>
        <time>2012-10-12T11:11:42Z</time>
      </trkpt>
      <trkpt lat="43.37183" lon="6.70181">
        <ele>62</ele>
        <time>2012-10-12T11:11:53Z</time>
      </trkpt>
      <trkpt lat="43.37201" lon="6.70174">
        <ele>64.599998474121</ele>
        <time>2012-10-12T11:12:02Z</time>
      </trkpt>
      <trkpt lat="43.37209" lon="6.70172">
        <ele>65.800003051758</ele>
        <time>2012-10-12T11:12:06Z</time>
      </trkpt>
      <trkpt lat="43.37223" lon="6.70168">
        <ele>68</ele>
        <time>2012-10-12T11:12:14Z</time>
      </trkpt>
      <trkpt lat="43.37236" lon="6.70165">
        <ele>70</ele>
        <time>2012-10-12T11:12:22Z</time>
      </trkpt>
      <trkpt lat="43.3725" lon="6.70163">
        <ele>72.599998474121</ele>
        <time>2012-10-12T11:12:31Z</time>
      </trkpt>
      <trkpt lat="43.37264" lon="6.70162">
        <ele>75</ele>
        <time>2012-10-12T11:12:39Z</time>
      </trkpt>
      <trkpt lat="43.37278" lon="6.70159">
        <ele>77.199996948242</ele>
        <time>2012-10-12T11:12:47Z</time>
      </trkpt>
      <trkpt lat="43.3729" lon="6.70152">
        <ele>79</ele>
        <time>2012-10-12T11:12:55Z</time>
      </trkpt>
      <trkpt lat="43.37298" lon="6.70146">
        <ele>80</ele>
        <time>2012-10-12T11:13:01Z</time>
      </trkpt>
      <trkpt lat="43.37304" lon="6.70139">
        <ele>80.599998474121</ele>
        <time>2012-10-12T11:13:07Z</time>
      </trkpt>
      <trkpt lat="43.37307" lon="6.70128">
        <ele>80.599998474121</ele>
        <time>2012-10-12T11:13:14Z</time>
      </trkpt>
      <trkpt lat="43.37314" lon="6.70116">
        <ele>81.400001525879</ele>
        <time>2012-10-12T11:13:22Z</time>
      </trkpt>
      <trkpt lat="43.37321" lon="6.70105">
        <ele>82.599998474121</ele>
        <time>2012-10-12T11:13:30Z</time>
      </trkpt>
      <trkpt lat="43.37322" lon="6.70103">
        <ele>82.800003051758</ele>
        <time>2012-10-12T11:13:31Z</time>
      </trkpt>
      <trkpt lat="43.37328" lon="6.70093">
        <ele>83.800003051758</ele>
        <time>2012-10-12T11:13:38Z</time>
      </trkpt>
      <trkpt lat="43.37333" lon="6.70083">
        <ele>85</ele>
        <time>2012-10-12T11:13:46Z</time>
      </trkpt>
      <trkpt lat="43.37337" lon="6.70079">
        <ele>85.800003051758</ele>
        <time>2012-10-12T11:13:50Z</time>
      </trkpt>
      <trkpt lat="43.3734" lon="6.7007">
        <ele>86.400001525879</ele>
        <time>2012-10-12T11:13:56Z</time>
      </trkpt>
      <trkpt lat="43.37343" lon="6.7006">
        <ele>87.199996948242</ele>
        <time>2012-10-12T11:14:03Z</time>
      </trkpt>
      <trkpt lat="43.37347" lon="6.70053">
        <ele>88.199996948242</ele>
        <time>2012-10-12T11:14:09Z</time>
      </trkpt>
      <trkpt lat="43.37354" lon="6.70044">
        <ele>89.800003051758</ele>
        <time>2012-10-12T11:14:17Z</time>
      </trkpt>
      <trkpt lat="43.37358" lon="6.70034">
        <ele>91</ele>
        <time>2012-10-12T11:14:24Z</time>
      </trkpt>
      <trkpt lat="43.37362" lon="6.70023">
        <ele>92.199996948242</ele>
        <time>2012-10-12T11:14:31Z</time>
      </trkpt>
      <trkpt lat="43.37366" lon="6.70013">
        <ele>93.599998474121</ele>
        <time>2012-10-12T11:14:39Z</time>
      </trkpt>
      <trkpt lat="43.37368" lon="6.70011">
        <ele>94</ele>
        <time>2012-10-12T11:14:41Z</time>
      </trkpt>
      <trkpt lat="43.37373" lon="6.70008">
        <ele>95.800003051758</ele>
        <time>2012-10-12T11:14:47Z</time>
      </trkpt>
      <trkpt lat="43.37378" lon="6.70009">
        <ele>97</ele>
        <time>2012-10-12T11:14:52Z</time>
      </trkpt>
      <trkpt lat="43.37383" lon="6.70013">
        <ele>98</ele>
        <time>2012-10-12T11:14:57Z</time>
      </trkpt>
      <trkpt lat="43.37387" lon="6.70023">
        <ele>98.599998474121</ele>
        <time>2012-10-12T11:15:04Z</time>
      </trkpt>
      <trkpt lat="43.37392" lon="6.7003">
        <ele>99.400001525879</ele>
        <time>2012-10-12T11:15:10Z</time>
      </trkpt>
      <trkpt lat="43.37393" lon="6.70032">
        <ele>99.599998474121</ele>
        <time>2012-10-12T11:15:12Z</time>
      </trkpt>
      <trkpt lat="43.374" lon="6.70039">
        <ele>100.80000305176</ele>
        <time>2012-10-12T11:15:20Z</time>
      </trkpt>
      <trkpt lat="43.37402" lon="6.7004">
        <ele>101.19999694824</ele>
        <time>2012-10-12T11:15:22Z</time>
      </trkpt>
      <trkpt lat="43.37409" lon="6.7004">
        <ele>102.80000305176</ele>
        <time>2012-10-12T11:15:28Z</time>
      </trkpt>
      <trkpt lat="43.37419" lon="6.70032">
        <ele>105.40000152588</ele>
        <time>2012-10-12T11:15:36Z</time>
      </trkpt>
      <trkpt lat="43.37429" lon="6.70021">
        <ele>106.80000305176</ele>
        <time>2012-10-12T11:15:43Z</time>
      </trkpt>
      <trkpt lat="43.3744" lon="6.70005">
        <ele>109</ele>
        <time>2012-10-12T11:15:49Z</time>
      </trkpt>
      <trkpt lat="43.37458" lon="6.69983">
        <ele>111</ele>
        <time>2012-10-12T11:15:57Z</time>
      </trkpt>
      <trkpt lat="43.37478" lon="6.69959">
        <ele>112.40000152588</ele>
        <time>2012-10-12T11:16:07Z</time>
      </trkpt>
      <trkpt lat="43.37493" lon="6.69947">
        <ele>113.40000152588</ele>
        <time>2012-10-12T11:16:14Z</time>
      </trkpt>
      <trkpt lat="43.3751" lon="6.69948">
        <ele>115</ele>
        <time>2012-10-12T11:16:20Z</time>
      </trkpt>
      <trkpt lat="43.37519" lon="6.69962">
        <ele>115.59999847412</ele>
        <time>2012-10-12T11:16:25Z</time>
      </trkpt>
      <trkpt lat="43.3753" lon="6.69987">
        <ele>115.80000305176</ele>
        <time>2012-10-12T11:16:32Z</time>
      </trkpt>
      <trkpt lat="43.37538" lon="6.69997">
        <ele>116</ele>
        <time>2012-10-12T11:16:38Z</time>
      </trkpt>
      <trkpt lat="43.3755" lon="6.70004">
        <ele>116</ele>
        <time>2012-10-12T11:16:45Z</time>
      </trkpt>
      <trkpt lat="43.37565" lon="6.70005">
        <ele>117</ele>
        <time>2012-10-12T11:16:55Z</time>
      </trkpt>
      <trkpt lat="43.3758" lon="6.70002">
        <ele>118.40000152588</ele>
        <time>2012-10-12T11:17:03Z</time>
      </trkpt>
      <trkpt lat="43.37593" lon="6.70001">
        <ele>118</ele>
        <time>2012-10-12T11:17:09Z</time>
      </trkpt>
      <trkpt lat="43.37608" lon="6.69995">
        <ele>118</ele>
        <time>2012-10-12T11:17:14Z</time>
      </trkpt>
      <trkpt lat="43.37626" lon="6.69984">
        <ele>118.59999847412</ele>
        <time>2012-10-12T11:17:18Z</time>
      </trkpt>
      <trkpt lat="43.37651" lon="6.69978">
        <ele>118.80000305176</ele>
        <time>2012-10-12T11:17:22Z</time>
      </trkpt>
      <trkpt lat="43.37673" lon="6.69967">
        <ele>121.19999694824</ele>
        <time>2012-10-12T11:17:25Z</time>
      </trkpt>
      <trkpt lat="43.37687" lon="6.69955">
        <ele>124.40000152588</ele>
        <time>2012-10-12T11:17:27Z</time>
      </trkpt>
      <trkpt lat="43.37717" lon="6.69932">
        <ele>130.60000610352</ele>
        <time>2012-10-12T11:17:31Z</time>
      </trkpt>
      <trkpt lat="43.37726" lon="6.69946">
        <ele>127.80000305176</ele>
        <time>2012-10-12T11:17:34Z</time>
      </trkpt>
      <trkpt lat="43.37731" lon="6.69962">
        <ele>124.40000152588</ele>
        <time>2012-10-12T11:17:39Z</time>
      </trkpt>
      <trkpt lat="43.37747" lon="6.69983">
        <ele>120.40000152588</ele>
        <time>2012-10-12T11:17:48Z</time>
      </trkpt>
      <trkpt lat="43.37752" lon="6.69991">
        <ele>119.19999694824</ele>
        <time>2012-10-12T11:17:53Z</time>
      </trkpt>
      <trkpt lat="43.37756" lon="6.69995">
        <ele>119.40000152588</ele>
        <time>2012-10-12T11:17:59Z</time>
      </trkpt>
      <trkpt lat="43.37757" lon="6.69996">
        <ele>119.40000152588</ele>
        <time>2012-10-12T11:18:00Z</time>
      </trkpt>
      <trkpt lat="43.37769" lon="6.70002">
        <ele>120.59999847412</ele>
        <time>2012-10-12T11:18:08Z</time>
      </trkpt>
      <trkpt lat="43.37777" lon="6.7001">
        <ele>120.59999847412</ele>
        <time>2012-10-12T11:18:15Z</time>
      </trkpt>
      <trkpt lat="43.37784" lon="6.70015">
        <ele>121</ele>
        <time>2012-10-12T11:18:21Z</time>
      </trkpt>
      <trkpt lat="43.37793" lon="6.70022">
        <ele>121.40000152588</ele>
        <time>2012-10-12T11:18:28Z</time>
      </trkpt>
      <trkpt lat="43.37801" lon="6.70027">
        <ele>122</ele>
        <time>2012-10-12T11:18:34Z</time>
      </trkpt>
      <trkpt lat="43.37809" lon="6.70028">
        <ele>123.40000152588</ele>
        <time>2012-10-12T11:18:41Z</time>
      </trkpt>
      <trkpt lat="43.37817" lon="6.70031">
        <ele>124.59999847412</ele>
        <time>2012-10-12T11:18:46Z</time>
      </trkpt>
      <trkpt lat="43.37832" lon="6.70032">
        <ele>127.40000152588</ele>
        <time>2012-10-12T11:18:53Z</time>
      </trkpt>
      <trkpt lat="43.37845" lon="6.70037">
        <ele>126.19999694824</ele>
        <time>2012-10-12T11:19:00Z</time>
      </trkpt>
      <trkpt lat="43.37863" lon="6.70047">
        <ele>124.19999694824</ele>
        <time>2012-10-12T11:19:07Z</time>
      </trkpt>
      <trkpt lat="43.37881" lon="6.70064">
        <ele>122.40000152588</ele>
        <time>2012-10-12T11:19:13Z</time>
      </trkpt>
      <trkpt lat="43.37891" lon="6.70078">
        <ele>122</ele>
        <time>2012-10-12T11:19:16Z</time>
      </trkpt>
      <trkpt lat="43.37893" lon="6.70084">
        <ele>121.80000305176</ele>
        <time>2012-10-12T11:19:17Z</time>
      </trkpt>
      <trkpt lat="43.37897" lon="6.70099">
        <ele>121.80000305176</ele>
        <time>2012-10-12T11:19:19Z</time>
      </trkpt>
      <trkpt lat="43.37908" lon="6.70131">
        <ele>122.80000305176</ele>
        <time>2012-10-12T11:19:23Z</time>
      </trkpt>
      <trkpt lat="43.37914" lon="6.70139">
        <ele>123.59999847412</ele>
        <time>2012-10-12T11:19:24Z</time>
      </trkpt>
      <trkpt lat="43.37954" lon="6.70158">
        <ele>125.59999847412</ele>
        <time>2012-10-12T11:19:29Z</time>
      </trkpt>
      <trkpt lat="43.37977" lon="6.70141">
        <ele>124.40000152588</ele>
        <time>2012-10-12T11:19:32Z</time>
      </trkpt>
      <trkpt lat="43.38004" lon="6.70118">
        <ele>120.80000305176</ele>
        <time>2012-10-12T11:19:36Z</time>
      </trkpt>
      <trkpt lat="43.38031" lon="6.70098">
        <ele>116.59999847412</ele>
        <time>2012-10-12T11:19:40Z</time>
      </trkpt>
      <trkpt lat="43.38062" lon="6.70079">
        <ele>112.80000305176</ele>
        <time>2012-10-12T11:19:45Z</time>
      </trkpt>
      <trkpt lat="43.38079" lon="6.70072">
        <ele>112</ele>
        <time>2012-10-12T11:19:50Z</time>
      </trkpt>
      <trkpt lat="43.38087" lon="6.70071">
        <ele>111.19999694824</ele>
        <time>2012-10-12T11:19:52Z</time>
      </trkpt>
      <trkpt lat="43.38109" lon="6.70073">
        <ele>108.19999694824</ele>
        <time>2012-10-12T11:19:58Z</time>
      </trkpt>
      <trkpt lat="43.38134" lon="6.70074">
        <ele>104.59999847412</ele>
        <time>2012-10-12T11:20:03Z</time>
      </trkpt>
      <trkpt lat="43.38167" lon="6.70078">
        <ele>100</ele>
        <time>2012-10-12T11:20:09Z</time>
      </trkpt>
      <trkpt lat="43.38173" lon="6.70078">
        <ele>99.400001525879</ele>
        <time>2012-10-12T11:20:10Z</time>
      </trkpt>
      <trkpt lat="43.38187" lon="6.70076">
        <ele>98</ele>
        <time>2012-10-12T11:20:13Z</time>
      </trkpt>
      <trkpt lat="43.38195" lon="6.70079">
        <ele>97.199996948242</ele>
        <time>2012-10-12T11:20:17Z</time>
      </trkpt>
      <trkpt lat="43.38196" lon="6.70093">
        <ele>98.199996948242</ele>
        <time>2012-10-12T11:20:20Z</time>
      </trkpt>
      <trkpt lat="43.38202" lon="6.70106">
        <ele>99.199996948242</ele>
        <time>2012-10-12T11:20:23Z</time>
      </trkpt>
      <trkpt lat="43.38222" lon="6.70121">
        <ele>98.400001525879</ele>
        <time>2012-10-12T11:20:29Z</time>
      </trkpt>
      <trkpt lat="43.38238" lon="6.70136">
        <ele>97.400001525879</ele>
        <time>2012-10-12T11:20:34Z</time>
      </trkpt>
      <trkpt lat="43.3826" lon="6.70156">
        <ele>95.800003051758</ele>
        <time>2012-10-12T11:20:40Z</time>
      </trkpt>
      <trkpt lat="43.38281" lon="6.70178">
        <ele>94.599998474121</ele>
        <time>2012-10-12T11:20:45Z</time>
      </trkpt>
      <trkpt lat="43.38296" lon="6.70198">
        <ele>94.400001525879</ele>
        <time>2012-10-12T11:20:49Z</time>
      </trkpt>
      <trkpt lat="43.38298" lon="6.70205">
        <ele>94.800003051758</ele>
        <time>2012-10-12T11:20:50Z</time>
      </trkpt>
      <trkpt lat="43.3831" lon="6.70247">
        <ele>96.599998474121</ele>
        <time>2012-10-12T11:20:56Z</time>
      </trkpt>
      <trkpt lat="43.38312" lon="6.70268">
        <ele>99.199996948242</ele>
        <time>2012-10-12T11:21:00Z</time>
      </trkpt>
      <trkpt lat="43.38315" lon="6.703">
        <ele>103.59999847412</ele>
        <time>2012-10-12T11:21:07Z</time>
      </trkpt>
      <trkpt lat="43.38323" lon="6.70307">
        <ele>103</ele>
        <time>2012-10-12T11:21:12Z</time>
      </trkpt>
      <trkpt lat="43.38342" lon="6.70315">
        <ele>101</ele>
        <time>2012-10-12T11:21:19Z</time>
      </trkpt>
      <trkpt lat="43.38351" lon="6.70329">
        <ele>102.59999847412</ele>
        <time>2012-10-12T11:21:24Z</time>
      </trkpt>
      <trkpt lat="43.38358" lon="6.70348">
        <ele>105.40000152588</ele>
        <time>2012-10-12T11:21:30Z</time>
      </trkpt>
      <trkpt lat="43.38366" lon="6.70355">
        <ele>105.80000305176</ele>
        <time>2012-10-12T11:21:34Z</time>
      </trkpt>
      <trkpt lat="43.38373" lon="6.70363">
        <ele>106.40000152588</ele>
        <time>2012-10-12T11:21:37Z</time>
      </trkpt>
      <trkpt lat="43.38377" lon="6.70365">
        <ele>106.40000152588</ele>
        <time>2012-10-12T11:21:41Z</time>
      </trkpt>
      <trkpt lat="43.38378" lon="6.70365">
        <ele>106.40000152588</ele>
        <time>2012-10-12T11:21:43Z</time>
      </trkpt>
      <trkpt lat="43.38384" lon="6.70365">
        <ele>105.80000305176</ele>
        <time>2012-10-12T11:21:49Z</time>
      </trkpt>
      <trkpt lat="43.38389" lon="6.70361">
        <ele>104.59999847412</ele>
        <time>2012-10-12T11:21:55Z</time>
      </trkpt>
      <trkpt lat="43.38391" lon="6.7036">
        <ele>104.19999694824</ele>
        <time>2012-10-12T11:21:57Z</time>
      </trkpt>
      <trkpt lat="43.38399" lon="6.70359">
        <ele>103.19999694824</ele>
        <time>2012-10-12T11:22:02Z</time>
      </trkpt>
      <trkpt lat="43.38407" lon="6.70364">
        <ele>103.19999694824</ele>
        <time>2012-10-12T11:22:09Z</time>
      </trkpt>
      <trkpt lat="43.38415" lon="6.70368">
        <ele>103</ele>
        <time>2012-10-12T11:22:16Z</time>
      </trkpt>
      <trkpt lat="43.3842" lon="6.70377">
        <ele>103.80000305176</ele>
        <time>2012-10-12T11:22:22Z</time>
      </trkpt>
      <trkpt lat="43.38425" lon="6.70388">
        <ele>104.80000305176</ele>
        <time>2012-10-12T11:22:29Z</time>
      </trkpt>
      <trkpt lat="43.38433" lon="6.70396">
        <ele>105</ele>
        <time>2012-10-12T11:22:34Z</time>
      </trkpt>
      <trkpt lat="43.38436" lon="6.70401">
        <ele>105.19999694824</ele>
        <time>2012-10-12T11:22:36Z</time>
      </trkpt>
      <trkpt lat="43.38433" lon="6.70408">
        <ele>106.80000305176</ele>
        <time>2012-10-12T11:22:41Z</time>
      </trkpt>
      <trkpt lat="43.38426" lon="6.70416">
        <ele>109.19999694824</ele>
        <time>2012-10-12T11:22:48Z</time>
      </trkpt>
      <trkpt lat="43.38426" lon="6.70417">
        <ele>109.40000152588</ele>
        <time>2012-10-12T11:22:49Z</time>
      </trkpt>
      <trkpt lat="43.38421" lon="6.7043">
        <ele>110.80000305176</ele>
        <time>2012-10-12T11:22:56Z</time>
      </trkpt>
      <trkpt lat="43.3841" lon="6.70446">
        <ele>113</ele>
        <time>2012-10-12T11:23:05Z</time>
      </trkpt>
      <trkpt lat="43.38406" lon="6.7046">
        <ele>114.19999694824</ele>
        <time>2012-10-12T11:23:11Z</time>
      </trkpt>
      <trkpt lat="43.38404" lon="6.70465">
        <ele>114.40000152588</ele>
        <time>2012-10-12T11:23:13Z</time>
      </trkpt>
      <trkpt lat="43.38399" lon="6.70468">
        <ele>115.40000152588</ele>
        <time>2012-10-12T11:23:17Z</time>
      </trkpt>
      <trkpt lat="43.3839" lon="6.70476">
        <ele>117</ele>
        <time>2012-10-12T11:23:24Z</time>
      </trkpt>
      <trkpt lat="43.3838" lon="6.70487">
        <ele>119</ele>
        <time>2012-10-12T11:23:33Z</time>
      </trkpt>
      <trkpt lat="43.3837" lon="6.70497">
        <ele>121.19999694824</ele>
        <time>2012-10-12T11:23:42Z</time>
      </trkpt>
      <trkpt lat="43.38361" lon="6.70513">
        <ele>122.19999694824</ele>
        <time>2012-10-12T11:23:51Z</time>
      </trkpt>
      <trkpt lat="43.38362" lon="6.7053">
        <ele>121.59999847412</ele>
        <time>2012-10-12T11:23:57Z</time>
      </trkpt>
      <trkpt lat="43.38363" lon="6.70535">
        <ele>121</ele>
        <time>2012-10-12T11:24:00Z</time>
      </trkpt>
      <trkpt lat="43.38367" lon="6.70539">
        <ele>120.40000152588</ele>
        <time>2012-10-12T11:24:06Z</time>
      </trkpt>
      <trkpt lat="43.3837" lon="6.70541">
        <ele>119.80000305176</ele>
        <time>2012-10-12T11:24:41Z</time>
      </trkpt>
      <trkpt lat="43.38366" lon="6.70537">
        <ele>120.40000152588</ele>
        <time>2012-10-12T11:24:45Z</time>
      </trkpt>
      <trkpt lat="43.38366" lon="6.70537">
        <ele>120.59999847412</ele>
        <time>2012-10-12T11:24:50Z</time>
      </trkpt>
      <trkpt lat="43.38365" lon="6.70538">
        <ele>120.80000305176</ele>
        <time>2012-10-12T11:25:01Z</time>
      </trkpt>
      <trkpt lat="43.38363" lon="6.70538">
        <ele>121</ele>
        <time>2012-10-12T11:25:08Z</time>
      </trkpt>
      <trkpt lat="43.38364" lon="6.70539">
        <ele>120.80000305176</ele>
        <time>2012-10-12T11:25:38Z</time>
      </trkpt>
      <trkpt lat="43.38364" lon="6.70536">
        <ele>121</ele>
        <time>2012-10-12T11:25:45Z</time>
      </trkpt>
      <trkpt lat="43.38363" lon="6.70534">
        <ele>121.19999694824</ele>
        <time>2012-10-12T11:25:53Z</time>
      </trkpt>
      <trkpt lat="43.38362" lon="6.70534">
        <ele>121.19999694824</ele>
        <time>2012-10-12T11:25:56Z</time>
      </trkpt>
      <trkpt lat="43.38361" lon="6.70534">
        <ele>121.40000152588</ele>
        <time>2012-10-12T11:26:06Z</time>
      </trkpt>
      <trkpt lat="43.38361" lon="6.70533">
        <ele>121.40000152588</ele>
        <time>2012-10-12T11:26:12Z</time>
      </trkpt>
      <trkpt lat="43.38361" lon="6.70522">
        <ele>121.80000305176</ele>
        <time>2012-10-12T11:26:18Z</time>
      </trkpt>
      <trkpt lat="43.38372" lon="6.70514">
        <ele>120.40000152588</ele>
        <time>2012-10-12T11:26:23Z</time>
      </trkpt>
      <trkpt lat="43.3839" lon="6.70515">
        <ele>117.59999847412</ele>
        <time>2012-10-12T11:26:27Z</time>
      </trkpt>
      <trkpt lat="43.38394" lon="6.70517">
        <ele>117</ele>
        <time>2012-10-12T11:26:28Z</time>
      </trkpt>
      <trkpt lat="43.38407" lon="6.70521">
        <ele>114.80000305176</ele>
        <time>2012-10-12T11:26:31Z</time>
      </trkpt>
      <trkpt lat="43.38418" lon="6.70538">
        <ele>112.40000152588</ele>
        <time>2012-10-12T11:26:35Z</time>
      </trkpt>
      <trkpt lat="43.38423" lon="6.7055">
        <ele>111</ele>
        <time>2012-10-12T11:26:37Z</time>
      </trkpt>
      <trkpt lat="43.3843" lon="6.70561">
        <ele>109.59999847412</ele>
        <time>2012-10-12T11:26:39Z</time>
      </trkpt>
      <trkpt lat="43.38447" lon="6.70579">
        <ele>106.80000305176</ele>
        <time>2012-10-12T11:26:43Z</time>
      </trkpt>
      <trkpt lat="43.38459" lon="6.70582">
        <ele>104.80000305176</ele>
        <time>2012-10-12T11:26:45Z</time>
      </trkpt>
      <trkpt lat="43.38477" lon="6.70582">
        <ele>102.19999694824</ele>
        <time>2012-10-12T11:26:48Z</time>
      </trkpt>
      <trkpt lat="43.38495" lon="6.70598">
        <ele>100.40000152588</ele>
        <time>2012-10-12T11:26:52Z</time>
      </trkpt>
      <trkpt lat="43.38522" lon="6.7064">
        <ele>100.40000152588</ele>
        <time>2012-10-12T11:26:58Z</time>
      </trkpt>
      <trkpt lat="43.38539" lon="6.70668">
        <ele>101.59999847412</ele>
        <time>2012-10-12T11:27:02Z</time>
      </trkpt>
      <trkpt lat="43.38543" lon="6.70676">
        <ele>101.80000305176</ele>
        <time>2012-10-12T11:27:03Z</time>
      </trkpt>
      <trkpt lat="43.38555" lon="6.70693">
        <ele>102.59999847412</ele>
        <time>2012-10-12T11:27:07Z</time>
      </trkpt>
      <trkpt lat="43.38558" lon="6.70698">
        <ele>103</ele>
        <time>2012-10-12T11:27:12Z</time>
      </trkpt>
      <trkpt lat="43.38562" lon="6.70706">
        <ele>103.59999847412</ele>
        <time>2012-10-12T11:27:18Z</time>
      </trkpt>
      <trkpt lat="43.38563" lon="6.70709">
        <ele>103.80000305176</ele>
        <time>2012-10-12T11:27:20Z</time>
      </trkpt>
      <trkpt lat="43.38567" lon="6.70715">
        <ele>104.19999694824</ele>
        <time>2012-10-12T11:27:25Z</time>
      </trkpt>
      <trkpt lat="43.38574" lon="6.70721">
        <ele>105</ele>
        <time>2012-10-12T11:27:32Z</time>
      </trkpt>
      <trkpt lat="43.38583" lon="6.70727">
        <ele>105.80000305176</ele>
        <time>2012-10-12T11:27:40Z</time>
      </trkpt>
      <trkpt lat="43.38593" lon="6.7073">
        <ele>105.59999847412</ele>
        <time>2012-10-12T11:27:46Z</time>
      </trkpt>
      <trkpt lat="43.38604" lon="6.70733">
        <ele>105.59999847412</ele>
        <time>2012-10-12T11:27:52Z</time>
      </trkpt>
      <trkpt lat="43.38621" lon="6.70737">
        <ele>105.19999694824</ele>
        <time>2012-10-12T11:27:58Z</time>
      </trkpt>
      <trkpt lat="43.38633" lon="6.70739">
        <ele>105</ele>
        <time>2012-10-12T11:28:02Z</time>
      </trkpt>
      <trkpt lat="43.38642" lon="6.70739">
        <ele>104.59999847412</ele>
        <time>2012-10-12T11:28:05Z</time>
      </trkpt>
      <trkpt lat="43.38655" lon="6.70726">
        <ele>102.59999847412</ele>
        <time>2012-10-12T11:28:10Z</time>
      </trkpt>
      <trkpt lat="43.38664" lon="6.70728">
        <ele>102.40000152588</ele>
        <time>2012-10-12T11:28:12Z</time>
      </trkpt>
      <trkpt lat="43.3868" lon="6.7073">
        <ele>102.59999847412</ele>
        <time>2012-10-12T11:28:15Z</time>
      </trkpt>
      <trkpt lat="43.3869" lon="6.70728">
        <ele>102.19999694824</ele>
        <time>2012-10-12T11:28:19Z</time>
      </trkpt>
      <trkpt lat="43.38692" lon="6.70726">
        <ele>102</ele>
        <time>2012-10-12T11:28:23Z</time>
      </trkpt>
      <trkpt lat="43.38693" lon="6.70725">
        <ele>101.80000305176</ele>
        <time>2012-10-12T11:28:28Z</time>
      </trkpt>
      <trkpt lat="43.38695" lon="6.70724">
        <ele>101.59999847412</ele>
        <time>2012-10-12T11:28:33Z</time>
      </trkpt>
      <trkpt lat="43.387" lon="6.70725">
        <ele>101.80000305176</ele>
        <time>2012-10-12T11:28:40Z</time>
      </trkpt>
      <trkpt lat="43.38703" lon="6.70724">
        <ele>101.59999847412</ele>
        <time>2012-10-12T11:28:43Z</time>
      </trkpt>
      <trkpt lat="43.38709" lon="6.70724">
        <ele>101.59999847412</ele>
        <time>2012-10-12T11:28:50Z</time>
      </trkpt>
      <trkpt lat="43.3871" lon="6.70724">
        <ele>101.59999847412</ele>
        <time>2012-10-12T11:28:51Z</time>
      </trkpt>
      <trkpt lat="43.38717" lon="6.70724">
        <ele>101.59999847412</ele>
        <time>2012-10-12T11:29:00Z</time>
      </trkpt>
      <trkpt lat="43.38721" lon="6.70725">
        <ele>101.59999847412</ele>
        <time>2012-10-12T11:29:04Z</time>
      </trkpt>
      <trkpt lat="43.38731" lon="6.70722">
        <ele>101</ele>
        <time>2012-10-12T11:29:10Z</time>
      </trkpt>
      <trkpt lat="43.38738" lon="6.70719">
        <ele>100.59999847412</ele>
        <time>2012-10-12T11:29:13Z</time>
      </trkpt>
      <trkpt lat="43.38757" lon="6.70706">
        <ele>98.599998474121</ele>
        <time>2012-10-12T11:29:18Z</time>
      </trkpt>
      <trkpt lat="43.38767" lon="6.70698">
        <ele>97.199996948242</ele>
        <time>2012-10-12T11:29:20Z</time>
      </trkpt>
      <trkpt lat="43.38791" lon="6.70686">
        <ele>95.800003051758</ele>
        <time>2012-10-12T11:29:24Z</time>
      </trkpt>
      <trkpt lat="43.38811" lon="6.70674">
        <ele>95</ele>
        <time>2012-10-12T11:29:27Z</time>
      </trkpt>
      <trkpt lat="43.38832" lon="6.70669">
        <ele>95</ele>
        <time>2012-10-12T11:29:30Z</time>
      </trkpt>
      <trkpt lat="43.38847" lon="6.7066">
        <ele>94.400001525879</ele>
        <time>2012-10-12T11:29:33Z</time>
      </trkpt>
      <trkpt lat="43.3886" lon="6.70653">
        <ele>93.800003051758</ele>
        <time>2012-10-12T11:29:35Z</time>
      </trkpt>
      <trkpt lat="43.38879" lon="6.70626">
        <ele>93.199996948242</ele>
        <time>2012-10-12T11:29:39Z</time>
      </trkpt>
      <trkpt lat="43.38883" lon="6.7062">
        <ele>93.199996948242</ele>
        <time>2012-10-12T11:29:41Z</time>
      </trkpt>
      <trkpt lat="43.38891" lon="6.70607">
        <ele>93.599998474121</ele>
        <time>2012-10-12T11:29:48Z</time>
      </trkpt>
      <trkpt lat="43.38892" lon="6.70607">
        <ele>93.599998474121</ele>
        <time>2012-10-12T11:29:49Z</time>
      </trkpt>
      <trkpt lat="43.38903" lon="6.70605">
        <ele>94.400001525879</ele>
        <time>2012-10-12T11:29:56Z</time>
      </trkpt>
      <trkpt lat="43.38912" lon="6.70601">
        <ele>95.199996948242</ele>
        <time>2012-10-12T11:30:02Z</time>
      </trkpt>
      <trkpt lat="43.38917" lon="6.70595">
        <ele>95.599998474121</ele>
        <time>2012-10-12T11:30:06Z</time>
      </trkpt>
      <trkpt lat="43.38928" lon="6.70581">
        <ele>93.800003051758</ele>
        <time>2012-10-12T11:30:10Z</time>
      </trkpt>
      <trkpt lat="43.38942" lon="6.70566">
        <ele>89.800003051758</ele>
        <time>2012-10-12T11:30:14Z</time>
      </trkpt>
      <trkpt lat="43.38951" lon="6.70564">
        <ele>88</ele>
        <time>2012-10-12T11:30:17Z</time>
      </trkpt>
      <trkpt lat="43.38964" lon="6.70576">
        <ele>86.800003051758</ele>
        <time>2012-10-12T11:30:21Z</time>
      </trkpt>
      <trkpt lat="43.38968" lon="6.70582">
        <ele>86.599998474121</ele>
        <time>2012-10-12T11:30:23Z</time>
      </trkpt>
      <trkpt lat="43.38976" lon="6.70581">
        <ele>85</ele>
        <time>2012-10-12T11:30:27Z</time>
      </trkpt>
      <trkpt lat="43.38977" lon="6.70579">
        <ele>84.800003051758</ele>
        <time>2012-10-12T11:30:28Z</time>
      </trkpt>
      <trkpt lat="43.38979" lon="6.70567">
        <ele>83.400001525879</ele>
        <time>2012-10-12T11:30:31Z</time>
      </trkpt>
      <trkpt lat="43.38987" lon="6.7055">
        <ele>80.800003051758</ele>
        <time>2012-10-12T11:30:36Z</time>
      </trkpt>
      <trkpt lat="43.38997" lon="6.70537">
        <ele>78.199996948242</ele>
        <time>2012-10-12T11:30:40Z</time>
      </trkpt>
      <trkpt lat="43.39015" lon="6.70536">
        <ele>73.599998474121</ele>
        <time>2012-10-12T11:30:45Z</time>
      </trkpt>
      <trkpt lat="43.39025" lon="6.70534">
        <ele>71.199996948242</ele>
        <time>2012-10-12T11:30:48Z</time>
      </trkpt>
      <trkpt lat="43.39026" lon="6.70528">
        <ele>70.599998474121</ele>
        <time>2012-10-12T11:30:50Z</time>
      </trkpt>
      <trkpt lat="43.39032" lon="6.70513">
        <ele>68.199996948242</ele>
        <time>2012-10-12T11:30:55Z</time>
      </trkpt>
      <trkpt lat="43.39039" lon="6.70522">
        <ele>66.800003051758</ele>
        <time>2012-10-12T11:30:58Z</time>
      </trkpt>
      <trkpt lat="43.39052" lon="6.70527">
        <ele>64</ele>
        <time>2012-10-12T11:31:01Z</time>
      </trkpt>
      <trkpt lat="43.39056" lon="6.70545">
        <ele>63.799999237061</ele>
        <time>2012-10-12T11:31:04Z</time>
      </trkpt>
      <trkpt lat="43.3906" lon="6.70572">
        <ele>64</ele>
        <time>2012-10-12T11:31:07Z</time>
      </trkpt>
      <trkpt lat="43.39074" lon="6.70594">
        <ele>61</ele>
        <time>2012-10-12T11:31:10Z</time>
      </trkpt>
      <trkpt lat="43.39087" lon="6.70605">
        <ele>58.599998474121</ele>
        <time>2012-10-12T11:31:12Z</time>
      </trkpt>
      <trkpt lat="43.39104" lon="6.70615">
        <ele>57.200000762939</ele>
        <time>2012-10-12T11:31:16Z</time>
      </trkpt>
      <trkpt lat="43.39117" lon="6.70618">
        <ele>56</ele>
        <time>2012-10-12T11:31:20Z</time>
      </trkpt>
      <trkpt lat="43.39122" lon="6.70628">
        <ele>55.799999237061</ele>
        <time>2012-10-12T11:31:22Z</time>
      </trkpt>
      <trkpt lat="43.39135" lon="6.70656">
        <ele>54.799999237061</ele>
        <time>2012-10-12T11:31:28Z</time>
      </trkpt>
      <trkpt lat="43.39155" lon="6.70669">
        <ele>52.799999237061</ele>
        <time>2012-10-12T11:31:32Z</time>
      </trkpt>
      <trkpt lat="43.39178" lon="6.70676">
        <ele>51.200000762939</ele>
        <time>2012-10-12T11:31:37Z</time>
      </trkpt>
      <trkpt lat="43.39185" lon="6.70678">
        <ele>50.799999237061</ele>
        <time>2012-10-12T11:31:39Z</time>
      </trkpt>
      <trkpt lat="43.39203" lon="6.70684">
        <ele>50</ele>
        <time>2012-10-12T11:31:43Z</time>
      </trkpt>
      <trkpt lat="43.39221" lon="6.7069">
        <ele>49</ele>
        <time>2012-10-12T11:31:47Z</time>
      </trkpt>
      <trkpt lat="43.3924" lon="6.70701">
        <ele>48.599998474121</ele>
        <time>2012-10-12T11:31:54Z</time>
      </trkpt>
      <trkpt lat="43.39254" lon="6.70701">
        <ele>47.400001525879</ele>
        <time>2012-10-12T11:32:00Z</time>
      </trkpt>
      <trkpt lat="43.39261" lon="6.707">
        <ele>47</ele>
        <time>2012-10-12T11:32:05Z</time>
      </trkpt>
      <trkpt lat="43.39266" lon="6.70696">
        <ele>46.400001525879</ele>
        <time>2012-10-12T11:32:08Z</time>
      </trkpt>
      <trkpt lat="43.39262" lon="6.70684">
        <ele>45.400001525879</ele>
        <time>2012-10-12T11:32:12Z</time>
      </trkpt>
      <trkpt lat="43.39257" lon="6.70677">
        <ele>45</ele>
        <time>2012-10-12T11:32:14Z</time>
      </trkpt>
      <trkpt lat="43.39257" lon="6.7067">
        <ele>44.200000762939</ele>
        <time>2012-10-12T11:32:20Z</time>
      </trkpt>
      <trkpt lat="43.39258" lon="6.70667">
        <ele>44</ele>
        <time>2012-10-12T11:32:22Z</time>
      </trkpt>
      <trkpt lat="43.39262" lon="6.70661">
        <ele>44.200000762939</ele>
        <time>2012-10-12T11:32:26Z</time>
      </trkpt>
      <trkpt lat="43.39264" lon="6.70661">
        <ele>44.200000762939</ele>
        <time>2012-10-12T11:32:29Z</time>
      </trkpt>
      <trkpt lat="43.39268" lon="6.70661">
        <ele>44.200000762939</ele>
        <time>2012-10-12T11:32:35Z</time>
      </trkpt>
      <trkpt lat="43.39272" lon="6.70663">
        <ele>44</ele>
        <time>2012-10-12T11:32:41Z</time>
      </trkpt>
      <trkpt lat="43.39273" lon="6.70663">
        <ele>44</ele>
        <time>2012-10-12T11:32:47Z</time>
      </trkpt>
      <trkpt lat="43.39275" lon="6.70662">
        <ele>44</ele>
        <time>2012-10-12T11:32:52Z</time>
      </trkpt>
      <trkpt lat="43.39278" lon="6.70663">
        <ele>44</ele>
        <time>2012-10-12T11:32:59Z</time>
      </trkpt>
      <trkpt lat="43.39281" lon="6.70662">
        <ele>44</ele>
        <time>2012-10-12T11:33:07Z</time>
      </trkpt>
      <trkpt lat="43.39287" lon="6.7066">
        <ele>44</ele>
        <time>2012-10-12T11:33:21Z</time>
      </trkpt>
      <trkpt lat="43.3929" lon="6.70658">
        <ele>44.200000762939</ele>
        <time>2012-10-12T11:33:26Z</time>
      </trkpt>
      <trkpt lat="43.39297" lon="6.70657">
        <ele>44.200000762939</ele>
        <time>2012-10-12T11:33:33Z</time>
      </trkpt>
      <trkpt lat="43.39303" lon="6.70655">
        <ele>44.400001525879</ele>
        <time>2012-10-12T11:33:40Z</time>
      </trkpt>
      <trkpt lat="43.39308" lon="6.70656">
        <ele>44.200000762939</ele>
        <time>2012-10-12T11:33:46Z</time>
      </trkpt>
      <trkpt lat="43.39311" lon="6.70658">
        <ele>44</ele>
        <time>2012-10-12T11:33:50Z</time>
      </trkpt>
      <trkpt lat="43.39318" lon="6.70658">
        <ele>44</ele>
        <time>2012-10-12T11:34:00Z</time>
      </trkpt>
      <trkpt lat="43.39322" lon="6.70657">
        <ele>44.200000762939</ele>
        <time>2012-10-12T11:34:05Z</time>
      </trkpt>
      <trkpt lat="43.3933" lon="6.70659">
        <ele>43.799999237061</ele>
        <time>2012-10-12T11:34:15Z</time>
      </trkpt>
      <trkpt lat="43.39336" lon="6.70657">
        <ele>44.400001525879</ele>
        <time>2012-10-12T11:34:24Z</time>
      </trkpt>
      <trkpt lat="43.39344" lon="6.70655">
        <ele>45.599998474121</ele>
        <time>2012-10-12T11:34:29Z</time>
      </trkpt>
      <trkpt lat="43.39359" lon="6.70658">
        <ele>46.799999237061</ele>
        <time>2012-10-12T11:34:34Z</time>
      </trkpt>
      <trkpt lat="43.39374" lon="6.70667">
        <ele>47.400001525879</ele>
        <time>2012-10-12T11:34:38Z</time>
      </trkpt>
      <trkpt lat="43.39385" lon="6.70673">
        <ele>47.799999237061</ele>
        <time>2012-10-12T11:34:41Z</time>
      </trkpt>
      <trkpt lat="43.39395" lon="6.70676">
        <ele>48.400001525879</ele>
        <time>2012-10-12T11:34:46Z</time>
      </trkpt>
      <trkpt lat="43.39397" lon="6.70677">
        <ele>48.400001525879</ele>
        <time>2012-10-12T11:34:47Z</time>
      </trkpt>
      <trkpt lat="43.39411" lon="6.70682">
        <ele>48.799999237061</ele>
        <time>2012-10-12T11:34:54Z</time>
      </trkpt>
      <trkpt lat="43.39427" lon="6.70681">
        <ele>49.799999237061</ele>
        <time>2012-10-12T11:35:01Z</time>
      </trkpt>
      <trkpt lat="43.39432" lon="6.70681">
        <ele>50</ele>
        <time>2012-10-12T11:35:03Z</time>
      </trkpt>
      <trkpt lat="43.3945" lon="6.70687">
        <ele>49.400001525879</ele>
        <time>2012-10-12T11:35:10Z</time>
      </trkpt>
      <trkpt lat="43.39457" lon="6.70683">
        <ele>50.400001525879</ele>
        <time>2012-10-12T11:35:14Z</time>
      </trkpt>
      <trkpt lat="43.39457" lon="6.70677">
        <ele>51.599998474121</ele>
        <time>2012-10-12T11:35:18Z</time>
      </trkpt>
      <trkpt lat="43.39458" lon="6.70673">
        <ele>52.200000762939</ele>
        <time>2012-10-12T11:35:20Z</time>
      </trkpt>
      <trkpt lat="43.39472" lon="6.70669">
        <ele>53.400001525879</ele>
        <time>2012-10-12T11:35:27Z</time>
      </trkpt>
      <trkpt lat="43.39487" lon="6.70666">
        <ele>54.599998474121</ele>
        <time>2012-10-12T11:35:33Z</time>
      </trkpt>
      <trkpt lat="43.39489" lon="6.70666">
        <ele>54.599998474121</ele>
        <time>2012-10-12T11:35:34Z</time>
      </trkpt>
      <trkpt lat="43.39494" lon="6.70659">
        <ele>55.799999237061</ele>
        <time>2012-10-12T11:35:38Z</time>
      </trkpt>
      <trkpt lat="43.39494" lon="6.7064">
        <ele>58.599998474121</ele>
        <time>2012-10-12T11:35:44Z</time>
      </trkpt>
      <trkpt lat="43.39504" lon="6.70625">
        <ele>60.799999237061</ele>
        <time>2012-10-12T11:35:50Z</time>
      </trkpt>
      <trkpt lat="43.3951" lon="6.70609">
        <ele>62.400001525879</ele>
        <time>2012-10-12T11:35:54Z</time>
      </trkpt>
      <trkpt lat="43.39526" lon="6.706">
        <ele>62</ele>
        <time>2012-10-12T11:35:59Z</time>
      </trkpt>
      <trkpt lat="43.39544" lon="6.70608">
        <ele>59.400001525879</ele>
        <time>2012-10-12T11:36:03Z</time>
      </trkpt>
      <trkpt lat="43.39551" lon="6.70631">
        <ele>56.599998474121</ele>
        <time>2012-10-12T11:36:07Z</time>
      </trkpt>
      <trkpt lat="43.39558" lon="6.70633">
        <ele>55.799999237061</ele>
        <time>2012-10-12T11:36:10Z</time>
      </trkpt>
      <trkpt lat="43.39565" lon="6.70622">
        <ele>56.200000762939</ele>
        <time>2012-10-12T11:36:13Z</time>
      </trkpt>
      <trkpt lat="43.39568" lon="6.70612">
        <ele>56.799999237061</ele>
        <time>2012-10-12T11:36:19Z</time>
      </trkpt>
      <trkpt lat="43.3957" lon="6.70607">
        <ele>56.799999237061</ele>
        <time>2012-10-12T11:36:25Z</time>
      </trkpt>
      <trkpt lat="43.39578" lon="6.70601">
        <ele>56.400001525879</ele>
        <time>2012-10-12T11:36:32Z</time>
      </trkpt>
      <trkpt lat="43.39588" lon="6.70605">
        <ele>56.200000762939</ele>
        <time>2012-10-12T11:36:39Z</time>
      </trkpt>
      <trkpt lat="43.39592" lon="6.70613">
        <ele>56</ele>
        <time>2012-10-12T11:36:44Z</time>
      </trkpt>
      <trkpt lat="43.39596" lon="6.7062">
        <ele>56</ele>
        <time>2012-10-12T11:36:49Z</time>
      </trkpt>
      <trkpt lat="43.39602" lon="6.70637">
        <ele>55.799999237061</ele>
        <time>2012-10-12T11:36:55Z</time>
      </trkpt>
      <trkpt lat="43.39604" lon="6.70654">
        <ele>55</ele>
        <time>2012-10-12T11:37:01Z</time>
      </trkpt>
      <trkpt lat="43.39604" lon="6.7067">
        <ele>54.200000762939</ele>
        <time>2012-10-12T11:37:07Z</time>
      </trkpt>
      <trkpt lat="43.39606" lon="6.70678">
        <ele>53.799999237061</ele>
        <time>2012-10-12T11:37:12Z</time>
      </trkpt>
      <trkpt lat="43.39607" lon="6.70679">
        <ele>53.799999237061</ele>
        <time>2012-10-12T11:37:19Z</time>
      </trkpt>
      <trkpt lat="43.39607" lon="6.70682">
        <ele>53.599998474121</ele>
        <time>2012-10-12T11:37:25Z</time>
      </trkpt>
      <trkpt lat="43.39608" lon="6.70682">
        <ele>53.599998474121</ele>
        <time>2012-10-12T11:37:26Z</time>
      </trkpt>
      <trkpt lat="43.39618" lon="6.70687">
        <ele>54.400001525879</ele>
        <time>2012-10-12T11:37:32Z</time>
      </trkpt>
      <trkpt lat="43.39624" lon="6.70684">
        <ele>55.400001525879</ele>
        <time>2012-10-12T11:37:35Z</time>
      </trkpt>
      <trkpt lat="43.39641" lon="6.70677">
        <ele>58</ele>
        <time>2012-10-12T11:37:44Z</time>
      </trkpt>
      <trkpt lat="43.39654" lon="6.70673">
        <ele>60</ele>
        <time>2012-10-12T11:37:51Z</time>
      </trkpt>
      <trkpt lat="43.39659" lon="6.70669">
        <ele>60.799999237061</ele>
        <time>2012-10-12T11:37:54Z</time>
      </trkpt>
      <trkpt lat="43.39662" lon="6.70664">
        <ele>61.599998474121</ele>
        <time>2012-10-12T11:37:57Z</time>
      </trkpt>
      <trkpt lat="43.39669" lon="6.70659">
        <ele>62.200000762939</ele>
        <time>2012-10-12T11:38:01Z</time>
      </trkpt>
      <trkpt lat="43.39685" lon="6.7065">
        <ele>62.400001525879</ele>
        <time>2012-10-12T11:38:06Z</time>
      </trkpt>
      <trkpt lat="43.39712" lon="6.70647">
        <ele>62.799999237061</ele>
        <time>2012-10-12T11:38:12Z</time>
      </trkpt>
      <trkpt lat="43.39732" lon="6.70658">
        <ele>62.400001525879</ele>
        <time>2012-10-12T11:38:16Z</time>
      </trkpt>
      <trkpt lat="43.39744" lon="6.70646">
        <ele>63</ele>
        <time>2012-10-12T11:38:19Z</time>
      </trkpt>
      <trkpt lat="43.3975" lon="6.70633">
        <ele>63.599998474121</ele>
        <time>2012-10-12T11:38:21Z</time>
      </trkpt>
      <trkpt lat="43.39762" lon="6.70609">
        <ele>63.799999237061</ele>
        <time>2012-10-12T11:38:25Z</time>
      </trkpt>
      <trkpt lat="43.3977" lon="6.70588">
        <ele>64.400001525879</ele>
        <time>2012-10-12T11:38:29Z</time>
      </trkpt>
      <trkpt lat="43.39774" lon="6.70572">
        <ele>65.199996948242</ele>
        <time>2012-10-12T11:38:33Z</time>
      </trkpt>
      <trkpt lat="43.3978" lon="6.70566">
        <ele>65.199996948242</ele>
        <time>2012-10-12T11:38:35Z</time>
      </trkpt>
      <trkpt lat="43.39798" lon="6.70542">
        <ele>65.800003051758</ele>
        <time>2012-10-12T11:38:41Z</time>
      </trkpt>
      <trkpt lat="43.39802" lon="6.70532">
        <ele>66.400001525879</ele>
        <time>2012-10-12T11:38:43Z</time>
      </trkpt>
      <trkpt lat="43.39811" lon="6.70512">
        <ele>67.400001525879</ele>
        <time>2012-10-12T11:38:47Z</time>
      </trkpt>
      <trkpt lat="43.39816" lon="6.70505">
        <ele>67.599998474121</ele>
        <time>2012-10-12T11:38:49Z</time>
      </trkpt>
      <trkpt lat="43.39823" lon="6.70486">
        <ele>69</ele>
        <time>2012-10-12T11:38:53Z</time>
      </trkpt>
      <trkpt lat="43.39833" lon="6.7048">
        <ele>69</ele>
        <time>2012-10-12T11:38:57Z</time>
      </trkpt>
      <trkpt lat="43.39834" lon="6.70483">
        <ele>68.800003051758</ele>
        <time>2012-10-12T11:38:58Z</time>
      </trkpt>
      <trkpt lat="43.39842" lon="6.705">
        <ele>67.599998474121</ele>
        <time>2012-10-12T11:39:07Z</time>
      </trkpt>
      <trkpt lat="43.39848" lon="6.70506">
        <ele>67.599998474121</ele>
        <time>2012-10-12T11:39:12Z</time>
      </trkpt>
      <trkpt lat="43.39853" lon="6.70509">
        <ele>67.599998474121</ele>
        <time>2012-10-12T11:39:16Z</time>
      </trkpt>
      <trkpt lat="43.39856" lon="6.70514">
        <ele>67.400001525879</ele>
        <time>2012-10-12T11:39:19Z</time>
      </trkpt>
      <trkpt lat="43.39859" lon="6.70523">
        <ele>66.800003051758</ele>
        <time>2012-10-12T11:39:22Z</time>
      </trkpt>
      <trkpt lat="43.39869" lon="6.70555">
        <ele>67.599998474121</ele>
        <time>2012-10-11T15:12:37Z</time>
      </trkpt>
      <trkpt lat="43.39876" lon="6.70564">
        <ele>67.599998474121</ele>
        <time>2012-10-11T15:12:39Z</time>
      </trkpt>
      <trkpt lat="43.39886" lon="6.70577">
        <ele>67.599998474121</ele>
        <time>2012-10-11T15:12:42Z</time>
      </trkpt>
      <trkpt lat="43.39889" lon="6.70582">
        <ele>67.599998474121</ele>
        <time>2012-10-11T15:12:43Z</time>
      </trkpt>
      <trkpt lat="43.39905" lon="6.70589">
        <ele>67.599998474121</ele>
        <time>2012-10-11T15:12:47Z</time>
      </trkpt>
      <trkpt lat="43.39909" lon="6.70591">
        <ele>67.199996948242</ele>
        <time>2012-10-11T15:12:48Z</time>
      </trkpt>
      <trkpt lat="43.39914" lon="6.70591">
        <ele>66.800003051758</ele>
        <time>2012-10-11T15:12:49Z</time>
      </trkpt>
      <trkpt lat="43.39918" lon="6.70591">
        <ele>66.400001525879</ele>
        <time>2012-10-11T15:12:50Z</time>
      </trkpt>
      <trkpt lat="43.39921" lon="6.70589">
        <ele>65.800003051758</ele>
        <time>2012-10-11T15:12:51Z</time>
      </trkpt>
      <trkpt lat="43.39924" lon="6.70588">
        <ele>65.400001525879</ele>
        <time>2012-10-11T15:12:52Z</time>
      </trkpt>
      <trkpt lat="43.39928" lon="6.70584">
        <ele>65.800003051758</ele>
        <time>2012-10-11T15:12:55Z</time>
      </trkpt>
      <trkpt lat="43.3993" lon="6.70583">
        <ele>66.199996948242</ele>
        <time>2012-10-11T15:12:56Z</time>
      </trkpt>
      <trkpt lat="43.39931" lon="6.70581">
        <ele>66.599998474121</ele>
        <time>2012-10-11T15:12:57Z</time>
      </trkpt>
      <trkpt lat="43.39933" lon="6.70579">
        <ele>67</ele>
        <time>2012-10-11T15:12:58Z</time>
      </trkpt>
      <trkpt lat="43.39934" lon="6.70577">
        <ele>67.400001525879</ele>
        <time>2012-10-11T15:12:59Z</time>
      </trkpt>
      <trkpt lat="43.3994" lon="6.7057">
        <ele>67.400001525879</ele>
        <time>2012-10-11T15:13:03Z</time>
      </trkpt>
      <trkpt lat="43.39952" lon="6.70559">
        <ele>67.400001525879</ele>
        <time>2012-10-11T15:13:10Z</time>
      </trkpt>
      <trkpt lat="43.3996" lon="6.70556">
        <ele>67.800003051758</ele>
        <time>2012-10-11T15:13:14Z</time>
      </trkpt>
      <trkpt lat="43.39962" lon="6.70556">
        <ele>68.199996948242</ele>
        <time>2012-10-11T15:13:15Z</time>
      </trkpt>
      <trkpt lat="43.39964" lon="6.70555">
        <ele>68.599998474121</ele>
        <time>2012-10-11T15:13:16Z</time>
      </trkpt>
      <trkpt lat="43.39966" lon="6.70554">
        <ele>69</ele>
        <time>2012-10-11T15:13:17Z</time>
      </trkpt>
      <trkpt lat="43.39968" lon="6.70553">
        <ele>69.400001525879</ele>
        <time>2012-10-11T15:13:18Z</time>
      </trkpt>
      <trkpt lat="43.39978" lon="6.70544">
        <ele>69.400001525879</ele>
        <time>2012-10-11T15:13:22Z</time>
      </trkpt>
      <trkpt lat="43.39986" lon="6.70525">
        <ele>69.400001525879</ele>
        <time>2012-10-11T15:13:27Z</time>
      </trkpt>
      <trkpt lat="43.39985" lon="6.70498">
        <ele>69.400001525879</ele>
        <time>2012-10-11T15:13:32Z</time>
      </trkpt>
      <trkpt lat="43.39989" lon="6.70485">
        <ele>69.400001525879</ele>
        <time>2012-10-11T15:13:36Z</time>
      </trkpt>
      <trkpt lat="43.39994" lon="6.70464">
        <ele>69.400001525879</ele>
        <time>2012-10-11T15:13:43Z</time>
      </trkpt>
      <trkpt lat="43.39999" lon="6.70455">
        <ele>69.400001525879</ele>
        <time>2012-10-11T15:13:45Z</time>
      </trkpt>
      <trkpt lat="43.40002" lon="6.70442">
        <ele>69.400001525879</ele>
        <time>2012-10-11T15:13:47Z</time>
      </trkpt>
      <trkpt lat="43.40004" lon="6.70425">
        <ele>69.400001525879</ele>
        <time>2012-10-11T15:13:50Z</time>
      </trkpt>
      <trkpt lat="43.40009" lon="6.70423">
        <ele>69.400001525879</ele>
        <time>2012-10-11T15:13:52Z</time>
      </trkpt>
      <trkpt lat="43.40013" lon="6.70423">
        <ele>69.400001525879</ele>
        <time>2012-10-11T15:13:53Z</time>
      </trkpt>
      <trkpt lat="43.40029" lon="6.70427">
        <ele>69.400001525879</ele>
        <time>2012-10-11T15:13:57Z</time>
      </trkpt>
      <trkpt lat="43.4004" lon="6.70422">
        <ele>69.400001525879</ele>
        <time>2012-10-11T15:14:00Z</time>
      </trkpt>
      <trkpt lat="43.40043" lon="6.70419">
        <ele>69</ele>
        <time>2012-10-11T15:14:01Z</time>
      </trkpt>
      <trkpt lat="43.40046" lon="6.70417">
        <ele>68.599998474121</ele>
        <time>2012-10-11T15:14:02Z</time>
      </trkpt>
      <trkpt lat="43.40048" lon="6.70415">
        <ele>68</ele>
        <time>2012-10-11T15:14:03Z</time>
      </trkpt>
      <trkpt lat="43.4005" lon="6.70415">
        <ele>67.599998474121</ele>
        <time>2012-10-11T15:14:04Z</time>
      </trkpt>
      <trkpt lat="43.40052" lon="6.70416">
        <ele>67.199996948242</ele>
        <time>2012-10-11T15:14:05Z</time>
      </trkpt>
      <trkpt lat="43.4006" lon="6.70417">
        <ele>67.199996948242</ele>
        <time>2012-10-11T15:14:07Z</time>
      </trkpt>
      <trkpt lat="43.40064" lon="6.70418">
        <ele>67.199996948242</ele>
        <time>2012-10-11T15:14:08Z</time>
      </trkpt>
      <trkpt lat="43.40071" lon="6.70432">
        <ele>66.800003051758</ele>
        <time>2012-10-11T15:14:11Z</time>
      </trkpt>
      <trkpt lat="43.40073" lon="6.70438">
        <ele>66.400001525879</ele>
        <time>2012-10-11T15:14:12Z</time>
      </trkpt>
      <trkpt lat="43.40075" lon="6.70442">
        <ele>66</ele>
        <time>2012-10-11T15:14:13Z</time>
      </trkpt>
      <trkpt lat="43.40078" lon="6.70446">
        <ele>65.599998474121</ele>
        <time>2012-10-11T15:14:14Z</time>
      </trkpt>
      <trkpt lat="43.4008" lon="6.70451">
        <ele>65.199996948242</ele>
        <time>2012-10-11T15:14:15Z</time>
      </trkpt>
      <trkpt lat="43.4008" lon="6.70461">
        <ele>65.199996948242</ele>
        <time>2012-10-11T15:14:17Z</time>
      </trkpt>
      <trkpt lat="43.40081" lon="6.70466">
        <ele>64.599998474121</ele>
        <time>2012-10-11T15:14:18Z</time>
      </trkpt>
      <trkpt lat="43.40082" lon="6.70469">
        <ele>64.199996948242</ele>
        <time>2012-10-11T15:14:19Z</time>
      </trkpt>
      <trkpt lat="43.40085" lon="6.7047">
        <ele>63.799999237061</ele>
        <time>2012-10-11T15:14:20Z</time>
      </trkpt>
      <trkpt lat="43.40087" lon="6.70469">
        <ele>63.200000762939</ele>
        <time>2012-10-11T15:14:21Z</time>
      </trkpt>
      <trkpt lat="43.40089" lon="6.70468">
        <ele>62.799999237061</ele>
        <time>2012-10-11T15:14:22Z</time>
      </trkpt>
      <trkpt lat="43.40091" lon="6.70467">
        <ele>62.799999237061</ele>
        <time>2012-10-11T15:14:23Z</time>
      </trkpt>
      <trkpt lat="43.40093" lon="6.70468">
        <ele>62.799999237061</ele>
        <time>2012-10-11T15:14:24Z</time>
      </trkpt>
      <trkpt lat="43.40095" lon="6.7047">
        <ele>63.200000762939</ele>
        <time>2012-10-11T15:14:25Z</time>
      </trkpt>
      <trkpt lat="43.40097" lon="6.70472">
        <ele>63.599998474121</ele>
        <time>2012-10-11T15:14:26Z</time>
      </trkpt>
      <trkpt lat="43.40098" lon="6.70474">
        <ele>64.199996948242</ele>
        <time>2012-10-11T15:14:27Z</time>
      </trkpt>
      <trkpt lat="43.40099" lon="6.70477">
        <ele>64.599998474121</ele>
        <time>2012-10-11T15:14:28Z</time>
      </trkpt>
      <trkpt lat="43.401" lon="6.70479">
        <ele>65</ele>
        <time>2012-10-11T15:14:29Z</time>
      </trkpt>
      <trkpt lat="43.40101" lon="6.70482">
        <ele>65</ele>
        <time>2012-10-11T15:14:30Z</time>
      </trkpt>
      <trkpt lat="43.40101" lon="6.70485">
        <ele>65</ele>
        <time>2012-10-11T15:14:31Z</time>
      </trkpt>
      <trkpt lat="43.40105" lon="6.70498">
        <ele>65</ele>
        <time>2012-10-11T15:14:35Z</time>
      </trkpt>
      <trkpt lat="43.40109" lon="6.70508">
        <ele>65</ele>
        <time>2012-10-11T15:14:39Z</time>
      </trkpt>
      <trkpt lat="43.40113" lon="6.7052">
        <ele>65</ele>
        <time>2012-10-11T15:14:43Z</time>
      </trkpt>
      <trkpt lat="43.40115" lon="6.70539">
        <ele>65</ele>
        <time>2012-10-11T15:14:47Z</time>
      </trkpt>
      <trkpt lat="43.40118" lon="6.70541">
        <ele>65</ele>
        <time>2012-10-11T15:14:48Z</time>
      </trkpt>
      <trkpt lat="43.40127" lon="6.70544">
        <ele>65.400001525879</ele>
        <time>2012-10-11T15:14:53Z</time>
      </trkpt>
      <trkpt lat="43.40129" lon="6.70546">
        <ele>65.800003051758</ele>
        <time>2012-10-11T15:14:54Z</time>
      </trkpt>
      <trkpt lat="43.40131" lon="6.70548">
        <ele>66.199996948242</ele>
        <time>2012-10-11T15:14:55Z</time>
      </trkpt>
      <trkpt lat="43.40132" lon="6.7055">
        <ele>66.800003051758</ele>
        <time>2012-10-11T15:14:56Z</time>
      </trkpt>
      <trkpt lat="43.40133" lon="6.70553">
        <ele>67.199996948242</ele>
        <time>2012-10-11T15:14:57Z</time>
      </trkpt>
      <trkpt lat="43.40136" lon="6.70566">
        <ele>67.199996948242</ele>
        <time>2012-10-11T15:15:01Z</time>
      </trkpt>
      <trkpt lat="43.40144" lon="6.70578">
        <ele>66.599998474121</ele>
        <time>2012-10-11T15:15:05Z</time>
      </trkpt>
      <trkpt lat="43.40147" lon="6.70582">
        <ele>66.199996948242</ele>
        <time>2012-10-11T15:15:06Z</time>
      </trkpt>
      <trkpt lat="43.4015" lon="6.70586">
        <ele>65.800003051758</ele>
        <time>2012-10-11T15:15:07Z</time>
      </trkpt>
      <trkpt lat="43.40153" lon="6.70591">
        <ele>65.400001525879</ele>
        <time>2012-10-11T15:15:08Z</time>
      </trkpt>
      <trkpt lat="43.40155" lon="6.70597">
        <ele>64.800003051758</ele>
        <time>2012-10-11T15:15:09Z</time>
      </trkpt>
      <trkpt lat="43.40158" lon="6.70604">
        <ele>64</ele>
        <time>2012-10-11T15:15:10Z</time>
      </trkpt>
      <trkpt lat="43.4016" lon="6.70611">
        <ele>62.799999237061</ele>
        <time>2012-10-11T15:15:11Z</time>
      </trkpt>
      <trkpt lat="43.40163" lon="6.7062">
        <ele>62.200000762939</ele>
        <time>2012-10-11T15:15:12Z</time>
      </trkpt>
      <trkpt lat="43.40166" lon="6.70627">
        <ele>61.599998474121</ele>
        <time>2012-10-11T15:15:13Z</time>
      </trkpt>
      <trkpt lat="43.40169" lon="6.70634">
        <ele>61</ele>
        <time>2012-10-11T15:15:14Z</time>
      </trkpt>
      <trkpt lat="43.40173" lon="6.70637">
        <ele>60.200000762939</ele>
        <time>2012-10-11T15:15:15Z</time>
      </trkpt>
      <trkpt lat="43.40177" lon="6.7064">
        <ele>59.599998474121</ele>
        <time>2012-10-11T15:15:16Z</time>
      </trkpt>
      <trkpt lat="43.40181" lon="6.70644">
        <ele>59.200000762939</ele>
        <time>2012-10-11T15:15:17Z</time>
      </trkpt>
      <trkpt lat="43.40183" lon="6.70651">
        <ele>58.799999237061</ele>
        <time>2012-10-11T15:15:18Z</time>
      </trkpt>
      <trkpt lat="43.40183" lon="6.70657">
        <ele>58.400001525879</ele>
        <time>2012-10-11T15:15:19Z</time>
      </trkpt>
      <trkpt lat="43.40183" lon="6.70662">
        <ele>58</ele>
        <time>2012-10-11T15:15:20Z</time>
      </trkpt>
      <trkpt lat="43.40184" lon="6.70666">
        <ele>57.599998474121</ele>
        <time>2012-10-11T15:15:21Z</time>
      </trkpt>
      <trkpt lat="43.40193" lon="6.70683">
        <ele>57.599998474121</ele>
        <time>2012-10-11T15:15:25Z</time>
      </trkpt>
      <trkpt lat="43.402" lon="6.70704">
        <ele>57</ele>
        <time>2012-10-11T15:15:29Z</time>
      </trkpt>
      <trkpt lat="43.40202" lon="6.70705">
        <ele>56.599998474121</ele>
        <time>2012-10-11T15:15:30Z</time>
      </trkpt>
      <trkpt lat="43.40205" lon="6.70707">
        <ele>56.200000762939</ele>
        <time>2012-10-11T15:15:31Z</time>
      </trkpt>
      <trkpt lat="43.40208" lon="6.7071">
        <ele>55.599998474121</ele>
        <time>2012-10-11T15:15:32Z</time>
      </trkpt>
      <trkpt lat="43.40209" lon="6.70714">
        <ele>55.200000762939</ele>
        <time>2012-10-11T15:15:33Z</time>
      </trkpt>
      <trkpt lat="43.4021" lon="6.70724">
        <ele>55.200000762939</ele>
        <time>2012-10-11T15:15:35Z</time>
      </trkpt>
      <trkpt lat="43.40209" lon="6.7073">
        <ele>54.799999237061</ele>
        <time>2012-10-11T15:15:36Z</time>
      </trkpt>
      <trkpt lat="43.40208" lon="6.70737">
        <ele>54.400001525879</ele>
        <time>2012-10-11T15:15:37Z</time>
      </trkpt>
      <trkpt lat="43.40207" lon="6.70744">
        <ele>54</ele>
        <time>2012-10-11T15:15:38Z</time>
      </trkpt>
      <trkpt lat="43.40207" lon="6.70752">
        <ele>53.599998474121</ele>
        <time>2012-10-11T15:15:39Z</time>
      </trkpt>
      <trkpt lat="43.40206" lon="6.70761">
        <ele>53.200000762939</ele>
        <time>2012-10-11T15:15:40Z</time>
      </trkpt>
      <trkpt lat="43.40205" lon="6.7077">
        <ele>52.599998474121</ele>
        <time>2012-10-11T15:15:41Z</time>
      </trkpt>
      <trkpt lat="43.40204" lon="6.70778">
        <ele>52.200000762939</ele>
        <time>2012-10-11T15:15:42Z</time>
      </trkpt>
      <trkpt lat="43.40202" lon="6.70787">
        <ele>51.599998474121</ele>
        <time>2012-10-11T15:15:43Z</time>
      </trkpt>
      <trkpt lat="43.402" lon="6.70796">
        <ele>51.200000762939</ele>
        <time>2012-10-11T15:15:44Z</time>
      </trkpt>
      <trkpt lat="43.40197" lon="6.70804">
        <ele>50.599998474121</ele>
        <time>2012-10-11T15:15:45Z</time>
      </trkpt>
      <trkpt lat="43.4019" lon="6.70818">
        <ele>50.599998474121</ele>
        <time>2012-10-11T15:15:47Z</time>
      </trkpt>
      <trkpt lat="43.40186" lon="6.70825">
        <ele>50.200000762939</ele>
        <time>2012-10-11T15:15:48Z</time>
      </trkpt>
      <trkpt lat="43.40182" lon="6.70832">
        <ele>49.799999237061</ele>
        <time>2012-10-11T15:15:49Z</time>
      </trkpt>
      <trkpt lat="43.40177" lon="6.70839">
        <ele>49.400001525879</ele>
        <time>2012-10-11T15:15:50Z</time>
      </trkpt>
      <trkpt lat="43.40172" lon="6.70844">
        <ele>49</ele>
        <time>2012-10-11T15:15:51Z</time>
      </trkpt>
      <trkpt lat="43.40168" lon="6.70849">
        <ele>48.400001525879</ele>
        <time>2012-10-11T15:15:52Z</time>
      </trkpt>
      <trkpt lat="43.40161" lon="6.7086">
        <ele>48</ele>
        <time>2012-10-11T15:15:54Z</time>
      </trkpt>
      <trkpt lat="43.40157" lon="6.70867">
        <ele>47.599998474121</ele>
        <time>2012-10-11T15:15:55Z</time>
      </trkpt>
      <trkpt lat="43.40154" lon="6.70874">
        <ele>47.200000762939</ele>
        <time>2012-10-11T15:15:56Z</time>
      </trkpt>
      <trkpt lat="43.4015" lon="6.70881">
        <ele>46.400001525879</ele>
        <time>2012-10-11T15:15:57Z</time>
      </trkpt>
      <trkpt lat="43.40147" lon="6.70888">
        <ele>45.799999237061</ele>
        <time>2012-10-11T15:15:58Z</time>
      </trkpt>
      <trkpt lat="43.40146" lon="6.70896">
        <ele>45</ele>
        <time>2012-10-11T15:15:59Z</time>
      </trkpt>
      <trkpt lat="43.40145" lon="6.70903">
        <ele>44.400001525879</ele>
        <time>2012-10-11T15:16:00Z</time>
      </trkpt>
      <trkpt lat="43.40145" lon="6.70909">
        <ele>42.799999237061</ele>
        <time>2012-10-11T15:16:01Z</time>
      </trkpt>
      <trkpt lat="43.40144" lon="6.70914">
        <ele>42.200000762939</ele>
        <time>2012-10-11T15:16:02Z</time>
      </trkpt>
      <trkpt lat="43.40143" lon="6.7092">
        <ele>41.400001525879</ele>
        <time>2012-10-11T15:16:03Z</time>
      </trkpt>
      <trkpt lat="43.40142" lon="6.70925">
        <ele>41</ele>
        <time>2012-10-11T15:16:04Z</time>
      </trkpt>
      <trkpt lat="43.4014" lon="6.7093">
        <ele>40.400001525879</ele>
        <time>2012-10-11T15:16:05Z</time>
      </trkpt>
      <trkpt lat="43.4014" lon="6.70934">
        <ele>39.799999237061</ele>
        <time>2012-10-11T15:16:06Z</time>
      </trkpt>
      <trkpt lat="43.40138" lon="6.70938">
        <ele>39</ele>
        <time>2012-10-11T15:16:07Z</time>
      </trkpt>
      <trkpt lat="43.40137" lon="6.70942">
        <ele>38.200000762939</ele>
        <time>2012-10-11T15:16:08Z</time>
      </trkpt>
      <trkpt lat="43.40137" lon="6.70947">
        <ele>37.400001525879</ele>
        <time>2012-10-11T15:16:09Z</time>
      </trkpt>
      <trkpt lat="43.40137" lon="6.70952">
        <ele>36.599998474121</ele>
        <time>2012-10-11T15:16:10Z</time>
      </trkpt>
      <trkpt lat="43.40136" lon="6.70957">
        <ele>35.799999237061</ele>
        <time>2012-10-11T15:16:11Z</time>
      </trkpt>
      <trkpt lat="43.40134" lon="6.70962">
        <ele>35</ele>
        <time>2012-10-11T15:16:12Z</time>
      </trkpt>
      <trkpt lat="43.40133" lon="6.70968">
        <ele>34.400001525879</ele>
        <time>2012-10-11T15:16:13Z</time>
      </trkpt>
      <trkpt lat="43.40133" lon="6.70975">
        <ele>33.599998474121</ele>
        <time>2012-10-11T15:16:14Z</time>
      </trkpt>
      <trkpt lat="43.40134" lon="6.70981">
        <ele>32.799999237061</ele>
        <time>2012-10-11T15:16:15Z</time>
      </trkpt>
      <trkpt lat="43.40134" lon="6.70986">
        <ele>32.200000762939</ele>
        <time>2012-10-11T15:16:16Z</time>
      </trkpt>
      <trkpt lat="43.40134" lon="6.70989">
        <ele>31.39999961853</ele>
        <time>2012-10-11T15:16:17Z</time>
      </trkpt>
      <trkpt lat="43.40134" lon="6.70992">
        <ele>30.60000038147</ele>
        <time>2012-10-11T15:16:18Z</time>
      </trkpt>
      <trkpt lat="43.40134" lon="6.70993">
        <ele>29.799999237061</ele>
        <time>2012-10-11T15:16:19Z</time>
      </trkpt>
      <trkpt lat="43.40134" lon="6.70995">
        <ele>29.39999961853</ele>
        <time>2012-10-11T15:16:20Z</time>
      </trkpt>
      <trkpt lat="43.40135" lon="6.70998">
        <ele>29</ele>
        <time>2012-10-11T15:16:21Z</time>
      </trkpt>
      <trkpt lat="43.40135" lon="6.71001">
        <ele>28.39999961853</ele>
        <time>2012-10-11T15:16:22Z</time>
      </trkpt>
      <trkpt lat="43.40135" lon="6.71005">
        <ele>28</ele>
        <time>2012-10-11T15:16:23Z</time>
      </trkpt>
      <trkpt lat="43.40135" lon="6.71009">
        <ele>27.60000038147</ele>
        <time>2012-10-11T15:16:24Z</time>
      </trkpt>
      <trkpt lat="43.40136" lon="6.7102">
        <ele>26.60000038147</ele>
        <time>2012-10-11T15:16:26Z</time>
      </trkpt>
      <trkpt lat="43.40136" lon="6.71025">
        <ele>26.200000762939</ele>
        <time>2012-10-11T15:16:27Z</time>
      </trkpt>
      <trkpt lat="43.40136" lon="6.7103">
        <ele>25.39999961853</ele>
        <time>2012-10-11T15:16:28Z</time>
      </trkpt>
      <trkpt lat="43.40137" lon="6.71036">
        <ele>24.799999237061</ele>
        <time>2012-10-11T15:16:29Z</time>
      </trkpt>
      <trkpt lat="43.40138" lon="6.71042">
        <ele>24</ele>
        <time>2012-10-11T15:16:30Z</time>
      </trkpt>
      <trkpt lat="43.40139" lon="6.71048">
        <ele>23.200000762939</ele>
        <time>2012-10-11T15:16:31Z</time>
      </trkpt>
      <trkpt lat="43.40139" lon="6.71053">
        <ele>22.39999961853</ele>
        <time>2012-10-11T15:16:32Z</time>
      </trkpt>
      <trkpt lat="43.40139" lon="6.71057">
        <ele>21.60000038147</ele>
        <time>2012-10-11T15:16:33Z</time>
      </trkpt>
      <trkpt lat="43.4014" lon="6.71062">
        <ele>21</ele>
        <time>2012-10-11T15:16:34Z</time>
      </trkpt>
      <trkpt lat="43.40141" lon="6.71067">
        <ele>20.200000762939</ele>
        <time>2012-10-11T15:16:35Z</time>
      </trkpt>
      <trkpt lat="43.40142" lon="6.71074">
        <ele>19.39999961853</ele>
        <time>2012-10-11T15:16:36Z</time>
      </trkpt>
      <trkpt lat="43.40143" lon="6.71082">
        <ele>18.60000038147</ele>
        <time>2012-10-11T15:16:37Z</time>
      </trkpt>
      <trkpt lat="43.40143" lon="6.7109">
        <ele>17.60000038147</ele>
        <time>2012-10-11T15:16:38Z</time>
      </trkpt>
      <trkpt lat="43.40143" lon="6.71099">
        <ele>16.60000038147</ele>
        <time>2012-10-11T15:16:39Z</time>
      </trkpt>
      <trkpt lat="43.40141" lon="6.71107">
        <ele>15.60000038147</ele>
        <time>2012-10-11T15:16:40Z</time>
      </trkpt>
      <trkpt lat="43.4014" lon="6.71115">
        <ele>14.60000038147</ele>
        <time>2012-10-11T15:16:41Z</time>
      </trkpt>
      <trkpt lat="43.40138" lon="6.71123">
        <ele>13.60000038147</ele>
        <time>2012-10-11T15:16:42Z</time>
      </trkpt>
      <trkpt lat="43.40137" lon="6.71131">
        <ele>12.60000038147</ele>
        <time>2012-10-11T15:16:43Z</time>
      </trkpt>
      <trkpt lat="43.40137" lon="6.7114">
        <ele>12</ele>
        <time>2012-10-11T15:16:44Z</time>
      </trkpt>
      <trkpt lat="43.40138" lon="6.71149">
        <ele>11.39999961853</ele>
        <time>2012-10-11T15:16:45Z</time>
      </trkpt>
      <trkpt lat="43.40139" lon="6.71158">
        <ele>10.800000190735</ele>
        <time>2012-10-11T15:16:46Z</time>
      </trkpt>
      <trkpt lat="43.40141" lon="6.71169">
        <ele>10.199999809265</ele>
        <time>2012-10-11T15:16:47Z</time>
      </trkpt>
      <trkpt lat="43.40142" lon="6.7118">
        <ele>9.6000003814697</ele>
        <time>2012-10-11T15:16:48Z</time>
      </trkpt>
      <trkpt lat="43.40143" lon="6.71191">
        <ele>9</ele>
        <time>2012-10-11T15:16:49Z</time>
      </trkpt>
      <trkpt lat="43.40144" lon="6.71203">
        <ele>8.3999996185303</ele>
        <time>2012-10-11T15:16:50Z</time>
      </trkpt>
      <trkpt lat="43.40144" lon="6.71214">
        <ele>7.4000000953674</ele>
        <time>2012-10-11T15:16:51Z</time>
      </trkpt>
      <trkpt lat="43.40144" lon="6.71224">
        <ele>7.4000000953674</ele>
        <time>2012-10-11T15:16:52Z</time>
      </trkpt>
      <trkpt lat="43.40144" lon="6.71233">
        <ele>6.8000001907349</ele>
        <time>2012-10-11T15:16:53Z</time>
      </trkpt>
      <trkpt lat="43.40144" lon="6.7124">
        <ele>6.4000000953674</ele>
        <time>2012-10-11T15:16:54Z</time>
      </trkpt>
      <trkpt lat="43.40143" lon="6.71246">
        <ele>6</ele>
        <time>2012-10-11T15:16:55Z</time>
      </trkpt>
      <trkpt lat="43.40142" lon="6.71252">
        <ele>5.5999999046326</ele>
        <time>2012-10-11T15:16:56Z</time>
      </trkpt>
      <trkpt lat="43.4014" lon="6.71257">
        <ele>5.1999998092651</ele>
        <time>2012-10-11T15:16:57Z</time>
      </trkpt>
      <trkpt lat="43.40138" lon="6.71262">
        <ele>5.1999998092651</ele>
        <time>2012-10-11T15:16:58Z</time>
      </trkpt>
      <trkpt lat="43.40126" lon="6.71276">
        <ele>5.1999998092651</ele>
        <time>2012-10-11T15:17:02Z</time>
      </trkpt>
      <trkpt lat="43.40122" lon="6.71279">
        <ele>5.1999998092651</ele>
        <time>2012-10-11T15:17:03Z</time>
      </trkpt>
      <trkpt lat="43.40095" lon="6.71303">
        <ele>5.1999998092651</ele>
        <time>2012-10-11T15:17:10Z</time>
      </trkpt>
      <trkpt lat="43.4008" lon="6.71315">
        <ele>5.1999998092651</ele>
        <time>2012-10-11T15:17:14Z</time>
      </trkpt>
      <trkpt lat="43.40072" lon="6.7132">
        <ele>5.1999998092651</ele>
        <time>2012-10-11T15:17:16Z</time>
      </trkpt>
      <trkpt lat="43.40057" lon="6.71334">
        <ele>5.1999998092651</ele>
        <time>2012-10-11T15:17:20Z</time>
      </trkpt>
      <trkpt lat="43.4005" lon="6.71342">
        <ele>5.1999998092651</ele>
        <time>2012-10-11T15:17:22Z</time>
      </trkpt>
      <trkpt lat="43.40047" lon="6.71346">
        <ele>5.1999998092651</ele>
        <time>2012-10-11T15:17:23Z</time>
      </trkpt>
      <trkpt lat="43.40037" lon="6.71366">
        <ele>5.1999998092651</ele>
        <time>2012-10-11T15:17:27Z</time>
      </trkpt>
      <trkpt lat="43.40024" lon="6.71392">
        <ele>5.1999998092651</ele>
        <time>2012-10-11T15:17:32Z</time>
      </trkpt>
      <trkpt lat="43.40022" lon="6.71397">
        <ele>5.1999998092651</ele>
        <time>2012-10-11T15:17:33Z</time>
      </trkpt>
      <trkpt lat="43.40019" lon="6.71402">
        <ele>5.1999998092651</ele>
        <time>2012-10-11T15:17:34Z</time>
      </trkpt>
      <trkpt lat="43.40017" lon="6.71407">
        <ele>5.1999998092651</ele>
        <time>2012-10-11T15:17:35Z</time>
      </trkpt>
      <trkpt lat="43.40007" lon="6.71427">
        <ele>5.1999998092651</ele>
        <time>2012-10-11T15:17:39Z</time>
      </trkpt>
      <trkpt lat="43.39991" lon="6.71455">
        <ele>5.1999998092651</ele>
        <time>2012-10-11T15:17:45Z</time>
      </trkpt>
      <trkpt lat="43.39979" lon="6.71478">
        <ele>5.1999998092651</ele>
        <time>2012-10-11T15:17:50Z</time>
      </trkpt>
      <trkpt lat="43.39977" lon="6.71483">
        <ele>5.1999998092651</ele>
        <time>2012-10-11T15:17:51Z</time>
      </trkpt>
      <trkpt lat="43.39978" lon="6.71506">
        <ele>5.1999998092651</ele>
        <time>2012-10-11T15:17:55Z</time>
      </trkpt>
      <trkpt lat="43.39982" lon="6.71536">
        <ele>5.1999998092651</ele>
        <time>2012-10-11T15:18:00Z</time>
      </trkpt>
      <trkpt lat="43.39983" lon="6.71542">
        <ele>5.1999998092651</ele>
        <time>2012-10-11T15:18:01Z</time>
      </trkpt>
      <trkpt lat="43.39986" lon="6.7156">
        <ele>5.1999998092651</ele>
        <time>2012-10-11T15:18:04Z</time>
      </trkpt>
      <trkpt lat="43.39989" lon="6.71576">
        <ele>5.1999998092651</ele>
        <time>2012-10-11T15:18:07Z</time>
      </trkpt>
      <trkpt lat="43.3999" lon="6.71597">
        <ele>5.1999998092651</ele>
        <time>2012-10-11T15:18:11Z</time>
      </trkpt>
      <trkpt lat="43.39979" lon="6.71626">
        <ele>5.1999998092651</ele>
        <time>2012-10-11T15:18:17Z</time>
      </trkpt>
      <trkpt lat="43.39977" lon="6.71638">
        <ele>5.1999998092651</ele>
        <time>2012-10-11T15:18:21Z</time>
      </trkpt>
      <trkpt lat="43.39978" lon="6.71647">
        <ele>5.1999998092651</ele>
        <time>2012-10-11T15:18:26Z</time>
      </trkpt>
      <trkpt lat="43.39979" lon="6.71648">
        <ele>5.1999998092651</ele>
        <time>2012-10-11T15:18:27Z</time>
      </trkpt>
      <trkpt lat="43.39979" lon="6.7165">
        <ele>5.1999998092651</ele>
        <time>2012-10-11T15:18:29Z</time>
      </trkpt>
      <trkpt lat="43.3998" lon="6.71666">
        <ele>5.1999998092651</ele>
        <time>2012-10-11T15:18:43Z</time>
      </trkpt>
      <trkpt lat="43.3998" lon="6.71671">
        <ele>5.1999998092651</ele>
        <time>2012-10-11T15:18:45Z</time>
      </trkpt>
      <trkpt lat="43.39987" lon="6.71673">
        <ele>5.1999998092651</ele>
        <time>2012-10-11T15:18:50Z</time>
      </trkpt>
      <trkpt lat="43.39994" lon="6.7167">
        <ele>5.1999998092651</ele>
        <time>2012-10-11T15:19:03Z</time>
      </trkpt>
      <trkpt lat="43.39989" lon="6.71684">
        <ele>5.1999998092651</ele>
        <time>2012-10-11T15:19:07Z</time>
      </trkpt>
      <trkpt lat="43.39979" lon="6.71713">
        <ele>5.1999998092651</ele>
        <time>2012-10-11T15:19:13Z</time>
      </trkpt>
      <trkpt lat="43.39968" lon="6.71741">
        <ele>5.1999998092651</ele>
        <time>2012-10-11T15:19:19Z</time>
      </trkpt>
      <trkpt lat="43.3996" lon="6.71759">
        <ele>5.1999998092651</ele>
        <time>2012-10-11T15:19:24Z</time>
      </trkpt>
      <trkpt lat="43.39953" lon="6.71768">
        <ele>5.1999998092651</ele>
        <time>2012-10-11T15:19:28Z</time>
      </trkpt>
      <trkpt lat="43.39952" lon="6.71771">
        <ele>5.1999998092651</ele>
        <time>2012-10-11T15:19:29Z</time>
      </trkpt>
      <trkpt lat="43.39951" lon="6.71775">
        <ele>5.5999999046326</ele>
        <time>2012-10-11T15:19:30Z</time>
      </trkpt>
      <trkpt lat="43.39949" lon="6.71778">
        <ele>6.1999998092651</ele>
        <time>2012-10-11T15:19:31Z</time>
      </trkpt>
      <trkpt lat="43.39946" lon="6.71781">
        <ele>6.5999999046326</ele>
        <time>2012-10-11T15:19:32Z</time>
      </trkpt>
      <trkpt lat="43.39943" lon="6.71785">
        <ele>7</ele>
        <time>2012-10-11T15:19:33Z</time>
      </trkpt>
      <trkpt lat="43.3994" lon="6.71788">
        <ele>7.4000000953674</ele>
        <time>2012-10-11T15:19:34Z</time>
      </trkpt>
      <trkpt lat="43.39926" lon="6.71809">
        <ele>7.4000000953674</ele>
        <time>2012-10-11T15:19:40Z</time>
      </trkpt>
      <trkpt lat="43.39911" lon="6.71826">
        <ele>7.4000000953674</ele>
        <time>2012-10-11T15:19:45Z</time>
      </trkpt>
      <trkpt lat="43.39907" lon="6.71829">
        <ele>7.4000000953674</ele>
        <time>2012-10-11T15:19:46Z</time>
      </trkpt>
      <trkpt lat="43.39875" lon="6.71847">
        <ele>7.4000000953674</ele>
        <time>2012-10-11T15:19:53Z</time>
      </trkpt>
      <trkpt lat="43.39871" lon="6.71849">
        <ele>7.4000000953674</ele>
        <time>2012-10-11T15:19:54Z</time>
      </trkpt>
      <trkpt lat="43.39846" lon="6.71858">
        <ele>7.4000000953674</ele>
        <time>2012-10-11T15:19:59Z</time>
      </trkpt>
      <trkpt lat="43.39804" lon="6.7187">
        <ele>7.4000000953674</ele>
        <time>2012-10-11T15:20:07Z</time>
      </trkpt>
      <trkpt lat="43.39777" lon="6.71878">
        <ele>7.4000000953674</ele>
        <time>2012-10-11T15:20:13Z</time>
      </trkpt>
      <trkpt lat="43.39734" lon="6.71889">
        <ele>7.4000000953674</ele>
        <time>2012-10-11T15:20:23Z</time>
      </trkpt>
      <trkpt lat="43.39714" lon="6.71892">
        <ele>7.4000000953674</ele>
        <time>2012-10-11T15:20:28Z</time>
      </trkpt>
      <trkpt lat="43.39706" lon="6.71894">
        <ele>7.4000000953674</ele>
        <time>2012-10-11T15:20:30Z</time>
      </trkpt>
      <trkpt lat="43.39703" lon="6.71897">
        <ele>7.4000000953674</ele>
        <time>2012-10-11T15:20:31Z</time>
      </trkpt>
      <trkpt lat="43.39698" lon="6.71917">
        <ele>7.4000000953674</ele>
        <time>2012-10-11T15:20:34Z</time>
      </trkpt>
      <trkpt lat="43.39696" lon="6.71926">
        <ele>7.4000000953674</ele>
        <time>2012-10-11T15:20:35Z</time>
      </trkpt>
      <trkpt lat="43.39692" lon="6.71952">
        <ele>7.4000000953674</ele>
        <time>2012-10-11T15:20:38Z</time>
      </trkpt>
      <trkpt lat="43.39687" lon="6.71983">
        <ele>7.4000000953674</ele>
        <time>2012-10-11T15:20:42Z</time>
      </trkpt>
      <trkpt lat="43.39686" lon="6.7199">
        <ele>7.4000000953674</ele>
        <time>2012-10-11T15:20:43Z</time>
      </trkpt>
      <trkpt lat="43.39684" lon="6.72003">
        <ele>7.4000000953674</ele>
        <time>2012-10-11T15:20:45Z</time>
      </trkpt>
      <trkpt lat="43.39681" lon="6.72025">
        <ele>7.4000000953674</ele>
        <time>2012-10-11T15:20:48Z</time>
      </trkpt>
      <trkpt lat="43.39674" lon="6.7207">
        <ele>7</ele>
        <time>2012-10-11T15:20:54Z</time>
      </trkpt>
      <trkpt lat="43.39673" lon="6.72077">
        <ele>6.5999999046326</ele>
        <time>2012-10-11T15:20:55Z</time>
      </trkpt>
      <trkpt lat="43.39671" lon="6.72085">
        <ele>6.1999998092651</ele>
        <time>2012-10-11T15:20:56Z</time>
      </trkpt>
      <trkpt lat="43.3967" lon="6.72094">
        <ele>5.8000001907349</ele>
        <time>2012-10-11T15:20:57Z</time>
      </trkpt>
      <trkpt lat="43.39668" lon="6.72102">
        <ele>5.4000000953674</ele>
        <time>2012-10-11T15:20:58Z</time>
      </trkpt>
      <trkpt lat="43.39664" lon="6.72136">
        <ele>5.4000000953674</ele>
        <time>2012-10-11T15:21:02Z</time>
      </trkpt>
      <trkpt lat="43.39655" lon="6.72192">
        <ele>5.4000000953674</ele>
        <time>2012-10-11T15:21:09Z</time>
      </trkpt>
      <trkpt lat="43.39654" lon="6.722">
        <ele>5.4000000953674</ele>
        <time>2012-10-11T15:21:10Z</time>
      </trkpt>
      <trkpt lat="43.39649" lon="6.72231">
        <ele>5.4000000953674</ele>
        <time>2012-10-11T15:21:14Z</time>
      </trkpt>
      <trkpt lat="43.3964" lon="6.72278">
        <ele>5.4000000953674</ele>
        <time>2012-10-11T15:21:20Z</time>
      </trkpt>
      <trkpt lat="43.39636" lon="6.72314">
        <ele>5.4000000953674</ele>
        <time>2012-10-11T15:21:25Z</time>
      </trkpt>
      <trkpt lat="43.39635" lon="6.72321">
        <ele>5.4000000953674</ele>
        <time>2012-10-11T15:21:26Z</time>
      </trkpt>
      <trkpt lat="43.39629" lon="6.72358">
        <ele>5.4000000953674</ele>
        <time>2012-10-11T15:21:32Z</time>
      </trkpt>
      <trkpt lat="43.39628" lon="6.72364">
        <ele>5.4000000953674</ele>
        <time>2012-10-11T15:21:33Z</time>
      </trkpt>
      <trkpt lat="43.3962" lon="6.72412">
        <ele>5.4000000953674</ele>
        <time>2012-10-11T15:21:40Z</time>
      </trkpt>
      <trkpt lat="43.39611" lon="6.72466">
        <ele>5.4000000953674</ele>
        <time>2012-10-11T15:21:48Z</time>
      </trkpt>
      <trkpt lat="43.39608" lon="6.72495">
        <ele>5.4000000953674</ele>
        <time>2012-10-11T15:21:52Z</time>
      </trkpt>
      <trkpt lat="43.39606" lon="6.72507">
        <ele>5.4000000953674</ele>
        <time>2012-10-11T15:21:54Z</time>
      </trkpt>
      <trkpt lat="43.39604" lon="6.72523">
        <ele>5.4000000953674</ele>
        <time>2012-10-11T15:21:57Z</time>
      </trkpt>
      <trkpt lat="43.39603" lon="6.7253">
        <ele>5.4000000953674</ele>
        <time>2012-10-11T15:21:58Z</time>
      </trkpt>
      <trkpt lat="43.39599" lon="6.72551">
        <ele>5.4000000953674</ele>
        <time>2012-10-11T15:22:01Z</time>
      </trkpt>
      <trkpt lat="43.39595" lon="6.72563">
        <ele>5.4000000953674</ele>
        <time>2012-10-11T15:22:03Z</time>
      </trkpt>
      <trkpt lat="43.39589" lon="6.72586">
        <ele>5.4000000953674</ele>
        <time>2012-10-11T15:22:07Z</time>
      </trkpt>
      <trkpt lat="43.39582" lon="6.72614">
        <ele>5.4000000953674</ele>
        <time>2012-10-11T15:22:11Z</time>
      </trkpt>
      <trkpt lat="43.39575" lon="6.72621">
        <ele>5.4000000953674</ele>
        <time>2012-10-11T15:22:13Z</time>
      </trkpt>
      <trkpt lat="43.39561" lon="6.72617">
        <ele>5.4000000953674</ele>
        <time>2012-10-11T15:22:16Z</time>
      </trkpt>
      <trkpt lat="43.39536" lon="6.72608">
        <ele>5.4000000953674</ele>
        <time>2012-10-11T15:22:21Z</time>
      </trkpt>
      <trkpt lat="43.39531" lon="6.72606">
        <ele>5.4000000953674</ele>
        <time>2012-10-11T15:22:22Z</time>
      </trkpt>
      <trkpt lat="43.39527" lon="6.72604">
        <ele>5.4000000953674</ele>
        <time>2012-10-11T15:22:23Z</time>
      </trkpt>
      <trkpt lat="43.39504" lon="6.72596">
        <ele>5.4000000953674</ele>
        <time>2012-10-11T15:22:28Z</time>
      </trkpt>
      <trkpt lat="43.39499" lon="6.72595">
        <ele>5.4000000953674</ele>
        <time>2012-10-11T15:22:29Z</time>
      </trkpt>
      <trkpt lat="43.39484" lon="6.72599">
        <ele>5.4000000953674</ele>
        <time>2012-10-11T15:22:32Z</time>
      </trkpt>
      <trkpt lat="43.39474" lon="6.72603">
        <ele>5.4000000953674</ele>
        <time>2012-10-11T15:22:34Z</time>
      </trkpt>
      <trkpt lat="43.39434" lon="6.72615">
        <ele>5.4000000953674</ele>
        <time>2012-10-11T15:22:42Z</time>
      </trkpt>
      <trkpt lat="43.39392" lon="6.72628">
        <ele>5.4000000953674</ele>
        <time>2012-10-11T15:22:50Z</time>
      </trkpt>
      <trkpt lat="43.39367" lon="6.72636">
        <ele>5.4000000953674</ele>
        <time>2012-10-11T15:22:56Z</time>
      </trkpt>
      <trkpt lat="43.39341" lon="6.72648">
        <ele>5.4000000953674</ele>
        <time>2012-10-11T15:23:02Z</time>
      </trkpt>
      <trkpt lat="43.39311" lon="6.72664">
        <ele>5.4000000953674</ele>
        <time>2012-10-11T15:23:09Z</time>
      </trkpt>
      <trkpt lat="43.39307" lon="6.72666">
        <ele>5.4000000953674</ele>
        <time>2012-10-11T15:23:10Z</time>
      </trkpt>
      <trkpt lat="43.39283" lon="6.7267">
        <ele>5.4000000953674</ele>
        <time>2012-10-11T15:23:15Z</time>
      </trkpt>
      <trkpt lat="43.39254" lon="6.72668">
        <ele>5.4000000953674</ele>
        <time>2012-10-11T15:23:21Z</time>
      </trkpt>
      <trkpt lat="43.3925" lon="6.7267">
        <ele>5.4000000953674</ele>
        <time>2012-10-11T15:23:22Z</time>
      </trkpt>
      <trkpt lat="43.39242" lon="6.72681">
        <ele>5.4000000953674</ele>
        <time>2012-10-11T15:23:25Z</time>
      </trkpt>
      <trkpt lat="43.39245" lon="6.72695">
        <ele>5.4000000953674</ele>
        <time>2012-10-11T15:23:28Z</time>
      </trkpt>
      <trkpt lat="43.39257" lon="6.7271">
        <ele>5.4000000953674</ele>
        <time>2012-10-11T15:23:32Z</time>
      </trkpt>
      <trkpt lat="43.39261" lon="6.72714">
        <ele>5.4000000953674</ele>
        <time>2012-10-11T15:23:33Z</time>
      </trkpt>
      <trkpt lat="43.39276" lon="6.7273">
        <ele>5.4000000953674</ele>
        <time>2012-10-11T15:23:38Z</time>
      </trkpt>
      <trkpt lat="43.39278" lon="6.72734">
        <ele>5.4000000953674</ele>
        <time>2012-10-11T15:23:39Z</time>
      </trkpt>
      <trkpt lat="43.39282" lon="6.72743">
        <ele>5.4000000953674</ele>
        <time>2012-10-11T15:23:43Z</time>
      </trkpt>
      <trkpt lat="43.39284" lon="6.72757">
        <ele>5.4000000953674</ele>
        <time>2012-10-11T15:23:48Z</time>
      </trkpt>
      <trkpt lat="43.39278" lon="6.72777">
        <ele>5.4000000953674</ele>
        <time>2012-10-11T15:23:53Z</time>
      </trkpt>
      <trkpt lat="43.39274" lon="6.72788">
        <ele>5.4000000953674</ele>
        <time>2012-10-11T15:23:56Z</time>
      </trkpt>
      <trkpt lat="43.39271" lon="6.72803">
        <ele>5.4000000953674</ele>
        <time>2012-10-11T15:24:00Z</time>
      </trkpt>
      <trkpt lat="43.39266" lon="6.72827">
        <ele>5.4000000953674</ele>
        <time>2012-10-11T15:24:06Z</time>
      </trkpt>
      <trkpt lat="43.39264" lon="6.72836">
        <ele>5.4000000953674</ele>
        <time>2012-10-11T15:24:09Z</time>
      </trkpt>
      <trkpt lat="43.39263" lon="6.7284">
        <ele>5.4000000953674</ele>
        <time>2012-10-11T15:24:11Z</time>
      </trkpt>
      <trkpt lat="43.39261" lon="6.72844">
        <ele>5.4000000953674</ele>
        <time>2012-10-11T15:24:13Z</time>
      </trkpt>
      <trkpt lat="43.3926" lon="6.72847">
        <ele>5.4000000953674</ele>
        <time>2012-10-11T15:24:15Z</time>
      </trkpt>
      <trkpt lat="43.3926" lon="6.72848">
        <ele>5.4000000953674</ele>
        <time>2012-10-11T15:24:16Z</time>
      </trkpt>
      <trkpt lat="43.39261" lon="6.72848">
        <ele>5.4000000953674</ele>
        <time>2012-10-11T15:24:17Z</time>
      </trkpt>
      <trkpt lat="43.39229" lon="6.72846">
        <ele>5.4000000953674</ele>
        <time>2012-10-11T15:24:54Z</time>
      </trkpt>
      <trkpt lat="43.39227" lon="6.72845">
        <ele>5.4000000953674</ele>
        <time>2012-10-11T15:24:55Z</time>
      </trkpt>
      <trkpt lat="43.39224" lon="6.72837">
        <ele>5.4000000953674</ele>
        <time>2012-10-11T15:25:01Z</time>
      </trkpt>
      <trkpt lat="43.39223" lon="6.72832">
        <ele>5.4000000953674</ele>
        <time>2012-10-11T15:25:05Z</time>
      </trkpt>
      <trkpt lat="43.39222" lon="6.72831">
        <ele>5.4000000953674</ele>
        <time>2012-10-11T15:25:06Z</time>
      </trkpt>
      <trkpt lat="43.39221" lon="6.72825">
        <ele>5.4000000953674</ele>
        <time>2012-10-11T15:25:12Z</time>
      </trkpt>
      <trkpt lat="43.39212" lon="6.72817">
        <ele>7.5999999046326</ele>
        <time>2012-10-11T15:25:22Z</time>
      </trkpt>
      <trkpt lat="43.39207" lon="6.72815">
        <ele>7.5999999046326</ele>
        <time>2012-10-11T15:25:25Z</time>
      </trkpt>
      <trkpt lat="43.39199" lon="6.72813">
        <ele>7.5999999046326</ele>
        <time>2012-10-11T15:25:28Z</time>
      </trkpt>
      <trkpt lat="43.3919" lon="6.7281">
        <ele>7.5999999046326</ele>
        <time>2012-10-11T15:25:31Z</time>
      </trkpt>
      <trkpt lat="43.39172" lon="6.72808">
        <ele>7.5999999046326</ele>
        <time>2012-10-11T15:25:37Z</time>
      </trkpt>
      <trkpt lat="43.39169" lon="6.72808">
        <ele>8</ele>
        <time>2012-10-11T15:25:38Z</time>
      </trkpt>
      <trkpt lat="43.39166" lon="6.72809">
        <ele>8.3999996185303</ele>
        <time>2012-10-11T15:25:39Z</time>
      </trkpt>
      <trkpt lat="43.39163" lon="6.7281">
        <ele>8.8000001907349</ele>
        <time>2012-10-11T15:25:40Z</time>
      </trkpt>
      <trkpt lat="43.3916" lon="6.72812">
        <ele>9.1999998092651</ele>
        <time>2012-10-11T15:25:41Z</time>
      </trkpt>
      <trkpt lat="43.39157" lon="6.72812">
        <ele>9.6000003814697</ele>
        <time>2012-10-11T15:25:42Z</time>
      </trkpt>
      <trkpt lat="43.39154" lon="6.72812">
        <ele>9.6000003814697</ele>
        <time>2012-10-11T15:25:43Z</time>
      </trkpt>
      <trkpt lat="43.39148" lon="6.72813">
        <ele>9.6000003814697</ele>
        <time>2012-10-11T15:25:45Z</time>
      </trkpt>
      <trkpt lat="43.39142" lon="6.72819">
        <ele>9.6000003814697</ele>
        <time>2012-10-11T15:25:47Z</time>
      </trkpt>
      <trkpt lat="43.39125" lon="6.72836">
        <ele>10</ele>
        <time>2012-10-11T15:25:53Z</time>
      </trkpt>
      <trkpt lat="43.39122" lon="6.72839">
        <ele>10.60000038147</ele>
        <time>2012-10-11T15:25:54Z</time>
      </trkpt>
      <trkpt lat="43.39119" lon="6.72842">
        <ele>11</ele>
        <time>2012-10-11T15:25:55Z</time>
      </trkpt>
      <trkpt lat="43.39115" lon="6.72845">
        <ele>11.39999961853</ele>
        <time>2012-10-11T15:25:56Z</time>
      </trkpt>
      <trkpt lat="43.39112" lon="6.72848">
        <ele>11.800000190735</ele>
        <time>2012-10-11T15:25:57Z</time>
      </trkpt>
      <trkpt lat="43.39102" lon="6.72857">
        <ele>11.800000190735</ele>
        <time>2012-10-11T15:26:00Z</time>
      </trkpt>
      <trkpt lat="43.39084" lon="6.72874">
        <ele>11.800000190735</ele>
        <time>2012-10-11T15:26:06Z</time>
      </trkpt>
      <trkpt lat="43.39063" lon="6.72885">
        <ele>11.800000190735</ele>
        <time>2012-10-11T15:26:12Z</time>
      </trkpt>
      <trkpt lat="43.39059" lon="6.72883">
        <ele>11.800000190735</ele>
        <time>2012-10-11T15:26:13Z</time>
      </trkpt>
      <trkpt lat="43.39048" lon="6.72877">
        <ele>11.800000190735</ele>
        <time>2012-10-11T15:26:16Z</time>
      </trkpt>
      <trkpt lat="43.39038" lon="6.7287">
        <ele>12.199999809265</ele>
        <time>2012-10-11T15:26:19Z</time>
      </trkpt>
      <trkpt lat="43.39035" lon="6.72867">
        <ele>12.60000038147</ele>
        <time>2012-10-11T15:26:20Z</time>
      </trkpt>
      <trkpt lat="43.39032" lon="6.72865">
        <ele>13</ele>
        <time>2012-10-11T15:26:21Z</time>
      </trkpt>
      <trkpt lat="43.39029" lon="6.72863">
        <ele>13.39999961853</ele>
        <time>2012-10-11T15:26:22Z</time>
      </trkpt>
      <trkpt lat="43.39027" lon="6.72861">
        <ele>14</ele>
        <time>2012-10-11T15:26:23Z</time>
      </trkpt>
      <trkpt lat="43.39014" lon="6.72854">
        <ele>14</ele>
        <time>2012-10-11T15:26:28Z</time>
      </trkpt>
      <trkpt lat="43.38996" lon="6.72841">
        <ele>14</ele>
        <time>2012-10-11T15:26:35Z</time>
      </trkpt>
      <trkpt lat="43.38993" lon="6.7284">
        <ele>14.39999961853</ele>
        <time>2012-10-11T15:26:36Z</time>
      </trkpt>
      <trkpt lat="43.38991" lon="6.72838">
        <ele>14.800000190735</ele>
        <time>2012-10-11T15:26:37Z</time>
      </trkpt>
      <trkpt lat="43.38988" lon="6.72836">
        <ele>15.199999809265</ele>
        <time>2012-10-11T15:26:38Z</time>
      </trkpt>
      <trkpt lat="43.38985" lon="6.72834">
        <ele>15.60000038147</ele>
        <time>2012-10-11T15:26:39Z</time>
      </trkpt>
      <trkpt lat="43.38982" lon="6.72832">
        <ele>16</ele>
        <time>2012-10-11T15:26:40Z</time>
      </trkpt>
      <trkpt lat="43.38976" lon="6.72828">
        <ele>16</ele>
        <time>2012-10-11T15:26:42Z</time>
      </trkpt>
      <trkpt lat="43.38958" lon="6.72816">
        <ele>16</ele>
        <time>2012-10-11T15:26:48Z</time>
      </trkpt>
      <trkpt lat="43.38946" lon="6.7281">
        <ele>16.39999961853</ele>
        <time>2012-10-11T15:26:52Z</time>
      </trkpt>
      <trkpt lat="43.38944" lon="6.72808">
        <ele>16.799999237061</ele>
        <time>2012-10-11T15:26:53Z</time>
      </trkpt>
      <trkpt lat="43.38941" lon="6.72806">
        <ele>17.200000762939</ele>
        <time>2012-10-11T15:26:54Z</time>
      </trkpt>
      <trkpt lat="43.38939" lon="6.72804">
        <ele>17.60000038147</ele>
        <time>2012-10-11T15:26:55Z</time>
      </trkpt>
      <trkpt lat="43.38936" lon="6.72803">
        <ele>18.200000762939</ele>
        <time>2012-10-11T15:26:56Z</time>
      </trkpt>
      <trkpt lat="43.3893" lon="6.72799">
        <ele>18.200000762939</ele>
        <time>2012-10-11T15:26:59Z</time>
      </trkpt>
      <trkpt lat="43.38916" lon="6.72791">
        <ele>18.200000762939</ele>
        <time>2012-10-11T15:27:05Z</time>
      </trkpt>
      <trkpt lat="43.389" lon="6.72781">
        <ele>18.200000762939</ele>
        <time>2012-10-11T15:27:11Z</time>
      </trkpt>
      <trkpt lat="43.38896" lon="6.7278">
        <ele>18.200000762939</ele>
        <time>2012-10-11T15:27:12Z</time>
      </trkpt>
      <trkpt lat="43.38891" lon="6.72786">
        <ele>18.200000762939</ele>
        <time>2012-10-11T15:27:14Z</time>
      </trkpt>
      <trkpt lat="43.38885" lon="6.72799">
        <ele>18.200000762939</ele>
        <time>2012-10-11T15:27:17Z</time>
      </trkpt>
      <trkpt lat="43.38882" lon="6.72807">
        <ele>18.200000762939</ele>
        <time>2012-10-11T15:27:19Z</time>
      </trkpt>
      <trkpt lat="43.38873" lon="6.72828">
        <ele>18.200000762939</ele>
        <time>2012-10-11T15:27:24Z</time>
      </trkpt>
      <trkpt lat="43.38871" lon="6.72834">
        <ele>18.200000762939</ele>
        <time>2012-10-11T15:27:25Z</time>
      </trkpt>
      <trkpt lat="43.38859" lon="6.72868">
        <ele>18.200000762939</ele>
        <time>2012-10-11T15:27:30Z</time>
      </trkpt>
      <trkpt lat="43.38852" lon="6.72886">
        <ele>17.60000038147</ele>
        <time>2012-10-11T15:27:32Z</time>
      </trkpt>
      <trkpt lat="43.38848" lon="6.72896">
        <ele>17.200000762939</ele>
        <time>2012-10-11T15:27:33Z</time>
      </trkpt>
      <trkpt lat="43.38844" lon="6.72906">
        <ele>16.799999237061</ele>
        <time>2012-10-11T15:27:34Z</time>
      </trkpt>
      <trkpt lat="43.3884" lon="6.72917">
        <ele>16.39999961853</ele>
        <time>2012-10-11T15:27:35Z</time>
      </trkpt>
      <trkpt lat="43.38836" lon="6.72927">
        <ele>15.800000190735</ele>
        <time>2012-10-11T15:27:36Z</time>
      </trkpt>
      <trkpt lat="43.38833" lon="6.72937">
        <ele>15.39999961853</ele>
        <time>2012-10-11T15:27:37Z</time>
      </trkpt>
      <trkpt lat="43.38829" lon="6.72948">
        <ele>14.800000190735</ele>
        <time>2012-10-11T15:27:38Z</time>
      </trkpt>
      <trkpt lat="43.38826" lon="6.72957">
        <ele>14.39999961853</ele>
        <time>2012-10-11T15:27:39Z</time>
      </trkpt>
      <trkpt lat="43.38822" lon="6.72966">
        <ele>13.800000190735</ele>
        <time>2012-10-11T15:27:40Z</time>
      </trkpt>
      <trkpt lat="43.38819" lon="6.72974">
        <ele>13.800000190735</ele>
        <time>2012-10-11T15:27:41Z</time>
      </trkpt>
      <trkpt lat="43.38814" lon="6.72988">
        <ele>13.800000190735</ele>
        <time>2012-10-11T15:27:43Z</time>
      </trkpt>
      <trkpt lat="43.38812" lon="6.72994">
        <ele>13.39999961853</ele>
        <time>2012-10-11T15:27:44Z</time>
      </trkpt>
      <trkpt lat="43.38811" lon="6.72998">
        <ele>13</ele>
        <time>2012-10-11T15:27:45Z</time>
      </trkpt>
      <trkpt lat="43.3881" lon="6.73001">
        <ele>12.60000038147</ele>
        <time>2012-10-11T15:27:46Z</time>
      </trkpt>
      <trkpt lat="43.38809" lon="6.73004">
        <ele>12</ele>
        <time>2012-10-11T15:27:47Z</time>
      </trkpt>
      <trkpt lat="43.38808" lon="6.73007">
        <ele>11.60000038147</ele>
        <time>2012-10-11T15:27:48Z</time>
      </trkpt>
      <trkpt lat="43.38807" lon="6.73009">
        <ele>11.60000038147</ele>
        <time>2012-10-11T15:27:49Z</time>
      </trkpt>
      <trkpt lat="43.38804" lon="6.73011">
        <ele>11.60000038147</ele>
        <time>2012-10-11T15:27:52Z</time>
      </trkpt>
      <trkpt lat="43.38804" lon="6.73011">
        <ele>11.199999809265</ele>
        <time>2012-10-11T15:27:53Z</time>
      </trkpt>
      <trkpt lat="43.38803" lon="6.73012">
        <ele>10.800000190735</ele>
        <time>2012-10-11T15:27:54Z</time>
      </trkpt>
      <trkpt lat="43.38803" lon="6.73013">
        <ele>10</ele>
        <time>2012-10-11T15:27:55Z</time>
      </trkpt>
      <trkpt lat="43.38802" lon="6.73014">
        <ele>9.6000003814697</ele>
        <time>2012-10-11T15:27:56Z</time>
      </trkpt>
      <trkpt lat="43.38802" lon="6.73014">
        <ele>9.6000003814697</ele>
        <time>2012-10-11T15:27:58Z</time>
      </trkpt>
      <trkpt lat="43.38802" lon="6.73014">
        <ele>9.6000003814697</ele>
        <time>2012-10-11T15:27:59Z</time>
      </trkpt>
      <trkpt lat="43.38802" lon="6.73014">
        <ele>9.6000003814697</ele>
        <time>2012-10-11T15:28:02Z</time>
      </trkpt>
      <trkpt lat="43.38803" lon="6.73021">
        <ele>9.6000003814697</ele>
        <time>2012-10-11T15:28:14Z</time>
      </trkpt>
      <trkpt lat="43.38807" lon="6.73027">
        <ele>9.1999998092651</ele>
        <time>2012-10-11T15:28:17Z</time>
      </trkpt>
      <trkpt lat="43.38808" lon="6.73031">
        <ele>8.8000001907349</ele>
        <time>2012-10-11T15:28:18Z</time>
      </trkpt>
      <trkpt lat="43.38809" lon="6.73036">
        <ele>7.8000001907349</ele>
        <time>2012-10-11T15:28:19Z</time>
      </trkpt>
      <trkpt lat="43.3881" lon="6.73041">
        <ele>7.4000000953674</ele>
        <time>2012-10-11T15:28:20Z</time>
      </trkpt>
      <trkpt lat="43.38812" lon="6.73044">
        <ele>7.4000000953674</ele>
        <time>2012-10-11T15:28:21Z</time>
      </trkpt>
      <trkpt lat="43.38815" lon="6.73048">
        <ele>7.4000000953674</ele>
        <time>2012-10-11T15:28:22Z</time>
      </trkpt>
      <trkpt lat="43.38827" lon="6.73058">
        <ele>7.4000000953674</ele>
        <time>2012-10-11T15:28:26Z</time>
      </trkpt>
      <trkpt lat="43.38834" lon="6.73047">
        <ele>7.4000000953674</ele>
        <time>2012-10-11T15:28:30Z</time>
      </trkpt>
      <trkpt lat="43.38835" lon="6.73039">
        <ele>7.4000000953674</ele>
        <time>2012-10-11T15:28:32Z</time>
      </trkpt>
      <trkpt lat="43.38837" lon="6.73028">
        <ele>7.4000000953674</ele>
        <time>2012-10-11T15:28:35Z</time>
      </trkpt>
      <trkpt lat="43.38839" lon="6.73021">
        <ele>7.4000000953674</ele>
        <time>2012-10-11T15:28:38Z</time>
      </trkpt>
      <trkpt lat="43.3884" lon="6.7302">
        <ele>7.4000000953674</ele>
        <time>2012-10-11T15:28:39Z</time>
      </trkpt>
      <trkpt lat="43.38844" lon="6.7302">
        <ele>7.4000000953674</ele>
        <time>2012-10-11T15:28:42Z</time>
      </trkpt>
      <trkpt lat="43.38845" lon="6.73022">
        <ele>7.4000000953674</ele>
        <time>2012-10-11T15:28:44Z</time>
      </trkpt>
      <trkpt lat="43.38847" lon="6.73027">
        <ele>7.4000000953674</ele>
        <time>2012-10-11T15:28:47Z</time>
      </trkpt>
      <trkpt lat="43.38849" lon="6.73029">
        <ele>7.4000000953674</ele>
        <time>2012-10-11T15:28:49Z</time>
      </trkpt>
      <trkpt lat="43.3885" lon="6.73031">
        <ele>7.4000000953674</ele>
        <time>2012-10-11T15:28:53Z</time>
      </trkpt>
      <trkpt lat="43.38853" lon="6.73033">
        <ele>7.4000000953674</ele>
        <time>2012-10-11T15:29:02Z</time>
      </trkpt>
      <trkpt lat="43.38853" lon="6.73035">
        <ele>7.4000000953674</ele>
        <time>2012-10-11T15:29:03Z</time>
      </trkpt>
      <trkpt lat="43.38859" lon="6.73043">
        <ele>7.4000000953674</ele>
        <time>2012-10-11T15:29:07Z</time>
      </trkpt>
      <trkpt lat="43.38868" lon="6.73048">
        <ele>7.4000000953674</ele>
        <time>2012-10-11T15:29:11Z</time>
      </trkpt>
      <trkpt lat="43.38888" lon="6.73059">
        <ele>7.4000000953674</ele>
        <time>2012-10-11T15:29:17Z</time>
      </trkpt>
      <trkpt lat="43.38901" lon="6.73065">
        <ele>7.4000000953674</ele>
        <time>2012-10-11T15:29:22Z</time>
      </trkpt>
      <trkpt lat="43.38915" lon="6.73063">
        <ele>7.4000000953674</ele>
        <time>2012-10-11T15:29:28Z</time>
      </trkpt>
      <trkpt lat="43.38924" lon="6.73056">
        <ele>7.4000000953674</ele>
        <time>2012-10-11T15:29:31Z</time>
      </trkpt>
      <trkpt lat="43.38926" lon="6.73057">
        <ele>7.4000000953674</ele>
        <time>2012-10-11T15:29:32Z</time>
      </trkpt>
      <trkpt lat="43.3893" lon="6.73064">
        <ele>7.4000000953674</ele>
        <time>2012-10-11T15:29:36Z</time>
      </trkpt>
      <trkpt lat="43.3893" lon="6.73066">
        <ele>7.4000000953674</ele>
        <time>2012-10-11T15:29:39Z</time>
      </trkpt>
      <trkpt lat="43.3893" lon="6.73068">
        <ele>7.4000000953674</ele>
        <time>2012-10-11T15:29:48Z</time>
      </trkpt>
      <trkpt lat="43.3893" lon="6.73071">
        <ele>7.4000000953674</ele>
        <time>2012-10-11T15:29:49Z</time>
      </trkpt>
      <trkpt lat="43.3893" lon="6.73078">
        <ele>7.4000000953674</ele>
        <time>2012-10-11T15:29:54Z</time>
      </trkpt>
      <trkpt lat="43.3893" lon="6.7308">
        <ele>7.4000000953674</ele>
        <time>2012-10-11T15:29:56Z</time>
      </trkpt>
      <trkpt lat="43.38927" lon="6.73086">
        <ele>7.4000000953674</ele>
        <time>2012-10-11T15:30:02Z</time>
      </trkpt>
      <trkpt lat="43.38926" lon="6.73088">
        <ele>7.4000000953674</ele>
        <time>2012-10-11T15:30:04Z</time>
      </trkpt>
      <trkpt lat="43.38926" lon="6.73096">
        <ele>7.4000000953674</ele>
        <time>2012-10-11T15:30:07Z</time>
      </trkpt>
      <trkpt lat="43.38933" lon="6.73106">
        <ele>7.4000000953674</ele>
        <time>2012-10-11T15:30:12Z</time>
      </trkpt>
      <trkpt lat="43.38933" lon="6.7311">
        <ele>7.4000000953674</ele>
        <time>2012-10-11T15:30:14Z</time>
      </trkpt>
      <trkpt lat="43.38936" lon="6.73114">
        <ele>7.4000000953674</ele>
        <time>2012-10-11T15:30:17Z</time>
      </trkpt>
      <trkpt lat="43.38942" lon="6.73116">
        <ele>7.4000000953674</ele>
        <time>2012-10-11T15:30:21Z</time>
      </trkpt>
      <trkpt lat="43.38946" lon="6.7312">
        <ele>7.4000000953674</ele>
        <time>2012-10-11T15:30:24Z</time>
      </trkpt>
      <trkpt lat="43.38953" lon="6.73132">
        <ele>7.4000000953674</ele>
        <time>2012-10-11T15:30:29Z</time>
      </trkpt>
      <trkpt lat="43.3896" lon="6.73147">
        <ele>7.4000000953674</ele>
        <time>2012-10-11T15:30:34Z</time>
      </trkpt>
      <trkpt lat="43.38969" lon="6.73161">
        <ele>7.4000000953674</ele>
        <time>2012-10-11T15:30:39Z</time>
      </trkpt>
      <trkpt lat="43.3897" lon="6.73164">
        <ele>7.4000000953674</ele>
        <time>2012-10-11T15:30:40Z</time>
      </trkpt>
      <trkpt lat="43.3897" lon="6.73168">
        <ele>7.4000000953674</ele>
        <time>2012-10-11T15:30:42Z</time>
      </trkpt>
      <trkpt lat="43.3897" lon="6.73168">
        <ele>7.4000000953674</ele>
        <time>2012-10-11T15:30:43Z</time>
      </trkpt>
      <trkpt lat="43.3897" lon="6.73169">
        <ele>7.4000000953674</ele>
        <time>2012-10-11T15:30:46Z</time>
      </trkpt>
      <trkpt lat="43.38969" lon="6.73171">
        <ele>7.4000000953674</ele>
        <time>2012-10-11T15:30:47Z</time>
      </trkpt>
      <trkpt lat="43.3897" lon="6.73173">
        <ele>7.4000000953674</ele>
        <time>2012-10-11T15:30:49Z</time>
      </trkpt>
      <trkpt lat="43.38974" lon="6.73173">
        <ele>7.4000000953674</ele>
        <time>2012-10-11T15:30:57Z</time>
      </trkpt>
      <trkpt lat="43.3898" lon="6.73167">
        <ele>7.4000000953674</ele>
        <time>2012-10-11T15:31:02Z</time>
      </trkpt>
      <trkpt lat="43.38981" lon="6.73165">
        <ele>7.4000000953674</ele>
        <time>2012-10-11T15:31:03Z</time>
      </trkpt>
      <trkpt lat="43.38984" lon="6.73165">
        <ele>7.4000000953674</ele>
        <time>2012-10-11T15:31:06Z</time>
      </trkpt>
      <trkpt lat="43.38985" lon="6.73167">
        <ele>7.4000000953674</ele>
        <time>2012-10-11T15:31:07Z</time>
      </trkpt>
      <trkpt lat="43.38994" lon="6.73183">
        <ele>7.4000000953674</ele>
        <time>2012-10-11T15:31:12Z</time>
      </trkpt>
      <trkpt lat="43.39003" lon="6.73198">
        <ele>7.4000000953674</ele>
        <time>2012-10-11T15:31:17Z</time>
      </trkpt>
      <trkpt lat="43.39009" lon="6.73202">
        <ele>7.4000000953674</ele>
        <time>2012-10-11T15:31:19Z</time>
      </trkpt>
      <trkpt lat="43.39013" lon="6.73203">
        <ele>7.4000000953674</ele>
        <time>2012-10-11T15:31:21Z</time>
      </trkpt>
      <trkpt lat="43.39017" lon="6.73202">
        <ele>7.4000000953674</ele>
        <time>2012-10-11T15:31:23Z</time>
      </trkpt>
      <trkpt lat="43.39024" lon="6.73202">
        <ele>7.4000000953674</ele>
        <time>2012-10-11T15:31:26Z</time>
      </trkpt>
      <trkpt lat="43.39027" lon="6.73201">
        <ele>7.4000000953674</ele>
        <time>2012-10-11T15:31:28Z</time>
      </trkpt>
      <trkpt lat="43.39034" lon="6.73195">
        <ele>7.4000000953674</ele>
        <time>2012-10-11T15:31:31Z</time>
      </trkpt>
      <trkpt lat="43.39041" lon="6.73186">
        <ele>7.4000000953674</ele>
        <time>2012-10-11T15:31:36Z</time>
      </trkpt>
      <trkpt lat="43.39044" lon="6.73183">
        <ele>8.3999996185303</ele>
        <time>2012-10-11T15:31:38Z</time>
      </trkpt>
      <trkpt lat="43.39045" lon="6.73183">
        <ele>8.8000001907349</ele>
        <time>2012-10-11T15:31:39Z</time>
      </trkpt>
      <trkpt lat="43.39048" lon="6.73183">
        <ele>9.1999998092651</ele>
        <time>2012-10-11T15:31:40Z</time>
      </trkpt>
      <trkpt lat="43.3905" lon="6.73183">
        <ele>9.6000003814697</ele>
        <time>2012-10-11T15:31:41Z</time>
      </trkpt>
      <trkpt lat="43.39055" lon="6.73182">
        <ele>9.6000003814697</ele>
        <time>2012-10-11T15:31:43Z</time>
      </trkpt>
      <trkpt lat="43.39059" lon="6.73182">
        <ele>9.6000003814697</ele>
        <time>2012-10-11T15:31:45Z</time>
      </trkpt>
      <trkpt lat="43.39061" lon="6.73183">
        <ele>9.6000003814697</ele>
        <time>2012-10-11T15:31:46Z</time>
      </trkpt>
      <trkpt lat="43.39066" lon="6.73188">
        <ele>9.6000003814697</ele>
        <time>2012-10-11T15:31:49Z</time>
      </trkpt>
      <trkpt lat="43.39073" lon="6.73191">
        <ele>9.6000003814697</ele>
        <time>2012-10-11T15:31:52Z</time>
      </trkpt>
      <trkpt lat="43.39078" lon="6.73189">
        <ele>9.6000003814697</ele>
        <time>2012-10-11T15:31:54Z</time>
      </trkpt>
      <trkpt lat="43.39086" lon="6.7319">
        <ele>9.6000003814697</ele>
        <time>2012-10-11T15:31:57Z</time>
      </trkpt>
      <trkpt lat="43.39096" lon="6.73182">
        <ele>9.1999998092651</ele>
        <time>2012-10-11T15:32:01Z</time>
      </trkpt>
      <trkpt lat="43.391" lon="6.73179">
        <ele>8.1999998092651</ele>
        <time>2012-10-11T15:32:02Z</time>
      </trkpt>
      <trkpt lat="43.39104" lon="6.73175">
        <ele>7.8000001907349</ele>
        <time>2012-10-11T15:32:03Z</time>
      </trkpt>
      <trkpt lat="43.39107" lon="6.73172">
        <ele>7.4000000953674</ele>
        <time>2012-10-11T15:32:04Z</time>
      </trkpt>
      <trkpt lat="43.39111" lon="6.73168">
        <ele>7.4000000953674</ele>
        <time>2012-10-11T15:32:05Z</time>
      </trkpt>
      <trkpt lat="43.39113" lon="6.73164">
        <ele>7.4000000953674</ele>
        <time>2012-10-11T15:32:06Z</time>
      </trkpt>
      <trkpt lat="43.39117" lon="6.73149">
        <ele>7.4000000953674</ele>
        <time>2012-10-11T15:32:10Z</time>
      </trkpt>
      <trkpt lat="43.39117" lon="6.73142">
        <ele>7.4000000953674</ele>
        <time>2012-10-11T15:32:12Z</time>
      </trkpt>
      <trkpt lat="43.39116" lon="6.73134">
        <ele>7.4000000953674</ele>
        <time>2012-10-11T15:32:14Z</time>
      </trkpt>
      <trkpt lat="43.39116" lon="6.73109">
        <ele>7.4000000953674</ele>
        <time>2012-10-11T15:32:20Z</time>
      </trkpt>
      <trkpt lat="43.39119" lon="6.7309">
        <ele>7.4000000953674</ele>
        <time>2012-10-11T15:32:24Z</time>
      </trkpt>
      <trkpt lat="43.39124" lon="6.73061">
        <ele>7.4000000953674</ele>
        <time>2012-10-11T15:32:30Z</time>
      </trkpt>
      <trkpt lat="43.39126" lon="6.73056">
        <ele>7.4000000953674</ele>
        <time>2012-10-11T15:32:31Z</time>
      </trkpt>
      <trkpt lat="43.39137" lon="6.73036">
        <ele>7.4000000953674</ele>
        <time>2012-10-11T15:32:34Z</time>
      </trkpt>
      <trkpt lat="43.3914" lon="6.73027">
        <ele>7.4000000953674</ele>
        <time>2012-10-11T15:32:35Z</time>
      </trkpt>
      <trkpt lat="43.39147" lon="6.7301">
        <ele>6.8000001907349</ele>
        <time>2012-10-11T15:32:37Z</time>
      </trkpt>
      <trkpt lat="43.3915" lon="6.73001">
        <ele>6.4000000953674</ele>
        <time>2012-10-11T15:32:38Z</time>
      </trkpt>
      <trkpt lat="43.39154" lon="6.72993">
        <ele>6</ele>
        <time>2012-10-11T15:32:39Z</time>
      </trkpt>
      <trkpt lat="43.39158" lon="6.72986">
        <ele>5.5999999046326</ele>
        <time>2012-10-11T15:32:40Z</time>
      </trkpt>
      <trkpt lat="43.39162" lon="6.72979">
        <ele>5.1999998092651</ele>
        <time>2012-10-11T15:32:41Z</time>
      </trkpt>
      <trkpt lat="43.39175" lon="6.7296">
        <ele>5.1999998092651</ele>
        <time>2012-10-11T15:32:44Z</time>
      </trkpt>
      <trkpt lat="43.39193" lon="6.72935">
        <ele>5.1999998092651</ele>
        <time>2012-10-11T15:32:49Z</time>
      </trkpt>
      <trkpt lat="43.39202" lon="6.72923">
        <ele>5.1999998092651</ele>
        <time>2012-10-11T15:32:53Z</time>
      </trkpt>
      <trkpt lat="43.39204" lon="6.72923">
        <ele>5.1999998092651</ele>
        <time>2012-10-11T15:32:54Z</time>
      </trkpt>
      <trkpt lat="43.39215" lon="6.72922">
        <ele>5.1999998092651</ele>
        <time>2012-10-11T15:32:58Z</time>
      </trkpt>
      <trkpt lat="43.39215" lon="6.72921">
        <ele>5.1999998092651</ele>
        <time>2012-10-11T15:33:01Z</time>
      </trkpt>
      <trkpt lat="43.39217" lon="6.72918">
        <ele>5.1999998092651</ele>
        <time>2012-10-11T15:33:12Z</time>
      </trkpt>
      <trkpt lat="43.39218" lon="6.72918">
        <ele>5.1999998092651</ele>
        <time>2012-10-11T15:33:13Z</time>
      </trkpt>
      <trkpt lat="43.39219" lon="6.72917">
        <ele>5.1999998092651</ele>
        <time>2012-10-11T15:33:17Z</time>
      </trkpt>
      <trkpt lat="43.39223" lon="6.72909">
        <ele>5.1999998092651</ele>
        <time>2012-10-11T15:33:22Z</time>
      </trkpt>
      <trkpt lat="43.3923" lon="6.72899">
        <ele>5.1999998092651</ele>
        <time>2012-10-11T15:33:28Z</time>
      </trkpt>
      <trkpt lat="43.39235" lon="6.72891">
        <ele>5.1999998092651</ele>
        <time>2012-10-11T15:33:35Z</time>
      </trkpt>
      <trkpt lat="43.3924" lon="6.72879">
        <ele>5.1999998092651</ele>
        <time>2012-10-11T15:33:44Z</time>
      </trkpt>
      <trkpt lat="43.39243" lon="6.72872">
        <ele>5.1999998092651</ele>
        <time>2012-10-11T15:33:50Z</time>
      </trkpt>
      <trkpt lat="43.39245" lon="6.72869">
        <ele>5.1999998092651</ele>
        <time>2012-10-11T15:33:52Z</time>
      </trkpt>
      <trkpt lat="43.39248" lon="6.72863">
        <ele>5.1999998092651</ele>
        <time>2012-10-11T15:33:57Z</time>
      </trkpt>
      <trkpt lat="43.39249" lon="6.72861">
        <ele>5.1999998092651</ele>
        <time>2012-10-11T15:33:59Z</time>
      </trkpt>
      <trkpt lat="43.39255" lon="6.72856">
        <ele>5.1999998092651</ele>
        <time>2012-10-11T15:34:05Z</time>
      </trkpt>
      <trkpt lat="43.39261" lon="6.72845">
        <ele>5.1999998092651</ele>
        <time>2012-10-11T15:34:13Z</time>
      </trkpt>
      <trkpt lat="43.39265" lon="6.72836">
        <ele>5.1999998092651</ele>
        <time>2012-10-11T15:34:20Z</time>
      </trkpt>
      <trkpt lat="43.39267" lon="6.72827">
        <ele>5.1999998092651</ele>
        <time>2012-10-11T15:34:25Z</time>
      </trkpt>
      <trkpt lat="43.39269" lon="6.72814">
        <ele>5.1999998092651</ele>
        <time>2012-10-11T15:34:33Z</time>
      </trkpt>
      <trkpt lat="43.39271" lon="6.72809">
        <ele>5.1999998092651</ele>
        <time>2012-10-11T15:34:37Z</time>
      </trkpt>
      <trkpt lat="43.39272" lon="6.72807">
        <ele>5.1999998092651</ele>
        <time>2012-10-11T15:34:38Z</time>
      </trkpt>
      <trkpt lat="43.39274" lon="6.72803">
        <ele>5.1999998092651</ele>
        <time>2012-10-11T15:34:41Z</time>
      </trkpt>
      <trkpt lat="43.39278" lon="6.728">
        <ele>5.1999998092651</ele>
        <time>2012-10-11T15:34:44Z</time>
      </trkpt>
      <trkpt lat="43.39282" lon="6.72794">
        <ele>5.1999998092651</ele>
        <time>2012-10-11T15:34:47Z</time>
      </trkpt>
      <trkpt lat="43.39287" lon="6.72785">
        <ele>5.1999998092651</ele>
        <time>2012-10-11T15:34:50Z</time>
      </trkpt>
      <trkpt lat="43.39303" lon="6.72767">
        <ele>5.1999998092651</ele>
        <time>2012-10-11T15:34:57Z</time>
      </trkpt>
      <trkpt lat="43.39305" lon="6.72766">
        <ele>5.1999998092651</ele>
        <time>2012-10-11T15:34:59Z</time>
      </trkpt>
      <trkpt lat="43.3931" lon="6.72765">
        <ele>5.1999998092651</ele>
        <time>2012-10-11T15:35:01Z</time>
      </trkpt>
      <trkpt lat="43.39317" lon="6.72768">
        <ele>5.1999998092651</ele>
        <time>2012-10-11T15:35:03Z</time>
      </trkpt>
      <trkpt lat="43.39323" lon="6.7277">
        <ele>5.1999998092651</ele>
        <time>2012-10-11T15:35:05Z</time>
      </trkpt>
      <trkpt lat="43.39347" lon="6.72779">
        <ele>5.1999998092651</ele>
        <time>2012-10-11T15:35:12Z</time>
      </trkpt>
      <trkpt lat="43.39364" lon="6.72785">
        <ele>5.1999998092651</ele>
        <time>2012-10-11T15:35:18Z</time>
      </trkpt>
      <trkpt lat="43.39377" lon="6.72783">
        <ele>5.1999998092651</ele>
        <time>2012-10-11T15:35:23Z</time>
      </trkpt>
      <trkpt lat="43.3939" lon="6.72783">
        <ele>5.1999998092651</ele>
        <time>2012-10-11T15:35:26Z</time>
      </trkpt>
      <trkpt lat="43.39394" lon="6.72784">
        <ele>5.1999998092651</ele>
        <time>2012-10-11T15:35:27Z</time>
      </trkpt>
      <trkpt lat="43.39413" lon="6.72791">
        <ele>5.1999998092651</ele>
        <time>2012-10-11T15:35:32Z</time>
      </trkpt>
      <trkpt lat="43.39424" lon="6.72794">
        <ele>5.1999998092651</ele>
        <time>2012-10-11T15:35:35Z</time>
      </trkpt>
      <trkpt lat="43.39435" lon="6.72798">
        <ele>5.1999998092651</ele>
        <time>2012-10-11T15:35:38Z</time>
      </trkpt>
      <trkpt lat="43.39455" lon="6.72806">
        <ele>5.1999998092651</ele>
        <time>2012-10-11T15:35:43Z</time>
      </trkpt>
      <trkpt lat="43.39474" lon="6.72813">
        <ele>5.1999998092651</ele>
        <time>2012-10-11T15:35:48Z</time>
      </trkpt>
      <trkpt lat="43.39501" lon="6.72822">
        <ele>5.1999998092651</ele>
        <time>2012-10-11T15:35:55Z</time>
      </trkpt>
      <trkpt lat="43.3953" lon="6.72833">
        <ele>5.1999998092651</ele>
        <time>2012-10-11T15:36:02Z</time>
      </trkpt>
      <trkpt lat="43.39554" lon="6.7284">
        <ele>5.1999998092651</ele>
        <time>2012-10-11T15:36:07Z</time>
      </trkpt>
      <trkpt lat="43.39558" lon="6.72842">
        <ele>5.1999998092651</ele>
        <time>2012-10-11T15:36:08Z</time>
      </trkpt>
      <trkpt lat="43.39585" lon="6.72851">
        <ele>5.1999998092651</ele>
        <time>2012-10-11T15:36:14Z</time>
      </trkpt>
      <trkpt lat="43.3959" lon="6.72853">
        <ele>5.1999998092651</ele>
        <time>2012-10-11T15:36:15Z</time>
      </trkpt>
      <trkpt lat="43.39615" lon="6.72862">
        <ele>5.1999998092651</ele>
        <time>2012-10-11T15:36:20Z</time>
      </trkpt>
      <trkpt lat="43.39645" lon="6.72873">
        <ele>5.1999998092651</ele>
        <time>2012-10-11T15:36:26Z</time>
      </trkpt>
      <trkpt lat="43.39656" lon="6.72877">
        <ele>5.1999998092651</ele>
        <time>2012-10-11T15:36:28Z</time>
      </trkpt>
      <trkpt lat="43.39699" lon="6.72893">
        <ele>5.1999998092651</ele>
        <time>2012-10-11T15:36:36Z</time>
      </trkpt>
      <trkpt lat="43.3974" lon="6.72907">
        <ele>5.1999998092651</ele>
        <time>2012-10-11T15:36:43Z</time>
      </trkpt>
      <trkpt lat="43.39797" lon="6.72929">
        <ele>5.1999998092651</ele>
        <time>2012-10-11T15:36:53Z</time>
      </trkpt>
      <trkpt lat="43.39844" lon="6.72945">
        <ele>5.1999998092651</ele>
        <time>2012-10-11T15:37:01Z</time>
      </trkpt>
      <trkpt lat="43.39883" lon="6.72959">
        <ele>5.1999998092651</ele>
        <time>2012-10-11T15:37:08Z</time>
      </trkpt>
      <trkpt lat="43.3993" lon="6.72972">
        <ele>5.1999998092651</ele>
        <time>2012-10-11T15:37:16Z</time>
      </trkpt>
      <trkpt lat="43.39987" lon="6.7298">
        <ele>5.1999998092651</ele>
        <time>2012-10-11T15:37:26Z</time>
      </trkpt>
      <trkpt lat="43.4004" lon="6.72983">
        <ele>5.1999998092651</ele>
        <time>2012-10-11T15:37:35Z</time>
      </trkpt>
      <trkpt lat="43.4008" lon="6.72985">
        <ele>5.1999998092651</ele>
        <time>2012-10-11T15:37:42Z</time>
      </trkpt>
      <trkpt lat="43.40121" lon="6.72989">
        <ele>5.1999998092651</ele>
        <time>2012-10-11T15:37:49Z</time>
      </trkpt>
      <trkpt lat="43.40169" lon="6.72991">
        <ele>5.1999998092651</ele>
        <time>2012-10-11T15:37:57Z</time>
      </trkpt>
      <trkpt lat="43.40212" lon="6.72991">
        <ele>5.1999998092651</ele>
        <time>2012-10-11T15:38:04Z</time>
      </trkpt>
      <trkpt lat="43.40259" lon="6.72983">
        <ele>5.1999998092651</ele>
        <time>2012-10-11T15:38:12Z</time>
      </trkpt>
      <trkpt lat="43.40294" lon="6.72973">
        <ele>5.1999998092651</ele>
        <time>2012-10-11T15:38:18Z</time>
      </trkpt>
      <trkpt lat="43.40306" lon="6.72969">
        <ele>5.1999998092651</ele>
        <time>2012-10-11T15:38:20Z</time>
      </trkpt>
      <trkpt lat="43.40323" lon="6.72964">
        <ele>5.1999998092651</ele>
        <time>2012-10-11T15:38:23Z</time>
      </trkpt>
      <trkpt lat="43.40339" lon="6.72955">
        <ele>5.1999998092651</ele>
        <time>2012-10-11T15:38:26Z</time>
      </trkpt>
      <trkpt lat="43.40384" lon="6.72927">
        <ele>5.1999998092651</ele>
        <time>2012-10-11T15:38:34Z</time>
      </trkpt>
      <trkpt lat="43.40417" lon="6.72905">
        <ele>5.1999998092651</ele>
        <time>2012-10-11T15:38:40Z</time>
      </trkpt>
      <trkpt lat="43.40456" lon="6.72868">
        <ele>5.1999998092651</ele>
        <time>2012-10-11T15:38:48Z</time>
      </trkpt>
      <trkpt lat="43.40495" lon="6.7283">
        <ele>5.1999998092651</ele>
        <time>2012-10-11T15:38:56Z</time>
      </trkpt>
      <trkpt lat="43.40515" lon="6.72811">
        <ele>5.1999998092651</ele>
        <time>2012-10-11T15:39:00Z</time>
      </trkpt>
      <trkpt lat="43.40524" lon="6.72802">
        <ele>5.1999998092651</ele>
        <time>2012-10-11T15:39:02Z</time>
      </trkpt>
      <trkpt lat="43.40562" lon="6.72765">
        <ele>5.1999998092651</ele>
        <time>2012-10-11T15:39:10Z</time>
      </trkpt>
      <trkpt lat="43.40592" lon="6.72735">
        <ele>5.1999998092651</ele>
        <time>2012-10-11T15:39:16Z</time>
      </trkpt>
      <trkpt lat="43.40626" lon="6.727">
        <ele>5.1999998092651</ele>
        <time>2012-10-11T15:39:23Z</time>
      </trkpt>
      <trkpt lat="43.40661" lon="6.72665">
        <ele>5.1999998092651</ele>
        <time>2012-10-11T15:39:30Z</time>
      </trkpt>
      <trkpt lat="43.40671" lon="6.72656">
        <ele>5.1999998092651</ele>
        <time>2012-10-11T15:39:32Z</time>
      </trkpt>
      <trkpt lat="43.40686" lon="6.72642">
        <ele>5.1999998092651</ele>
        <time>2012-10-11T15:39:35Z</time>
      </trkpt>
      <trkpt lat="43.40691" lon="6.72636">
        <ele>5.1999998092651</ele>
        <time>2012-10-11T15:39:36Z</time>
      </trkpt>
      <trkpt lat="43.40712" lon="6.72616">
        <ele>5.1999998092651</ele>
        <time>2012-10-11T15:39:40Z</time>
      </trkpt>
      <trkpt lat="43.40751" lon="6.72576">
        <ele>5.1999998092651</ele>
        <time>2012-10-11T15:39:48Z</time>
      </trkpt>
      <trkpt lat="43.40781" lon="6.72544">
        <ele>5.1999998092651</ele>
        <time>2012-10-11T15:39:54Z</time>
      </trkpt>
      <trkpt lat="43.40817" lon="6.72511">
        <ele>5.1999998092651</ele>
        <time>2012-10-11T15:40:01Z</time>
      </trkpt>
      <trkpt lat="43.40839" lon="6.72489">
        <ele>5.1999998092651</ele>
        <time>2012-10-11T15:40:06Z</time>
      </trkpt>
      <trkpt lat="43.40869" lon="6.72462">
        <ele>5.1999998092651</ele>
        <time>2012-10-11T15:40:13Z</time>
      </trkpt>
      <trkpt lat="43.40894" lon="6.72438">
        <ele>5.1999998092651</ele>
        <time>2012-10-11T15:40:19Z</time>
      </trkpt>
      <trkpt lat="43.40904" lon="6.72429">
        <ele>5.1999998092651</ele>
        <time>2012-10-11T15:40:21Z</time>
      </trkpt>
      <trkpt lat="43.40913" lon="6.72427">
        <ele>5.1999998092651</ele>
        <time>2012-10-11T15:40:23Z</time>
      </trkpt>
      <trkpt lat="43.40923" lon="6.72429">
        <ele>5.1999998092651</ele>
        <time>2012-10-11T15:40:25Z</time>
      </trkpt>
      <trkpt lat="43.40931" lon="6.72427">
        <ele>5.1999998092651</ele>
        <time>2012-10-11T15:40:27Z</time>
      </trkpt>
      <trkpt lat="43.40962" lon="6.72421">
        <ele>5.1999998092651</ele>
        <time>2012-10-11T15:40:33Z</time>
      </trkpt>
      <trkpt lat="43.41002" lon="6.72422">
        <ele>5.1999998092651</ele>
        <time>2012-10-11T15:40:40Z</time>
      </trkpt>
      <trkpt lat="43.41039" lon="6.72431">
        <ele>5.1999998092651</ele>
        <time>2012-10-11T15:40:47Z</time>
      </trkpt>
      <trkpt lat="43.41057" lon="6.72439">
        <ele>5.1999998092651</ele>
        <time>2012-10-11T15:40:51Z</time>
      </trkpt>
      <trkpt lat="43.41065" lon="6.72444">
        <ele>5.1999998092651</ele>
        <time>2012-10-11T15:40:53Z</time>
      </trkpt>
      <trkpt lat="43.41093" lon="6.72465">
        <ele>5.1999998092651</ele>
        <time>2012-10-11T15:41:00Z</time>
      </trkpt>
      <trkpt lat="43.41123" lon="6.72484">
        <ele>5.1999998092651</ele>
        <time>2012-10-11T15:41:07Z</time>
      </trkpt>
      <trkpt lat="43.4114" lon="6.72495">
        <ele>5.5999999046326</ele>
        <time>2012-10-11T15:41:11Z</time>
      </trkpt>
      <trkpt lat="43.41145" lon="6.72498">
        <ele>6</ele>
        <time>2012-10-11T15:41:12Z</time>
      </trkpt>
      <trkpt lat="43.41149" lon="6.72501">
        <ele>6.4000000953674</ele>
        <time>2012-10-11T15:41:13Z</time>
      </trkpt>
      <trkpt lat="43.41153" lon="6.72503">
        <ele>6.8000001907349</ele>
        <time>2012-10-11T15:41:14Z</time>
      </trkpt>
      <trkpt lat="43.41157" lon="6.72506">
        <ele>7.1999998092651</ele>
        <time>2012-10-11T15:41:15Z</time>
      </trkpt>
      <trkpt lat="43.41169" lon="6.72512">
        <ele>7.1999998092651</ele>
        <time>2012-10-11T15:41:18Z</time>
      </trkpt>
      <trkpt lat="43.41177" lon="6.72508">
        <ele>7.1999998092651</ele>
        <time>2012-10-11T15:41:20Z</time>
      </trkpt>
      <trkpt lat="43.41183" lon="6.72504">
        <ele>7.1999998092651</ele>
        <time>2012-10-11T15:41:22Z</time>
      </trkpt>
      <trkpt lat="43.41187" lon="6.72498">
        <ele>7.1999998092651</ele>
        <time>2012-10-11T15:41:24Z</time>
      </trkpt>
      <trkpt lat="43.41195" lon="6.72488">
        <ele>7.1999998092651</ele>
        <time>2012-10-11T15:41:28Z</time>
      </trkpt>
      <trkpt lat="43.41196" lon="6.72483">
        <ele>6.8000001907349</ele>
        <time>2012-10-11T15:41:29Z</time>
      </trkpt>
      <trkpt lat="43.41198" lon="6.72479">
        <ele>6.4000000953674</ele>
        <time>2012-10-11T15:41:30Z</time>
      </trkpt>
      <trkpt lat="43.412" lon="6.72476">
        <ele>5.4000000953674</ele>
        <time>2012-10-11T15:41:31Z</time>
      </trkpt>
      <trkpt lat="43.41203" lon="6.72473">
        <ele>5</ele>
        <time>2012-10-11T15:41:32Z</time>
      </trkpt>
      <trkpt lat="43.41206" lon="6.72472">
        <ele>5</ele>
        <time>2012-10-11T15:41:33Z</time>
      </trkpt>
      <trkpt lat="43.41213" lon="6.72474">
        <ele>5</ele>
        <time>2012-10-11T15:41:35Z</time>
      </trkpt>
      <trkpt lat="43.41217" lon="6.72475">
        <ele>5</ele>
        <time>2012-10-11T15:41:36Z</time>
      </trkpt>
      <trkpt lat="43.41241" lon="6.72475">
        <ele>5</ele>
        <time>2012-10-11T15:41:42Z</time>
      </trkpt>
      <trkpt lat="43.41246" lon="6.72475">
        <ele>5</ele>
        <time>2012-10-11T15:41:43Z</time>
      </trkpt>
      <trkpt lat="43.41255" lon="6.72474">
        <ele>5</ele>
        <time>2012-10-11T15:41:45Z</time>
      </trkpt>
      <trkpt lat="43.41271" lon="6.72474">
        <ele>5</ele>
        <time>2012-10-11T15:41:48Z</time>
      </trkpt>
      <trkpt lat="43.4128" lon="6.72471">
        <ele>5</ele>
        <time>2012-10-11T15:41:50Z</time>
      </trkpt>
      <trkpt lat="43.41288" lon="6.72466">
        <ele>5</ele>
        <time>2012-10-11T15:41:52Z</time>
      </trkpt>
      <trkpt lat="43.41297" lon="6.72461">
        <ele>5</ele>
        <time>2012-10-11T15:41:54Z</time>
      </trkpt>
      <trkpt lat="43.41306" lon="6.72457">
        <ele>5</ele>
        <time>2012-10-11T15:41:56Z</time>
      </trkpt>
      <trkpt lat="43.41316" lon="6.72455">
        <ele>5</ele>
        <time>2012-10-11T15:41:58Z</time>
      </trkpt>
      <trkpt lat="43.4133" lon="6.72452">
        <ele>5</ele>
        <time>2012-10-11T15:42:01Z</time>
      </trkpt>
      <trkpt lat="43.4134" lon="6.72454">
        <ele>5</ele>
        <time>2012-10-11T15:42:03Z</time>
      </trkpt>
      <trkpt lat="43.41354" lon="6.72462">
        <ele>5</ele>
        <time>2012-10-11T15:42:06Z</time>
      </trkpt>
      <trkpt lat="43.41363" lon="6.72469">
        <ele>5</ele>
        <time>2012-10-11T15:42:08Z</time>
      </trkpt>
      <trkpt lat="43.41367" lon="6.72473">
        <ele>5</ele>
        <time>2012-10-11T15:42:09Z</time>
      </trkpt>
      <trkpt lat="43.41387" lon="6.72498">
        <ele>5</ele>
        <time>2012-10-11T15:42:14Z</time>
      </trkpt>
      <trkpt lat="43.41404" lon="6.72524">
        <ele>5</ele>
        <time>2012-10-11T15:42:19Z</time>
      </trkpt>
      <trkpt lat="43.41408" lon="6.72536">
        <ele>5</ele>
        <time>2012-10-11T15:42:21Z</time>
      </trkpt>
      <trkpt lat="43.41411" lon="6.72549">
        <ele>5</ele>
        <time>2012-10-11T15:42:23Z</time>
      </trkpt>
      <trkpt lat="43.41419" lon="6.72566">
        <ele>5</ele>
        <time>2012-10-11T15:42:26Z</time>
      </trkpt>
      <trkpt lat="43.41422" lon="6.72571">
        <ele>5</ele>
        <time>2012-10-11T15:42:27Z</time>
      </trkpt>
      <trkpt lat="43.41434" lon="6.72593">
        <ele>5</ele>
        <time>2012-10-11T15:42:31Z</time>
      </trkpt>
      <trkpt lat="43.41436" lon="6.72599">
        <ele>5</ele>
        <time>2012-10-11T15:42:32Z</time>
      </trkpt>
      <trkpt lat="43.41446" lon="6.72617">
        <ele>5</ele>
        <time>2012-10-11T15:42:36Z</time>
      </trkpt>
      <trkpt lat="43.4145" lon="6.72621">
        <ele>5</ele>
        <time>2012-10-11T15:42:37Z</time>
      </trkpt>
      <trkpt lat="43.41454" lon="6.72622">
        <ele>5</ele>
        <time>2012-10-11T15:42:38Z</time>
      </trkpt>
      <trkpt lat="43.41463" lon="6.72628">
        <ele>5</ele>
        <time>2012-10-11T15:42:40Z</time>
      </trkpt>
      <trkpt lat="43.41484" lon="6.72639">
        <ele>5</ele>
        <time>2012-10-11T15:42:45Z</time>
      </trkpt>
      <trkpt lat="43.41501" lon="6.72649">
        <ele>5</ele>
        <time>2012-10-11T15:42:49Z</time>
      </trkpt>
      <trkpt lat="43.41515" lon="6.72653">
        <ele>5</ele>
        <time>2012-10-11T15:42:52Z</time>
      </trkpt>
      <trkpt lat="43.41536" lon="6.72661">
        <ele>5</ele>
        <time>2012-10-11T15:42:57Z</time>
      </trkpt>
      <trkpt lat="43.41531" lon="6.72668">
        <ele>5</ele>
        <time>2012-10-11T15:43:00Z</time>
      </trkpt>
      <trkpt lat="43.41526" lon="6.72675">
        <ele>5</ele>
        <time>2012-10-11T15:43:02Z</time>
      </trkpt>
      <trkpt lat="43.41522" lon="6.72682">
        <ele>5.4000000953674</ele>
        <time>2012-10-11T15:43:04Z</time>
      </trkpt>
      <trkpt lat="43.4152" lon="6.72683">
        <ele>5.8000001907349</ele>
        <time>2012-10-11T15:43:05Z</time>
      </trkpt>
      <trkpt lat="43.41519" lon="6.72685">
        <ele>6.4000000953674</ele>
        <time>2012-10-11T15:43:06Z</time>
      </trkpt>
      <trkpt lat="43.41518" lon="6.72688">
        <ele>6.8000001907349</ele>
        <time>2012-10-11T15:43:07Z</time>
      </trkpt>
      <trkpt lat="43.4152" lon="6.7269">
        <ele>7.1999998092651</ele>
        <time>2012-10-11T15:43:08Z</time>
      </trkpt>
      <trkpt lat="43.41522" lon="6.72692">
        <ele>7.1999998092651</ele>
        <time>2012-10-11T15:43:09Z</time>
      </trkpt>
      <trkpt lat="43.41537" lon="6.72699">
        <ele>7.1999998092651</ele>
        <time>2012-10-11T15:43:13Z</time>
      </trkpt>
      <trkpt lat="43.4154" lon="6.72701">
        <ele>7.1999998092651</ele>
        <time>2012-10-11T15:43:14Z</time>
      </trkpt>
      <trkpt lat="43.41568" lon="6.72709">
        <ele>7.1999998092651</ele>
        <time>2012-10-11T15:43:21Z</time>
      </trkpt>
      <trkpt lat="43.41578" lon="6.72694">
        <ele>7.1999998092651</ele>
        <time>2012-10-11T15:43:25Z</time>
      </trkpt>
      <trkpt lat="43.41581" lon="6.72691">
        <ele>7.1999998092651</ele>
        <time>2012-10-11T15:43:26Z</time>
      </trkpt>
      <trkpt lat="43.41584" lon="6.72692">
        <ele>7.1999998092651</ele>
        <time>2012-10-11T15:43:27Z</time>
      </trkpt>
      <trkpt lat="43.41585" lon="6.72695">
        <ele>7.1999998092651</ele>
        <time>2012-10-11T15:43:28Z</time>
      </trkpt>
      <trkpt lat="43.41578" lon="6.72703">
        <ele>7.1999998092651</ele>
        <time>2012-10-11T15:43:31Z</time>
      </trkpt>
      <trkpt lat="43.41577" lon="6.72707">
        <ele>6.8000001907349</ele>
        <time>2012-10-11T15:43:32Z</time>
      </trkpt>
      <trkpt lat="43.41575" lon="6.72711">
        <ele>6</ele>
        <time>2012-10-11T15:43:33Z</time>
      </trkpt>
      <trkpt lat="43.41572" lon="6.72715">
        <ele>5.5999999046326</ele>
        <time>2012-10-11T15:43:34Z</time>
      </trkpt>
      <trkpt lat="43.4157" lon="6.72719">
        <ele>5.1999998092651</ele>
        <time>2012-10-11T15:43:35Z</time>
      </trkpt>
      <trkpt lat="43.41567" lon="6.72733">
        <ele>5.1999998092651</ele>
        <time>2012-10-11T15:43:38Z</time>
      </trkpt>
      <trkpt lat="43.41567" lon="6.72738">
        <ele>5.1999998092651</ele>
        <time>2012-10-11T15:43:39Z</time>
      </trkpt>
      <trkpt lat="43.41556" lon="6.72754">
        <ele>5.1999998092651</ele>
        <time>2012-10-11T15:43:43Z</time>
      </trkpt>
      <trkpt lat="43.41536" lon="6.72782">
        <ele>5.1999998092651</ele>
        <time>2012-10-11T15:43:50Z</time>
      </trkpt>
      <trkpt lat="43.41525" lon="6.72797">
        <ele>5.1999998092651</ele>
        <time>2012-10-11T15:43:55Z</time>
      </trkpt>
      <trkpt lat="43.4153" lon="6.72801">
        <ele>5.1999998092651</ele>
        <time>2012-10-11T15:43:59Z</time>
      </trkpt>
      <trkpt lat="43.41547" lon="6.72797">
        <ele>5.1999998092651</ele>
        <time>2012-10-11T15:44:04Z</time>
      </trkpt>
      <trkpt lat="43.41562" lon="6.72801">
        <ele>5.1999998092651</ele>
        <time>2012-10-11T15:44:08Z</time>
      </trkpt>
      <trkpt lat="43.41558" lon="6.7281">
        <ele>5.1999998092651</ele>
        <time>2012-10-11T15:44:11Z</time>
      </trkpt>
      <trkpt lat="43.41563" lon="6.72825">
        <ele>5.1999998092651</ele>
        <time>2012-10-11T15:44:15Z</time>
      </trkpt>
      <trkpt lat="43.41574" lon="6.72825">
        <ele>5.1999998092651</ele>
        <time>2012-10-11T15:44:18Z</time>
      </trkpt>
      <trkpt lat="43.41578" lon="6.72823">
        <ele>5.1999998092651</ele>
        <time>2012-10-11T15:44:19Z</time>
      </trkpt>
      <trkpt lat="43.41582" lon="6.72819">
        <ele>5.1999998092651</ele>
        <time>2012-10-11T15:44:20Z</time>
      </trkpt>
      <trkpt lat="43.416" lon="6.72809">
        <ele>5.1999998092651</ele>
        <time>2012-10-11T15:44:24Z</time>
      </trkpt>
      <trkpt lat="43.41605" lon="6.72809">
        <ele>5.1999998092651</ele>
        <time>2012-10-11T15:44:25Z</time>
      </trkpt>
      <trkpt lat="43.41622" lon="6.72809">
        <ele>5.1999998092651</ele>
        <time>2012-10-11T15:44:29Z</time>
      </trkpt>
      <trkpt lat="43.4164" lon="6.72813">
        <ele>5.1999998092651</ele>
        <time>2012-10-11T15:44:33Z</time>
      </trkpt>
      <trkpt lat="43.41648" lon="6.72815">
        <ele>5.1999998092651</ele>
        <time>2012-10-11T15:44:35Z</time>
      </trkpt>
      <trkpt lat="43.41671" lon="6.72821">
        <ele>5.1999998092651</ele>
        <time>2012-10-11T15:44:40Z</time>
      </trkpt>
      <trkpt lat="43.41676" lon="6.72824">
        <ele>5.1999998092651</ele>
        <time>2012-10-11T15:44:41Z</time>
      </trkpt>
      <trkpt lat="43.41683" lon="6.72842">
        <ele>5.1999998092651</ele>
        <time>2012-10-11T15:44:45Z</time>
      </trkpt>
      <trkpt lat="43.41676" lon="6.72848">
        <ele>5.1999998092651</ele>
        <time>2012-10-11T15:44:47Z</time>
      </trkpt>
      <trkpt lat="43.4166" lon="6.72856">
        <ele>5.1999998092651</ele>
        <time>2012-10-11T15:44:51Z</time>
      </trkpt>
      <trkpt lat="43.41646" lon="6.72862">
        <ele>5.1999998092651</ele>
        <time>2012-10-11T15:44:54Z</time>
      </trkpt>
      <trkpt lat="43.41639" lon="6.72864">
        <ele>5.1999998092651</ele>
        <time>2012-10-11T15:44:55Z</time>
      </trkpt>
      <trkpt lat="43.41623" lon="6.72871">
        <ele>5.1999998092651</ele>
        <time>2012-10-11T15:44:58Z</time>
      </trkpt>
      <trkpt lat="43.41618" lon="6.72873">
        <ele>5.1999998092651</ele>
        <time>2012-10-11T15:44:59Z</time>
      </trkpt>
      <trkpt lat="43.4161" lon="6.72878">
        <ele>5.1999998092651</ele>
        <time>2012-10-11T15:45:01Z</time>
      </trkpt>
      <trkpt lat="43.41602" lon="6.72883">
        <ele>5.1999998092651</ele>
        <time>2012-10-11T15:45:03Z</time>
      </trkpt>
      <trkpt lat="43.41587" lon="6.72895">
        <ele>5.1999998092651</ele>
        <time>2012-10-11T15:45:08Z</time>
      </trkpt>
      <trkpt lat="43.41577" lon="6.72909">
        <ele>5.1999998092651</ele>
        <time>2012-10-11T15:45:12Z</time>
      </trkpt>
      <trkpt lat="43.41586" lon="6.72924">
        <ele>4.5999999046326</ele>
        <time>2012-10-11T15:45:15Z</time>
      </trkpt>
      <trkpt lat="43.41584" lon="6.72929">
        <ele>4.1999998092651</ele>
        <time>2012-10-11T15:45:16Z</time>
      </trkpt>
      <trkpt lat="43.41581" lon="6.72934">
        <ele>3.7999999523163</ele>
        <time>2012-10-11T15:45:17Z</time>
      </trkpt>
      <trkpt lat="43.41578" lon="6.72941">
        <ele>3.4000000953674</ele>
        <time>2012-10-11T15:45:18Z</time>
      </trkpt>
      <trkpt lat="43.41576" lon="6.72946">
        <ele>3</ele>
        <time>2012-10-11T15:45:19Z</time>
      </trkpt>
      <trkpt lat="43.4157" lon="6.72953">
        <ele>3</ele>
        <time>2012-10-11T15:45:21Z</time>
      </trkpt>
      <trkpt lat="43.41565" lon="6.72955">
        <ele>3</ele>
        <time>2012-10-11T15:45:22Z</time>
      </trkpt>
      <trkpt lat="43.41556" lon="6.72956">
        <ele>3</ele>
        <time>2012-10-11T15:45:24Z</time>
      </trkpt>
      <trkpt lat="43.41548" lon="6.72969">
        <ele>3</ele>
        <time>2012-10-11T15:45:27Z</time>
      </trkpt>
      <trkpt lat="43.4154" lon="6.72976">
        <ele>3</ele>
        <time>2012-10-11T15:45:29Z</time>
      </trkpt>
      <trkpt lat="43.41535" lon="6.72977">
        <ele>3</ele>
        <time>2012-10-11T15:45:30Z</time>
      </trkpt>
      <trkpt lat="43.4153" lon="6.72976">
        <ele>3</ele>
        <time>2012-10-11T15:45:31Z</time>
      </trkpt>
      <trkpt lat="43.41515" lon="6.72975">
        <ele>3</ele>
        <time>2012-10-11T15:45:34Z</time>
      </trkpt>
      <trkpt lat="43.41508" lon="6.72972">
        <ele>3</ele>
        <time>2012-10-11T15:45:36Z</time>
      </trkpt>
      <trkpt lat="43.415" lon="6.72976">
        <ele>3</ele>
        <time>2012-10-11T15:45:38Z</time>
      </trkpt>
      <trkpt lat="43.41497" lon="6.72982">
        <ele>3</ele>
        <time>2012-10-11T15:45:39Z</time>
      </trkpt>
      <trkpt lat="43.41496" lon="6.72997">
        <ele>3</ele>
        <time>2012-10-11T15:45:42Z</time>
      </trkpt>
      <trkpt lat="43.41495" lon="6.73023">
        <ele>3</ele>
        <time>2012-10-11T15:45:46Z</time>
      </trkpt>
      <trkpt lat="43.41492" lon="6.73029">
        <ele>3</ele>
        <time>2012-10-11T15:45:47Z</time>
      </trkpt>
      <trkpt lat="43.41486" lon="6.73038">
        <ele>3</ele>
        <time>2012-10-11T15:45:49Z</time>
      </trkpt>
      <trkpt lat="43.41474" lon="6.7304">
        <ele>3</ele>
        <time>2012-10-11T15:45:52Z</time>
      </trkpt>
      <trkpt lat="43.41456" lon="6.73036">
        <ele>3</ele>
        <time>2012-10-11T15:45:57Z</time>
      </trkpt>
      <trkpt lat="43.41441" lon="6.73036">
        <ele>3</ele>
        <time>2012-10-11T15:46:01Z</time>
      </trkpt>
      <trkpt lat="43.41439" lon="6.73041">
        <ele>3</ele>
        <time>2012-10-11T15:46:02Z</time>
      </trkpt>
      <trkpt lat="43.41431" lon="6.7307">
        <ele>3</ele>
        <time>2012-10-11T15:46:07Z</time>
      </trkpt>
      <trkpt lat="43.4143" lon="6.73076">
        <ele>3</ele>
        <time>2012-10-11T15:46:08Z</time>
      </trkpt>
      <trkpt lat="43.41426" lon="6.73108">
        <ele>3</ele>
        <time>2012-10-11T15:46:13Z</time>
      </trkpt>
      <trkpt lat="43.41428" lon="6.73115">
        <ele>3</ele>
        <time>2012-10-11T15:46:14Z</time>
      </trkpt>
      <trkpt lat="43.41437" lon="6.7313">
        <ele>3</ele>
        <time>2012-10-11T15:46:17Z</time>
      </trkpt>
      <trkpt lat="43.41451" lon="6.73131">
        <ele>3</ele>
        <time>2012-10-11T15:46:20Z</time>
      </trkpt>
      <trkpt lat="43.4146" lon="6.73142">
        <ele>3</ele>
        <time>2012-10-11T15:46:23Z</time>
      </trkpt>
      <trkpt lat="43.41455" lon="6.73157">
        <ele>3</ele>
        <time>2012-10-11T15:46:26Z</time>
      </trkpt>
      <trkpt lat="43.41444" lon="6.73158">
        <ele>3</ele>
        <time>2012-10-11T15:46:29Z</time>
      </trkpt>
      <trkpt lat="43.41439" lon="6.73165">
        <ele>3</ele>
        <time>2012-10-11T15:46:32Z</time>
      </trkpt>
      <trkpt lat="43.41445" lon="6.73174">
        <ele>3</ele>
        <time>2012-10-11T15:46:34Z</time>
      </trkpt>
      <trkpt lat="43.41447" lon="6.7318">
        <ele>3</ele>
        <time>2012-10-11T15:46:35Z</time>
      </trkpt>
      <trkpt lat="43.4145" lon="6.73192">
        <ele>3</ele>
        <time>2012-10-11T15:46:37Z</time>
      </trkpt>
      <trkpt lat="43.41448" lon="6.73205">
        <ele>3</ele>
        <time>2012-10-11T15:46:39Z</time>
      </trkpt>
      <trkpt lat="43.41435" lon="6.73219">
        <ele>3</ele>
        <time>2012-10-11T15:46:43Z</time>
      </trkpt>
      <trkpt lat="43.41424" lon="6.73225">
        <ele>3</ele>
        <time>2012-10-11T15:46:46Z</time>
      </trkpt>
      <trkpt lat="43.41417" lon="6.73228">
        <ele>3</ele>
        <time>2012-10-11T15:46:48Z</time>
      </trkpt>
      <trkpt lat="43.41401" lon="6.73232">
        <ele>3</ele>
        <time>2012-10-11T15:46:52Z</time>
      </trkpt>
      <trkpt lat="43.414" lon="6.73236">
        <ele>3</ele>
        <time>2012-10-11T15:46:53Z</time>
      </trkpt>
      <trkpt lat="43.41398" lon="6.73251">
        <ele>3</ele>
        <time>2012-10-11T15:46:56Z</time>
      </trkpt>
      <trkpt lat="43.41396" lon="6.73262">
        <ele>3</ele>
        <time>2012-10-11T15:46:58Z</time>
      </trkpt>
      <trkpt lat="43.41392" lon="6.73286">
        <ele>3</ele>
        <time>2012-10-11T15:47:02Z</time>
      </trkpt>
      <trkpt lat="43.41392" lon="6.73292">
        <ele>3</ele>
        <time>2012-10-11T15:47:03Z</time>
      </trkpt>
      <trkpt lat="43.41391" lon="6.73314">
        <ele>3</ele>
        <time>2012-10-11T15:47:07Z</time>
      </trkpt>
      <trkpt lat="43.41392" lon="6.7332">
        <ele>3</ele>
        <time>2012-10-11T15:47:08Z</time>
      </trkpt>
      <trkpt lat="43.41393" lon="6.73331">
        <ele>3</ele>
        <time>2012-10-11T15:47:10Z</time>
      </trkpt>
      <trkpt lat="43.41391" lon="6.73346">
        <ele>3</ele>
        <time>2012-10-11T15:47:13Z</time>
      </trkpt>
      <trkpt lat="43.41395" lon="6.73374">
        <ele>3</ele>
        <time>2012-10-11T15:47:18Z</time>
      </trkpt>
      <trkpt lat="43.41397" lon="6.7338">
        <ele>3</ele>
        <time>2012-10-11T15:47:19Z</time>
      </trkpt>
      <trkpt lat="43.41411" lon="6.73415">
        <ele>3</ele>
        <time>2012-10-11T15:47:25Z</time>
      </trkpt>
      <trkpt lat="43.41426" lon="6.73456">
        <ele>3</ele>
        <time>2012-10-11T15:47:32Z</time>
      </trkpt>
      <trkpt lat="43.41439" lon="6.73465">
        <ele>3</ele>
        <time>2012-10-11T15:47:35Z</time>
      </trkpt>
      <trkpt lat="43.41444" lon="6.73466">
        <ele>3</ele>
        <time>2012-10-11T15:47:36Z</time>
      </trkpt>
      <trkpt lat="43.41475" lon="6.73473">
        <ele>3</ele>
        <time>2012-10-11T15:47:42Z</time>
      </trkpt>
      <trkpt lat="43.41486" lon="6.73475">
        <ele>3</ele>
        <time>2012-10-11T15:47:44Z</time>
      </trkpt>
      <trkpt lat="43.41507" lon="6.7348">
        <ele>3</ele>
        <time>2012-10-11T15:47:48Z</time>
      </trkpt>
      <trkpt lat="43.41512" lon="6.73481">
        <ele>3</ele>
        <time>2012-10-11T15:47:49Z</time>
      </trkpt>
      <trkpt lat="43.41537" lon="6.73488">
        <ele>3</ele>
        <time>2012-10-11T15:47:54Z</time>
      </trkpt>
      <trkpt lat="43.41543" lon="6.73488">
        <ele>3</ele>
        <time>2012-10-11T15:47:55Z</time>
      </trkpt>
      <trkpt lat="43.41568" lon="6.73494">
        <ele>3</ele>
        <time>2012-10-11T15:48:00Z</time>
      </trkpt>
      <trkpt lat="43.41592" lon="6.735">
        <ele>3</ele>
        <time>2012-10-11T15:48:05Z</time>
      </trkpt>
      <trkpt lat="43.41596" lon="6.73502">
        <ele>3</ele>
        <time>2012-10-11T15:48:06Z</time>
      </trkpt>
      <trkpt lat="43.41599" lon="6.73517">
        <ele>3</ele>
        <time>2012-10-11T15:48:09Z</time>
      </trkpt>
      <trkpt lat="43.41597" lon="6.73527">
        <ele>3</ele>
        <time>2012-10-11T15:48:11Z</time>
      </trkpt>
      <trkpt lat="43.41594" lon="6.73542">
        <ele>3</ele>
        <time>2012-10-11T15:48:14Z</time>
      </trkpt>
      <trkpt lat="43.41594" lon="6.73564">
        <ele>3</ele>
        <time>2012-10-11T15:48:18Z</time>
      </trkpt>
      <trkpt lat="43.41595" lon="6.7357">
        <ele>3</ele>
        <time>2012-10-11T15:48:19Z</time>
      </trkpt>
      <trkpt lat="43.41596" lon="6.73576">
        <ele>3</ele>
        <time>2012-10-11T15:48:20Z</time>
      </trkpt>
      <trkpt lat="43.41605" lon="6.73598">
        <ele>3</ele>
        <time>2012-10-11T15:48:24Z</time>
      </trkpt>
      <trkpt lat="43.41632" lon="6.73646">
        <ele>3</ele>
        <time>2012-10-11T15:48:33Z</time>
      </trkpt>
      <trkpt lat="43.41639" lon="6.73655">
        <ele>3</ele>
        <time>2012-10-11T15:48:35Z</time>
      </trkpt>
      <trkpt lat="43.41645" lon="6.73665">
        <ele>3</ele>
        <time>2012-10-11T15:48:37Z</time>
      </trkpt>
      <trkpt lat="43.41646" lon="6.73671">
        <ele>3</ele>
        <time>2012-10-11T15:48:38Z</time>
      </trkpt>
      <trkpt lat="43.41639" lon="6.73682">
        <ele>3</ele>
        <time>2012-10-11T15:48:40Z</time>
      </trkpt>
      <trkpt lat="43.41631" lon="6.7369">
        <ele>3</ele>
        <time>2012-10-11T15:48:42Z</time>
      </trkpt>
      <trkpt lat="43.41623" lon="6.737">
        <ele>3</ele>
        <time>2012-10-11T15:48:44Z</time>
      </trkpt>
      <trkpt lat="43.416" lon="6.73734">
        <ele>3</ele>
        <time>2012-10-11T15:48:51Z</time>
      </trkpt>
      <trkpt lat="43.41578" lon="6.73766">
        <ele>3</ele>
        <time>2012-10-11T15:48:58Z</time>
      </trkpt>
      <trkpt lat="43.41553" lon="6.73804">
        <ele>3</ele>
        <time>2012-10-11T15:49:06Z</time>
      </trkpt>
      <trkpt lat="43.41549" lon="6.73814">
        <ele>3</ele>
        <time>2012-10-11T15:49:08Z</time>
      </trkpt>
      <trkpt lat="43.41553" lon="6.73825">
        <ele>3</ele>
        <time>2012-10-11T15:49:10Z</time>
      </trkpt>
      <trkpt lat="43.41566" lon="6.73833">
        <ele>3</ele>
        <time>2012-10-11T15:49:13Z</time>
      </trkpt>
      <trkpt lat="43.41594" lon="6.73852">
        <ele>3</ele>
        <time>2012-10-11T15:49:21Z</time>
      </trkpt>
      <trkpt lat="43.41605" lon="6.73857">
        <ele>3</ele>
        <time>2012-10-11T15:49:26Z</time>
      </trkpt>
      <trkpt lat="43.41608" lon="6.73864">
        <ele>3</ele>
        <time>2012-10-11T15:49:29Z</time>
      </trkpt>
      <trkpt lat="43.41608" lon="6.7387">
        <ele>3</ele>
        <time>2012-10-11T15:49:31Z</time>
      </trkpt>
      <trkpt lat="43.41611" lon="6.73885">
        <ele>3</ele>
        <time>2012-10-11T15:49:36Z</time>
      </trkpt>
      <trkpt lat="43.41613" lon="6.73886">
        <ele>3</ele>
        <time>2012-10-11T15:49:37Z</time>
      </trkpt>
      <trkpt lat="43.41622" lon="6.73887">
        <ele>3</ele>
        <time>2012-10-11T15:49:40Z</time>
      </trkpt>
      <trkpt lat="43.41625" lon="6.73886">
        <ele>3</ele>
        <time>2012-10-11T15:49:41Z</time>
      </trkpt>
      <trkpt lat="43.4163" lon="6.73887">
        <ele>3</ele>
        <time>2012-10-11T15:49:43Z</time>
      </trkpt>
      <trkpt lat="43.41635" lon="6.73884">
        <ele>3</ele>
        <time>2012-10-11T15:49:45Z</time>
      </trkpt>
      <trkpt lat="43.41636" lon="6.73869">
        <ele>3</ele>
        <time>2012-10-11T15:49:49Z</time>
      </trkpt>
      <trkpt lat="43.41629" lon="6.73866">
        <ele>3</ele>
        <time>2012-10-11T15:49:53Z</time>
      </trkpt>
      <trkpt lat="43.41629" lon="6.73867">
        <ele>3</ele>
        <time>2012-10-11T15:49:55Z</time>
      </trkpt>
      <trkpt lat="43.4163" lon="6.73867">
        <ele>3</ele>
        <time>2012-10-11T15:50:40Z</time>
      </trkpt>
      <trkpt lat="43.41631" lon="6.73867">
        <ele>3</ele>
        <time>2012-10-11T15:50:41Z</time>
      </trkpt>
      <trkpt lat="43.41633" lon="6.73871">
        <ele>3</ele>
        <time>2012-10-11T15:50:44Z</time>
      </trkpt>
      <trkpt lat="43.41637" lon="6.73874">
        <ele>3</ele>
        <time>2012-10-11T15:50:50Z</time>
      </trkpt>
    </trkseg>
  </trk>
</gpx>